<?xml version='1.0' encoding='UTF-8'?><gpx version="1.1" creator="JPX - https://github.com/jenetics/jpx" xmlns="http://www.topografix.com/GPX/1/1"><trk><trkseg><trkpt lat="43.4792867" lon="11.6185733"><ele>233.00000000000003</ele><time>2026-04-17T08:08:18.116Z</time></trkpt><trkpt lat="43.4793269" lon="11.6184794"><ele>233.0</ele><time>2026-04-17T08:08:22.168Z</time></trkpt><trkpt lat="43.4793544" lon="11.6184001"><ele>233.0</ele><time>2026-04-17T08:08:26.138Z</time></trkpt><trkpt lat="43.479295" lon="11.6183667"><ele>233.0</ele><time>2026-04-17T08:11:18.136Z</time></trkpt><trkpt lat="43.479205" lon="11.6182967"><ele>233.00000000000003</ele><time>2026-04-17T08:12:21.139Z</time></trkpt><trkpt lat="43.4791367" lon="11.6182283"><ele>233.0</ele><time>2026-04-17T08:12:23.136Z</time></trkpt><trkpt lat="43.479075" lon="11.6181683"><ele>233.00000000000003</ele><time>2026-04-17T08:12:25.136Z</time></trkpt><trkpt lat="43.4790133" lon="11.61809"><ele>233.0</ele><time>2026-04-17T08:12:27.136Z</time></trkpt><trkpt lat="43.4789483" lon="11.6179967"><ele>233.0</ele><time>2026-04-17T08:12:29.136Z</time></trkpt><trkpt lat="43.4789017" lon="11.617885"><ele>233.0</ele><time>2026-04-17T08:12:31.136Z</time></trkpt><trkpt lat="43.4788633" lon="11.6177783"><ele>233.00000000000003</ele><time>2026-04-17T08:12:33.137Z</time></trkpt><trkpt lat="43.4788217" lon="11.61769"><ele>233.0</ele><time>2026-04-17T08:12:35.135Z</time></trkpt><trkpt lat="43.47879" lon="11.617615"><ele>233.16666666666669</ele><time>2026-04-17T08:12:38.137Z</time></trkpt><trkpt lat="43.478795" lon="11.617495"><ele>233.33333333333334</ele><time>2026-04-17T08:12:41.135Z</time></trkpt><trkpt lat="43.4788383" lon="11.617385"><ele>233.5</ele><time>2026-04-17T08:12:43.136Z</time></trkpt><trkpt lat="43.4788833" lon="11.6173083"><ele>233.66666666666669</ele><time>2026-04-17T08:12:44.135Z</time></trkpt><trkpt lat="43.4789417" lon="11.6172133"><ele>233.83333333333334</ele><time>2026-04-17T08:12:45.136Z</time></trkpt><trkpt lat="43.4789917" lon="11.617115"><ele>234.0</ele><time>2026-04-17T08:12:46.136Z</time></trkpt><trkpt lat="43.4790417" lon="11.61702"><ele>235.6</ele><time>2026-04-17T08:12:47.135Z</time></trkpt><trkpt lat="43.479085" lon="11.6169033"><ele>237.2</ele><time>2026-04-17T08:12:48.136Z</time></trkpt><trkpt lat="43.479125" lon="11.61678"><ele>238.79999999999998</ele><time>2026-04-17T08:12:49.135Z</time></trkpt><trkpt lat="43.4791633" lon="11.6166567"><ele>240.39999999999998</ele><time>2026-04-17T08:12:50.136Z</time></trkpt><trkpt lat="43.4792" lon="11.6165467"><ele>242.0</ele><time>2026-04-17T08:12:51.137Z</time></trkpt><trkpt lat="43.4792333" lon="11.6164517"><ele>242.00000000000003</ele><time>2026-04-17T08:12:52.136Z</time></trkpt><trkpt lat="43.479255" lon="11.6163583"><ele>242.0</ele><time>2026-04-17T08:12:53.136Z</time></trkpt><trkpt lat="43.4792617" lon="11.61627"><ele>242.0</ele><time>2026-04-17T08:12:54.136Z</time></trkpt><trkpt lat="43.4792417" lon="11.6161067"><ele>242.0</ele><time>2026-04-17T08:12:56.137Z</time></trkpt><trkpt lat="43.4792083" lon="11.6160267"><ele>242.00000000000003</ele><time>2026-04-17T08:12:57.136Z</time></trkpt><trkpt lat="43.4791517" lon="11.6159533"><ele>242.0</ele><time>2026-04-17T08:12:58.135Z</time></trkpt><trkpt lat="43.4790783" lon="11.6158817"><ele>241.39999999999998</ele><time>2026-04-17T08:12:59.136Z</time></trkpt><trkpt lat="43.4790017" lon="11.615805"><ele>240.79999999999998</ele><time>2026-04-17T08:13:00.135Z</time></trkpt><trkpt lat="43.47892" lon="11.6157467"><ele>240.2</ele><time>2026-04-17T08:13:01.136Z</time></trkpt><trkpt lat="43.47883" lon="11.6156933"><ele>239.6</ele><time>2026-04-17T08:13:02.136Z</time></trkpt><trkpt lat="43.4787433" lon="11.615625"><ele>239.0</ele><time>2026-04-17T08:13:03.137Z</time></trkpt><trkpt lat="43.4786567" lon="11.6155383"><ele>240.79999999999998</ele><time>2026-04-17T08:13:04.136Z</time></trkpt><trkpt lat="43.4786017" lon="11.61542"><ele>242.59999999999997</ele><time>2026-04-17T08:13:05.136Z</time></trkpt><trkpt lat="43.4785733" lon="11.6152783"><ele>244.4</ele><time>2026-04-17T08:13:06.136Z</time></trkpt><trkpt lat="43.4785617" lon="11.6151283"><ele>246.2</ele><time>2026-04-17T08:13:07.136Z</time></trkpt><trkpt lat="43.4785333" lon="11.6149933"><ele>248.0</ele><time>2026-04-17T08:13:08.136Z</time></trkpt><trkpt lat="43.4784867" lon="11.61488"><ele>248.00000000000003</ele><time>2026-04-17T08:13:09.138Z</time></trkpt><trkpt lat="43.4784217" lon="11.6147967"><ele>248.0</ele><time>2026-04-17T08:13:10.136Z</time></trkpt><trkpt lat="43.4783617" lon="11.6147433"><ele>248.0</ele><time>2026-04-17T08:13:11.135Z</time></trkpt><trkpt lat="43.4782883" lon="11.614715"><ele>248.0</ele><time>2026-04-17T08:13:12.136Z</time></trkpt><trkpt lat="43.478205" lon="11.6147233"><ele>248.00000000000003</ele><time>2026-04-17T08:13:13.137Z</time></trkpt><trkpt lat="43.4781233" lon="11.6147817"><ele>248.0</ele><time>2026-04-17T08:13:14.136Z</time></trkpt><trkpt lat="43.478065" lon="11.6148517"><ele>248.00000000000003</ele><time>2026-04-17T08:13:15.137Z</time></trkpt><trkpt lat="43.4780167" lon="11.6149267"><ele>248.0</ele><time>2026-04-17T08:13:16.136Z</time></trkpt><trkpt lat="43.47797" lon="11.6150283"><ele>248.0</ele><time>2026-04-17T08:13:17.136Z</time></trkpt><trkpt lat="43.4779267" lon="11.61515"><ele>248.0</ele><time>2026-04-17T08:13:18.136Z</time></trkpt><trkpt lat="43.4778833" lon="11.615265"><ele>248.00000000000003</ele><time>2026-04-17T08:13:19.136Z</time></trkpt><trkpt lat="43.47784" lon="11.61536"><ele>248.0</ele><time>2026-04-17T08:13:20.136Z</time></trkpt><trkpt lat="43.4777783" lon="11.6154367"><ele>248.60000000000002</ele><time>2026-04-17T08:13:21.136Z</time></trkpt><trkpt lat="43.4777033" lon="11.6154683"><ele>249.20000000000002</ele><time>2026-04-17T08:13:22.136Z</time></trkpt><trkpt lat="43.4775967" lon="11.6154367"><ele>249.8</ele><time>2026-04-17T08:13:23.136Z</time></trkpt><trkpt lat="43.4774917" lon="11.6154117"><ele>250.4</ele><time>2026-04-17T08:13:24.136Z</time></trkpt><trkpt lat="43.477385" lon="11.6153767"><ele>251.0</ele><time>2026-04-17T08:13:25.137Z</time></trkpt><trkpt lat="43.4772833" lon="11.6153433"><ele>249.20000000000002</ele><time>2026-04-17T08:13:26.138Z</time></trkpt><trkpt lat="43.4771833" lon="11.615305"><ele>247.40000000000003</ele><time>2026-04-17T08:13:27.137Z</time></trkpt><trkpt lat="43.477085" lon="11.6152617"><ele>245.6</ele><time>2026-04-17T08:13:28.135Z</time></trkpt><trkpt lat="43.4769967" lon="11.6152"><ele>243.8</ele><time>2026-04-17T08:13:29.135Z</time></trkpt><trkpt lat="43.476925" lon="11.6151067"><ele>242.0</ele><time>2026-04-17T08:13:30.136Z</time></trkpt><trkpt lat="43.4768583" lon="11.615"><ele>242.0</ele><time>2026-04-17T08:13:31.136Z</time></trkpt><trkpt lat="43.4768233" lon="11.614865"><ele>242.0</ele><time>2026-04-17T08:13:32.136Z</time></trkpt><trkpt lat="43.476825" lon="11.6147283"><ele>242.0</ele><time>2026-04-17T08:13:33.137Z</time></trkpt><trkpt lat="43.47686" lon="11.6146"><ele>242.0</ele><time>2026-04-17T08:13:34.137Z</time></trkpt><trkpt lat="43.4769217" lon="11.6144733"><ele>242.0</ele><time>2026-04-17T08:13:35.134Z</time></trkpt><trkpt lat="43.4769917" lon="11.6143517"><ele>241.0</ele><time>2026-04-17T08:13:36.136Z</time></trkpt><trkpt lat="43.47706" lon="11.6142283"><ele>240.0</ele><time>2026-04-17T08:13:37.137Z</time></trkpt><trkpt lat="43.47712" lon="11.6141183"><ele>239.0</ele><time>2026-04-17T08:13:38.136Z</time></trkpt><trkpt lat="43.47717" lon="11.6140283"><ele>238.0</ele><time>2026-04-17T08:13:39.136Z</time></trkpt><trkpt lat="43.4772083" lon="11.613955"><ele>237.0</ele><time>2026-04-17T08:13:40.136Z</time></trkpt><trkpt lat="43.4772533" lon="11.6138417"><ele>237.0</ele><time>2026-04-17T08:13:42.136Z</time></trkpt><trkpt lat="43.4772367" lon="11.61373"><ele>237.0</ele><time>2026-04-17T08:13:44.136Z</time></trkpt><trkpt lat="43.4771517" lon="11.6136867"><ele>237.0</ele><time>2026-04-17T08:13:46.135Z</time></trkpt><trkpt lat="43.4770733" lon="11.6137167"><ele>237.0</ele><time>2026-04-17T08:13:47.137Z</time></trkpt><trkpt lat="43.4769917" lon="11.61374"><ele>237.0</ele><time>2026-04-17T08:13:48.136Z</time></trkpt><trkpt lat="43.4768983" lon="11.61376"><ele>237.0</ele><time>2026-04-17T08:13:49.136Z</time></trkpt><trkpt lat="43.4767917" lon="11.613765"><ele>236.39999999999998</ele><time>2026-04-17T08:13:50.137Z</time></trkpt><trkpt lat="43.4766867" lon="11.613765"><ele>235.79999999999998</ele><time>2026-04-17T08:13:51.137Z</time></trkpt><trkpt lat="43.476585" lon="11.613765"><ele>235.2</ele><time>2026-04-17T08:13:52.134Z</time></trkpt><trkpt lat="43.47648" lon="11.6137533"><ele>234.6</ele><time>2026-04-17T08:13:53.137Z</time></trkpt><trkpt lat="43.4763833" lon="11.61375"><ele>234.0</ele><time>2026-04-17T08:13:54.136Z</time></trkpt><trkpt lat="43.47628" lon="11.6137467"><ele>234.39999999999998</ele><time>2026-04-17T08:13:55.136Z</time></trkpt><trkpt lat="43.47618" lon="11.61374"><ele>234.79999999999998</ele><time>2026-04-17T08:13:56.137Z</time></trkpt><trkpt lat="43.4760833" lon="11.6137183"><ele>235.20000000000002</ele><time>2026-04-17T08:13:57.136Z</time></trkpt><trkpt lat="43.4759917" lon="11.61369"><ele>235.60000000000002</ele><time>2026-04-17T08:13:58.134Z</time></trkpt><trkpt lat="43.47591" lon="11.6136617"><ele>236.0</ele><time>2026-04-17T08:13:59.136Z</time></trkpt><trkpt lat="43.4758367" lon="11.613635"><ele>235.20000000000002</ele><time>2026-04-17T08:14:00.138Z</time></trkpt><trkpt lat="43.4757683" lon="11.6136067"><ele>234.40000000000003</ele><time>2026-04-17T08:14:01.137Z</time></trkpt><trkpt lat="43.4757067" lon="11.6135767"><ele>233.6</ele><time>2026-04-17T08:14:02.135Z</time></trkpt><trkpt lat="43.4756033" lon="11.6135233"><ele>232.8</ele><time>2026-04-17T08:14:04.135Z</time></trkpt><trkpt lat="43.4754933" lon="11.6134267"><ele>232.0</ele><time>2026-04-17T08:14:06.135Z</time></trkpt><trkpt lat="43.4754367" lon="11.6133617"><ele>232.0</ele><time>2026-04-17T08:14:07.136Z</time></trkpt><trkpt lat="43.47538" lon="11.61329"><ele>232.0</ele><time>2026-04-17T08:14:08.134Z</time></trkpt><trkpt lat="43.4753133" lon="11.6132117"><ele>232.0</ele><time>2026-04-17T08:14:09.136Z</time></trkpt><trkpt lat="43.4752367" lon="11.61313"><ele>232.0</ele><time>2026-04-17T08:14:10.136Z</time></trkpt><trkpt lat="43.475155" lon="11.6130417"><ele>232.0</ele><time>2026-04-17T08:14:11.136Z</time></trkpt><trkpt lat="43.4750767" lon="11.612955"><ele>232.0</ele><time>2026-04-17T08:14:12.136Z</time></trkpt><trkpt lat="43.475" lon="11.6128717"><ele>232.0</ele><time>2026-04-17T08:14:13.137Z</time></trkpt><trkpt lat="43.4749267" lon="11.6127933"><ele>232.0</ele><time>2026-04-17T08:14:14.137Z</time></trkpt><trkpt lat="43.4748517" lon="11.6127167"><ele>232.0</ele><time>2026-04-17T08:14:15.139Z</time></trkpt><trkpt lat="43.47478" lon="11.61265"><ele>232.0</ele><time>2026-04-17T08:14:16.137Z</time></trkpt><trkpt lat="43.474715" lon="11.6125867"><ele>232.66666666666666</ele><time>2026-04-17T08:14:17.137Z</time></trkpt><trkpt lat="43.4746517" lon="11.6125283"><ele>233.33333333333331</ele><time>2026-04-17T08:14:18.138Z</time></trkpt><trkpt lat="43.4745883" lon="11.6124667"><ele>234.0</ele><time>2026-04-17T08:14:19.14Z</time></trkpt><trkpt lat="43.47452" lon="11.6123967"><ele>234.66666666666669</ele><time>2026-04-17T08:14:20.14Z</time></trkpt><trkpt lat="43.474455" lon="11.61232"><ele>235.33333333333334</ele><time>2026-04-17T08:14:21.14Z</time></trkpt><trkpt lat="43.474395" lon="11.6122283"><ele>236.0</ele><time>2026-04-17T08:14:22.139Z</time></trkpt><trkpt lat="43.47433" lon="11.6121233"><ele>236.0</ele><time>2026-04-17T08:14:23.139Z</time></trkpt><trkpt lat="43.4742733" lon="11.612015"><ele>236.00000000000003</ele><time>2026-04-17T08:14:24.14Z</time></trkpt><trkpt lat="43.4742217" lon="11.6119"><ele>236.00000000000003</ele><time>2026-04-17T08:14:25.14Z</time></trkpt><trkpt lat="43.47418" lon="11.6117767"><ele>236.0</ele><time>2026-04-17T08:14:26.138Z</time></trkpt><trkpt lat="43.4741433" lon="11.6116483"><ele>236.0</ele><time>2026-04-17T08:14:27.139Z</time></trkpt><trkpt lat="43.47411" lon="11.6115133"><ele>235.0</ele><time>2026-04-17T08:14:28.138Z</time></trkpt><trkpt lat="43.474075" lon="11.6113733"><ele>234.00000000000003</ele><time>2026-04-17T08:14:29.138Z</time></trkpt><trkpt lat="43.474045" lon="11.6112367"><ele>233.00000000000003</ele><time>2026-04-17T08:14:30.136Z</time></trkpt><trkpt lat="43.47403" lon="11.6111083"><ele>232.0</ele><time>2026-04-17T08:14:31.135Z</time></trkpt><trkpt lat="43.4740133" lon="11.6109717"><ele>231.0</ele><time>2026-04-17T08:14:32.135Z</time></trkpt><trkpt lat="43.473985" lon="11.6108367"><ele>230.75</ele><time>2026-04-17T08:14:33.137Z</time></trkpt><trkpt lat="43.4739367" lon="11.6107033"><ele>230.5</ele><time>2026-04-17T08:14:34.136Z</time></trkpt><trkpt lat="43.4738583" lon="11.6105633"><ele>230.25</ele><time>2026-04-17T08:14:35.137Z</time></trkpt><trkpt lat="43.47376" lon="11.6104017"><ele>230.0</ele><time>2026-04-17T08:14:36.134Z</time></trkpt><trkpt lat="43.4736417" lon="11.610225"><ele>230.0</ele><time>2026-04-17T08:14:37.138Z</time></trkpt><trkpt lat="43.4735083" lon="11.6100417"><ele>230.0</ele><time>2026-04-17T08:14:38.137Z</time></trkpt><trkpt lat="43.4733783" lon="11.6098483"><ele>230.0</ele><time>2026-04-17T08:14:39.135Z</time></trkpt><trkpt lat="43.4732633" lon="11.6096817"><ele>230.0</ele><time>2026-04-17T08:14:40.136Z</time></trkpt><trkpt lat="43.473165" lon="11.6095417"><ele>230.0</ele><time>2026-04-17T08:14:41.136Z</time></trkpt><trkpt lat="43.473075" lon="11.6094267"><ele>230.0</ele><time>2026-04-17T08:14:42.138Z</time></trkpt><trkpt lat="43.472995" lon="11.6093233"><ele>230.0</ele><time>2026-04-17T08:14:43.137Z</time></trkpt><trkpt lat="43.472915" lon="11.6092467"><ele>231.0</ele><time>2026-04-17T08:14:44.136Z</time></trkpt><trkpt lat="43.4728333" lon="11.609185"><ele>232.0</ele><time>2026-04-17T08:14:45.137Z</time></trkpt><trkpt lat="43.4727417" lon="11.60914"><ele>233.0</ele><time>2026-04-17T08:14:46.136Z</time></trkpt><trkpt lat="43.4726367" lon="11.60911"><ele>234.0</ele><time>2026-04-17T08:14:47.137Z</time></trkpt><trkpt lat="43.4725233" lon="11.6090883"><ele>235.0</ele><time>2026-04-17T08:14:48.137Z</time></trkpt><trkpt lat="43.47241" lon="11.6090617"><ele>235.0</ele><time>2026-04-17T08:14:49.137Z</time></trkpt><trkpt lat="43.4723083" lon="11.6090417"><ele>235.0</ele><time>2026-04-17T08:14:50.138Z</time></trkpt><trkpt lat="43.4722033" lon="11.6090217"><ele>235.0</ele><time>2026-04-17T08:14:51.139Z</time></trkpt><trkpt lat="43.4720883" lon="11.6090017"><ele>235.0</ele><time>2026-04-17T08:14:52.138Z</time></trkpt><trkpt lat="43.47196" lon="11.60898"><ele>234.5</ele><time>2026-04-17T08:14:53.138Z</time></trkpt><trkpt lat="43.4718133" lon="11.6089567"><ele>234.0</ele><time>2026-04-17T08:14:54.136Z</time></trkpt><trkpt lat="43.4716617" lon="11.6089233"><ele>233.5</ele><time>2026-04-17T08:14:55.138Z</time></trkpt><trkpt lat="43.4715183" lon="11.60888"><ele>233.0</ele><time>2026-04-17T08:14:56.136Z</time></trkpt><trkpt lat="43.47139" lon="11.608835"><ele>233.0</ele><time>2026-04-17T08:14:57.138Z</time></trkpt><trkpt lat="43.471275" lon="11.608775"><ele>233.0</ele><time>2026-04-17T08:14:58.136Z</time></trkpt><trkpt lat="43.47116" lon="11.6087"><ele>233.0</ele><time>2026-04-17T08:14:59.137Z</time></trkpt><trkpt lat="43.4710367" lon="11.608605"><ele>233.0</ele><time>2026-04-17T08:15:00.137Z</time></trkpt><trkpt lat="43.470905" lon="11.6084883"><ele>233.5</ele><time>2026-04-17T08:15:01.137Z</time></trkpt><trkpt lat="43.470775" lon="11.6083667"><ele>234.0</ele><time>2026-04-17T08:15:02.136Z</time></trkpt><trkpt lat="43.4706583" lon="11.6082533"><ele>234.5</ele><time>2026-04-17T08:15:03.137Z</time></trkpt><trkpt lat="43.47056" lon="11.608155"><ele>235.0</ele><time>2026-04-17T08:15:04.136Z</time></trkpt><trkpt lat="43.470475" lon="11.6080633"><ele>234.83333333333331</ele><time>2026-04-17T08:15:05.136Z</time></trkpt><trkpt lat="43.4704083" lon="11.6079833"><ele>234.66666666666666</ele><time>2026-04-17T08:15:06.137Z</time></trkpt><trkpt lat="43.470355" lon="11.60792"><ele>234.5</ele><time>2026-04-17T08:15:07.138Z</time></trkpt><trkpt lat="43.4702683" lon="11.607845"><ele>234.33333333333331</ele><time>2026-04-17T08:15:09.137Z</time></trkpt><trkpt lat="43.4702017" lon="11.60784"><ele>234.16666666666666</ele><time>2026-04-17T08:15:12.138Z</time></trkpt><trkpt lat="43.4701533" lon="11.6079283"><ele>234.0</ele><time>2026-04-17T08:15:16.137Z</time></trkpt><trkpt lat="43.4701433" lon="11.608015"><ele>234.0</ele><time>2026-04-17T08:15:17.139Z</time></trkpt><trkpt lat="43.470135" lon="11.6081267"><ele>233.99999999999997</ele><time>2026-04-17T08:15:18.139Z</time></trkpt><trkpt lat="43.4701217" lon="11.6082567"><ele>233.99999999999997</ele><time>2026-04-17T08:15:19.139Z</time></trkpt><trkpt lat="43.4700967" lon="11.6084033"><ele>234.0</ele><time>2026-04-17T08:15:20.139Z</time></trkpt><trkpt lat="43.4700667" lon="11.60857"><ele>234.0</ele><time>2026-04-17T08:15:21.139Z</time></trkpt><trkpt lat="43.47003" lon="11.6087417"><ele>233.5</ele><time>2026-04-17T08:15:22.139Z</time></trkpt><trkpt lat="43.4699933" lon="11.60891"><ele>233.0</ele><time>2026-04-17T08:15:23.139Z</time></trkpt><trkpt lat="43.469955" lon="11.6090683"><ele>232.5</ele><time>2026-04-17T08:15:24.137Z</time></trkpt><trkpt lat="43.4699183" lon="11.60922"><ele>232.0</ele><time>2026-04-17T08:15:25.137Z</time></trkpt><trkpt lat="43.4698817" lon="11.6093667"><ele>232.0</ele><time>2026-04-17T08:15:26.138Z</time></trkpt><trkpt lat="43.4698433" lon="11.6094917"><ele>232.0</ele><time>2026-04-17T08:15:27.138Z</time></trkpt><trkpt lat="43.4698083" lon="11.6096"><ele>232.0</ele><time>2026-04-17T08:15:28.137Z</time></trkpt><trkpt lat="43.4697767" lon="11.6096833"><ele>232.0</ele><time>2026-04-17T08:15:29.136Z</time></trkpt><trkpt lat="43.4696633" lon="11.6097283"><ele>232.0</ele><time>2026-04-17T08:15:31.136Z</time></trkpt><trkpt lat="43.4695833" lon="11.6096933"><ele>232.5</ele><time>2026-04-17T08:15:32.137Z</time></trkpt><trkpt lat="43.46949" lon="11.609625"><ele>233.0</ele><time>2026-04-17T08:15:33.138Z</time></trkpt><trkpt lat="43.4693767" lon="11.60954"><ele>233.5</ele><time>2026-04-17T08:15:34.136Z</time></trkpt><trkpt lat="43.4692517" lon="11.609445"><ele>234.0</ele><time>2026-04-17T08:15:35.136Z</time></trkpt><trkpt lat="43.4691183" lon="11.6093433"><ele>234.0</ele><time>2026-04-17T08:15:36.136Z</time></trkpt><trkpt lat="43.46899" lon="11.60924"><ele>234.0</ele><time>2026-04-17T08:15:37.136Z</time></trkpt><trkpt lat="43.4688617" lon="11.6091317"><ele>234.0</ele><time>2026-04-17T08:15:38.138Z</time></trkpt><trkpt lat="43.4687317" lon="11.6090267"><ele>235.0</ele><time>2026-04-17T08:15:39.136Z</time></trkpt><trkpt lat="43.4686017" lon="11.6089233"><ele>236.0</ele><time>2026-04-17T08:15:40.14Z</time></trkpt><trkpt lat="43.4684733" lon="11.60882"><ele>237.0</ele><time>2026-04-17T08:15:41.137Z</time></trkpt><trkpt lat="43.4683483" lon="11.608725"><ele>238.0</ele><time>2026-04-17T08:15:42.137Z</time></trkpt><trkpt lat="43.4682233" lon="11.60863"><ele>238.0</ele><time>2026-04-17T08:15:43.139Z</time></trkpt><trkpt lat="43.4680983" lon="11.60853"><ele>238.0</ele><time>2026-04-17T08:15:44.139Z</time></trkpt><trkpt lat="43.4679883" lon="11.6084183"><ele>238.0</ele><time>2026-04-17T08:15:45.139Z</time></trkpt><trkpt lat="43.4678717" lon="11.6082983"><ele>238.0</ele><time>2026-04-17T08:15:46.139Z</time></trkpt><trkpt lat="43.4677617" lon="11.6081817"><ele>239.75</ele><time>2026-04-17T08:15:47.138Z</time></trkpt><trkpt lat="43.4676483" lon="11.6080683"><ele>241.5</ele><time>2026-04-17T08:15:48.138Z</time></trkpt><trkpt lat="43.4675367" lon="11.607955"><ele>243.25</ele><time>2026-04-17T08:15:49.139Z</time></trkpt><trkpt lat="43.467425" lon="11.6078433"><ele>245.0</ele><time>2026-04-17T08:15:50.141Z</time></trkpt><trkpt lat="43.4673117" lon="11.6077333"><ele>245.5</ele><time>2026-04-17T08:15:51.137Z</time></trkpt><trkpt lat="43.467195" lon="11.607625"><ele>246.0</ele><time>2026-04-17T08:15:52.136Z</time></trkpt><trkpt lat="43.4670767" lon="11.60752"><ele>246.5</ele><time>2026-04-17T08:15:53.136Z</time></trkpt><trkpt lat="43.4669583" lon="11.6074233"><ele>247.0</ele><time>2026-04-17T08:15:54.136Z</time></trkpt><trkpt lat="43.466855" lon="11.6073383"><ele>247.8</ele><time>2026-04-17T08:15:55.136Z</time></trkpt><trkpt lat="43.4667617" lon="11.60726"><ele>248.6</ele><time>2026-04-17T08:15:56.136Z</time></trkpt><trkpt lat="43.466675" lon="11.6071833"><ele>249.40000000000003</ele><time>2026-04-17T08:15:57.138Z</time></trkpt><trkpt lat="43.4665833" lon="11.6071017"><ele>250.20000000000002</ele><time>2026-04-17T08:15:58.136Z</time></trkpt><trkpt lat="43.4664883" lon="11.6070133"><ele>251.0</ele><time>2026-04-17T08:15:59.137Z</time></trkpt><trkpt lat="43.466385" lon="11.6069217"><ele>251.75</ele><time>2026-04-17T08:16:00.137Z</time></trkpt><trkpt lat="43.4662767" lon="11.60683"><ele>252.5</ele><time>2026-04-17T08:16:01.139Z</time></trkpt><trkpt lat="43.4661733" lon="11.606745"><ele>253.25</ele><time>2026-04-17T08:16:02.135Z</time></trkpt><trkpt lat="43.4660783" lon="11.6066733"><ele>254.0</ele><time>2026-04-17T08:16:03.137Z</time></trkpt><trkpt lat="43.4659883" lon="11.6066167"><ele>254.0</ele><time>2026-04-17T08:16:04.136Z</time></trkpt><trkpt lat="43.4658933" lon="11.6065933"><ele>254.0</ele><time>2026-04-17T08:16:05.135Z</time></trkpt><trkpt lat="43.4657883" lon="11.60661"><ele>254.0</ele><time>2026-04-17T08:16:06.136Z</time></trkpt><trkpt lat="43.4656783" lon="11.6066633"><ele>254.0</ele><time>2026-04-17T08:16:07.139Z</time></trkpt><trkpt lat="43.4655583" lon="11.60674"><ele>254.33333333333334</ele><time>2026-04-17T08:16:08.138Z</time></trkpt><trkpt lat="43.4654283" lon="11.6068267"><ele>254.66666666666669</ele><time>2026-04-17T08:16:09.137Z</time></trkpt><trkpt lat="43.4652883" lon="11.6069183"><ele>255.0</ele><time>2026-04-17T08:16:10.137Z</time></trkpt><trkpt lat="43.46515" lon="11.607005"><ele>255.0</ele><time>2026-04-17T08:16:11.136Z</time></trkpt><trkpt lat="43.4650133" lon="11.6070783"><ele>255.0</ele><time>2026-04-17T08:16:12.136Z</time></trkpt><trkpt lat="43.4648767" lon="11.6071317"><ele>255.0</ele><time>2026-04-17T08:16:13.136Z</time></trkpt><trkpt lat="43.46474" lon="11.6071617"><ele>255.0</ele><time>2026-04-17T08:16:14.136Z</time></trkpt><trkpt lat="43.4646033" lon="11.607165"><ele>255.0</ele><time>2026-04-17T08:16:15.137Z</time></trkpt><trkpt lat="43.4644633" lon="11.607145"><ele>255.0</ele><time>2026-04-17T08:16:16.136Z</time></trkpt><trkpt lat="43.4643217" lon="11.6071167"><ele>255.0</ele><time>2026-04-17T08:16:17.136Z</time></trkpt><trkpt lat="43.4641867" lon="11.607075"><ele>255.0</ele><time>2026-04-17T08:16:18.135Z</time></trkpt><trkpt lat="43.4640533" lon="11.60702"><ele>254.0</ele><time>2026-04-17T08:16:19.136Z</time></trkpt><trkpt lat="43.4639167" lon="11.606955"><ele>253.0</ele><time>2026-04-17T08:16:20.136Z</time></trkpt><trkpt lat="43.4637883" lon="11.6068783"><ele>252.0</ele><time>2026-04-17T08:16:21.137Z</time></trkpt><trkpt lat="43.463665" lon="11.60679"><ele>251.0</ele><time>2026-04-17T08:16:22.138Z</time></trkpt><trkpt lat="43.4635433" lon="11.606695"><ele>249.0</ele><time>2026-04-17T08:16:23.136Z</time></trkpt><trkpt lat="43.4634317" lon="11.6065917"><ele>247.0</ele><time>2026-04-17T08:16:24.136Z</time></trkpt><trkpt lat="43.463325" lon="11.6064817"><ele>245.0</ele><time>2026-04-17T08:16:25.138Z</time></trkpt><trkpt lat="43.4632217" lon="11.6063667"><ele>243.0</ele><time>2026-04-17T08:16:26.138Z</time></trkpt><trkpt lat="43.4631217" lon="11.6062533"><ele>241.75</ele><time>2026-04-17T08:16:27.138Z</time></trkpt><trkpt lat="43.4630233" lon="11.6061433"><ele>240.5</ele><time>2026-04-17T08:16:28.137Z</time></trkpt><trkpt lat="43.4629233" lon="11.60603"><ele>239.25</ele><time>2026-04-17T08:16:29.139Z</time></trkpt><trkpt lat="43.4628233" lon="11.6059133"><ele>238.0</ele><time>2026-04-17T08:16:30.139Z</time></trkpt><trkpt lat="43.4627233" lon="11.6057867"><ele>237.0</ele><time>2026-04-17T08:16:31.14Z</time></trkpt><trkpt lat="43.462615" lon="11.6056567"><ele>236.0</ele><time>2026-04-17T08:16:32.135Z</time></trkpt><trkpt lat="43.462495" lon="11.60552"><ele>235.0</ele><time>2026-04-17T08:16:33.138Z</time></trkpt><trkpt lat="43.4623767" lon="11.6053817"><ele>236.0</ele><time>2026-04-17T08:16:34.136Z</time></trkpt><trkpt lat="43.4622583" lon="11.6052433"><ele>237.0</ele><time>2026-04-17T08:16:35.135Z</time></trkpt><trkpt lat="43.4621383" lon="11.605105"><ele>238.0</ele><time>2026-04-17T08:16:36.136Z</time></trkpt><trkpt lat="43.4620217" lon="11.60497"><ele>240.0</ele><time>2026-04-17T08:16:37.137Z</time></trkpt><trkpt lat="43.4619083" lon="11.6048317"><ele>242.0</ele><time>2026-04-17T08:16:38.136Z</time></trkpt><trkpt lat="43.4617983" lon="11.6046917"><ele>244.0</ele><time>2026-04-17T08:16:39.134Z</time></trkpt><trkpt lat="43.4616883" lon="11.6045533"><ele>244.5</ele><time>2026-04-17T08:16:40.135Z</time></trkpt><trkpt lat="43.4615833" lon="11.60442"><ele>245.0</ele><time>2026-04-17T08:16:41.139Z</time></trkpt><trkpt lat="43.46148" lon="11.6042917"><ele>245.5</ele><time>2026-04-17T08:16:42.135Z</time></trkpt><trkpt lat="43.4613783" lon="11.6041633"><ele>246.0</ele><time>2026-04-17T08:16:43.134Z</time></trkpt><trkpt lat="43.4612783" lon="11.6040433"><ele>247.5</ele><time>2026-04-17T08:16:44.136Z</time></trkpt><trkpt lat="43.4611733" lon="11.603925"><ele>249.0</ele><time>2026-04-17T08:16:45.137Z</time></trkpt><trkpt lat="43.4610767" lon="11.6038017"><ele>250.5</ele><time>2026-04-17T08:16:46.135Z</time></trkpt><trkpt lat="43.46098" lon="11.603675"><ele>252.0</ele><time>2026-04-17T08:16:47.136Z</time></trkpt><trkpt lat="43.460885" lon="11.60354"><ele>252.75</ele><time>2026-04-17T08:16:48.137Z</time></trkpt><trkpt lat="43.460785" lon="11.6034033"><ele>253.5</ele><time>2026-04-17T08:16:49.137Z</time></trkpt><trkpt lat="43.4606817" lon="11.603265"><ele>254.25</ele><time>2026-04-17T08:16:50.136Z</time></trkpt><trkpt lat="43.4605767" lon="11.6031267"><ele>255.0</ele><time>2026-04-17T08:16:51.137Z</time></trkpt><trkpt lat="43.4604683" lon="11.602995"><ele>254.0</ele><time>2026-04-17T08:16:52.136Z</time></trkpt><trkpt lat="43.46036" lon="11.6028583"><ele>253.0</ele><time>2026-04-17T08:16:53.137Z</time></trkpt><trkpt lat="43.46025" lon="11.6027183"><ele>252.0</ele><time>2026-04-17T08:16:54.138Z</time></trkpt><trkpt lat="43.460135" lon="11.60258"><ele>251.0</ele><time>2026-04-17T08:16:55.14Z</time></trkpt><trkpt lat="43.46001" lon="11.6024483"><ele>252.5</ele><time>2026-04-17T08:16:56.138Z</time></trkpt><trkpt lat="43.4598917" lon="11.6023167"><ele>254.0</ele><time>2026-04-17T08:16:57.138Z</time></trkpt><trkpt lat="43.45978" lon="11.6021983"><ele>255.5</ele><time>2026-04-17T08:16:58.138Z</time></trkpt><trkpt lat="43.4596683" lon="11.6021017"><ele>257.0</ele><time>2026-04-17T08:16:59.137Z</time></trkpt><trkpt lat="43.4595483" lon="11.6020367"><ele>257.0</ele><time>2026-04-17T08:17:00.135Z</time></trkpt><trkpt lat="43.4594133" lon="11.602"><ele>257.0</ele><time>2026-04-17T08:17:01.135Z</time></trkpt><trkpt lat="43.4592767" lon="11.6019817"><ele>257.0</ele><time>2026-04-17T08:17:02.136Z</time></trkpt><trkpt lat="43.459155" lon="11.6019583"><ele>257.0</ele><time>2026-04-17T08:17:03.136Z</time></trkpt><trkpt lat="43.4590433" lon="11.6018917"><ele>257.75</ele><time>2026-04-17T08:17:04.135Z</time></trkpt><trkpt lat="43.45895" lon="11.6017717"><ele>258.5</ele><time>2026-04-17T08:17:05.135Z</time></trkpt><trkpt lat="43.45887" lon="11.6016167"><ele>259.25</ele><time>2026-04-17T08:17:06.136Z</time></trkpt><trkpt lat="43.4587917" lon="11.60144"><ele>260.0</ele><time>2026-04-17T08:17:07.137Z</time></trkpt><trkpt lat="43.4587067" lon="11.6012567"><ele>259.6666666666667</ele><time>2026-04-17T08:17:08.135Z</time></trkpt><trkpt lat="43.45862" lon="11.601065"><ele>259.3333333333333</ele><time>2026-04-17T08:17:09.137Z</time></trkpt><trkpt lat="43.458525" lon="11.60086"><ele>259.0</ele><time>2026-04-17T08:17:10.135Z</time></trkpt><trkpt lat="43.4584183" lon="11.6006383"><ele>259.0</ele><time>2026-04-17T08:17:11.134Z</time></trkpt><trkpt lat="43.4583" lon="11.6003983"><ele>259.0</ele><time>2026-04-17T08:17:12.135Z</time></trkpt><trkpt lat="43.4581783" lon="11.60014"><ele>259.0</ele><time>2026-04-17T08:17:13.135Z</time></trkpt><trkpt lat="43.458045" lon="11.5998633"><ele>261.0</ele><time>2026-04-17T08:17:14.136Z</time></trkpt><trkpt lat="43.45791" lon="11.5995833"><ele>263.0</ele><time>2026-04-17T08:17:15.136Z</time></trkpt><trkpt lat="43.4577883" lon="11.5993283"><ele>264.6666666666667</ele><time>2026-04-17T08:17:16.135Z</time></trkpt><trkpt lat="43.4576883" lon="11.59911"><ele>266.3333333333333</ele><time>2026-04-17T08:17:17.135Z</time></trkpt><trkpt lat="43.4576083" lon="11.5989267"><ele>268.0</ele><time>2026-04-17T08:17:18.137Z</time></trkpt><trkpt lat="43.4575417" lon="11.5987617"><ele>268.75</ele><time>2026-04-17T08:17:19.137Z</time></trkpt><trkpt lat="43.4574883" lon="11.5986083"><ele>269.5</ele><time>2026-04-17T08:17:20.136Z</time></trkpt><trkpt lat="43.4574383" lon="11.5984583"><ele>270.25</ele><time>2026-04-17T08:17:21.137Z</time></trkpt><trkpt lat="43.45739" lon="11.5983167"><ele>271.0</ele><time>2026-04-17T08:17:22.136Z</time></trkpt><trkpt lat="43.457345" lon="11.5981833"><ele>271.0</ele><time>2026-04-17T08:17:23.136Z</time></trkpt><trkpt lat="43.457295" lon="11.5980633"><ele>271.0</ele><time>2026-04-17T08:17:24.137Z</time></trkpt><trkpt lat="43.4572367" lon="11.5979567"><ele>271.0</ele><time>2026-04-17T08:17:25.135Z</time></trkpt><trkpt lat="43.4571733" lon="11.59786"><ele>271.0</ele><time>2026-04-17T08:17:26.137Z</time></trkpt><trkpt lat="43.4571167" lon="11.5977717"><ele>271.0</ele><time>2026-04-17T08:17:27.136Z</time></trkpt><trkpt lat="43.4570717" lon="11.597705"><ele>271.0</ele><time>2026-04-17T08:17:28.135Z</time></trkpt><trkpt lat="43.4570233" lon="11.597625"><ele>271.3333333333333</ele><time>2026-04-17T08:17:30.135Z</time></trkpt><trkpt lat="43.4569517" lon="11.5975117"><ele>271.66666666666663</ele><time>2026-04-17T08:18:03.137Z</time></trkpt><trkpt lat="43.4569" lon="11.5973683"><ele>272.0</ele><time>2026-04-17T08:18:05.136Z</time></trkpt><trkpt lat="43.4568833" lon="11.5972817"><ele>272.3333333333333</ele><time>2026-04-17T08:18:06.137Z</time></trkpt><trkpt lat="43.4568767" lon="11.5971783"><ele>272.6666666666667</ele><time>2026-04-17T08:18:07.136Z</time></trkpt><trkpt lat="43.4568633" lon="11.597075"><ele>273.0</ele><time>2026-04-17T08:18:08.136Z</time></trkpt><trkpt lat="43.456835" lon="11.5969717"><ele>273.1666666666667</ele><time>2026-04-17T08:18:09.136Z</time></trkpt><trkpt lat="43.4567817" lon="11.5968717"><ele>273.3333333333333</ele><time>2026-04-17T08:18:10.136Z</time></trkpt><trkpt lat="43.4567183" lon="11.59679"><ele>273.5</ele><time>2026-04-17T08:18:11.136Z</time></trkpt><trkpt lat="43.4566483" lon="11.59673"><ele>273.66666666666663</ele><time>2026-04-17T08:18:12.136Z</time></trkpt><trkpt lat="43.4565767" lon="11.5966917"><ele>273.8333333333333</ele><time>2026-04-17T08:18:13.137Z</time></trkpt><trkpt lat="43.4565017" lon="11.596655"><ele>274.0</ele><time>2026-04-17T08:18:14.138Z</time></trkpt><trkpt lat="43.4564233" lon="11.5966133"><ele>274.0</ele><time>2026-04-17T08:18:15.139Z</time></trkpt><trkpt lat="43.4563517" lon="11.5965733"><ele>274.0</ele><time>2026-04-17T08:18:16.14Z</time></trkpt><trkpt lat="43.45629" lon="11.5965467"><ele>274.0</ele><time>2026-04-17T08:18:17.137Z</time></trkpt><trkpt lat="43.456185" lon="11.5965317"><ele>274.0</ele><time>2026-04-17T08:18:19.139Z</time></trkpt><trkpt lat="43.4560617" lon="11.59653"><ele>274.0</ele><time>2026-04-17T08:18:21.14Z</time></trkpt><trkpt lat="43.4559817" lon="11.5965333"><ele>275.3333333333333</ele><time>2026-04-17T08:18:22.135Z</time></trkpt><trkpt lat="43.4559017" lon="11.5965433"><ele>276.66666666666663</ele><time>2026-04-17T08:18:23.135Z</time></trkpt><trkpt lat="43.4558233" lon="11.5965467"><ele>278.0</ele><time>2026-04-17T08:18:24.135Z</time></trkpt><trkpt lat="43.455755" lon="11.5965033"><ele>279.3333333333333</ele><time>2026-04-17T08:18:25.136Z</time></trkpt><trkpt lat="43.4557017" lon="11.5964183"><ele>280.6666666666667</ele><time>2026-04-17T08:18:26.135Z</time></trkpt><trkpt lat="43.45565" lon="11.59634"><ele>282.0</ele><time>2026-04-17T08:18:27.136Z</time></trkpt><trkpt lat="43.4556017" lon="11.59627"><ele>282.0</ele><time>2026-04-17T08:18:28.137Z</time></trkpt><trkpt lat="43.4555533" lon="11.596195"><ele>282.0</ele><time>2026-04-17T08:18:29.136Z</time></trkpt><trkpt lat="43.45549" lon="11.59613"><ele>282.0</ele><time>2026-04-17T08:18:30.136Z</time></trkpt><trkpt lat="43.4554183" lon="11.5960733"><ele>282.0</ele><time>2026-04-17T08:18:31.135Z</time></trkpt><trkpt lat="43.4553433" lon="11.5960117"><ele>282.0</ele><time>2026-04-17T08:18:32.137Z</time></trkpt><trkpt lat="43.4552733" lon="11.5959433"><ele>282.0</ele><time>2026-04-17T08:18:33.14Z</time></trkpt><trkpt lat="43.455215" lon="11.59586"><ele>282.6</ele><time>2026-04-17T08:18:34.139Z</time></trkpt><trkpt lat="43.45517" lon="11.59576"><ele>283.2</ele><time>2026-04-17T08:18:35.138Z</time></trkpt><trkpt lat="43.455135" lon="11.5956467"><ele>283.8</ele><time>2026-04-17T08:18:36.14Z</time></trkpt><trkpt lat="43.4551033" lon="11.5955067"><ele>284.4</ele><time>2026-04-17T08:18:37.139Z</time></trkpt><trkpt lat="43.4550717" lon="11.5953517"><ele>285.0</ele><time>2026-04-17T08:18:38.138Z</time></trkpt><trkpt lat="43.45505" lon="11.595205"><ele>286.2</ele><time>2026-04-17T08:18:39.137Z</time></trkpt><trkpt lat="43.4550517" lon="11.59507"><ele>287.4</ele><time>2026-04-17T08:18:40.138Z</time></trkpt><trkpt lat="43.4550483" lon="11.5949517"><ele>288.6</ele><time>2026-04-17T08:18:41.138Z</time></trkpt><trkpt lat="43.4550417" lon="11.5948517"><ele>289.8</ele><time>2026-04-17T08:18:42.137Z</time></trkpt><trkpt lat="43.454975" lon="11.59473"><ele>291.0</ele><time>2026-04-17T08:18:44.137Z</time></trkpt><trkpt lat="43.4548917" lon="11.5947317"><ele>291.0</ele><time>2026-04-17T08:18:45.137Z</time></trkpt><trkpt lat="43.454825" lon="11.5947383"><ele>291.0</ele><time>2026-04-17T08:18:46.135Z</time></trkpt><trkpt lat="43.4547567" lon="11.59475"><ele>291.0</ele><time>2026-04-17T08:18:47.135Z</time></trkpt><trkpt lat="43.4546833" lon="11.59477"><ele>291.0</ele><time>2026-04-17T08:18:48.135Z</time></trkpt><trkpt lat="43.4546033" lon="11.5948133"><ele>291.0</ele><time>2026-04-17T08:18:49.136Z</time></trkpt><trkpt lat="43.454525" lon="11.59487"><ele>291.0</ele><time>2026-04-17T08:18:50.137Z</time></trkpt><trkpt lat="43.4544583" lon="11.5949233"><ele>290.6</ele><time>2026-04-17T08:18:51.137Z</time></trkpt><trkpt lat="43.4543967" lon="11.59496"><ele>290.20000000000005</ele><time>2026-04-17T08:18:52.137Z</time></trkpt><trkpt lat="43.4542817" lon="11.5949833"><ele>289.79999999999995</ele><time>2026-04-17T08:18:54.138Z</time></trkpt><trkpt lat="43.45416" lon="11.5949067"><ele>289.4</ele><time>2026-04-17T08:18:56.136Z</time></trkpt><trkpt lat="43.45409" lon="11.5948317"><ele>289.0</ele><time>2026-04-17T08:18:57.136Z</time></trkpt><trkpt lat="43.4540183" lon="11.5947567"><ele>289.0</ele><time>2026-04-17T08:18:58.136Z</time></trkpt><trkpt lat="43.4539533" lon="11.59469"><ele>289.0</ele><time>2026-04-17T08:18:59.136Z</time></trkpt><trkpt lat="43.4538967" lon="11.594625"><ele>289.0</ele><time>2026-04-17T08:19:00.134Z</time></trkpt><trkpt lat="43.453865" lon="11.5944817"><ele>289.0</ele><time>2026-04-17T08:19:02.135Z</time></trkpt><trkpt lat="43.453885" lon="11.59439"><ele>289.0</ele><time>2026-04-17T08:19:03.136Z</time></trkpt><trkpt lat="43.4539167" lon="11.5942883"><ele>289.0</ele><time>2026-04-17T08:19:04.134Z</time></trkpt><trkpt lat="43.45394" lon="11.594175"><ele>290.8333333333333</ele><time>2026-04-17T08:19:05.131Z</time></trkpt><trkpt lat="43.4539467" lon="11.5940467"><ele>292.66666666666663</ele><time>2026-04-17T08:19:06.135Z</time></trkpt><trkpt lat="43.4539383" lon="11.5939233"><ele>294.5</ele><time>2026-04-17T08:19:07.136Z</time></trkpt><trkpt lat="43.453935" lon="11.5938117"><ele>296.3333333333333</ele><time>2026-04-17T08:19:08.136Z</time></trkpt><trkpt lat="43.4539483" lon="11.593715"><ele>298.1666666666667</ele><time>2026-04-17T08:19:09.137Z</time></trkpt><trkpt lat="43.45397" lon="11.5936317"><ele>300.0</ele><time>2026-04-17T08:19:10.136Z</time></trkpt><trkpt lat="43.4540117" lon="11.5935583"><ele>300.8</ele><time>2026-04-17T08:19:11.137Z</time></trkpt><trkpt lat="43.4540783" lon="11.59347"><ele>301.6</ele><time>2026-04-17T08:19:12.135Z</time></trkpt><trkpt lat="43.4541583" lon="11.5933933"><ele>302.4</ele><time>2026-04-17T08:19:13.137Z</time></trkpt><trkpt lat="43.4542233" lon="11.5933217"><ele>303.2</ele><time>2026-04-17T08:19:14.137Z</time></trkpt><trkpt lat="43.4542717" lon="11.5932467"><ele>304.0</ele><time>2026-04-17T08:19:15.135Z</time></trkpt><trkpt lat="43.4543133" lon="11.5931133"><ele>304.0</ele><time>2026-04-17T08:19:17.135Z</time></trkpt><trkpt lat="43.4543017" lon="11.5929533"><ele>304.0</ele><time>2026-04-17T08:19:19.136Z</time></trkpt><trkpt lat="43.4542817" lon="11.5928467"><ele>304.0</ele><time>2026-04-17T08:19:20.136Z</time></trkpt><trkpt lat="43.4542417" lon="11.59272"><ele>304.0</ele><time>2026-04-17T08:19:21.137Z</time></trkpt><trkpt lat="43.4542017" lon="11.5925767"><ele>304.0</ele><time>2026-04-17T08:19:22.136Z</time></trkpt><trkpt lat="43.4541533" lon="11.5924333"><ele>304.75</ele><time>2026-04-17T08:19:23.135Z</time></trkpt><trkpt lat="43.4540933" lon="11.5922883"><ele>305.5</ele><time>2026-04-17T08:19:24.133Z</time></trkpt><trkpt lat="43.4540283" lon="11.59214"><ele>306.25</ele><time>2026-04-17T08:19:25.135Z</time></trkpt><trkpt lat="43.453965" lon="11.5919917"><ele>307.0</ele><time>2026-04-17T08:19:26.137Z</time></trkpt><trkpt lat="43.4539167" lon="11.591865"><ele>308.16666666666663</ele><time>2026-04-17T08:19:27.136Z</time></trkpt><trkpt lat="43.4538867" lon="11.5917567"><ele>309.3333333333333</ele><time>2026-04-17T08:19:28.135Z</time></trkpt><trkpt lat="43.453875" lon="11.591645"><ele>310.5</ele><time>2026-04-17T08:19:29.137Z</time></trkpt><trkpt lat="43.4538783" lon="11.5915333"><ele>311.6666666666667</ele><time>2026-04-17T08:19:30.138Z</time></trkpt><trkpt lat="43.4538883" lon="11.5914167"><ele>312.83333333333337</ele><time>2026-04-17T08:19:31.135Z</time></trkpt><trkpt lat="43.4539" lon="11.5912967"><ele>314.0</ele><time>2026-04-17T08:19:32.136Z</time></trkpt><trkpt lat="43.45391" lon="11.59118"><ele>315.6666666666667</ele><time>2026-04-17T08:19:33.137Z</time></trkpt><trkpt lat="43.4539167" lon="11.5910617"><ele>317.33333333333337</ele><time>2026-04-17T08:19:34.136Z</time></trkpt><trkpt lat="43.4539217" lon="11.59094"><ele>319.0</ele><time>2026-04-17T08:19:35.136Z</time></trkpt><trkpt lat="43.4539267" lon="11.5908367"><ele>320.6666666666667</ele><time>2026-04-17T08:19:36.135Z</time></trkpt><trkpt lat="43.4539217" lon="11.590745"><ele>322.3333333333333</ele><time>2026-04-17T08:19:37.138Z</time></trkpt><trkpt lat="43.45391" lon="11.5906567"><ele>324.0</ele><time>2026-04-17T08:19:38.138Z</time></trkpt><trkpt lat="43.453885" lon="11.5905"><ele>326.2</ele><time>2026-04-17T08:19:40.139Z</time></trkpt><trkpt lat="43.4538683" lon="11.5903367"><ele>328.4</ele><time>2026-04-17T08:19:42.14Z</time></trkpt><trkpt lat="43.4538783" lon="11.59025"><ele>330.6</ele><time>2026-04-17T08:19:43.14Z</time></trkpt><trkpt lat="43.4539233" lon="11.590105"><ele>332.8</ele><time>2026-04-17T08:19:45.139Z</time></trkpt><trkpt lat="43.45397" lon="11.5900067"><ele>335.0</ele><time>2026-04-17T08:19:47.137Z</time></trkpt><trkpt lat="43.4540183" lon="11.5899033"><ele>335.0</ele><time>2026-04-17T08:19:49.135Z</time></trkpt><trkpt lat="43.4540383" lon="11.5897383"><ele>335.0</ele><time>2026-04-17T08:19:51.136Z</time></trkpt><trkpt lat="43.4540467" lon="11.5896367"><ele>335.0</ele><time>2026-04-17T08:19:52.135Z</time></trkpt><trkpt lat="43.454065" lon="11.5895283"><ele>335.0</ele><time>2026-04-17T08:19:53.135Z</time></trkpt><trkpt lat="43.45409" lon="11.5894167"><ele>335.0</ele><time>2026-04-17T08:19:54.137Z</time></trkpt><trkpt lat="43.45412" lon="11.5892933"><ele>336.83333333333337</ele><time>2026-04-17T08:19:55.136Z</time></trkpt><trkpt lat="43.4541367" lon="11.5891517"><ele>338.6666666666667</ele><time>2026-04-17T08:19:56.135Z</time></trkpt><trkpt lat="43.4541333" lon="11.5890133"><ele>340.5</ele><time>2026-04-17T08:19:57.137Z</time></trkpt><trkpt lat="43.4541333" lon="11.588895"><ele>342.3333333333333</ele><time>2026-04-17T08:19:58.135Z</time></trkpt><trkpt lat="43.4541367" lon="11.5887933"><ele>344.16666666666663</ele><time>2026-04-17T08:19:59.135Z</time></trkpt><trkpt lat="43.4541567" lon="11.5887017"><ele>346.0</ele><time>2026-04-17T08:20:00.135Z</time></trkpt><trkpt lat="43.454165" lon="11.5886067"><ele>347.20000000000005</ele><time>2026-04-17T08:20:01.135Z</time></trkpt><trkpt lat="43.4541583" lon="11.5885"><ele>348.40000000000003</ele><time>2026-04-17T08:20:02.135Z</time></trkpt><trkpt lat="43.4541317" lon="11.5883833"><ele>349.6</ele><time>2026-04-17T08:20:03.135Z</time></trkpt><trkpt lat="43.454095" lon="11.5882583"><ele>350.8</ele><time>2026-04-17T08:20:04.134Z</time></trkpt><trkpt lat="43.4540583" lon="11.5881317"><ele>352.0</ele><time>2026-04-17T08:20:05.135Z</time></trkpt><trkpt lat="43.454035" lon="11.587995"><ele>352.0</ele><time>2026-04-17T08:20:06.137Z</time></trkpt><trkpt lat="43.4540167" lon="11.5878483"><ele>352.0</ele><time>2026-04-17T08:20:07.136Z</time></trkpt><trkpt lat="43.4540033" lon="11.58771"><ele>352.0</ele><time>2026-04-17T08:20:08.137Z</time></trkpt><trkpt lat="43.4540067" lon="11.587585"><ele>352.0</ele><time>2026-04-17T08:20:09.136Z</time></trkpt><trkpt lat="43.4540217" lon="11.5874617"><ele>352.0</ele><time>2026-04-17T08:20:10.136Z</time></trkpt><trkpt lat="43.454035" lon="11.5873417"><ele>353.0</ele><time>2026-04-17T08:20:11.135Z</time></trkpt><trkpt lat="43.454045" lon="11.5872217"><ele>354.0</ele><time>2026-04-17T08:20:12.136Z</time></trkpt><trkpt lat="43.4540583" lon="11.5870967"><ele>355.0</ele><time>2026-04-17T08:20:13.135Z</time></trkpt><trkpt lat="43.4540817" lon="11.5869483"><ele>356.0</ele><time>2026-04-17T08:20:14.136Z</time></trkpt><trkpt lat="43.4541067" lon="11.58677"><ele>357.0</ele><time>2026-04-17T08:20:15.136Z</time></trkpt><trkpt lat="43.4541267" lon="11.58659"><ele>357.6666666666667</ele><time>2026-04-17T08:20:16.134Z</time></trkpt><trkpt lat="43.4541367" lon="11.5864417"><ele>358.3333333333333</ele><time>2026-04-17T08:20:17.135Z</time></trkpt><trkpt lat="43.454145" lon="11.5863133"><ele>359.0</ele><time>2026-04-17T08:20:18.134Z</time></trkpt><trkpt lat="43.4541483" lon="11.5861967"><ele>359.66666666666663</ele><time>2026-04-17T08:20:19.135Z</time></trkpt><trkpt lat="43.45415" lon="11.586095"><ele>360.3333333333333</ele><time>2026-04-17T08:20:20.134Z</time></trkpt><trkpt lat="43.4541567" lon="11.5860017"><ele>361.0</ele><time>2026-04-17T08:20:21.139Z</time></trkpt><trkpt lat="43.4541633" lon="11.58591"><ele>362.3333333333333</ele><time>2026-04-17T08:20:22.135Z</time></trkpt><trkpt lat="43.4541633" lon="11.5858133"><ele>363.66666666666663</ele><time>2026-04-17T08:20:23.135Z</time></trkpt><trkpt lat="43.4541583" lon="11.5857"><ele>365.0</ele><time>2026-04-17T08:20:24.136Z</time></trkpt><trkpt lat="43.45415" lon="11.58558"><ele>366.3333333333333</ele><time>2026-04-17T08:20:25.136Z</time></trkpt><trkpt lat="43.4541417" lon="11.5854633"><ele>367.6666666666667</ele><time>2026-04-17T08:20:26.136Z</time></trkpt><trkpt lat="43.4541317" lon="11.58534"><ele>369.0</ele><time>2026-04-17T08:20:27.135Z</time></trkpt><trkpt lat="43.4541183" lon="11.58521"><ele>371.0</ele><time>2026-04-17T08:20:28.136Z</time></trkpt><trkpt lat="43.454095" lon="11.5850833"><ele>373.0</ele><time>2026-04-17T08:20:29.135Z</time></trkpt><trkpt lat="43.4540583" lon="11.5849567"><ele>375.0</ele><time>2026-04-17T08:20:30.135Z</time></trkpt><trkpt lat="43.4540117" lon="11.58482"><ele>377.0</ele><time>2026-04-17T08:20:31.138Z</time></trkpt><trkpt lat="43.4539583" lon="11.584685"><ele>379.0</ele><time>2026-04-17T08:20:32.135Z</time></trkpt><trkpt lat="43.4539117" lon="11.5845633"><ele>381.79999999999995</ele><time>2026-04-17T08:20:33.134Z</time></trkpt><trkpt lat="43.4538717" lon="11.58444"><ele>384.59999999999997</ele><time>2026-04-17T08:20:34.136Z</time></trkpt><trkpt lat="43.4538417" lon="11.58432"><ele>387.4</ele><time>2026-04-17T08:20:35.136Z</time></trkpt><trkpt lat="43.45383" lon="11.5841967"><ele>390.2</ele><time>2026-04-17T08:20:36.136Z</time></trkpt><trkpt lat="43.45383" lon="11.5840633"><ele>393.0</ele><time>2026-04-17T08:20:37.137Z</time></trkpt><trkpt lat="43.453835" lon="11.58393"><ele>393.0</ele><time>2026-04-17T08:20:38.139Z</time></trkpt><trkpt lat="43.4538417" lon="11.5838083"><ele>393.0</ele><time>2026-04-17T08:20:39.136Z</time></trkpt><trkpt lat="43.45385" lon="11.5836767"><ele>393.0</ele><time>2026-04-17T08:20:40.137Z</time></trkpt><trkpt lat="43.4538583" lon="11.583545"><ele>393.0</ele><time>2026-04-17T08:20:41.135Z</time></trkpt><trkpt lat="43.4538683" lon="11.583435"><ele>393.0</ele><time>2026-04-17T08:20:42.136Z</time></trkpt><trkpt lat="43.4538783" lon="11.58333"><ele>393.0</ele><time>2026-04-17T08:20:43.136Z</time></trkpt><trkpt lat="43.45389" lon="11.583225"><ele>394.28571428571433</ele><time>2026-04-17T08:20:44.136Z</time></trkpt><trkpt lat="43.4539" lon="11.58313"><ele>395.57142857142856</ele><time>2026-04-17T08:20:45.136Z</time></trkpt><trkpt lat="43.4539117" lon="11.5830333"><ele>396.8571428571429</ele><time>2026-04-17T08:20:46.136Z</time></trkpt><trkpt lat="43.4539083" lon="11.582935"><ele>398.14285714285717</ele><time>2026-04-17T08:20:47.136Z</time></trkpt><trkpt lat="43.4539117" lon="11.5828483"><ele>399.42857142857144</ele><time>2026-04-17T08:20:48.137Z</time></trkpt><trkpt lat="43.4539167" lon="11.582745"><ele>400.7142857142857</ele><time>2026-04-17T08:20:49.137Z</time></trkpt><trkpt lat="43.45393" lon="11.58264"><ele>402.0</ele><time>2026-04-17T08:20:50.136Z</time></trkpt><trkpt lat="43.45394" lon="11.582535"><ele>402.3333333333333</ele><time>2026-04-17T08:20:51.149Z</time></trkpt><trkpt lat="43.4539517" lon="11.582445"><ele>402.66666666666663</ele><time>2026-04-17T08:20:52.138Z</time></trkpt><trkpt lat="43.4539683" lon="11.5823467"><ele>403.0</ele><time>2026-04-17T08:20:53.138Z</time></trkpt><trkpt lat="43.4539933" lon="11.5822567"><ele>403.3333333333333</ele><time>2026-04-17T08:20:54.137Z</time></trkpt><trkpt lat="43.45402" lon="11.5821667"><ele>403.66666666666663</ele><time>2026-04-17T08:20:55.138Z</time></trkpt><trkpt lat="43.45404" lon="11.58208"><ele>404.0</ele><time>2026-04-17T08:20:56.138Z</time></trkpt><trkpt lat="43.454065" lon="11.581935"><ele>406.6</ele><time>2026-04-17T08:20:58.139Z</time></trkpt><trkpt lat="43.4540583" lon="11.5818"><ele>409.2</ele><time>2026-04-17T08:21:00.138Z</time></trkpt><trkpt lat="43.454015" lon="11.58168"><ele>411.8</ele><time>2026-04-17T08:21:02.136Z</time></trkpt><trkpt lat="43.453995" lon="11.58156"><ele>414.40000000000003</ele><time>2026-04-17T08:21:04.134Z</time></trkpt><trkpt lat="43.4539767" lon="11.5814283"><ele>417.0</ele><time>2026-04-17T08:21:06.136Z</time></trkpt><trkpt lat="43.4539383" lon="11.5813017"><ele>419.20000000000005</ele><time>2026-04-17T08:21:08.135Z</time></trkpt><trkpt lat="43.4538717" lon="11.5811783"><ele>421.4</ele><time>2026-04-17T08:21:10.144Z</time></trkpt><trkpt lat="43.4538033" lon="11.5810783"><ele>423.59999999999997</ele><time>2026-04-17T08:21:11.135Z</time></trkpt><trkpt lat="43.45372" lon="11.58096"><ele>425.79999999999995</ele><time>2026-04-17T08:21:12.131Z</time></trkpt><trkpt lat="43.4536417" lon="11.580845"><ele>428.0</ele><time>2026-04-17T08:21:13.135Z</time></trkpt><trkpt lat="43.4535683" lon="11.5807483"><ele>428.16666666666663</ele><time>2026-04-17T08:21:14.136Z</time></trkpt><trkpt lat="43.4534983" lon="11.58067"><ele>428.3333333333333</ele><time>2026-04-17T08:21:15.137Z</time></trkpt><trkpt lat="43.4534333" lon="11.580605"><ele>428.5</ele><time>2026-04-17T08:21:16.134Z</time></trkpt><trkpt lat="43.4533633" lon="11.5805517"><ele>428.66666666666663</ele><time>2026-04-17T08:21:17.136Z</time></trkpt><trkpt lat="43.4533067" lon="11.58051"><ele>428.8333333333333</ele><time>2026-04-17T08:21:18.135Z</time></trkpt><trkpt lat="43.4531883" lon="11.5804567"><ele>429.0</ele><time>2026-04-17T08:21:20.134Z</time></trkpt><trkpt lat="43.4531133" lon="11.5804417"><ele>429.0</ele><time>2026-04-17T08:21:21.137Z</time></trkpt><trkpt lat="43.4530183" lon="11.58044"><ele>429.0</ele><time>2026-04-17T08:21:22.135Z</time></trkpt><trkpt lat="43.4529167" lon="11.58044"><ele>429.0</ele><time>2026-04-17T08:21:23.134Z</time></trkpt><trkpt lat="43.4528067" lon="11.5804533"><ele>429.0</ele><time>2026-04-17T08:21:24.135Z</time></trkpt><trkpt lat="43.4527033" lon="11.5804783"><ele>429.0</ele><time>2026-04-17T08:21:25.135Z</time></trkpt><trkpt lat="43.4526133" lon="11.5805067"><ele>430.6666666666667</ele><time>2026-04-17T08:21:26.135Z</time></trkpt><trkpt lat="43.4525267" lon="11.5805367"><ele>432.33333333333337</ele><time>2026-04-17T08:21:27.136Z</time></trkpt><trkpt lat="43.4524433" lon="11.5805683"><ele>434.0</ele><time>2026-04-17T08:21:28.135Z</time></trkpt><trkpt lat="43.4523717" lon="11.5805917"><ele>435.6666666666667</ele><time>2026-04-17T08:21:29.136Z</time></trkpt><trkpt lat="43.4523033" lon="11.58061"><ele>437.33333333333337</ele><time>2026-04-17T08:21:30.135Z</time></trkpt><trkpt lat="43.452235" lon="11.5806117"><ele>439.0</ele><time>2026-04-17T08:21:31.137Z</time></trkpt><trkpt lat="43.4521367" lon="11.5805867"><ele>440.6</ele><time>2026-04-17T08:21:33.135Z</time></trkpt><trkpt lat="43.4520533" lon="11.580565"><ele>442.2</ele><time>2026-04-17T08:21:36.134Z</time></trkpt><trkpt lat="43.4519633" lon="11.5805733"><ele>443.80000000000007</ele><time>2026-04-17T08:21:41.134Z</time></trkpt><trkpt lat="43.4518683" lon="11.5805983"><ele>445.40000000000003</ele><time>2026-04-17T08:21:43.136Z</time></trkpt><trkpt lat="43.4517717" lon="11.5806317"><ele>447.0</ele><time>2026-04-17T08:21:45.135Z</time></trkpt><trkpt lat="43.4516667" lon="11.5806833"><ele>447.0</ele><time>2026-04-17T08:21:47.135Z</time></trkpt><trkpt lat="43.4515983" lon="11.5807233"><ele>447.0</ele><time>2026-04-17T08:21:48.135Z</time></trkpt><trkpt lat="43.4515233" lon="11.580775"><ele>447.0</ele><time>2026-04-17T08:21:49.136Z</time></trkpt><trkpt lat="43.4514417" lon="11.5808367"><ele>447.0</ele><time>2026-04-17T08:21:50.136Z</time></trkpt><trkpt lat="43.4513633" lon="11.5809017"><ele>447.0</ele><time>2026-04-17T08:21:51.136Z</time></trkpt><trkpt lat="43.4513017" lon="11.5809683"><ele>447.0</ele><time>2026-04-17T08:21:52.136Z</time></trkpt><trkpt lat="43.4512483" lon="11.58105"><ele>448.6666666666667</ele><time>2026-04-17T08:21:53.135Z</time></trkpt><trkpt lat="43.4511983" lon="11.5811467"><ele>450.33333333333337</ele><time>2026-04-17T08:21:54.134Z</time></trkpt><trkpt lat="43.4511617" lon="11.5812467"><ele>452.0</ele><time>2026-04-17T08:21:55.136Z</time></trkpt><trkpt lat="43.451145" lon="11.581355"><ele>453.6666666666667</ele><time>2026-04-17T08:21:56.134Z</time></trkpt><trkpt lat="43.45115" lon="11.5814633"><ele>455.33333333333337</ele><time>2026-04-17T08:21:57.135Z</time></trkpt><trkpt lat="43.4511667" lon="11.5815633"><ele>457.0</ele><time>2026-04-17T08:21:58.135Z</time></trkpt><trkpt lat="43.4511883" lon="11.5816683"><ele>457.83333333333337</ele><time>2026-04-17T08:21:59.134Z</time></trkpt><trkpt lat="43.451205" lon="11.5817733"><ele>458.6666666666667</ele><time>2026-04-17T08:22:00.145Z</time></trkpt><trkpt lat="43.4512167" lon="11.581865"><ele>459.5</ele><time>2026-04-17T08:22:01.143Z</time></trkpt><trkpt lat="43.4511967" lon="11.58201"><ele>460.33333333333337</ele><time>2026-04-17T08:22:03.138Z</time></trkpt><trkpt lat="43.4511183" lon="11.5819783"><ele>461.1666666666667</ele><time>2026-04-17T08:22:04.137Z</time></trkpt><trkpt lat="43.4510583" lon="11.5819433"><ele>462.0</ele><time>2026-04-17T08:22:05.136Z</time></trkpt><trkpt lat="43.4509867" lon="11.581885"><ele>462.0</ele><time>2026-04-17T08:22:06.135Z</time></trkpt><trkpt lat="43.450905" lon="11.581825"><ele>462.00000000000006</ele><time>2026-04-17T08:22:07.134Z</time></trkpt><trkpt lat="43.4508183" lon="11.5817817"><ele>462.00000000000006</ele><time>2026-04-17T08:22:08.136Z</time></trkpt><trkpt lat="43.45072" lon="11.5817617"><ele>462.0</ele><time>2026-04-17T08:22:09.136Z</time></trkpt><trkpt lat="43.4506067" lon="11.5817783"><ele>462.0</ele><time>2026-04-17T08:22:10.134Z</time></trkpt><trkpt lat="43.4505" lon="11.5818"><ele>462.8</ele><time>2026-04-17T08:22:11.135Z</time></trkpt><trkpt lat="43.450395" lon="11.5818167"><ele>463.6</ele><time>2026-04-17T08:22:12.135Z</time></trkpt><trkpt lat="43.4502933" lon="11.5818317"><ele>464.40000000000003</ele><time>2026-04-17T08:22:13.138Z</time></trkpt><trkpt lat="43.4501883" lon="11.58184"><ele>465.20000000000005</ele><time>2026-04-17T08:22:14.136Z</time></trkpt><trkpt lat="43.4500833" lon="11.5818483"><ele>466.0</ele><time>2026-04-17T08:22:15.136Z</time></trkpt><trkpt lat="43.4499883" lon="11.581865"><ele>466.0</ele><time>2026-04-17T08:22:16.134Z</time></trkpt><trkpt lat="43.449895" lon="11.5819117"><ele>466.0</ele><time>2026-04-17T08:22:17.135Z</time></trkpt><trkpt lat="43.449795" lon="11.5819733"><ele>466.0</ele><time>2026-04-17T08:22:18.134Z</time></trkpt><trkpt lat="43.449685" lon="11.5820417"><ele>466.0</ele><time>2026-04-17T08:22:19.134Z</time></trkpt><trkpt lat="43.44957" lon="11.5821117"><ele>466.20000000000005</ele><time>2026-04-17T08:22:20.135Z</time></trkpt><trkpt lat="43.449465" lon="11.5821833"><ele>466.40000000000003</ele><time>2026-04-17T08:22:21.135Z</time></trkpt><trkpt lat="43.4493767" lon="11.5822633"><ele>466.6</ele><time>2026-04-17T08:22:22.135Z</time></trkpt><trkpt lat="43.4493067" lon="11.5823683"><ele>466.8</ele><time>2026-04-17T08:22:23.136Z</time></trkpt><trkpt lat="43.4492533" lon="11.582505"><ele>467.0</ele><time>2026-04-17T08:22:24.136Z</time></trkpt><trkpt lat="43.4492117" lon="11.58265"><ele>466.99999999999994</ele><time>2026-04-17T08:22:25.136Z</time></trkpt><trkpt lat="43.4491833" lon="11.5827733"><ele>467.0</ele><time>2026-04-17T08:22:26.135Z</time></trkpt><trkpt lat="43.44916" lon="11.5828733"><ele>467.0</ele><time>2026-04-17T08:22:27.137Z</time></trkpt><trkpt lat="43.4491317" lon="11.5829517"><ele>467.0</ele><time>2026-04-17T08:22:28.135Z</time></trkpt><trkpt lat="43.4490267" lon="11.5830283"><ele>466.99999999999994</ele><time>2026-04-17T08:22:30.136Z</time></trkpt><trkpt lat="43.4489533" lon="11.5830333"><ele>467.0</ele><time>2026-04-17T08:22:31.138Z</time></trkpt><trkpt lat="43.4488733" lon="11.5830517"><ele>469.16666666666663</ele><time>2026-04-17T08:22:32.134Z</time></trkpt><trkpt lat="43.4487883" lon="11.5830767"><ele>471.3333333333333</ele><time>2026-04-17T08:22:33.136Z</time></trkpt><trkpt lat="43.4487033" lon="11.5831067"><ele>473.5</ele><time>2026-04-17T08:22:34.131Z</time></trkpt><trkpt lat="43.4486217" lon="11.5831317"><ele>475.66666666666663</ele><time>2026-04-17T08:22:35.135Z</time></trkpt><trkpt lat="43.4485433" lon="11.58316"><ele>477.8333333333333</ele><time>2026-04-17T08:22:36.136Z</time></trkpt><trkpt lat="43.4484717" lon="11.583185"><ele>480.0</ele><time>2026-04-17T08:22:37.138Z</time></trkpt><trkpt lat="43.4484033" lon="11.5832117"><ele>480.0</ele><time>2026-04-17T08:22:38.136Z</time></trkpt><trkpt lat="43.4483417" lon="11.58324"><ele>480.0</ele><time>2026-04-17T08:22:39.135Z</time></trkpt><trkpt lat="43.44828" lon="11.5832633"><ele>480.0</ele><time>2026-04-17T08:22:40.137Z</time></trkpt><trkpt lat="43.4482117" lon="11.5832817"><ele>480.0</ele><time>2026-04-17T08:22:41.135Z</time></trkpt><trkpt lat="43.4481333" lon="11.5833017"><ele>480.0</ele><time>2026-04-17T08:22:42.135Z</time></trkpt><trkpt lat="43.4480517" lon="11.5833333"><ele>480.0</ele><time>2026-04-17T08:22:43.135Z</time></trkpt><trkpt lat="43.4479583" lon="11.5833783"><ele>482.0</ele><time>2026-04-17T08:22:44.136Z</time></trkpt><trkpt lat="43.447875" lon="11.583425"><ele>484.0</ele><time>2026-04-17T08:22:45.136Z</time></trkpt><trkpt lat="43.447795" lon="11.5834717"><ele>486.0</ele><time>2026-04-17T08:22:46.135Z</time></trkpt><trkpt lat="43.447725" lon="11.583515"><ele>488.0</ele><time>2026-04-17T08:22:47.135Z</time></trkpt><trkpt lat="43.4476467" lon="11.5835417"><ele>490.0</ele><time>2026-04-17T08:22:48.135Z</time></trkpt><trkpt lat="43.447565" lon="11.583555"><ele>492.0</ele><time>2026-04-17T08:22:49.136Z</time></trkpt><trkpt lat="43.4474783" lon="11.58357"><ele>492.0</ele><time>2026-04-17T08:22:50.136Z</time></trkpt><trkpt lat="43.44739" lon="11.5835983"><ele>492.00000000000006</ele><time>2026-04-17T08:22:51.136Z</time></trkpt><trkpt lat="43.4472883" lon="11.5836417"><ele>492.00000000000006</ele><time>2026-04-17T08:22:52.135Z</time></trkpt><trkpt lat="43.44719" lon="11.5836983"><ele>492.0</ele><time>2026-04-17T08:22:53.135Z</time></trkpt><trkpt lat="43.4470967" lon="11.5837517"><ele>492.0</ele><time>2026-04-17T08:22:54.135Z</time></trkpt><trkpt lat="43.4470117" lon="11.5837833"><ele>489.6666666666667</ele><time>2026-04-17T08:22:55.136Z</time></trkpt><trkpt lat="43.4469183" lon="11.5838017"><ele>487.33333333333337</ele><time>2026-04-17T08:22:56.137Z</time></trkpt><trkpt lat="43.4468283" lon="11.58381"><ele>485.0</ele><time>2026-04-17T08:22:57.136Z</time></trkpt><trkpt lat="43.4467333" lon="11.583825"><ele>482.6666666666667</ele><time>2026-04-17T08:22:58.136Z</time></trkpt><trkpt lat="43.4466467" lon="11.5838533"><ele>480.33333333333337</ele><time>2026-04-17T08:22:59.136Z</time></trkpt><trkpt lat="43.44657" lon="11.583885"><ele>478.0</ele><time>2026-04-17T08:23:00.134Z</time></trkpt><trkpt lat="43.446495" lon="11.58391"><ele>478.0</ele><time>2026-04-17T08:23:01.136Z</time></trkpt><trkpt lat="43.4464167" lon="11.583905"><ele>477.99999999999994</ele><time>2026-04-17T08:23:02.136Z</time></trkpt><trkpt lat="43.446325" lon="11.5838533"><ele>477.99999999999994</ele><time>2026-04-17T08:23:03.136Z</time></trkpt><trkpt lat="43.4462233" lon="11.58379"><ele>478.0</ele><time>2026-04-17T08:23:04.135Z</time></trkpt><trkpt lat="43.4461183" lon="11.5837283"><ele>478.0</ele><time>2026-04-17T08:23:05.135Z</time></trkpt><trkpt lat="43.4460083" lon="11.5836733"><ele>480.0</ele><time>2026-04-17T08:23:06.136Z</time></trkpt><trkpt lat="43.4459017" lon="11.58362"><ele>481.99999999999994</ele><time>2026-04-17T08:23:07.136Z</time></trkpt><trkpt lat="43.4458067" lon="11.583565"><ele>483.99999999999994</ele><time>2026-04-17T08:23:08.135Z</time></trkpt><trkpt lat="43.44572" lon="11.5835117"><ele>486.0</ele><time>2026-04-17T08:23:09.136Z</time></trkpt><trkpt lat="43.44563" lon="11.5834533"><ele>488.0</ele><time>2026-04-17T08:23:10.138Z</time></trkpt><trkpt lat="43.44553" lon="11.5833767"><ele>487.49999999999994</ele><time>2026-04-17T08:23:11.137Z</time></trkpt><trkpt lat="43.4454383" lon="11.58329"><ele>487.0</ele><time>2026-04-17T08:23:12.139Z</time></trkpt><trkpt lat="43.445365" lon="11.5832217"><ele>486.5</ele><time>2026-04-17T08:23:13.137Z</time></trkpt><trkpt lat="43.4452983" lon="11.5831683"><ele>486.0</ele><time>2026-04-17T08:23:14.135Z</time></trkpt><trkpt lat="43.4452367" lon="11.583135"><ele>485.49999999999994</ele><time>2026-04-17T08:23:15.136Z</time></trkpt><trkpt lat="43.4451617" lon="11.58313"><ele>485.0</ele><time>2026-04-17T08:23:16.137Z</time></trkpt><trkpt lat="43.44509" lon="11.5831767"><ele>485.0</ele><time>2026-04-17T08:23:17.135Z</time></trkpt><trkpt lat="43.4450183" lon="11.583245"><ele>485.0</ele><time>2026-04-17T08:23:18.134Z</time></trkpt><trkpt lat="43.4449383" lon="11.5833267"><ele>485.0</ele><time>2026-04-17T08:23:19.137Z</time></trkpt><trkpt lat="43.444855" lon="11.583405"><ele>485.0</ele><time>2026-04-17T08:23:20.135Z</time></trkpt><trkpt lat="43.4447617" lon="11.5834817"><ele>485.0</ele><time>2026-04-17T08:23:21.137Z</time></trkpt><trkpt lat="43.4446717" lon="11.5835517"><ele>486.49999999999994</ele><time>2026-04-17T08:23:22.136Z</time></trkpt><trkpt lat="43.4445967" lon="11.5836017"><ele>488.0</ele><time>2026-04-17T08:23:23.134Z</time></trkpt><trkpt lat="43.444525" lon="11.58362"><ele>489.5</ele><time>2026-04-17T08:23:24.135Z</time></trkpt><trkpt lat="43.44444" lon="11.5836167"><ele>491.0</ele><time>2026-04-17T08:23:25.137Z</time></trkpt><trkpt lat="43.444345" lon="11.5836033"><ele>492.49999999999994</ele><time>2026-04-17T08:23:26.136Z</time></trkpt><trkpt lat="43.4442383" lon="11.5835767"><ele>494.0</ele><time>2026-04-17T08:23:27.136Z</time></trkpt><trkpt lat="43.4441217" lon="11.583565"><ele>494.0</ele><time>2026-04-17T08:23:28.143Z</time></trkpt><trkpt lat="43.4440017" lon="11.5835817"><ele>494.0</ele><time>2026-04-17T08:23:29.137Z</time></trkpt><trkpt lat="43.4438933" lon="11.583595"><ele>494.0</ele><time>2026-04-17T08:23:30.137Z</time></trkpt><trkpt lat="43.4437983" lon="11.58359"><ele>494.0</ele><time>2026-04-17T08:23:31.136Z</time></trkpt><trkpt lat="43.44371" lon="11.5835717"><ele>494.0</ele><time>2026-04-17T08:23:32.135Z</time></trkpt><trkpt lat="43.4436183" lon="11.58356"><ele>494.79999999999995</ele><time>2026-04-17T08:23:33.136Z</time></trkpt><trkpt lat="43.44351" lon="11.58357"><ele>495.59999999999997</ele><time>2026-04-17T08:23:34.136Z</time></trkpt><trkpt lat="43.4433933" lon="11.583595"><ele>496.4</ele><time>2026-04-17T08:23:35.135Z</time></trkpt><trkpt lat="43.44328" lon="11.5836133"><ele>497.2</ele><time>2026-04-17T08:23:36.136Z</time></trkpt><trkpt lat="43.4431767" lon="11.5836183"><ele>498.0</ele><time>2026-04-17T08:23:37.135Z</time></trkpt><trkpt lat="43.4430767" lon="11.58361"><ele>498.0</ele><time>2026-04-17T08:23:38.135Z</time></trkpt><trkpt lat="43.44298" lon="11.5835983"><ele>497.99999999999994</ele><time>2026-04-17T08:23:39.136Z</time></trkpt><trkpt lat="43.4428867" lon="11.5835833"><ele>497.99999999999994</ele><time>2026-04-17T08:23:40.138Z</time></trkpt><trkpt lat="43.4427867" lon="11.5835667"><ele>498.0</ele><time>2026-04-17T08:23:41.138Z</time></trkpt><trkpt lat="43.4426833" lon="11.58356"><ele>498.0</ele><time>2026-04-17T08:23:42.137Z</time></trkpt><trkpt lat="43.44259" lon="11.58357"><ele>497.0</ele><time>2026-04-17T08:23:43.136Z</time></trkpt><trkpt lat="43.4425017" lon="11.5835967"><ele>496.0</ele><time>2026-04-17T08:23:44.137Z</time></trkpt><trkpt lat="43.4424217" lon="11.5836217"><ele>495.0</ele><time>2026-04-17T08:23:45.132Z</time></trkpt><trkpt lat="43.4423433" lon="11.5836183"><ele>494.0</ele><time>2026-04-17T08:23:46.137Z</time></trkpt><trkpt lat="43.4422567" lon="11.5835883"><ele>493.0</ele><time>2026-04-17T08:23:47.137Z</time></trkpt><trkpt lat="43.442165" lon="11.58353"><ele>492.0</ele><time>2026-04-17T08:23:48.136Z</time></trkpt><trkpt lat="43.4420717" lon="11.583455"><ele>490.6</ele><time>2026-04-17T08:23:49.136Z</time></trkpt><trkpt lat="43.4419833" lon="11.5833867"><ele>489.20000000000005</ele><time>2026-04-17T08:23:50.136Z</time></trkpt><trkpt lat="43.4419017" lon="11.5833533"><ele>487.8</ele><time>2026-04-17T08:23:51.135Z</time></trkpt><trkpt lat="43.4418133" lon="11.5833533"><ele>486.4</ele><time>2026-04-17T08:23:52.137Z</time></trkpt><trkpt lat="43.4417183" lon="11.5833817"><ele>485.0</ele><time>2026-04-17T08:23:53.137Z</time></trkpt><trkpt lat="43.4416267" lon="11.5834317"><ele>485.0</ele><time>2026-04-17T08:23:54.137Z</time></trkpt><trkpt lat="43.4415433" lon="11.5834867"><ele>485.0</ele><time>2026-04-17T08:23:55.137Z</time></trkpt><trkpt lat="43.4414633" lon="11.5835233"><ele>485.0</ele><time>2026-04-17T08:23:56.136Z</time></trkpt><trkpt lat="43.4413867" lon="11.5835283"><ele>485.0</ele><time>2026-04-17T08:23:57.137Z</time></trkpt><trkpt lat="43.4413017" lon="11.583495"><ele>485.0</ele><time>2026-04-17T08:23:58.136Z</time></trkpt><trkpt lat="43.4411983" lon="11.5834467"><ele>483.49999999999994</ele><time>2026-04-17T08:23:59.136Z</time></trkpt><trkpt lat="43.441105" lon="11.5833917"><ele>482.0</ele><time>2026-04-17T08:24:00.137Z</time></trkpt><trkpt lat="43.441025" lon="11.5833317"><ele>480.5</ele><time>2026-04-17T08:24:01.139Z</time></trkpt><trkpt lat="43.4409617" lon="11.58327"><ele>479.0</ele><time>2026-04-17T08:24:02.135Z</time></trkpt><trkpt lat="43.4409117" lon="11.5832117"><ele>477.49999999999994</ele><time>2026-04-17T08:24:03.137Z</time></trkpt><trkpt lat="43.440875" lon="11.5831367"><ele>476.0</ele><time>2026-04-17T08:24:05.135Z</time></trkpt><trkpt lat="43.4409617" lon="11.5831417"><ele>475.99999999999994</ele><time>2026-04-17T08:24:10.137Z</time></trkpt><trkpt lat="43.4410067" lon="11.5832033"><ele>476.0</ele><time>2026-04-17T08:24:11.137Z</time></trkpt><trkpt lat="43.4411033" lon="11.5832983"><ele>476.0</ele><time>2026-04-17T08:24:13.139Z</time></trkpt><trkpt lat="43.4411917" lon="11.583305"><ele>476.0</ele><time>2026-04-17T08:24:15.138Z</time></trkpt><trkpt lat="43.4412417" lon="11.5832267"><ele>475.99999999999994</ele><time>2026-04-17T08:24:17.134Z</time></trkpt><trkpt lat="43.441215" lon="11.5831033"><ele>476.0</ele><time>2026-04-17T08:24:19.136Z</time></trkpt><trkpt lat="43.44117" lon="11.5830317"><ele>476.0</ele><time>2026-04-17T08:24:20.135Z</time></trkpt><trkpt lat="43.4411233" lon="11.582935"><ele>476.0</ele><time>2026-04-17T08:24:21.137Z</time></trkpt><trkpt lat="43.4410717" lon="11.5828033"><ele>476.0</ele><time>2026-04-17T08:24:22.136Z</time></trkpt><trkpt lat="43.4410417" lon="11.582645"><ele>476.0</ele><time>2026-04-17T08:24:23.135Z</time></trkpt><trkpt lat="43.4410267" lon="11.582485"><ele>476.0</ele><time>2026-04-17T08:24:24.137Z</time></trkpt><trkpt lat="43.4410283" lon="11.5823417"><ele>478.8</ele><time>2026-04-17T08:24:25.136Z</time></trkpt><trkpt lat="43.4410467" lon="11.5822117"><ele>481.6</ele><time>2026-04-17T08:24:26.136Z</time></trkpt><trkpt lat="43.44107" lon="11.5820883"><ele>484.4</ele><time>2026-04-17T08:24:27.137Z</time></trkpt><trkpt lat="43.44109" lon="11.58196"><ele>487.2</ele><time>2026-04-17T08:24:28.137Z</time></trkpt><trkpt lat="43.4411083" lon="11.5818333"><ele>490.0</ele><time>2026-04-17T08:24:29.137Z</time></trkpt><trkpt lat="43.441135" lon="11.581715"><ele>491.33333333333337</ele><time>2026-04-17T08:24:30.134Z</time></trkpt><trkpt lat="43.44117" lon="11.5816083"><ele>492.6666666666667</ele><time>2026-04-17T08:24:31.137Z</time></trkpt><trkpt lat="43.441205" lon="11.5815067"><ele>494.0</ele><time>2026-04-17T08:24:32.136Z</time></trkpt><trkpt lat="43.4412367" lon="11.5814083"><ele>495.33333333333337</ele><time>2026-04-17T08:24:33.137Z</time></trkpt><trkpt lat="43.4412617" lon="11.5813"><ele>496.6666666666667</ele><time>2026-04-17T08:24:34.135Z</time></trkpt><trkpt lat="43.441275" lon="11.581185"><ele>498.0</ele><time>2026-04-17T08:24:35.137Z</time></trkpt><trkpt lat="43.4412783" lon="11.5810717"><ele>498.2857142857143</ele><time>2026-04-17T08:24:36.135Z</time></trkpt><trkpt lat="43.441275" lon="11.580965"><ele>498.57142857142856</ele><time>2026-04-17T08:24:37.134Z</time></trkpt><trkpt lat="43.4412633" lon="11.5808717"><ele>498.85714285714283</ele><time>2026-04-17T08:24:38.135Z</time></trkpt><trkpt lat="43.4412367" lon="11.5807833"><ele>499.1428571428571</ele><time>2026-04-17T08:24:39.136Z</time></trkpt><trkpt lat="43.4412" lon="11.5806983"><ele>499.42857142857144</ele><time>2026-04-17T08:24:40.136Z</time></trkpt><trkpt lat="43.4411533" lon="11.5806183"><ele>499.71428571428567</ele><time>2026-04-17T08:24:41.136Z</time></trkpt><trkpt lat="43.4410967" lon="11.5805417"><ele>500.0</ele><time>2026-04-17T08:24:42.135Z</time></trkpt><trkpt lat="43.4410367" lon="11.580465"><ele>499.99999999999994</ele><time>2026-04-17T08:24:43.135Z</time></trkpt><trkpt lat="43.44098" lon="11.5803883"><ele>500.0</ele><time>2026-04-17T08:24:44.134Z</time></trkpt><trkpt lat="43.440945" lon="11.5803"><ele>500.0</ele><time>2026-04-17T08:24:45.136Z</time></trkpt><trkpt lat="43.440925" lon="11.5801967"><ele>500.0</ele><time>2026-04-17T08:24:46.134Z</time></trkpt><trkpt lat="43.4409183" lon="11.5800833"><ele>499.99999999999994</ele><time>2026-04-17T08:24:47.134Z</time></trkpt><trkpt lat="43.44093" lon="11.5799517"><ele>500.0</ele><time>2026-04-17T08:24:48.134Z</time></trkpt><trkpt lat="43.4409267" lon="11.5798267"><ele>498.3333333333333</ele><time>2026-04-17T08:24:49.136Z</time></trkpt><trkpt lat="43.440905" lon="11.579705"><ele>496.66666666666663</ele><time>2026-04-17T08:24:50.135Z</time></trkpt><trkpt lat="43.440875" lon="11.5795867"><ele>495.0</ele><time>2026-04-17T08:24:51.137Z</time></trkpt><trkpt lat="43.440835" lon="11.5794817"><ele>493.33333333333337</ele><time>2026-04-17T08:24:52.134Z</time></trkpt><trkpt lat="43.440795" lon="11.5793883"><ele>491.6666666666667</ele><time>2026-04-17T08:24:53.135Z</time></trkpt><trkpt lat="43.4407517" lon="11.5793117"><ele>490.0</ele><time>2026-04-17T08:24:54.134Z</time></trkpt><trkpt lat="43.4406983" lon="11.5791717"><ele>489.2</ele><time>2026-04-17T08:24:56.136Z</time></trkpt><trkpt lat="43.4407467" lon="11.5790867"><ele>488.4</ele><time>2026-04-17T08:24:58.136Z</time></trkpt><trkpt lat="43.440895" lon="11.5790933"><ele>487.6</ele><time>2026-04-17T08:25:00.134Z</time></trkpt><trkpt lat="43.4409967" lon="11.579125"><ele>486.8</ele><time>2026-04-17T08:25:01.135Z</time></trkpt><trkpt lat="43.4410933" lon="11.57915"><ele>486.0</ele><time>2026-04-17T08:25:02.135Z</time></trkpt><trkpt lat="43.4411817" lon="11.57917"><ele>486.0</ele><time>2026-04-17T08:25:03.136Z</time></trkpt><trkpt lat="43.4412633" lon="11.5791767"><ele>486.0</ele><time>2026-04-17T08:25:04.135Z</time></trkpt><trkpt lat="43.4413383" lon="11.5791633"><ele>486.0</ele><time>2026-04-17T08:25:05.134Z</time></trkpt><trkpt lat="43.441405" lon="11.5791183"><ele>486.0</ele><time>2026-04-17T08:25:06.135Z</time></trkpt><trkpt lat="43.4414567" lon="11.57903"><ele>486.0</ele><time>2026-04-17T08:25:07.135Z</time></trkpt><trkpt lat="43.4415033" lon="11.5789433"><ele>486.0</ele><time>2026-04-17T08:25:08.134Z</time></trkpt><trkpt lat="43.44156" lon="11.5788733"><ele>486.8333333333333</ele><time>2026-04-17T08:25:09.136Z</time></trkpt><trkpt lat="43.4416333" lon="11.5788267"><ele>487.66666666666663</ele><time>2026-04-17T08:25:10.135Z</time></trkpt><trkpt lat="43.4417233" lon="11.5787933"><ele>488.5</ele><time>2026-04-17T08:25:11.134Z</time></trkpt><trkpt lat="43.4418017" lon="11.5787467"><ele>489.3333333333333</ele><time>2026-04-17T08:25:12.136Z</time></trkpt><trkpt lat="43.4418667" lon="11.5786833"><ele>490.16666666666663</ele><time>2026-04-17T08:25:13.134Z</time></trkpt><trkpt lat="43.4419217" lon="11.5785967"><ele>491.0</ele><time>2026-04-17T08:25:14.135Z</time></trkpt><trkpt lat="43.4419617" lon="11.5784883"><ele>490.99999999999994</ele><time>2026-04-17T08:25:15.135Z</time></trkpt><trkpt lat="43.4420067" lon="11.5783767"><ele>491.0</ele><time>2026-04-17T08:25:16.135Z</time></trkpt><trkpt lat="43.4420517" lon="11.57828"><ele>491.0</ele><time>2026-04-17T08:25:17.136Z</time></trkpt><trkpt lat="43.4420967" lon="11.5781867"><ele>491.0</ele><time>2026-04-17T08:25:18.135Z</time></trkpt><trkpt lat="43.4421317" lon="11.5780883"><ele>490.99999999999994</ele><time>2026-04-17T08:25:19.135Z</time></trkpt><trkpt lat="43.4421583" lon="11.5779767"><ele>491.0</ele><time>2026-04-17T08:25:20.135Z</time></trkpt><trkpt lat="43.442175" lon="11.5778417"><ele>483.0</ele><time>2026-04-17T08:25:21.135Z</time></trkpt><trkpt lat="43.442185" lon="11.577695"><ele>475.0</ele><time>2026-04-17T08:25:22.135Z</time></trkpt><trkpt lat="43.442205" lon="11.57754"><ele>467.0</ele><time>2026-04-17T08:25:23.135Z</time></trkpt><trkpt lat="43.44224" lon="11.57738"><ele>459.0</ele><time>2026-04-17T08:25:24.135Z</time></trkpt><trkpt lat="43.4422817" lon="11.5772317"><ele>459.0</ele><time>2026-04-17T08:25:25.136Z</time></trkpt><trkpt lat="43.4423233" lon="11.5771033"><ele>459.0</ele><time>2026-04-17T08:25:26.136Z</time></trkpt><trkpt lat="43.44236" lon="11.576995"><ele>459.0</ele><time>2026-04-17T08:25:27.136Z</time></trkpt><trkpt lat="43.4423833" lon="11.5768933"><ele>459.0</ele><time>2026-04-17T08:25:28.135Z</time></trkpt><trkpt lat="43.442385" lon="11.576785"><ele>459.0</ele><time>2026-04-17T08:25:29.134Z</time></trkpt><trkpt lat="43.44236" lon="11.576675"><ele>459.0</ele><time>2026-04-17T08:25:30.134Z</time></trkpt><trkpt lat="43.4423117" lon="11.5765733"><ele>459.3333333333333</ele><time>2026-04-17T08:25:31.134Z</time></trkpt><trkpt lat="43.44224" lon="11.576475"><ele>459.66666666666663</ele><time>2026-04-17T08:25:32.135Z</time></trkpt><trkpt lat="43.4421767" lon="11.57637"><ele>460.0</ele><time>2026-04-17T08:25:33.136Z</time></trkpt><trkpt lat="43.4421217" lon="11.5762683"><ele>460.3333333333333</ele><time>2026-04-17T08:25:34.135Z</time></trkpt><trkpt lat="43.4420767" lon="11.5761767"><ele>460.66666666666663</ele><time>2026-04-17T08:25:35.137Z</time></trkpt><trkpt lat="43.44203" lon="11.5760983"><ele>461.0</ele><time>2026-04-17T08:25:36.134Z</time></trkpt><trkpt lat="43.44197" lon="11.575965"><ele>463.4</ele><time>2026-04-17T08:25:38.135Z</time></trkpt><trkpt lat="43.442035" lon="11.5758667"><ele>465.8</ele><time>2026-04-17T08:25:40.137Z</time></trkpt><trkpt lat="43.4421083" lon="11.5757383"><ele>468.19999999999993</ele><time>2026-04-17T08:25:42.135Z</time></trkpt><trkpt lat="43.4421283" lon="11.5756333"><ele>470.59999999999997</ele><time>2026-04-17T08:25:43.135Z</time></trkpt><trkpt lat="43.44211" lon="11.5754717"><ele>473.0</ele><time>2026-04-17T08:25:44.135Z</time></trkpt><trkpt lat="43.44207" lon="11.5752883"><ele>473.0</ele><time>2026-04-17T08:25:45.136Z</time></trkpt><trkpt lat="43.442025" lon="11.5751117"><ele>473.0</ele><time>2026-04-17T08:25:46.136Z</time></trkpt><trkpt lat="43.4419933" lon="11.57494"><ele>473.0</ele><time>2026-04-17T08:25:47.135Z</time></trkpt><trkpt lat="43.4419617" lon="11.5747817"><ele>473.0</ele><time>2026-04-17T08:25:48.135Z</time></trkpt><trkpt lat="43.4419283" lon="11.5746283"><ele>470.59999999999997</ele><time>2026-04-17T08:25:49.136Z</time></trkpt><trkpt lat="43.4418917" lon="11.574495"><ele>468.19999999999993</ele><time>2026-04-17T08:25:50.135Z</time></trkpt><trkpt lat="43.4418533" lon="11.5743633"><ele>465.8</ele><time>2026-04-17T08:25:51.14Z</time></trkpt><trkpt lat="43.4418233" lon="11.5742283"><ele>463.4</ele><time>2026-04-17T08:25:52.135Z</time></trkpt><trkpt lat="43.4417967" lon="11.5741"><ele>461.0</ele><time>2026-04-17T08:25:53.135Z</time></trkpt><trkpt lat="43.4417617" lon="11.5739667"><ele>461.0</ele><time>2026-04-17T08:25:54.136Z</time></trkpt><trkpt lat="43.4417217" lon="11.57384"><ele>461.0</ele><time>2026-04-17T08:25:55.137Z</time></trkpt><trkpt lat="43.4416783" lon="11.5737233"><ele>461.0</ele><time>2026-04-17T08:25:56.132Z</time></trkpt><trkpt lat="43.44163" lon="11.573615"><ele>461.0</ele><time>2026-04-17T08:25:57.136Z</time></trkpt><trkpt lat="43.4415833" lon="11.5735067"><ele>461.0</ele><time>2026-04-17T08:25:58.134Z</time></trkpt><trkpt lat="43.4415433" lon="11.5734"><ele>459.3333333333333</ele><time>2026-04-17T08:25:59.134Z</time></trkpt><trkpt lat="43.441515" lon="11.5732917"><ele>457.66666666666663</ele><time>2026-04-17T08:26:00.132Z</time></trkpt><trkpt lat="43.44149" lon="11.573195"><ele>456.0</ele><time>2026-04-17T08:26:01.136Z</time></trkpt><trkpt lat="43.441455" lon="11.5730833"><ele>454.33333333333337</ele><time>2026-04-17T08:26:03.137Z</time></trkpt><trkpt lat="43.4415217" lon="11.573135"><ele>452.6666666666667</ele><time>2026-04-17T08:26:09.136Z</time></trkpt><trkpt lat="43.4415733" lon="11.5731917"><ele>451.0</ele><time>2026-04-17T08:26:10.136Z</time></trkpt><trkpt lat="43.441635" lon="11.573245"><ele>451.00000000000006</ele><time>2026-04-17T08:26:11.137Z</time></trkpt><trkpt lat="43.4417117" lon="11.5732883"><ele>451.0</ele><time>2026-04-17T08:26:12.136Z</time></trkpt><trkpt lat="43.4417883" lon="11.5733283"><ele>451.0</ele><time>2026-04-17T08:26:13.137Z</time></trkpt><trkpt lat="43.441865" lon="11.5733717"><ele>451.0</ele><time>2026-04-17T08:26:14.137Z</time></trkpt><trkpt lat="43.4419317" lon="11.57343"><ele>451.00000000000006</ele><time>2026-04-17T08:26:15.138Z</time></trkpt><trkpt lat="43.441995" lon="11.5735117"><ele>451.0</ele><time>2026-04-17T08:26:16.138Z</time></trkpt><trkpt lat="43.4420617" lon="11.573605"><ele>451.0</ele><time>2026-04-17T08:26:17.136Z</time></trkpt><trkpt lat="43.4421183" lon="11.573735"><ele>451.0</ele><time>2026-04-17T08:26:18.136Z</time></trkpt><trkpt lat="43.442175" lon="11.57388"><ele>451.0</ele><time>2026-04-17T08:26:19.137Z</time></trkpt><trkpt lat="43.442235" lon="11.574045"><ele>451.0</ele><time>2026-04-17T08:26:20.137Z</time></trkpt><trkpt lat="43.4423083" lon="11.5742233"><ele>451.0</ele><time>2026-04-17T08:26:21.139Z</time></trkpt><trkpt lat="43.4424083" lon="11.57441"><ele>451.0</ele><time>2026-04-17T08:26:22.136Z</time></trkpt><trkpt lat="43.4425083" lon="11.5745767"><ele>451.0</ele><time>2026-04-17T08:26:23.136Z</time></trkpt><trkpt lat="43.4426083" lon="11.574735"><ele>449.75</ele><time>2026-04-17T08:26:24.136Z</time></trkpt><trkpt lat="43.4427017" lon="11.574875"><ele>448.5</ele><time>2026-04-17T08:26:25.137Z</time></trkpt><trkpt lat="43.44279" lon="11.5750217"><ele>447.25</ele><time>2026-04-17T08:26:26.136Z</time></trkpt><trkpt lat="43.442865" lon="11.5751783"><ele>446.0</ele><time>2026-04-17T08:26:27.138Z</time></trkpt><trkpt lat="43.4429333" lon="11.575325"><ele>445.75</ele><time>2026-04-17T08:26:28.135Z</time></trkpt><trkpt lat="43.4430167" lon="11.5754583"><ele>445.5</ele><time>2026-04-17T08:26:29.135Z</time></trkpt><trkpt lat="43.443105" lon="11.5755933"><ele>445.25</ele><time>2026-04-17T08:26:30.136Z</time></trkpt><trkpt lat="43.443185" lon="11.57572"><ele>445.0</ele><time>2026-04-17T08:26:31.14Z</time></trkpt><trkpt lat="43.44325" lon="11.5758383"><ele>445.0</ele><time>2026-04-17T08:26:32.137Z</time></trkpt><trkpt lat="43.443295" lon="11.5759633"><ele>445.0</ele><time>2026-04-17T08:26:33.138Z</time></trkpt><trkpt lat="43.4433167" lon="11.57611"><ele>445.0</ele><time>2026-04-17T08:26:34.137Z</time></trkpt><trkpt lat="43.4433317" lon="11.5762617"><ele>445.0</ele><time>2026-04-17T08:26:35.135Z</time></trkpt><trkpt lat="43.4433567" lon="11.5764167"><ele>445.0</ele><time>2026-04-17T08:26:36.136Z</time></trkpt><trkpt lat="43.443395" lon="11.576565"><ele>444.0</ele><time>2026-04-17T08:26:37.136Z</time></trkpt><trkpt lat="43.4434533" lon="11.5767217"><ele>443.0</ele><time>2026-04-17T08:26:38.137Z</time></trkpt><trkpt lat="43.4435133" lon="11.576875"><ele>442.0</ele><time>2026-04-17T08:26:39.138Z</time></trkpt><trkpt lat="43.4435633" lon="11.5770217"><ele>441.0</ele><time>2026-04-17T08:26:40.136Z</time></trkpt><trkpt lat="43.4435967" lon="11.5771583"><ele>440.3333333333333</ele><time>2026-04-17T08:26:41.135Z</time></trkpt><trkpt lat="43.4436267" lon="11.5772867"><ele>439.66666666666663</ele><time>2026-04-17T08:26:42.137Z</time></trkpt><trkpt lat="43.4436683" lon="11.5774117"><ele>439.0</ele><time>2026-04-17T08:26:43.137Z</time></trkpt><trkpt lat="43.44371" lon="11.5775117"><ele>438.3333333333333</ele><time>2026-04-17T08:26:44.136Z</time></trkpt><trkpt lat="43.4437583" lon="11.57759"><ele>437.66666666666663</ele><time>2026-04-17T08:26:45.138Z</time></trkpt><trkpt lat="43.4438183" lon="11.577645"><ele>437.0</ele><time>2026-04-17T08:26:46.135Z</time></trkpt><trkpt lat="43.4438833" lon="11.5776833"><ele>440.0</ele><time>2026-04-17T08:26:47.137Z</time></trkpt><trkpt lat="43.44399" lon="11.5776783"><ele>443.00000000000006</ele><time>2026-04-17T08:26:49.135Z</time></trkpt><trkpt lat="43.4440417" lon="11.5775917"><ele>446.00000000000006</ele><time>2026-04-17T08:26:51.137Z</time></trkpt><trkpt lat="43.4440267" lon="11.5774283"><ele>449.0</ele><time>2026-04-17T08:26:53.136Z</time></trkpt><trkpt lat="43.444" lon="11.577325"><ele>452.0</ele><time>2026-04-17T08:26:54.136Z</time></trkpt><trkpt lat="43.4439933" lon="11.5772317"><ele>452.0</ele><time>2026-04-17T08:26:55.139Z</time></trkpt><trkpt lat="43.4440083" lon="11.5771083"><ele>452.00000000000006</ele><time>2026-04-17T08:26:57.136Z</time></trkpt><trkpt lat="43.444105" lon="11.577115"><ele>452.00000000000006</ele><time>2026-04-17T08:27:00.136Z</time></trkpt><trkpt lat="43.4441617" lon="11.5770767"><ele>452.0</ele><time>2026-04-17T08:27:02.136Z</time></trkpt><trkpt lat="43.44423" lon="11.5770117"><ele>452.0</ele><time>2026-04-17T08:27:04.137Z</time></trkpt><trkpt lat="43.4443467" lon="11.5769683"><ele>454.3333333333333</ele><time>2026-04-17T08:27:06.135Z</time></trkpt><trkpt lat="43.44444" lon="11.5769"><ele>456.66666666666663</ele><time>2026-04-17T08:27:08.136Z</time></trkpt><trkpt lat="43.444475" lon="11.57678"><ele>459.0</ele><time>2026-04-17T08:27:10.135Z</time></trkpt><trkpt lat="43.4444633" lon="11.5766817"><ele>461.33333333333337</ele><time>2026-04-17T08:27:11.136Z</time></trkpt><trkpt lat="43.4444417" lon="11.57658"><ele>463.6666666666667</ele><time>2026-04-17T08:27:12.136Z</time></trkpt><trkpt lat="43.4444183" lon="11.576475"><ele>466.0</ele><time>2026-04-17T08:27:13.136Z</time></trkpt><trkpt lat="43.4444133" lon="11.5763567"><ele>466.0</ele><time>2026-04-17T08:27:14.135Z</time></trkpt><trkpt lat="43.4444117" lon="11.57623"><ele>466.0</ele><time>2026-04-17T08:27:15.136Z</time></trkpt><trkpt lat="43.444435" lon="11.5761017"><ele>466.0</ele><time>2026-04-17T08:27:16.135Z</time></trkpt><trkpt lat="43.4444583" lon="11.5759567"><ele>466.0</ele><time>2026-04-17T08:27:17.136Z</time></trkpt><trkpt lat="43.4444717" lon="11.5758017"><ele>466.0</ele><time>2026-04-17T08:27:18.136Z</time></trkpt><trkpt lat="43.4444733" lon="11.5756617"><ele>467.6</ele><time>2026-04-17T08:27:19.138Z</time></trkpt><trkpt lat="43.4444767" lon="11.575535"><ele>469.20000000000005</ele><time>2026-04-17T08:27:20.136Z</time></trkpt><trkpt lat="43.444485" lon="11.5754117"><ele>470.79999999999995</ele><time>2026-04-17T08:27:21.138Z</time></trkpt><trkpt lat="43.4445067" lon="11.575285"><ele>472.4</ele><time>2026-04-17T08:27:22.136Z</time></trkpt><trkpt lat="43.444525" lon="11.5751633"><ele>474.0</ele><time>2026-04-17T08:27:23.136Z</time></trkpt><trkpt lat="43.4445383" lon="11.5750483"><ele>476.4</ele><time>2026-04-17T08:27:24.138Z</time></trkpt><trkpt lat="43.444545" lon="11.57494"><ele>478.79999999999995</ele><time>2026-04-17T08:27:25.138Z</time></trkpt><trkpt lat="43.44455" lon="11.57484"><ele>481.20000000000005</ele><time>2026-04-17T08:27:26.136Z</time></trkpt><trkpt lat="43.4445783" lon="11.5746983"><ele>483.6</ele><time>2026-04-17T08:27:28.136Z</time></trkpt><trkpt lat="43.4446383" lon="11.5745433"><ele>486.0</ele><time>2026-04-17T08:27:30.135Z</time></trkpt><trkpt lat="43.444665" lon="11.5744617"><ele>488.8333333333333</ele><time>2026-04-17T08:27:31.136Z</time></trkpt><trkpt lat="43.4446783" lon="11.5742933"><ele>491.66666666666663</ele><time>2026-04-17T08:27:33.137Z</time></trkpt><trkpt lat="43.4446867" lon="11.5741933"><ele>494.5</ele><time>2026-04-17T08:27:34.136Z</time></trkpt><trkpt lat="43.4447017" lon="11.5740917"><ele>497.3333333333333</ele><time>2026-04-17T08:27:35.136Z</time></trkpt><trkpt lat="43.4447183" lon="11.5739867"><ele>500.16666666666663</ele><time>2026-04-17T08:27:36.136Z</time></trkpt><trkpt lat="43.4447267" lon="11.573875"><ele>503.0</ele><time>2026-04-17T08:27:37.135Z</time></trkpt><trkpt lat="43.4447317" lon="11.5737567"><ele>504.66666666666663</ele><time>2026-04-17T08:27:38.135Z</time></trkpt><trkpt lat="43.4447333" lon="11.5736233"><ele>506.3333333333333</ele><time>2026-04-17T08:27:39.136Z</time></trkpt><trkpt lat="43.444725" lon="11.573505"><ele>508.0</ele><time>2026-04-17T08:27:40.135Z</time></trkpt><trkpt lat="43.444715" lon="11.573395"><ele>509.66666666666663</ele><time>2026-04-17T08:27:41.136Z</time></trkpt><trkpt lat="43.4446967" lon="11.5732917"><ele>511.3333333333333</ele><time>2026-04-17T08:27:42.136Z</time></trkpt><trkpt lat="43.4446733" lon="11.573195"><ele>513.0</ele><time>2026-04-17T08:27:43.138Z</time></trkpt><trkpt lat="43.4446567" lon="11.5731017"><ele>513.0</ele><time>2026-04-17T08:27:44.136Z</time></trkpt><trkpt lat="43.4446467" lon="11.5729417"><ele>513.0</ele><time>2026-04-17T08:27:46.136Z</time></trkpt><trkpt lat="43.4446583" lon="11.572855"><ele>513.0</ele><time>2026-04-17T08:27:47.135Z</time></trkpt><trkpt lat="43.4446733" lon="11.5727617"><ele>513.0</ele><time>2026-04-17T08:27:48.136Z</time></trkpt><trkpt lat="43.4446933" lon="11.5726533"><ele>513.0</ele><time>2026-04-17T08:27:49.137Z</time></trkpt><trkpt lat="43.4447283" lon="11.57253"><ele>513.0</ele><time>2026-04-17T08:27:50.136Z</time></trkpt><trkpt lat="43.4447817" lon="11.57239"><ele>516.25</ele><time>2026-04-17T08:27:51.137Z</time></trkpt><trkpt lat="43.4448367" lon="11.5722667"><ele>519.5</ele><time>2026-04-17T08:27:52.136Z</time></trkpt><trkpt lat="43.44489" lon="11.5721383"><ele>522.75</ele><time>2026-04-17T08:27:53.136Z</time></trkpt><trkpt lat="43.4449533" lon="11.5720033"><ele>526.0</ele><time>2026-04-17T08:27:54.136Z</time></trkpt><trkpt lat="43.445025" lon="11.5718633"><ele>526.25</ele><time>2026-04-17T08:27:55.137Z</time></trkpt><trkpt lat="43.445105" lon="11.5717217"><ele>526.5</ele><time>2026-04-17T08:27:56.137Z</time></trkpt><trkpt lat="43.445185" lon="11.57158"><ele>526.75</ele><time>2026-04-17T08:27:57.133Z</time></trkpt><trkpt lat="43.44526" lon="11.5714583"><ele>527.0</ele><time>2026-04-17T08:27:58.138Z</time></trkpt><trkpt lat="43.4453317" lon="11.5713483"><ele>527.0</ele><time>2026-04-17T08:27:59.137Z</time></trkpt><trkpt lat="43.4454017" lon="11.5712483"><ele>527.0</ele><time>2026-04-17T08:28:00.136Z</time></trkpt><trkpt lat="43.4454717" lon="11.5711617"><ele>527.0</ele><time>2026-04-17T08:28:01.135Z</time></trkpt><trkpt lat="43.4455367" lon="11.5710717"><ele>527.0</ele><time>2026-04-17T08:28:02.135Z</time></trkpt><trkpt lat="43.4455983" lon="11.5709717"><ele>527.0</ele><time>2026-04-17T08:28:03.137Z</time></trkpt><trkpt lat="43.4456533" lon="11.5708667"><ele>526.6666666666666</ele><time>2026-04-17T08:28:04.136Z</time></trkpt><trkpt lat="43.4456983" lon="11.5707767"><ele>526.3333333333333</ele><time>2026-04-17T08:28:05.135Z</time></trkpt><trkpt lat="43.4457517" lon="11.5706967"><ele>526.0</ele><time>2026-04-17T08:28:06.136Z</time></trkpt><trkpt lat="43.44582" lon="11.5706133"><ele>525.6666666666666</ele><time>2026-04-17T08:28:07.135Z</time></trkpt><trkpt lat="43.4458933" lon="11.57053"><ele>525.3333333333334</ele><time>2026-04-17T08:28:08.136Z</time></trkpt><trkpt lat="43.445955" lon="11.5704633"><ele>525.0</ele><time>2026-04-17T08:28:09.137Z</time></trkpt><trkpt lat="43.4460183" lon="11.5703367"><ele>524.8333333333334</ele><time>2026-04-17T08:28:11.135Z</time></trkpt><trkpt lat="43.44601" lon="11.5702283"><ele>524.6666666666666</ele><time>2026-04-17T08:28:12.135Z</time></trkpt><trkpt lat="43.4460017" lon="11.570105"><ele>524.5</ele><time>2026-04-17T08:28:13.135Z</time></trkpt><trkpt lat="43.446005" lon="11.569985"><ele>524.3333333333333</ele><time>2026-04-17T08:28:14.135Z</time></trkpt><trkpt lat="43.4460167" lon="11.5698533"><ele>524.1666666666666</ele><time>2026-04-17T08:28:15.135Z</time></trkpt><trkpt lat="43.44604" lon="11.56973"><ele>524.0</ele><time>2026-04-17T08:28:16.136Z</time></trkpt><trkpt lat="43.446075" lon="11.5696233"><ele>523.5</ele><time>2026-04-17T08:28:17.135Z</time></trkpt><trkpt lat="43.4461117" lon="11.569505"><ele>523.0</ele><time>2026-04-17T08:28:18.137Z</time></trkpt><trkpt lat="43.446145" lon="11.5693833"><ele>522.5</ele><time>2026-04-17T08:28:19.137Z</time></trkpt><trkpt lat="43.4461733" lon="11.5692683"><ele>522.0</ele><time>2026-04-17T08:28:20.136Z</time></trkpt><trkpt lat="43.4462133" lon="11.56917"><ele>521.5</ele><time>2026-04-17T08:28:21.135Z</time></trkpt><trkpt lat="43.446255" lon="11.5690967"><ele>521.0</ele><time>2026-04-17T08:28:22.138Z</time></trkpt><trkpt lat="43.44636" lon="11.5690267"><ele>523.0</ele><time>2026-04-17T08:28:24.137Z</time></trkpt><trkpt lat="43.44643" lon="11.5690183"><ele>525.0</ele><time>2026-04-17T08:28:25.138Z</time></trkpt><trkpt lat="43.4464967" lon="11.56901"><ele>527.0</ele><time>2026-04-17T08:28:26.137Z</time></trkpt><trkpt lat="43.446615" lon="11.5689517"><ele>529.0</ele><time>2026-04-17T08:28:28.137Z</time></trkpt><trkpt lat="43.4466767" lon="11.568895"><ele>531.0</ele><time>2026-04-17T08:28:29.137Z</time></trkpt><trkpt lat="43.44676" lon="11.56881"><ele>533.0</ele><time>2026-04-17T08:28:30.137Z</time></trkpt><trkpt lat="43.446825" lon="11.56872"><ele>533.4</ele><time>2026-04-17T08:28:31.135Z</time></trkpt><trkpt lat="43.44687" lon="11.5686233"><ele>533.8</ele><time>2026-04-17T08:28:32.136Z</time></trkpt><trkpt lat="43.446895" lon="11.568515"><ele>534.2</ele><time>2026-04-17T08:28:33.138Z</time></trkpt><trkpt lat="43.4469167" lon="11.5683867"><ele>534.6</ele><time>2026-04-17T08:28:34.137Z</time></trkpt><trkpt lat="43.4469417" lon="11.5682567"><ele>535.0</ele><time>2026-04-17T08:28:35.136Z</time></trkpt><trkpt lat="43.4469617" lon="11.568125"><ele>535.0</ele><time>2026-04-17T08:28:36.136Z</time></trkpt><trkpt lat="43.44697" lon="11.5679983"><ele>535.0</ele><time>2026-04-17T08:28:37.137Z</time></trkpt><trkpt lat="43.4469783" lon="11.5678667"><ele>535.0</ele><time>2026-04-17T08:28:38.137Z</time></trkpt><trkpt lat="43.4469933" lon="11.567745"><ele>535.0</ele><time>2026-04-17T08:28:39.137Z</time></trkpt><trkpt lat="43.447015" lon="11.5676283"><ele>535.0</ele><time>2026-04-17T08:28:40.136Z</time></trkpt><trkpt lat="43.4470433" lon="11.5675233"><ele>535.0</ele><time>2026-04-17T08:28:41.135Z</time></trkpt><trkpt lat="43.4470867" lon="11.5674217"><ele>535.8571428571429</ele><time>2026-04-17T08:28:42.137Z</time></trkpt><trkpt lat="43.4471183" lon="11.56733"><ele>536.7142857142858</ele><time>2026-04-17T08:28:43.136Z</time></trkpt><trkpt lat="43.44714" lon="11.567245"><ele>537.5714285714287</ele><time>2026-04-17T08:28:44.137Z</time></trkpt><trkpt lat="43.4471583" lon="11.5671617"><ele>538.4285714285714</ele><time>2026-04-17T08:28:45.137Z</time></trkpt><trkpt lat="43.44718" lon="11.56707"><ele>539.2857142857143</ele><time>2026-04-17T08:28:46.136Z</time></trkpt><trkpt lat="43.4472083" lon="11.566975"><ele>540.1428571428572</ele><time>2026-04-17T08:28:47.137Z</time></trkpt><trkpt lat="43.4472483" lon="11.5668817"><ele>541.0</ele><time>2026-04-17T08:28:48.136Z</time></trkpt><trkpt lat="43.447285" lon="11.5668033"><ele>543.4</ele><time>2026-04-17T08:28:49.136Z</time></trkpt><trkpt lat="43.4473117" lon="11.566685"><ele>545.8</ele><time>2026-04-17T08:28:51.136Z</time></trkpt><trkpt lat="43.4472867" lon="11.5665533"><ele>548.1999999999999</ele><time>2026-04-17T08:28:53.135Z</time></trkpt><trkpt lat="43.4472983" lon="11.5664033"><ele>550.6</ele><time>2026-04-17T08:28:55.138Z</time></trkpt><trkpt lat="43.4472933" lon="11.56625"><ele>553.0</ele><time>2026-04-17T08:28:57.138Z</time></trkpt><trkpt lat="43.4472717" lon="11.566165"><ele>553.8333333333334</ele><time>2026-04-17T08:28:58.136Z</time></trkpt><trkpt lat="43.44726" lon="11.566065"><ele>554.6666666666667</ele><time>2026-04-17T08:28:59.136Z</time></trkpt><trkpt lat="43.447255" lon="11.5659717"><ele>555.5</ele><time>2026-04-17T08:29:00.137Z</time></trkpt><trkpt lat="43.4472683" lon="11.5658617"><ele>556.3333333333334</ele><time>2026-04-17T08:29:01.137Z</time></trkpt><trkpt lat="43.447285" lon="11.5657467"><ele>557.1666666666666</ele><time>2026-04-17T08:29:02.138Z</time></trkpt><trkpt lat="43.44729" lon="11.565635"><ele>558.0</ele><time>2026-04-17T08:29:03.135Z</time></trkpt><trkpt lat="43.4472883" lon="11.565515"><ele>558.0</ele><time>2026-04-17T08:29:04.136Z</time></trkpt><trkpt lat="43.4472783" lon="11.5653633"><ele>558.0</ele><time>2026-04-17T08:29:05.136Z</time></trkpt><trkpt lat="43.4472617" lon="11.5651867"><ele>558.0</ele><time>2026-04-17T08:29:06.137Z</time></trkpt><trkpt lat="43.44725" lon="11.5650183"><ele>558.0</ele><time>2026-04-17T08:29:07.135Z</time></trkpt><trkpt lat="43.4472417" lon="11.5648683"><ele>558.1999999999999</ele><time>2026-04-17T08:29:08.135Z</time></trkpt><trkpt lat="43.4472167" lon="11.5647133"><ele>558.4</ele><time>2026-04-17T08:29:09.136Z</time></trkpt><trkpt lat="43.4471867" lon="11.564565"><ele>558.5999999999999</ele><time>2026-04-17T08:29:10.136Z</time></trkpt><trkpt lat="43.4471517" lon="11.5644433"><ele>558.8</ele><time>2026-04-17T08:29:11.135Z</time></trkpt><trkpt lat="43.4471117" lon="11.5643367"><ele>559.0</ele><time>2026-04-17T08:29:12.136Z</time></trkpt><trkpt lat="43.4470833" lon="11.56424"><ele>559.0</ele><time>2026-04-17T08:29:13.136Z</time></trkpt><trkpt lat="43.44706" lon="11.5641317"><ele>559.0</ele><time>2026-04-17T08:29:14.137Z</time></trkpt><trkpt lat="43.447045" lon="11.563995"><ele>559.0</ele><time>2026-04-17T08:29:15.137Z</time></trkpt><trkpt lat="43.4470533" lon="11.563835"><ele>559.0</ele><time>2026-04-17T08:29:16.135Z</time></trkpt><trkpt lat="43.4470633" lon="11.5636817"><ele>559.0</ele><time>2026-04-17T08:29:17.136Z</time></trkpt><trkpt lat="43.4470783" lon="11.5635483"><ele>559.0</ele><time>2026-04-17T08:29:18.136Z</time></trkpt><trkpt lat="43.4470967" lon="11.5634283"><ele>559.0</ele><time>2026-04-17T08:29:19.137Z</time></trkpt><trkpt lat="43.4471333" lon="11.5633317"><ele>559.0</ele><time>2026-04-17T08:29:20.136Z</time></trkpt><trkpt lat="43.4471933" lon="11.563255"><ele>559.0</ele><time>2026-04-17T08:29:21.137Z</time></trkpt><trkpt lat="43.4472617" lon="11.5631917"><ele>559.0</ele><time>2026-04-17T08:29:22.135Z</time></trkpt><trkpt lat="43.4473517" lon="11.5631433"><ele>559.0</ele><time>2026-04-17T08:29:23.135Z</time></trkpt><trkpt lat="43.4474333" lon="11.5631183"><ele>560.5</ele><time>2026-04-17T08:29:24.136Z</time></trkpt><trkpt lat="43.4475" lon="11.563115"><ele>562.0</ele><time>2026-04-17T08:29:25.137Z</time></trkpt><trkpt lat="43.4475667" lon="11.5631417"><ele>563.5</ele><time>2026-04-17T08:29:26.137Z</time></trkpt><trkpt lat="43.4476383" lon="11.563195"><ele>565.0</ele><time>2026-04-17T08:29:27.138Z</time></trkpt><trkpt lat="43.447715" lon="11.563245"><ele>566.5</ele><time>2026-04-17T08:29:28.136Z</time></trkpt><trkpt lat="43.4477883" lon="11.56328"><ele>568.0</ele><time>2026-04-17T08:29:29.137Z</time></trkpt><trkpt lat="43.44788" lon="11.5632583"><ele>568.0</ele><time>2026-04-17T08:29:30.135Z</time></trkpt><trkpt lat="43.4479633" lon="11.5632033"><ele>568.0</ele><time>2026-04-17T08:29:31.136Z</time></trkpt><trkpt lat="43.4480317" lon="11.56316"><ele>568.0</ele><time>2026-04-17T08:29:32.136Z</time></trkpt><trkpt lat="43.4481367" lon="11.5631383"><ele>568.0</ele><time>2026-04-17T08:29:34.137Z</time></trkpt><trkpt lat="43.4482083" lon="11.5631233"><ele>568.0</ele><time>2026-04-17T08:29:37.131Z</time></trkpt><trkpt lat="43.4481967" lon="11.563035"><ele>568.0</ele><time>2026-04-17T08:29:39.137Z</time></trkpt><trkpt lat="43.4481567" lon="11.5628833"><ele>569.1999999999999</ele><time>2026-04-17T08:29:41.136Z</time></trkpt><trkpt lat="43.448145" lon="11.5627733"><ele>570.4</ele><time>2026-04-17T08:29:42.137Z</time></trkpt><trkpt lat="43.44814" lon="11.56267"><ele>571.5999999999999</ele><time>2026-04-17T08:29:43.139Z</time></trkpt><trkpt lat="43.448105" lon="11.5625"><ele>572.8</ele><time>2026-04-17T08:29:45.139Z</time></trkpt><trkpt lat="43.448055" lon="11.562405"><ele>574.0</ele><time>2026-04-17T08:29:46.136Z</time></trkpt><trkpt lat="43.4479767" lon="11.5622983"><ele>574.75</ele><time>2026-04-17T08:29:47.134Z</time></trkpt><trkpt lat="43.4478967" lon="11.5621883"><ele>575.5</ele><time>2026-04-17T08:29:48.138Z</time></trkpt><trkpt lat="43.4478133" lon="11.562085"><ele>576.25</ele><time>2026-04-17T08:29:49.136Z</time></trkpt><trkpt lat="43.447735" lon="11.561975"><ele>577.0</ele><time>2026-04-17T08:29:50.136Z</time></trkpt><trkpt lat="43.44766" lon="11.5618483"><ele>578.75</ele><time>2026-04-17T08:29:51.137Z</time></trkpt><trkpt lat="43.4475917" lon="11.5617033"><ele>580.5</ele><time>2026-04-17T08:29:52.136Z</time></trkpt><trkpt lat="43.4475283" lon="11.5615633"><ele>582.25</ele><time>2026-04-17T08:29:53.136Z</time></trkpt><trkpt lat="43.4474667" lon="11.5614383"><ele>584.0</ele><time>2026-04-17T08:29:54.136Z</time></trkpt><trkpt lat="43.4473967" lon="11.5613183"><ele>584.0</ele><time>2026-04-17T08:29:55.137Z</time></trkpt><trkpt lat="43.447315" lon="11.5612017"><ele>584.0</ele><time>2026-04-17T08:29:56.136Z</time></trkpt><trkpt lat="43.4472417" lon="11.5610917"><ele>584.0</ele><time>2026-04-17T08:29:57.136Z</time></trkpt><trkpt lat="43.44717" lon="11.560965"><ele>584.0</ele><time>2026-04-17T08:29:58.135Z</time></trkpt><trkpt lat="43.4470883" lon="11.5608183"><ele>585.0</ele><time>2026-04-17T08:29:59.136Z</time></trkpt><trkpt lat="43.4469917" lon="11.560665"><ele>586.0</ele><time>2026-04-17T08:30:00.136Z</time></trkpt><trkpt lat="43.4468867" lon="11.5605133"><ele>587.0</ele><time>2026-04-17T08:30:01.138Z</time></trkpt><trkpt lat="43.4467767" lon="11.5603683"><ele>588.5</ele><time>2026-04-17T08:30:02.139Z</time></trkpt><trkpt lat="43.4466733" lon="11.560235"><ele>590.0</ele><time>2026-04-17T08:30:03.137Z</time></trkpt><trkpt lat="43.4465867" lon="11.56011"><ele>591.5</ele><time>2026-04-17T08:30:04.136Z</time></trkpt><trkpt lat="43.4465133" lon="11.559995"><ele>593.0</ele><time>2026-04-17T08:30:05.136Z</time></trkpt><trkpt lat="43.4464617" lon="11.5598967"><ele>593.0</ele><time>2026-04-17T08:30:06.136Z</time></trkpt><trkpt lat="43.4464167" lon="11.55979"><ele>593.0</ele><time>2026-04-17T08:30:07.137Z</time></trkpt><trkpt lat="43.4463817" lon="11.5596733"><ele>593.0</ele><time>2026-04-17T08:30:08.138Z</time></trkpt><trkpt lat="43.4463483" lon="11.55957"><ele>593.0</ele><time>2026-04-17T08:30:09.137Z</time></trkpt><trkpt lat="43.4463167" lon="11.5594833"><ele>593.0</ele><time>2026-04-17T08:30:10.133Z</time></trkpt><trkpt lat="43.4461967" lon="11.559425"><ele>595.0</ele><time>2026-04-17T08:30:12.136Z</time></trkpt><trkpt lat="43.44612" lon="11.5593817"><ele>597.0</ele><time>2026-04-17T08:30:13.135Z</time></trkpt><trkpt lat="43.4460467" lon="11.5593117"><ele>599.0</ele><time>2026-04-17T08:30:14.136Z</time></trkpt><trkpt lat="43.4459517" lon="11.5592067"><ele>601.0</ele><time>2026-04-17T08:30:15.135Z</time></trkpt><trkpt lat="43.4458683" lon="11.5591217"><ele>603.0</ele><time>2026-04-17T08:30:16.135Z</time></trkpt><trkpt lat="43.44579" lon="11.5590483"><ele>603.0</ele><time>2026-04-17T08:30:17.136Z</time></trkpt><trkpt lat="43.4457283" lon="11.5589817"><ele>603.0</ele><time>2026-04-17T08:30:18.135Z</time></trkpt><trkpt lat="43.4456917" lon="11.5588217"><ele>603.0</ele><time>2026-04-17T08:30:20.136Z</time></trkpt><trkpt lat="43.4457" lon="11.558725"><ele>603.0</ele><time>2026-04-17T08:30:21.137Z</time></trkpt><trkpt lat="43.445695" lon="11.5586233"><ele>603.0</ele><time>2026-04-17T08:30:22.136Z</time></trkpt><trkpt lat="43.4456783" lon="11.55852"><ele>603.0</ele><time>2026-04-17T08:30:23.136Z</time></trkpt><trkpt lat="43.445635" lon="11.5583917"><ele>603.5</ele><time>2026-04-17T08:30:24.138Z</time></trkpt><trkpt lat="43.4455733" lon="11.55825"><ele>604.0</ele><time>2026-04-17T08:30:25.137Z</time></trkpt><trkpt lat="43.4454933" lon="11.5581133"><ele>604.5</ele><time>2026-04-17T08:30:26.136Z</time></trkpt><trkpt lat="43.4453967" lon="11.557985"><ele>605.0</ele><time>2026-04-17T08:30:27.137Z</time></trkpt><trkpt lat="43.4452983" lon="11.5578567"><ele>605.0</ele><time>2026-04-17T08:30:28.135Z</time></trkpt><trkpt lat="43.445205" lon="11.557715"><ele>605.0</ele><time>2026-04-17T08:30:29.137Z</time></trkpt><trkpt lat="43.4451117" lon="11.5575667"><ele>605.0</ele><time>2026-04-17T08:30:30.136Z</time></trkpt><trkpt lat="43.4450333" lon="11.5574383"><ele>605.0</ele><time>2026-04-17T08:30:31.136Z</time></trkpt><trkpt lat="43.444965" lon="11.5573333"><ele>605.0</ele><time>2026-04-17T08:30:32.136Z</time></trkpt><trkpt lat="43.44489" lon="11.55725"><ele>605.0</ele><time>2026-04-17T08:30:33.137Z</time></trkpt><trkpt lat="43.44478" lon="11.5571833"><ele>605.0</ele><time>2026-04-17T08:30:34.137Z</time></trkpt><trkpt lat="43.4446417" lon="11.55713"><ele>605.0</ele><time>2026-04-17T08:30:35.137Z</time></trkpt><trkpt lat="43.4445117" lon="11.557075"><ele>606.6</ele><time>2026-04-17T08:30:36.137Z</time></trkpt><trkpt lat="43.4444017" lon="11.55703"><ele>608.2</ele><time>2026-04-17T08:30:37.137Z</time></trkpt><trkpt lat="43.4443333" lon="11.5569983"><ele>609.8</ele><time>2026-04-17T08:30:38.138Z</time></trkpt><trkpt lat="43.4442783" lon="11.55694"><ele>611.4</ele><time>2026-04-17T08:30:40.137Z</time></trkpt><trkpt lat="43.4443283" lon="11.5568617"><ele>613.0</ele><time>2026-04-17T08:30:42.136Z</time></trkpt><trkpt lat="43.44442" lon="11.5567183"><ele>613.0</ele><time>2026-04-17T08:30:44.136Z</time></trkpt><trkpt lat="43.4444633" lon="11.55661"><ele>613.0</ele><time>2026-04-17T08:30:45.137Z</time></trkpt><trkpt lat="43.4445" lon="11.5564883"><ele>613.0</ele><time>2026-04-17T08:30:46.136Z</time></trkpt><trkpt lat="43.444525" lon="11.5563717"><ele>613.0</ele><time>2026-04-17T08:30:47.135Z</time></trkpt><trkpt lat="43.44455" lon="11.55625"><ele>613.0</ele><time>2026-04-17T08:30:48.137Z</time></trkpt><trkpt lat="43.444565" lon="11.5561167"><ele>612.4</ele><time>2026-04-17T08:30:49.135Z</time></trkpt><trkpt lat="43.44457" lon="11.5559783"><ele>611.8</ele><time>2026-04-17T08:30:50.132Z</time></trkpt><trkpt lat="43.4445633" lon="11.5558417"><ele>611.2</ele><time>2026-04-17T08:30:51.134Z</time></trkpt><trkpt lat="43.4445417" lon="11.5557117"><ele>610.6</ele><time>2026-04-17T08:30:52.136Z</time></trkpt><trkpt lat="43.4444917" lon="11.5555883"><ele>610.0</ele><time>2026-04-17T08:30:53.137Z</time></trkpt><trkpt lat="43.4444317" lon="11.5554633"><ele>607.5</ele><time>2026-04-17T08:30:54.135Z</time></trkpt><trkpt lat="43.4443633" lon="11.5553467"><ele>605.0</ele><time>2026-04-17T08:30:55.135Z</time></trkpt><trkpt lat="43.4443033" lon="11.555215"><ele>602.5</ele><time>2026-04-17T08:30:56.135Z</time></trkpt><trkpt lat="43.4442417" lon="11.5550633"><ele>600.0</ele><time>2026-04-17T08:30:57.138Z</time></trkpt><trkpt lat="43.444175" lon="11.5549133"><ele>600.0</ele><time>2026-04-17T08:30:58.135Z</time></trkpt><trkpt lat="43.4441067" lon="11.55477"><ele>600.0</ele><time>2026-04-17T08:30:59.134Z</time></trkpt><trkpt lat="43.44404" lon="11.5546217"><ele>600.0</ele><time>2026-04-17T08:31:00.135Z</time></trkpt><trkpt lat="43.4439767" lon="11.5544683"><ele>600.0</ele><time>2026-04-17T08:31:01.137Z</time></trkpt><trkpt lat="43.44392" lon="11.5543217"><ele>597.25</ele><time>2026-04-17T08:31:02.135Z</time></trkpt><trkpt lat="43.44387" lon="11.5541683"><ele>594.5</ele><time>2026-04-17T08:31:03.136Z</time></trkpt><trkpt lat="43.4438267" lon="11.5540067"><ele>591.75</ele><time>2026-04-17T08:31:04.136Z</time></trkpt><trkpt lat="43.44379" lon="11.5538533"><ele>589.0</ele><time>2026-04-17T08:31:05.135Z</time></trkpt><trkpt lat="43.4437517" lon="11.5537167"><ele>593.6</ele><time>2026-04-17T08:31:06.138Z</time></trkpt><trkpt lat="43.4437283" lon="11.553595"><ele>598.2</ele><time>2026-04-17T08:31:07.138Z</time></trkpt><trkpt lat="43.443705" lon="11.5534783"><ele>602.8000000000001</ele><time>2026-04-17T08:31:08.134Z</time></trkpt><trkpt lat="43.443675" lon="11.553365"><ele>607.4</ele><time>2026-04-17T08:31:09.137Z</time></trkpt><trkpt lat="43.4436433" lon="11.5532367"><ele>612.0</ele><time>2026-04-17T08:31:10.136Z</time></trkpt><trkpt lat="43.4435883" lon="11.5531083"><ele>612.0</ele><time>2026-04-17T08:31:11.135Z</time></trkpt><trkpt lat="43.44353" lon="11.5529683"><ele>612.0</ele><time>2026-04-17T08:31:12.136Z</time></trkpt><trkpt lat="43.4434817" lon="11.5528267"><ele>612.0</ele><time>2026-04-17T08:31:13.137Z</time></trkpt><trkpt lat="43.44344" lon="11.55269"><ele>612.0</ele><time>2026-04-17T08:31:14.132Z</time></trkpt><trkpt lat="43.4433933" lon="11.552545"><ele>607.25</ele><time>2026-04-17T08:31:15.137Z</time></trkpt><trkpt lat="43.4433383" lon="11.5523983"><ele>602.5</ele><time>2026-04-17T08:31:16.136Z</time></trkpt><trkpt lat="43.4432867" lon="11.55225"><ele>597.75</ele><time>2026-04-17T08:31:17.136Z</time></trkpt><trkpt lat="43.4432283" lon="11.552105"><ele>593.0</ele><time>2026-04-17T08:31:18.136Z</time></trkpt><trkpt lat="43.4431617" lon="11.55197"><ele>593.5</ele><time>2026-04-17T08:31:19.135Z</time></trkpt><trkpt lat="43.443065" lon="11.5518317"><ele>594.0</ele><time>2026-04-17T08:31:20.135Z</time></trkpt><trkpt lat="43.4429833" lon="11.551695"><ele>594.5</ele><time>2026-04-17T08:31:21.135Z</time></trkpt><trkpt lat="43.4429133" lon="11.5515633"><ele>595.0</ele><time>2026-04-17T08:31:22.135Z</time></trkpt><trkpt lat="43.4428583" lon="11.5514367"><ele>595.0</ele><time>2026-04-17T08:31:23.134Z</time></trkpt><trkpt lat="43.4428" lon="11.5513167"><ele>595.0</ele><time>2026-04-17T08:31:24.136Z</time></trkpt><trkpt lat="43.4427133" lon="11.5512133"><ele>595.0</ele><time>2026-04-17T08:31:25.135Z</time></trkpt><trkpt lat="43.4426167" lon="11.551115"><ele>595.0</ele><time>2026-04-17T08:31:26.135Z</time></trkpt><trkpt lat="43.442525" lon="11.5510167"><ele>594.25</ele><time>2026-04-17T08:31:27.136Z</time></trkpt><trkpt lat="43.44244" lon="11.550885"><ele>593.5</ele><time>2026-04-17T08:31:28.135Z</time></trkpt><trkpt lat="43.4423567" lon="11.5507183"><ele>592.75</ele><time>2026-04-17T08:31:29.135Z</time></trkpt><trkpt lat="43.442275" lon="11.550515"><ele>592.0</ele><time>2026-04-17T08:31:30.136Z</time></trkpt><trkpt lat="43.442205" lon="11.550345"><ele>592.0</ele><time>2026-04-17T08:31:31.135Z</time></trkpt><trkpt lat="43.442155" lon="11.5502083"><ele>592.0</ele><time>2026-04-17T08:31:32.135Z</time></trkpt><trkpt lat="43.44213" lon="11.5500917"><ele>592.0</ele><time>2026-04-17T08:31:33.138Z</time></trkpt><trkpt lat="43.4421267" lon="11.5499783"><ele>592.0</ele><time>2026-04-17T08:31:34.138Z</time></trkpt><trkpt lat="43.4421517" lon="11.54987"><ele>592.0</ele><time>2026-04-17T08:31:35.135Z</time></trkpt><trkpt lat="43.4421983" lon="11.5497467"><ele>592.0</ele><time>2026-04-17T08:31:36.137Z</time></trkpt><trkpt lat="43.4422383" lon="11.5496083"><ele>592.0</ele><time>2026-04-17T08:31:37.137Z</time></trkpt><trkpt lat="43.4422667" lon="11.54946"><ele>592.0</ele><time>2026-04-17T08:31:38.135Z</time></trkpt><trkpt lat="43.4422783" lon="11.5493"><ele>592.0</ele><time>2026-04-17T08:31:39.137Z</time></trkpt><trkpt lat="43.44228" lon="11.5491217"><ele>592.0</ele><time>2026-04-17T08:31:40.135Z</time></trkpt><trkpt lat="43.4422783" lon="11.5489317"><ele>592.0</ele><time>2026-04-17T08:31:41.136Z</time></trkpt><trkpt lat="43.4422783" lon="11.548745"><ele>592.0</ele><time>2026-04-17T08:31:42.136Z</time></trkpt><trkpt lat="43.442285" lon="11.54857"><ele>592.0</ele><time>2026-04-17T08:31:43.134Z</time></trkpt><trkpt lat="43.4422933" lon="11.5483933"><ele>592.0</ele><time>2026-04-17T08:31:44.135Z</time></trkpt><trkpt lat="43.4422933" lon="11.5482283"><ele>592.0</ele><time>2026-04-17T08:31:45.137Z</time></trkpt><trkpt lat="43.4422867" lon="11.5480717"><ele>592.0</ele><time>2026-04-17T08:31:46.136Z</time></trkpt><trkpt lat="43.4422717" lon="11.54792"><ele>592.0</ele><time>2026-04-17T08:31:47.136Z</time></trkpt><trkpt lat="43.4422433" lon="11.5477683"><ele>592.0</ele><time>2026-04-17T08:31:48.135Z</time></trkpt><trkpt lat="43.44221" lon="11.5476283"><ele>592.0</ele><time>2026-04-17T08:31:49.136Z</time></trkpt><trkpt lat="43.4421783" lon="11.5475067"><ele>592.0</ele><time>2026-04-17T08:31:50.136Z</time></trkpt><trkpt lat="43.44215" lon="11.54738"><ele>592.0</ele><time>2026-04-17T08:31:51.136Z</time></trkpt><trkpt lat="43.4421367" lon="11.5472417"><ele>592.0</ele><time>2026-04-17T08:31:52.137Z</time></trkpt><trkpt lat="43.4421417" lon="11.5471067"><ele>593.8000000000001</ele><time>2026-04-17T08:31:53.136Z</time></trkpt><trkpt lat="43.4421617" lon="11.5469867"><ele>595.6</ele><time>2026-04-17T08:31:54.137Z</time></trkpt><trkpt lat="43.4421867" lon="11.54688"><ele>597.4000000000001</ele><time>2026-04-17T08:31:55.136Z</time></trkpt><trkpt lat="43.4422233" lon="11.5467717"><ele>599.2</ele><time>2026-04-17T08:31:56.136Z</time></trkpt><trkpt lat="43.4422767" lon="11.54666"><ele>601.0</ele><time>2026-04-17T08:31:57.135Z</time></trkpt><trkpt lat="43.4423417" lon="11.5465517"><ele>601.0</ele><time>2026-04-17T08:31:58.135Z</time></trkpt><trkpt lat="43.4424267" lon="11.5464567"><ele>601.0</ele><time>2026-04-17T08:31:59.135Z</time></trkpt><trkpt lat="43.4425167" lon="11.546385"><ele>601.0</ele><time>2026-04-17T08:32:00.136Z</time></trkpt><trkpt lat="43.4425983" lon="11.5463267"><ele>601.0</ele><time>2026-04-17T08:32:01.136Z</time></trkpt><trkpt lat="43.442685" lon="11.5462783"><ele>601.0</ele><time>2026-04-17T08:32:02.136Z</time></trkpt><trkpt lat="43.4427633" lon="11.546225"><ele>603.0</ele><time>2026-04-17T08:32:03.136Z</time></trkpt><trkpt lat="43.4428333" lon="11.5461567"><ele>605.0</ele><time>2026-04-17T08:32:04.136Z</time></trkpt><trkpt lat="43.442885" lon="11.54606"><ele>607.0</ele><time>2026-04-17T08:32:05.137Z</time></trkpt><trkpt lat="43.4429167" lon="11.54594"><ele>609.0</ele><time>2026-04-17T08:32:06.138Z</time></trkpt><trkpt lat="43.442925" lon="11.5458"><ele>611.0</ele><time>2026-04-17T08:32:07.137Z</time></trkpt><trkpt lat="43.4429167" lon="11.5456617"><ele>611.0</ele><time>2026-04-17T08:32:08.139Z</time></trkpt><trkpt lat="43.4428817" lon="11.5455183"><ele>611.0</ele><time>2026-04-17T08:32:09.14Z</time></trkpt><trkpt lat="43.4428467" lon="11.545385"><ele>611.0</ele><time>2026-04-17T08:32:10.138Z</time></trkpt><trkpt lat="43.442805" lon="11.5452533"><ele>611.0</ele><time>2026-04-17T08:32:11.138Z</time></trkpt><trkpt lat="43.4427667" lon="11.545125"><ele>611.0</ele><time>2026-04-17T08:32:12.138Z</time></trkpt><trkpt lat="43.4427167" lon="11.5449917"><ele>609.0</ele><time>2026-04-17T08:32:13.138Z</time></trkpt><trkpt lat="43.442665" lon="11.544865"><ele>607.0</ele><time>2026-04-17T08:32:14.137Z</time></trkpt><trkpt lat="43.4426033" lon="11.5447417"><ele>605.0</ele><time>2026-04-17T08:32:15.139Z</time></trkpt><trkpt lat="43.4425467" lon="11.5446317"><ele>603.0</ele><time>2026-04-17T08:32:16.136Z</time></trkpt><trkpt lat="43.4424867" lon="11.5445383"><ele>601.0</ele><time>2026-04-17T08:32:17.135Z</time></trkpt><trkpt lat="43.4424383" lon="11.5444467"><ele>599.1666666666667</ele><time>2026-04-17T08:32:18.135Z</time></trkpt><trkpt lat="43.4423883" lon="11.5443583"><ele>597.3333333333334</ele><time>2026-04-17T08:32:19.135Z</time></trkpt><trkpt lat="43.44235" lon="11.5442633"><ele>595.5</ele><time>2026-04-17T08:32:20.134Z</time></trkpt><trkpt lat="43.44232" lon="11.5441533"><ele>593.6666666666666</ele><time>2026-04-17T08:32:21.137Z</time></trkpt><trkpt lat="43.4423" lon="11.54403"><ele>591.8333333333333</ele><time>2026-04-17T08:32:22.136Z</time></trkpt><trkpt lat="43.4422817" lon="11.5439083"><ele>590.0</ele><time>2026-04-17T08:32:23.134Z</time></trkpt><trkpt lat="43.44226" lon="11.5437883"><ele>589.2</ele><time>2026-04-17T08:32:24.137Z</time></trkpt><trkpt lat="43.442245" lon="11.54366"><ele>588.4</ele><time>2026-04-17T08:32:25.135Z</time></trkpt><trkpt lat="43.44224" lon="11.54352"><ele>587.6</ele><time>2026-04-17T08:32:26.136Z</time></trkpt><trkpt lat="43.44224" lon="11.5433667"><ele>586.8</ele><time>2026-04-17T08:32:27.136Z</time></trkpt><trkpt lat="43.442255" lon="11.5432167"><ele>586.0</ele><time>2026-04-17T08:32:28.135Z</time></trkpt><trkpt lat="43.4422833" lon="11.5430817"><ele>586.0</ele><time>2026-04-17T08:32:29.141Z</time></trkpt><trkpt lat="43.4423083" lon="11.5429617"><ele>586.0</ele><time>2026-04-17T08:32:30.138Z</time></trkpt><trkpt lat="43.4423167" lon="11.54284"><ele>586.0</ele><time>2026-04-17T08:32:31.137Z</time></trkpt><trkpt lat="43.4423033" lon="11.5427233"><ele>586.0</ele><time>2026-04-17T08:32:32.135Z</time></trkpt><trkpt lat="43.44226" lon="11.5426333"><ele>586.0</ele><time>2026-04-17T08:32:33.136Z</time></trkpt><trkpt lat="43.4422133" lon="11.542525"><ele>586.0</ele><time>2026-04-17T08:32:34.136Z</time></trkpt><trkpt lat="43.442165" lon="11.5424117"><ele>584.6666666666667</ele><time>2026-04-17T08:32:35.135Z</time></trkpt><trkpt lat="43.4421167" lon="11.542315"><ele>583.3333333333334</ele><time>2026-04-17T08:32:36.135Z</time></trkpt><trkpt lat="43.4420817" lon="11.5422233"><ele>582.0</ele><time>2026-04-17T08:32:37.136Z</time></trkpt><trkpt lat="43.4420617" lon="11.5421217"><ele>580.6666666666666</ele><time>2026-04-17T08:32:38.137Z</time></trkpt><trkpt lat="43.4420583" lon="11.5420183"><ele>579.3333333333333</ele><time>2026-04-17T08:32:39.137Z</time></trkpt><trkpt lat="43.4420717" lon="11.54191"><ele>578.0</ele><time>2026-04-17T08:32:40.139Z</time></trkpt><trkpt lat="43.4420783" lon="11.54178"><ele>581.8</ele><time>2026-04-17T08:32:41.136Z</time></trkpt><trkpt lat="43.4420817" lon="11.5416517"><ele>585.5999999999999</ele><time>2026-04-17T08:32:42.137Z</time></trkpt><trkpt lat="43.4420817" lon="11.5415067"><ele>589.4000000000001</ele><time>2026-04-17T08:32:43.135Z</time></trkpt><trkpt lat="43.4420833" lon="11.5413733"><ele>593.2</ele><time>2026-04-17T08:32:44.137Z</time></trkpt><trkpt lat="43.4420817" lon="11.541255"><ele>597.0</ele><time>2026-04-17T08:32:45.137Z</time></trkpt><trkpt lat="43.4420733" lon="11.5411583"><ele>599.6666666666666</ele><time>2026-04-17T08:32:46.138Z</time></trkpt><trkpt lat="43.442055" lon="11.5410617"><ele>602.3333333333334</ele><time>2026-04-17T08:32:47.137Z</time></trkpt><trkpt lat="43.44204" lon="11.5409533"><ele>605.0</ele><time>2026-04-17T08:32:48.136Z</time></trkpt><trkpt lat="43.442025" lon="11.540845"><ele>607.6666666666667</ele><time>2026-04-17T08:32:49.136Z</time></trkpt><trkpt lat="43.4420167" lon="11.540725"><ele>610.3333333333334</ele><time>2026-04-17T08:32:50.136Z</time></trkpt><trkpt lat="43.4420133" lon="11.5405967"><ele>613.0</ele><time>2026-04-17T08:32:51.137Z</time></trkpt><trkpt lat="43.4420133" lon="11.5404517"><ele>613.1666666666667</ele><time>2026-04-17T08:32:52.137Z</time></trkpt><trkpt lat="43.4420117" lon="11.5403183"><ele>613.3333333333334</ele><time>2026-04-17T08:32:53.135Z</time></trkpt><trkpt lat="43.442005" lon="11.5401967"><ele>613.5</ele><time>2026-04-17T08:32:54.135Z</time></trkpt><trkpt lat="43.4419967" lon="11.54008"><ele>613.6666666666666</ele><time>2026-04-17T08:32:55.134Z</time></trkpt><trkpt lat="43.4419683" lon="11.53996"><ele>613.8333333333333</ele><time>2026-04-17T08:32:56.136Z</time></trkpt><trkpt lat="43.4419483" lon="11.539845"><ele>614.0</ele><time>2026-04-17T08:32:57.138Z</time></trkpt><trkpt lat="43.441935" lon="11.5397367"><ele>614.0</ele><time>2026-04-17T08:32:58.134Z</time></trkpt><trkpt lat="43.4419333" lon="11.5396183"><ele>614.0</ele><time>2026-04-17T08:32:59.135Z</time></trkpt><trkpt lat="43.441935" lon="11.53949"><ele>614.0</ele><time>2026-04-17T08:33:00.136Z</time></trkpt><trkpt lat="43.4419417" lon="11.5393567"><ele>614.0</ele><time>2026-04-17T08:33:01.136Z</time></trkpt><trkpt lat="43.441955" lon="11.5392217"><ele>614.0</ele><time>2026-04-17T08:33:02.137Z</time></trkpt><trkpt lat="43.4419667" lon="11.539105"><ele>613.5</ele><time>2026-04-17T08:33:03.137Z</time></trkpt><trkpt lat="43.441965" lon="11.5390083"><ele>613.0</ele><time>2026-04-17T08:33:04.137Z</time></trkpt><trkpt lat="43.4419183" lon="11.538845"><ele>612.5</ele><time>2026-04-17T08:33:06.138Z</time></trkpt><trkpt lat="43.4418567" lon="11.538785"><ele>612.0</ele><time>2026-04-17T08:33:08.139Z</time></trkpt><trkpt lat="43.4418783" lon="11.53868"><ele>611.5</ele><time>2026-04-17T08:33:11.137Z</time></trkpt><trkpt lat="43.441905" lon="11.5385933"><ele>611.0</ele><time>2026-04-17T08:33:13.134Z</time></trkpt><trkpt lat="43.4418917" lon="11.5384683"><ele>611.0</ele><time>2026-04-17T08:33:15.136Z</time></trkpt><trkpt lat="43.441855" lon="11.5383533"><ele>611.0</ele><time>2026-04-17T08:33:17.137Z</time></trkpt><trkpt lat="43.441885" lon="11.5382417"><ele>611.0</ele><time>2026-04-17T08:33:19.135Z</time></trkpt><trkpt lat="43.4419467" lon="11.53809"><ele>611.0</ele><time>2026-04-17T08:33:21.136Z</time></trkpt><trkpt lat="43.4419667" lon="11.5379967"><ele>611.0</ele><time>2026-04-17T08:33:22.134Z</time></trkpt><trkpt lat="43.4419817" lon="11.5378967"><ele>611.0</ele><time>2026-04-17T08:33:23.136Z</time></trkpt><trkpt lat="43.4420033" lon="11.5377767"><ele>611.6</ele><time>2026-04-17T08:33:24.136Z</time></trkpt><trkpt lat="43.442025" lon="11.5376517"><ele>612.2</ele><time>2026-04-17T08:33:25.135Z</time></trkpt><trkpt lat="43.4420383" lon="11.5375367"><ele>612.8</ele><time>2026-04-17T08:33:26.135Z</time></trkpt><trkpt lat="43.4420367" lon="11.5374333"><ele>613.4</ele><time>2026-04-17T08:33:27.136Z</time></trkpt><trkpt lat="43.4420583" lon="11.5372583"><ele>614.0</ele><time>2026-04-17T08:33:29.136Z</time></trkpt><trkpt lat="43.4420733" lon="11.5371667"><ele>614.0</ele><time>2026-04-17T08:33:30.135Z</time></trkpt><trkpt lat="43.44209" lon="11.5370667"><ele>614.0</ele><time>2026-04-17T08:33:31.135Z</time></trkpt><trkpt lat="43.4420967" lon="11.5369483"><ele>614.0</ele><time>2026-04-17T08:33:32.135Z</time></trkpt><trkpt lat="43.4420983" lon="11.5367967"><ele>614.0</ele><time>2026-04-17T08:33:33.135Z</time></trkpt><trkpt lat="43.4420983" lon="11.536635"><ele>614.0</ele><time>2026-04-17T08:33:34.135Z</time></trkpt><trkpt lat="43.4420933" lon="11.53648"><ele>614.6</ele><time>2026-04-17T08:33:35.136Z</time></trkpt><trkpt lat="43.4420933" lon="11.5363433"><ele>615.2</ele><time>2026-04-17T08:33:36.137Z</time></trkpt><trkpt lat="43.4421" lon="11.5362033"><ele>615.8000000000001</ele><time>2026-04-17T08:33:37.138Z</time></trkpt><trkpt lat="43.44211" lon="11.5360883"><ele>616.4</ele><time>2026-04-17T08:33:38.134Z</time></trkpt><trkpt lat="43.4421133" lon="11.53599"><ele>617.0</ele><time>2026-04-17T08:33:39.135Z</time></trkpt><trkpt lat="43.442135" lon="11.53586"><ele>619.8000000000001</ele><time>2026-04-17T08:33:41.138Z</time></trkpt><trkpt lat="43.44221" lon="11.5357683"><ele>622.6</ele><time>2026-04-17T08:33:43.136Z</time></trkpt><trkpt lat="43.4422767" lon="11.53566"><ele>625.4000000000001</ele><time>2026-04-17T08:33:45.136Z</time></trkpt><trkpt lat="43.4422867" lon="11.5355"><ele>628.2</ele><time>2026-04-17T08:33:47.135Z</time></trkpt><trkpt lat="43.4422867" lon="11.5353933"><ele>631.0</ele><time>2026-04-17T08:33:48.135Z</time></trkpt><trkpt lat="43.4422833" lon="11.5352867"><ele>631.5</ele><time>2026-04-17T08:33:49.135Z</time></trkpt><trkpt lat="43.4422667" lon="11.5351767"><ele>632.0</ele><time>2026-04-17T08:33:50.135Z</time></trkpt><trkpt lat="43.4422433" lon="11.5350733"><ele>632.5</ele><time>2026-04-17T08:33:51.137Z</time></trkpt><trkpt lat="43.4422233" lon="11.5349717"><ele>633.0</ele><time>2026-04-17T08:33:52.135Z</time></trkpt><trkpt lat="43.442205" lon="11.5348883"><ele>633.5</ele><time>2026-04-17T08:33:53.136Z</time></trkpt><trkpt lat="43.4421233" lon="11.5347783"><ele>634.0</ele><time>2026-04-17T08:33:55.135Z</time></trkpt><trkpt lat="43.442065" lon="11.5347283"><ele>634.0</ele><time>2026-04-17T08:33:56.135Z</time></trkpt><trkpt lat="43.4419467" lon="11.5346917"><ele>634.0</ele><time>2026-04-17T08:33:58.136Z</time></trkpt><trkpt lat="43.44184" lon="11.5346217"><ele>634.0</ele><time>2026-04-17T08:34:00.137Z</time></trkpt><trkpt lat="43.44179" lon="11.5345533"><ele>634.0</ele><time>2026-04-17T08:34:01.137Z</time></trkpt><trkpt lat="43.4417467" lon="11.5344517"><ele>634.0</ele><time>2026-04-17T08:34:02.135Z</time></trkpt><trkpt lat="43.441685" lon="11.53434"><ele>635.6666666666667</ele><time>2026-04-17T08:34:03.137Z</time></trkpt><trkpt lat="43.4416233" lon="11.53424"><ele>637.3333333333334</ele><time>2026-04-17T08:34:04.134Z</time></trkpt><trkpt lat="43.44158" lon="11.5341583"><ele>639.0</ele><time>2026-04-17T08:34:05.136Z</time></trkpt><trkpt lat="43.4415517" lon="11.5340717"><ele>640.6666666666666</ele><time>2026-04-17T08:34:06.136Z</time></trkpt><trkpt lat="43.4415417" lon="11.5339767"><ele>642.3333333333333</ele><time>2026-04-17T08:34:07.136Z</time></trkpt><trkpt lat="43.4415383" lon="11.533875"><ele>644.0</ele><time>2026-04-17T08:34:08.137Z</time></trkpt><trkpt lat="43.441535" lon="11.5337767"><ele>644.3333333333333</ele><time>2026-04-17T08:34:09.131Z</time></trkpt><trkpt lat="43.4415183" lon="11.533685"><ele>644.6666666666666</ele><time>2026-04-17T08:34:10.135Z</time></trkpt><trkpt lat="43.4415067" lon="11.5335867"><ele>645.0</ele><time>2026-04-17T08:34:11.135Z</time></trkpt><trkpt lat="43.4414967" lon="11.533485"><ele>645.3333333333334</ele><time>2026-04-17T08:34:12.135Z</time></trkpt><trkpt lat="43.4414783" lon="11.5333733"><ele>645.6666666666667</ele><time>2026-04-17T08:34:13.135Z</time></trkpt><trkpt lat="43.4414483" lon="11.53324"><ele>646.0</ele><time>2026-04-17T08:34:14.136Z</time></trkpt><trkpt lat="43.4414133" lon="11.5331083"><ele>646.0</ele><time>2026-04-17T08:34:15.132Z</time></trkpt><trkpt lat="43.4413883" lon="11.5329817"><ele>646.0</ele><time>2026-04-17T08:34:16.135Z</time></trkpt><trkpt lat="43.4413717" lon="11.532875"><ele>646.0</ele><time>2026-04-17T08:34:17.135Z</time></trkpt><trkpt lat="43.44136" lon="11.5327817"><ele>646.0</ele><time>2026-04-17T08:34:18.136Z</time></trkpt><trkpt lat="43.4413417" lon="11.5326133"><ele>646.0</ele><time>2026-04-17T08:34:20.135Z</time></trkpt><trkpt lat="43.4413383" lon="11.5324967"><ele>646.8</ele><time>2026-04-17T08:34:21.137Z</time></trkpt><trkpt lat="43.4413583" lon="11.53236"><ele>647.5999999999999</ele><time>2026-04-17T08:34:22.135Z</time></trkpt><trkpt lat="43.4413867" lon="11.5322283"><ele>648.4</ele><time>2026-04-17T08:34:23.135Z</time></trkpt><trkpt lat="43.4414133" lon="11.532095"><ele>649.2</ele><time>2026-04-17T08:34:24.142Z</time></trkpt><trkpt lat="43.4414283" lon="11.53196"><ele>650.0</ele><time>2026-04-17T08:34:25.137Z</time></trkpt><trkpt lat="43.44143" lon="11.5318383"><ele>651.0</ele><time>2026-04-17T08:34:26.137Z</time></trkpt><trkpt lat="43.4414133" lon="11.5317167"><ele>652.0</ele><time>2026-04-17T08:34:27.136Z</time></trkpt><trkpt lat="43.4413767" lon="11.5316"><ele>653.0</ele><time>2026-04-17T08:34:28.136Z</time></trkpt><trkpt lat="43.4413417" lon="11.5314867"><ele>654.0</ele><time>2026-04-17T08:34:29.136Z</time></trkpt><trkpt lat="43.4413167" lon="11.5313783"><ele>655.0</ele><time>2026-04-17T08:34:30.136Z</time></trkpt><trkpt lat="43.4412917" lon="11.53127"><ele>656.0</ele><time>2026-04-17T08:34:31.137Z</time></trkpt><trkpt lat="43.441275" lon="11.53116"><ele>655.3333333333333</ele><time>2026-04-17T08:34:32.136Z</time></trkpt><trkpt lat="43.44127" lon="11.5310483"><ele>654.6666666666666</ele><time>2026-04-17T08:34:33.136Z</time></trkpt><trkpt lat="43.4412683" lon="11.5309283"><ele>654.0</ele><time>2026-04-17T08:34:34.136Z</time></trkpt><trkpt lat="43.44127" lon="11.5308217"><ele>653.3333333333334</ele><time>2026-04-17T08:34:35.137Z</time></trkpt><trkpt lat="43.4412767" lon="11.5307117"><ele>652.6666666666667</ele><time>2026-04-17T08:34:36.137Z</time></trkpt><trkpt lat="43.4412833" lon="11.530625"><ele>652.0</ele><time>2026-04-17T08:34:37.136Z</time></trkpt><trkpt lat="43.4413017" lon="11.53046"><ele>647.8000000000001</ele><time>2026-04-17T08:34:39.137Z</time></trkpt><trkpt lat="43.4413267" lon="11.5303467"><ele>643.6</ele><time>2026-04-17T08:34:41.136Z</time></trkpt><trkpt lat="43.4413133" lon="11.5302233"><ele>639.4000000000001</ele><time>2026-04-17T08:34:44.136Z</time></trkpt><trkpt lat="43.441215" lon="11.5301717"><ele>635.2</ele><time>2026-04-17T08:34:46.135Z</time></trkpt><trkpt lat="43.4410933" lon="11.5301533"><ele>631.0</ele><time>2026-04-17T08:34:48.136Z</time></trkpt><trkpt lat="43.4410283" lon="11.5301467"><ele>631.0</ele><time>2026-04-17T08:34:49.137Z</time></trkpt><trkpt lat="43.440915" lon="11.5301167"><ele>631.0</ele><time>2026-04-17T08:34:51.136Z</time></trkpt><trkpt lat="43.4408583" lon="11.5300383"><ele>631.0</ele><time>2026-04-17T08:34:53.136Z</time></trkpt><trkpt lat="43.440895" lon="11.5299417"><ele>631.0</ele><time>2026-04-17T08:34:55.135Z</time></trkpt><trkpt lat="43.4409683" lon="11.5298717"><ele>631.0</ele><time>2026-04-17T08:34:57.135Z</time></trkpt><trkpt lat="43.4409683" lon="11.5297617"><ele>631.0</ele><time>2026-04-17T08:34:59.135Z</time></trkpt><trkpt lat="43.4409083" lon="11.5296833"><ele>631.0</ele><time>2026-04-17T08:35:01.135Z</time></trkpt><trkpt lat="43.44085" lon="11.5295817"><ele>631.0</ele><time>2026-04-17T08:35:03.138Z</time></trkpt><trkpt lat="43.4408367" lon="11.5294667"><ele>631.0</ele><time>2026-04-17T08:35:04.135Z</time></trkpt><trkpt lat="43.4408283" lon="11.5293067"><ele>631.0</ele><time>2026-04-17T08:35:05.138Z</time></trkpt><trkpt lat="43.4408233" lon="11.529135"><ele>631.0</ele><time>2026-04-17T08:35:06.139Z</time></trkpt><trkpt lat="43.44082" lon="11.5289733"><ele>629.2</ele><time>2026-04-17T08:35:07.138Z</time></trkpt><trkpt lat="43.4408217" lon="11.5288233"><ele>627.4000000000001</ele><time>2026-04-17T08:35:08.136Z</time></trkpt><trkpt lat="43.4408383" lon="11.5286883"><ele>625.6</ele><time>2026-04-17T08:35:09.136Z</time></trkpt><trkpt lat="43.4408717" lon="11.5285533"><ele>623.8000000000001</ele><time>2026-04-17T08:35:10.136Z</time></trkpt><trkpt lat="43.4409233" lon="11.5284183"><ele>622.0</ele><time>2026-04-17T08:35:11.135Z</time></trkpt><trkpt lat="43.4409833" lon="11.528285"><ele>622.0</ele><time>2026-04-17T08:35:12.136Z</time></trkpt><trkpt lat="43.44106" lon="11.5281267"><ele>622.0</ele><time>2026-04-17T08:35:13.137Z</time></trkpt><trkpt lat="43.4411367" lon="11.52798"><ele>622.0</ele><time>2026-04-17T08:35:14.136Z</time></trkpt><trkpt lat="43.4412117" lon="11.52785"><ele>622.0</ele><time>2026-04-17T08:35:15.136Z</time></trkpt><trkpt lat="43.4412783" lon="11.5277383"><ele>620.0</ele><time>2026-04-17T08:35:16.136Z</time></trkpt><trkpt lat="43.4413533" lon="11.5276433"><ele>618.0</ele><time>2026-04-17T08:35:17.137Z</time></trkpt><trkpt lat="43.4414367" lon="11.5275617"><ele>616.0</ele><time>2026-04-17T08:35:18.136Z</time></trkpt><trkpt lat="43.4415333" lon="11.5274917"><ele>614.0</ele><time>2026-04-17T08:35:19.135Z</time></trkpt><trkpt lat="43.4416467" lon="11.5274183"><ele>612.0</ele><time>2026-04-17T08:35:20.137Z</time></trkpt><trkpt lat="43.441775" lon="11.5273367"><ele>612.0</ele><time>2026-04-17T08:35:21.136Z</time></trkpt><trkpt lat="43.4419017" lon="11.5272583"><ele>612.0</ele><time>2026-04-17T08:35:22.136Z</time></trkpt><trkpt lat="43.4420283" lon="11.5272017"><ele>612.0</ele><time>2026-04-17T08:35:23.135Z</time></trkpt><trkpt lat="43.4421633" lon="11.5271733"><ele>612.0</ele><time>2026-04-17T08:35:24.137Z</time></trkpt><trkpt lat="43.4423067" lon="11.5271767"><ele>611.25</ele><time>2026-04-17T08:35:25.136Z</time></trkpt><trkpt lat="43.4424533" lon="11.5271967"><ele>610.5</ele><time>2026-04-17T08:35:26.136Z</time></trkpt><trkpt lat="43.4425933" lon="11.5272133"><ele>609.75</ele><time>2026-04-17T08:35:27.137Z</time></trkpt><trkpt lat="43.4427183" lon="11.52721"><ele>609.0</ele><time>2026-04-17T08:35:28.136Z</time></trkpt><trkpt lat="43.4428217" lon="11.5271867"><ele>609.0</ele><time>2026-04-17T08:35:29.135Z</time></trkpt><trkpt lat="43.4429133" lon="11.5271333"><ele>609.0</ele><time>2026-04-17T08:35:30.136Z</time></trkpt><trkpt lat="43.4429917" lon="11.5270417"><ele>609.0</ele><time>2026-04-17T08:35:31.136Z</time></trkpt><trkpt lat="43.4430583" lon="11.5269183"><ele>609.0</ele><time>2026-04-17T08:35:32.136Z</time></trkpt><trkpt lat="43.4431117" lon="11.52679"><ele>609.0</ele><time>2026-04-17T08:35:33.137Z</time></trkpt><trkpt lat="43.443155" lon="11.52666"><ele>610.75</ele><time>2026-04-17T08:35:34.136Z</time></trkpt><trkpt lat="43.4431733" lon="11.5265217"><ele>612.5</ele><time>2026-04-17T08:35:35.137Z</time></trkpt><trkpt lat="43.4431733" lon="11.5263717"><ele>614.25</ele><time>2026-04-17T08:35:36.137Z</time></trkpt><trkpt lat="43.4431483" lon="11.52621"><ele>616.0</ele><time>2026-04-17T08:35:37.137Z</time></trkpt><trkpt lat="43.44311" lon="11.5260283"><ele>616.0</ele><time>2026-04-17T08:35:38.136Z</time></trkpt><trkpt lat="43.4430633" lon="11.5258267"><ele>616.0</ele><time>2026-04-17T08:35:39.138Z</time></trkpt><trkpt lat="43.4430033" lon="11.52562"><ele>616.0</ele><time>2026-04-17T08:35:40.136Z</time></trkpt><trkpt lat="43.4429467" lon="11.5253917"><ele>617.0</ele><time>2026-04-17T08:35:41.138Z</time></trkpt><trkpt lat="43.44288" lon="11.52519"><ele>618.0</ele><time>2026-04-17T08:35:42.136Z</time></trkpt><trkpt lat="43.4428217" lon="11.5250117"><ele>619.0</ele><time>2026-04-17T08:35:43.138Z</time></trkpt><trkpt lat="43.44277" lon="11.5248567"><ele>620.0</ele><time>2026-04-17T08:35:44.137Z</time></trkpt><trkpt lat="43.44271" lon="11.524725"><ele>620.0</ele><time>2026-04-17T08:35:45.136Z</time></trkpt><trkpt lat="43.4426317" lon="11.5246117"><ele>620.0</ele><time>2026-04-17T08:35:46.136Z</time></trkpt><trkpt lat="43.4425383" lon="11.52451"><ele>620.0</ele><time>2026-04-17T08:35:47.135Z</time></trkpt><trkpt lat="43.44245" lon="11.524425"><ele>620.0</ele><time>2026-04-17T08:35:48.136Z</time></trkpt><trkpt lat="43.4423767" lon="11.52433"><ele>620.0</ele><time>2026-04-17T08:35:49.135Z</time></trkpt><trkpt lat="43.4423233" lon="11.524235"><ele>622.6666666666666</ele><time>2026-04-17T08:35:50.136Z</time></trkpt><trkpt lat="43.4422883" lon="11.52413"><ele>625.3333333333333</ele><time>2026-04-17T08:35:51.136Z</time></trkpt><trkpt lat="43.4422717" lon="11.5240167"><ele>628.0</ele><time>2026-04-17T08:35:52.137Z</time></trkpt><trkpt lat="43.442265" lon="11.52391"><ele>630.6666666666666</ele><time>2026-04-17T08:35:53.136Z</time></trkpt><trkpt lat="43.4422567" lon="11.5238217"><ele>633.3333333333334</ele><time>2026-04-17T08:35:54.136Z</time></trkpt><trkpt lat="43.4421933" lon="11.523695"><ele>636.0</ele><time>2026-04-17T08:35:56.136Z</time></trkpt><trkpt lat="43.4421183" lon="11.5236633"><ele>637.25</ele><time>2026-04-17T08:35:57.138Z</time></trkpt><trkpt lat="43.4420317" lon="11.5236"><ele>638.5</ele><time>2026-04-17T08:35:58.137Z</time></trkpt><trkpt lat="43.4419033" lon="11.523525"><ele>639.75</ele><time>2026-04-17T08:35:59.136Z</time></trkpt><trkpt lat="43.4417833" lon="11.523435"><ele>641.0</ele><time>2026-04-17T08:36:00.136Z</time></trkpt><trkpt lat="43.4416683" lon="11.5233517"><ele>641.0</ele><time>2026-04-17T08:36:01.136Z</time></trkpt><trkpt lat="43.4415683" lon="11.5232817"><ele>641.0</ele><time>2026-04-17T08:36:02.137Z</time></trkpt><trkpt lat="43.441485" lon="11.523225"><ele>641.0</ele><time>2026-04-17T08:36:03.137Z</time></trkpt><trkpt lat="43.4414183" lon="11.523175"><ele>641.0</ele><time>2026-04-17T08:36:04.136Z</time></trkpt><trkpt lat="43.4413633" lon="11.5230733"><ele>641.0</ele><time>2026-04-17T08:36:06.137Z</time></trkpt><trkpt lat="43.441405" lon="11.5229733"><ele>642.75</ele><time>2026-04-17T08:36:07.138Z</time></trkpt><trkpt lat="43.441455" lon="11.5228567"><ele>644.5</ele><time>2026-04-17T08:36:08.138Z</time></trkpt><trkpt lat="43.4415033" lon="11.52271"><ele>646.25</ele><time>2026-04-17T08:36:09.138Z</time></trkpt><trkpt lat="43.44155" lon="11.5225467"><ele>648.0</ele><time>2026-04-17T08:36:10.138Z</time></trkpt><trkpt lat="43.4415883" lon="11.5223967"><ele>648.0</ele><time>2026-04-17T08:36:11.137Z</time></trkpt><trkpt lat="43.441625" lon="11.522285"><ele>648.0</ele><time>2026-04-17T08:36:12.138Z</time></trkpt><trkpt lat="43.4416767" lon="11.5222"><ele>648.0</ele><time>2026-04-17T08:36:13.138Z</time></trkpt><trkpt lat="43.4417567" lon="11.5221283"><ele>648.0</ele><time>2026-04-17T08:36:14.137Z</time></trkpt><trkpt lat="43.4418567" lon="11.5220367"><ele>648.0</ele><time>2026-04-17T08:36:15.139Z</time></trkpt><trkpt lat="43.44197" lon="11.5219283"><ele>649.3333333333334</ele><time>2026-04-17T08:36:16.136Z</time></trkpt><trkpt lat="43.4420933" lon="11.5218183"><ele>650.6666666666667</ele><time>2026-04-17T08:36:17.136Z</time></trkpt><trkpt lat="43.4422217" lon="11.5216967"><ele>652.0</ele><time>2026-04-17T08:36:18.136Z</time></trkpt><trkpt lat="43.4423417" lon="11.52157"><ele>652.0</ele><time>2026-04-17T08:36:19.135Z</time></trkpt><trkpt lat="43.4424433" lon="11.5214533"><ele>652.0</ele><time>2026-04-17T08:36:20.137Z</time></trkpt><trkpt lat="43.44253" lon="11.521335"><ele>652.0</ele><time>2026-04-17T08:36:21.136Z</time></trkpt><trkpt lat="43.442605" lon="11.521205"><ele>652.0</ele><time>2026-04-17T08:36:22.136Z</time></trkpt><trkpt lat="43.4426767" lon="11.5210517"><ele>651.0</ele><time>2026-04-17T08:36:23.136Z</time></trkpt><trkpt lat="43.4427417" lon="11.5208717"><ele>650.0</ele><time>2026-04-17T08:36:24.143Z</time></trkpt><trkpt lat="43.44281" lon="11.520675"><ele>649.0</ele><time>2026-04-17T08:36:25.138Z</time></trkpt><trkpt lat="43.4428833" lon="11.5204817"><ele>648.5</ele><time>2026-04-17T08:36:26.136Z</time></trkpt><trkpt lat="43.4429517" lon="11.520305"><ele>648.0</ele><time>2026-04-17T08:36:27.137Z</time></trkpt><trkpt lat="43.4430183" lon="11.5201517"><ele>647.5</ele><time>2026-04-17T08:36:28.136Z</time></trkpt><trkpt lat="43.443075" lon="11.5200283"><ele>647.0</ele><time>2026-04-17T08:36:29.135Z</time></trkpt><trkpt lat="43.443115" lon="11.5199467"><ele>647.0</ele><time>2026-04-17T08:36:30.136Z</time></trkpt><trkpt lat="43.44314" lon="11.519845"><ele>647.0</ele><time>2026-04-17T08:36:32.137Z</time></trkpt><trkpt lat="43.4431" lon="11.5197733"><ele>647.0</ele><time>2026-04-17T08:36:34.137Z</time></trkpt><trkpt lat="43.4430017" lon="11.5197"><ele>647.0</ele><time>2026-04-17T08:36:36.136Z</time></trkpt><trkpt lat="43.4429433" lon="11.5196383"><ele>647.0</ele><time>2026-04-17T08:36:37.137Z</time></trkpt><trkpt lat="43.4428867" lon="11.519565"><ele>647.0</ele><time>2026-04-17T08:36:38.138Z</time></trkpt><trkpt lat="43.44284" lon="11.519475"><ele>648.0</ele><time>2026-04-17T08:36:39.138Z</time></trkpt><trkpt lat="43.4428083" lon="11.5193733"><ele>649.0</ele><time>2026-04-17T08:36:40.138Z</time></trkpt><trkpt lat="43.4427967" lon="11.519265"><ele>650.0</ele><time>2026-04-17T08:36:41.137Z</time></trkpt><trkpt lat="43.4428" lon="11.5191567"><ele>651.0</ele><time>2026-04-17T08:36:42.134Z</time></trkpt><trkpt lat="43.4428033" lon="11.5190533"><ele>652.0</ele><time>2026-04-17T08:36:43.136Z</time></trkpt><trkpt lat="43.44281" lon="11.51894"><ele>653.0</ele><time>2026-04-17T08:36:44.134Z</time></trkpt><trkpt lat="43.442815" lon="11.5188283"><ele>653.6666666666666</ele><time>2026-04-17T08:36:45.136Z</time></trkpt><trkpt lat="43.4428217" lon="11.5187283"><ele>654.3333333333333</ele><time>2026-04-17T08:36:46.135Z</time></trkpt><trkpt lat="43.4428367" lon="11.5186217"><ele>655.0</ele><time>2026-04-17T08:36:47.134Z</time></trkpt><trkpt lat="43.4428617" lon="11.51851"><ele>655.6666666666666</ele><time>2026-04-17T08:36:48.136Z</time></trkpt><trkpt lat="43.4428817" lon="11.5183983"><ele>656.3333333333334</ele><time>2026-04-17T08:36:49.138Z</time></trkpt><trkpt lat="43.4429017" lon="11.5182833"><ele>657.0</ele><time>2026-04-17T08:36:50.135Z</time></trkpt><trkpt lat="43.44292" lon="11.5181667"><ele>657.0</ele><time>2026-04-17T08:36:51.136Z</time></trkpt><trkpt lat="43.4429467" lon="11.5180433"><ele>657.0</ele><time>2026-04-17T08:36:52.136Z</time></trkpt><trkpt lat="43.44298" lon="11.5179233"><ele>657.0</ele><time>2026-04-17T08:36:53.135Z</time></trkpt><trkpt lat="43.4430133" lon="11.517805"><ele>657.0</ele><time>2026-04-17T08:36:54.136Z</time></trkpt><trkpt lat="43.4430383" lon="11.51769"><ele>657.0</ele><time>2026-04-17T08:36:55.135Z</time></trkpt><trkpt lat="43.4430533" lon="11.5175717"><ele>660.5</ele><time>2026-04-17T08:36:56.138Z</time></trkpt><trkpt lat="43.4430617" lon="11.51745"><ele>664.0</ele><time>2026-04-17T08:36:57.138Z</time></trkpt><trkpt lat="43.4430667" lon="11.5173383"><ele>667.5</ele><time>2026-04-17T08:36:58.135Z</time></trkpt><trkpt lat="43.4430533" lon="11.517225"><ele>671.0</ele><time>2026-04-17T08:36:59.136Z</time></trkpt><trkpt lat="43.4430283" lon="11.517105"><ele>674.5</ele><time>2026-04-17T08:37:00.137Z</time></trkpt><trkpt lat="43.443" lon="11.5169867"><ele>678.0</ele><time>2026-04-17T08:37:01.137Z</time></trkpt><trkpt lat="43.44297" lon="11.5168733"><ele>677.6666666666666</ele><time>2026-04-17T08:37:02.136Z</time></trkpt><trkpt lat="43.4429383" lon="11.5167533"><ele>677.3333333333334</ele><time>2026-04-17T08:37:03.136Z</time></trkpt><trkpt lat="43.4429017" lon="11.5166317"><ele>677.0</ele><time>2026-04-17T08:37:04.135Z</time></trkpt><trkpt lat="43.4428717" lon="11.5165233"><ele>676.6666666666667</ele><time>2026-04-17T08:37:05.136Z</time></trkpt><trkpt lat="43.4428517" lon="11.516425"><ele>676.3333333333334</ele><time>2026-04-17T08:37:06.137Z</time></trkpt><trkpt lat="43.44284" lon="11.5163133"><ele>676.0</ele><time>2026-04-17T08:37:07.133Z</time></trkpt><trkpt lat="43.4428283" lon="11.5161983"><ele>676.0</ele><time>2026-04-17T08:37:08.136Z</time></trkpt><trkpt lat="43.44282" lon="11.5160867"><ele>676.0</ele><time>2026-04-17T08:37:09.136Z</time></trkpt><trkpt lat="43.4428233" lon="11.51597"><ele>676.0</ele><time>2026-04-17T08:37:10.135Z</time></trkpt><trkpt lat="43.4428367" lon="11.51586"><ele>676.0</ele><time>2026-04-17T08:37:11.135Z</time></trkpt><trkpt lat="43.4428567" lon="11.5157483"><ele>676.0</ele><time>2026-04-17T08:37:12.135Z</time></trkpt><trkpt lat="43.44288" lon="11.5156417"><ele>676.0</ele><time>2026-04-17T08:37:13.135Z</time></trkpt><trkpt lat="43.4429033" lon="11.5155483"><ele>679.5999999999999</ele><time>2026-04-17T08:37:14.136Z</time></trkpt><trkpt lat="43.4429733" lon="11.5154517"><ele>683.2</ele><time>2026-04-17T08:37:16.135Z</time></trkpt><trkpt lat="43.4430917" lon="11.5154333"><ele>686.8</ele><time>2026-04-17T08:37:18.135Z</time></trkpt><trkpt lat="43.4431667" lon="11.5154283"><ele>690.4000000000001</ele><time>2026-04-17T08:37:19.137Z</time></trkpt><trkpt lat="43.4432517" lon="11.5154267"><ele>694.0</ele><time>2026-04-17T08:37:20.131Z</time></trkpt><trkpt lat="43.443335" lon="11.5154283"><ele>694.0</ele><time>2026-04-17T08:37:21.137Z</time></trkpt><trkpt lat="43.443405" lon="11.5154233"><ele>694.0</ele><time>2026-04-17T08:37:22.135Z</time></trkpt><trkpt lat="43.4434767" lon="11.51541"><ele>694.0</ele><time>2026-04-17T08:37:23.137Z</time></trkpt><trkpt lat="43.44356" lon="11.5153883"><ele>694.0</ele><time>2026-04-17T08:37:24.137Z</time></trkpt><trkpt lat="43.4436583" lon="11.515355"><ele>694.0</ele><time>2026-04-17T08:37:25.137Z</time></trkpt><trkpt lat="43.44376" lon="11.5153133"><ele>694.0</ele><time>2026-04-17T08:37:26.136Z</time></trkpt><trkpt lat="43.443845" lon="11.51527"><ele>697.0</ele><time>2026-04-17T08:37:27.136Z</time></trkpt><trkpt lat="43.443915" lon="11.5152267"><ele>700.0</ele><time>2026-04-17T08:37:28.136Z</time></trkpt><trkpt lat="43.4440217" lon="11.5151683"><ele>703.0</ele><time>2026-04-17T08:37:30.135Z</time></trkpt><trkpt lat="43.4440933" lon="11.5150217"><ele>706.0</ele><time>2026-04-17T08:37:32.135Z</time></trkpt><trkpt lat="43.44412" lon="11.5149083"><ele>709.0</ele><time>2026-04-17T08:37:33.137Z</time></trkpt><trkpt lat="43.4441333" lon="11.5147933"><ele>709.0</ele><time>2026-04-17T08:37:34.137Z</time></trkpt><trkpt lat="43.4441317" lon="11.514675"><ele>709.0</ele><time>2026-04-17T08:37:35.137Z</time></trkpt><trkpt lat="43.4441283" lon="11.51456"><ele>709.0</ele><time>2026-04-17T08:37:36.135Z</time></trkpt><trkpt lat="43.4441333" lon="11.5144517"><ele>709.0</ele><time>2026-04-17T08:37:37.137Z</time></trkpt><trkpt lat="43.44415" lon="11.5143383"><ele>709.0</ele><time>2026-04-17T08:37:38.135Z</time></trkpt><trkpt lat="43.4441683" lon="11.5142333"><ele>709.0</ele><time>2026-04-17T08:37:39.136Z</time></trkpt><trkpt lat="43.4441733" lon="11.5141267"><ele>709.2</ele><time>2026-04-17T08:37:40.135Z</time></trkpt><trkpt lat="43.4441717" lon="11.51401"><ele>709.4000000000001</ele><time>2026-04-17T08:37:41.135Z</time></trkpt><trkpt lat="43.444165" lon="11.5138767"><ele>709.6</ele><time>2026-04-17T08:37:42.135Z</time></trkpt><trkpt lat="43.4441483" lon="11.5137267"><ele>709.8</ele><time>2026-04-17T08:37:43.136Z</time></trkpt><trkpt lat="43.44414" lon="11.513585"><ele>710.0</ele><time>2026-04-17T08:37:44.136Z</time></trkpt><trkpt lat="43.4441433" lon="11.51347"><ele>710.0</ele><time>2026-04-17T08:37:45.136Z</time></trkpt><trkpt lat="43.4441533" lon="11.51338"><ele>710.0</ele><time>2026-04-17T08:37:46.136Z</time></trkpt><trkpt lat="43.4441733" lon="11.513295"><ele>710.0</ele><time>2026-04-17T08:37:47.135Z</time></trkpt><trkpt lat="43.44421" lon="11.5132133"><ele>710.0</ele><time>2026-04-17T08:37:48.135Z</time></trkpt><trkpt lat="43.4442633" lon="11.5131367"><ele>710.0</ele><time>2026-04-17T08:37:49.137Z</time></trkpt><trkpt lat="43.44433" lon="11.5130433"><ele>710.0</ele><time>2026-04-17T08:37:50.136Z</time></trkpt><trkpt lat="43.4443933" lon="11.5129717"><ele>708.0</ele><time>2026-04-17T08:37:51.136Z</time></trkpt><trkpt lat="43.4444617" lon="11.512895"><ele>706.0</ele><time>2026-04-17T08:37:52.136Z</time></trkpt><trkpt lat="43.4445283" lon="11.5128067"><ele>704.0</ele><time>2026-04-17T08:37:53.136Z</time></trkpt><trkpt lat="43.4445967" lon="11.512705"><ele>702.0</ele><time>2026-04-17T08:37:54.135Z</time></trkpt><trkpt lat="43.44467" lon="11.5126083"><ele>700.0</ele><time>2026-04-17T08:37:55.135Z</time></trkpt><trkpt lat="43.4447383" lon="11.5125233"><ele>704.5</ele><time>2026-04-17T08:37:56.136Z</time></trkpt><trkpt lat="43.4448" lon="11.512445"><ele>709.0</ele><time>2026-04-17T08:37:57.132Z</time></trkpt><trkpt lat="43.444855" lon="11.5123667"><ele>713.5</ele><time>2026-04-17T08:37:58.136Z</time></trkpt><trkpt lat="43.4449183" lon="11.5123017"><ele>718.0</ele><time>2026-04-17T08:37:59.136Z</time></trkpt><trkpt lat="43.4450017" lon="11.512255"><ele>722.5</ele><time>2026-04-17T08:38:00.136Z</time></trkpt><trkpt lat="43.445105" lon="11.5122283"><ele>727.0</ele><time>2026-04-17T08:38:01.136Z</time></trkpt><trkpt lat="43.44521" lon="11.5122083"><ele>727.0</ele><time>2026-04-17T08:38:02.135Z</time></trkpt><trkpt lat="43.4453" lon="11.51219"><ele>727.0</ele><time>2026-04-17T08:38:03.136Z</time></trkpt><trkpt lat="43.4453783" lon="11.51217"><ele>727.0</ele><time>2026-04-17T08:38:04.132Z</time></trkpt><trkpt lat="43.4454417" lon="11.512145"><ele>727.0</ele><time>2026-04-17T08:38:05.133Z</time></trkpt><trkpt lat="43.4455233" lon="11.5121133"><ele>727.0</ele><time>2026-04-17T08:38:07.137Z</time></trkpt><trkpt lat="43.4455567" lon="11.511985"><ele>727.0</ele><time>2026-04-17T08:38:10.134Z</time></trkpt><trkpt lat="43.44555" lon="11.51189"><ele>725.2</ele><time>2026-04-17T08:38:11.136Z</time></trkpt><trkpt lat="43.4455483" lon="11.5117783"><ele>723.4000000000001</ele><time>2026-04-17T08:38:12.135Z</time></trkpt><trkpt lat="43.44555" lon="11.5116533"><ele>721.5999999999999</ele><time>2026-04-17T08:38:13.135Z</time></trkpt><trkpt lat="43.445555" lon="11.51152"><ele>719.8</ele><time>2026-04-17T08:38:14.135Z</time></trkpt><trkpt lat="43.4455583" lon="11.5113867"><ele>718.0</ele><time>2026-04-17T08:38:15.136Z</time></trkpt><trkpt lat="43.44556" lon="11.5112683"><ele>720.1666666666667</ele><time>2026-04-17T08:38:16.134Z</time></trkpt><trkpt lat="43.44556" lon="11.5111617"><ele>722.3333333333334</ele><time>2026-04-17T08:38:17.135Z</time></trkpt><trkpt lat="43.4455617" lon="11.5110517"><ele>724.5</ele><time>2026-04-17T08:38:18.135Z</time></trkpt><trkpt lat="43.4455617" lon="11.5109517"><ele>726.6666666666666</ele><time>2026-04-17T08:38:19.135Z</time></trkpt><trkpt lat="43.4455467" lon="11.510785"><ele>728.8333333333333</ele><time>2026-04-17T08:38:21.132Z</time></trkpt><trkpt lat="43.4455333" lon="11.5107"><ele>731.0</ele><time>2026-04-17T08:38:22.138Z</time></trkpt><trkpt lat="43.44551" lon="11.5106067"><ele>731.0</ele><time>2026-04-17T08:38:23.131Z</time></trkpt><trkpt lat="43.4454833" lon="11.5104983"><ele>731.0</ele><time>2026-04-17T08:38:24.148Z</time></trkpt><trkpt lat="43.445455" lon="11.5103883"><ele>731.0</ele><time>2026-04-17T08:38:25.136Z</time></trkpt><trkpt lat="43.4454267" lon="11.51026"><ele>731.0</ele><time>2026-04-17T08:38:26.136Z</time></trkpt><trkpt lat="43.4454067" lon="11.5101217"><ele>731.0</ele><time>2026-04-17T08:38:27.136Z</time></trkpt><trkpt lat="43.44538" lon="11.50997"><ele>731.25</ele><time>2026-04-17T08:38:28.137Z</time></trkpt><trkpt lat="43.4453483" lon="11.5098167"><ele>731.5</ele><time>2026-04-17T08:38:29.136Z</time></trkpt><trkpt lat="43.4453033" lon="11.5096617"><ele>731.75</ele><time>2026-04-17T08:38:30.137Z</time></trkpt><trkpt lat="43.44525" lon="11.5095067"><ele>732.0</ele><time>2026-04-17T08:38:31.135Z</time></trkpt><trkpt lat="43.44519" lon="11.5093533"><ele>738.0</ele><time>2026-04-17T08:38:32.136Z</time></trkpt><trkpt lat="43.4451233" lon="11.5091983"><ele>744.0</ele><time>2026-04-17T08:38:33.136Z</time></trkpt><trkpt lat="43.44506" lon="11.5090367"><ele>750.0</ele><time>2026-04-17T08:38:34.135Z</time></trkpt><trkpt lat="43.4449933" lon="11.5088833"><ele>756.0</ele><time>2026-04-17T08:38:35.136Z</time></trkpt><trkpt lat="43.44493" lon="11.5087467"><ele>762.75</ele><time>2026-04-17T08:38:36.136Z</time></trkpt><trkpt lat="43.4448567" lon="11.5086317"><ele>769.5</ele><time>2026-04-17T08:38:37.136Z</time></trkpt><trkpt lat="43.4447633" lon="11.5085617"><ele>776.25</ele><time>2026-04-17T08:38:38.136Z</time></trkpt><trkpt lat="43.44466" lon="11.5084933"><ele>783.0</ele><time>2026-04-17T08:38:39.136Z</time></trkpt><trkpt lat="43.444525" lon="11.5084733"><ele>783.0</ele><time>2026-04-17T08:38:40.137Z</time></trkpt><trkpt lat="43.4443783" lon="11.5084783"><ele>783.0</ele><time>2026-04-17T08:38:41.136Z</time></trkpt><trkpt lat="43.4442267" lon="11.5085"><ele>783.0</ele><time>2026-04-17T08:38:42.135Z</time></trkpt><trkpt lat="43.444085" lon="11.5085133"><ele>783.0</ele><time>2026-04-17T08:38:43.136Z</time></trkpt><trkpt lat="43.4439583" lon="11.508485"><ele>783.0</ele><time>2026-04-17T08:38:44.138Z</time></trkpt><trkpt lat="43.443835" lon="11.5084183"><ele>783.0</ele><time>2026-04-17T08:38:45.136Z</time></trkpt><trkpt lat="43.44372" lon="11.5083217"><ele>783.0</ele><time>2026-04-17T08:38:46.136Z</time></trkpt><trkpt lat="43.4436017" lon="11.5082417"><ele>783.0</ele><time>2026-04-17T08:38:47.135Z</time></trkpt><trkpt lat="43.4434683" lon="11.5081917"><ele>780.5</ele><time>2026-04-17T08:38:48.136Z</time></trkpt><trkpt lat="43.443335" lon="11.5081583"><ele>778.0</ele><time>2026-04-17T08:38:49.13Z</time></trkpt><trkpt lat="43.44322" lon="11.5081183"><ele>775.5</ele><time>2026-04-17T08:38:50.136Z</time></trkpt><trkpt lat="43.4431217" lon="11.5080483"><ele>773.0</ele><time>2026-04-17T08:38:51.132Z</time></trkpt><trkpt lat="43.4430467" lon="11.50794"><ele>777.0</ele><time>2026-04-17T08:38:52.136Z</time></trkpt><trkpt lat="43.4429817" lon="11.5077917"><ele>781.0</ele><time>2026-04-17T08:38:53.135Z</time></trkpt><trkpt lat="43.4429367" lon="11.5076367"><ele>785.0</ele><time>2026-04-17T08:38:54.134Z</time></trkpt><trkpt lat="43.442895" lon="11.50747"><ele>789.0</ele><time>2026-04-17T08:38:55.136Z</time></trkpt><trkpt lat="43.44286" lon="11.5072867"><ele>789.0</ele><time>2026-04-17T08:38:56.136Z</time></trkpt><trkpt lat="43.4428267" lon="11.5070983"><ele>789.0</ele><time>2026-04-17T08:38:57.137Z</time></trkpt><trkpt lat="43.4428067" lon="11.5069217"><ele>789.0</ele><time>2026-04-17T08:38:58.136Z</time></trkpt><trkpt lat="43.4428083" lon="11.5067683"><ele>789.0</ele><time>2026-04-17T08:38:59.136Z</time></trkpt><trkpt lat="43.4428233" lon="11.5066317"><ele>787.8000000000001</ele><time>2026-04-17T08:39:00.138Z</time></trkpt><trkpt lat="43.442855" lon="11.5064983"><ele>786.6</ele><time>2026-04-17T08:39:01.138Z</time></trkpt><trkpt lat="43.4429" lon="11.506375"><ele>785.4</ele><time>2026-04-17T08:39:02.137Z</time></trkpt><trkpt lat="43.4429583" lon="11.50626"><ele>784.2</ele><time>2026-04-17T08:39:03.137Z</time></trkpt><trkpt lat="43.4430583" lon="11.50617"><ele>783.0</ele><time>2026-04-17T08:39:04.14Z</time></trkpt><trkpt lat="43.4431683" lon="11.50609"><ele>783.0</ele><time>2026-04-17T08:39:05.137Z</time></trkpt><trkpt lat="43.4432867" lon="11.50601"><ele>783.0</ele><time>2026-04-17T08:39:06.137Z</time></trkpt><trkpt lat="43.443395" lon="11.5059383"><ele>783.0</ele><time>2026-04-17T08:39:07.138Z</time></trkpt><trkpt lat="43.4434967" lon="11.50587"><ele>783.0</ele><time>2026-04-17T08:39:08.137Z</time></trkpt><trkpt lat="43.4435983" lon="11.5058183"><ele>783.0</ele><time>2026-04-17T08:39:09.138Z</time></trkpt><trkpt lat="43.4437133" lon="11.50577"><ele>783.0</ele><time>2026-04-17T08:39:10.138Z</time></trkpt><trkpt lat="43.4438217" lon="11.5057717"><ele>783.0</ele><time>2026-04-17T08:39:11.135Z</time></trkpt><trkpt lat="43.443935" lon="11.50582"><ele>783.0</ele><time>2026-04-17T08:39:12.138Z</time></trkpt><trkpt lat="43.444055" lon="11.505885"><ele>782.25</ele><time>2026-04-17T08:39:13.136Z</time></trkpt><trkpt lat="43.4441767" lon="11.5059167"><ele>781.5</ele><time>2026-04-17T08:39:14.136Z</time></trkpt><trkpt lat="43.4442967" lon="11.5059267"><ele>780.75</ele><time>2026-04-17T08:39:15.137Z</time></trkpt><trkpt lat="43.4444083" lon="11.5059"><ele>780.0</ele><time>2026-04-17T08:39:16.135Z</time></trkpt><trkpt lat="43.4445117" lon="11.5058217"><ele>780.0</ele><time>2026-04-17T08:39:17.135Z</time></trkpt><trkpt lat="43.4446" lon="11.5056917"><ele>780.0</ele><time>2026-04-17T08:39:18.136Z</time></trkpt><trkpt lat="43.44468" lon="11.5055433"><ele>780.0</ele><time>2026-04-17T08:39:19.136Z</time></trkpt><trkpt lat="43.4447617" lon="11.5053983"><ele>780.0</ele><time>2026-04-17T08:39:20.136Z</time></trkpt><trkpt lat="43.444845" lon="11.5052683"><ele>778.75</ele><time>2026-04-17T08:39:21.136Z</time></trkpt><trkpt lat="43.444935" lon="11.505155"><ele>777.5</ele><time>2026-04-17T08:39:22.136Z</time></trkpt><trkpt lat="43.4450517" lon="11.50507"><ele>776.25</ele><time>2026-04-17T08:39:23.134Z</time></trkpt><trkpt lat="43.44519" lon="11.50503"><ele>775.0</ele><time>2026-04-17T08:39:24.136Z</time></trkpt><trkpt lat="43.445345" lon="11.5050317"><ele>779.5</ele><time>2026-04-17T08:39:25.135Z</time></trkpt><trkpt lat="43.4454767" lon="11.505045"><ele>784.0</ele><time>2026-04-17T08:39:26.138Z</time></trkpt><trkpt lat="43.445595" lon="11.505055"><ele>788.5</ele><time>2026-04-17T08:39:27.136Z</time></trkpt><trkpt lat="43.445705" lon="11.5050383"><ele>793.0</ele><time>2026-04-17T08:39:28.135Z</time></trkpt><trkpt lat="43.4457983" lon="11.5049733"><ele>793.0</ele><time>2026-04-17T08:39:29.136Z</time></trkpt><trkpt lat="43.4458667" lon="11.504855"><ele>793.0</ele><time>2026-04-17T08:39:30.135Z</time></trkpt><trkpt lat="43.445925" lon="11.5046917"><ele>793.0</ele><time>2026-04-17T08:39:31.136Z</time></trkpt><trkpt lat="43.4459767" lon="11.5045167"><ele>793.0</ele><time>2026-04-17T08:39:32.135Z</time></trkpt><trkpt lat="43.4460417" lon="11.5043533"><ele>794.25</ele><time>2026-04-17T08:39:33.137Z</time></trkpt><trkpt lat="43.4461233" lon="11.5042217"><ele>795.5</ele><time>2026-04-17T08:39:34.136Z</time></trkpt><trkpt lat="43.446235" lon="11.5041117"><ele>796.75</ele><time>2026-04-17T08:39:35.136Z</time></trkpt><trkpt lat="43.4463533" lon="11.503995"><ele>798.0</ele><time>2026-04-17T08:39:36.136Z</time></trkpt><trkpt lat="43.4464567" lon="11.5038567"><ele>790.6666666666667</ele><time>2026-04-17T08:39:37.136Z</time></trkpt><trkpt lat="43.446555" lon="11.5036867"><ele>783.3333333333334</ele><time>2026-04-17T08:39:38.135Z</time></trkpt><trkpt lat="43.446645" lon="11.5034983"><ele>776.0</ele><time>2026-04-17T08:39:39.136Z</time></trkpt><trkpt lat="43.4467333" lon="11.50332"><ele>776.0</ele><time>2026-04-17T08:39:40.137Z</time></trkpt><trkpt lat="43.4468317" lon="11.5031717"><ele>776.0</ele><time>2026-04-17T08:39:41.138Z</time></trkpt><trkpt lat="43.44694" lon="11.5030667"><ele>776.0</ele><time>2026-04-17T08:39:42.138Z</time></trkpt><trkpt lat="43.44705" lon="11.503005"><ele>776.0</ele><time>2026-04-17T08:39:43.136Z</time></trkpt><trkpt lat="43.4471733" lon="11.5029917"><ele>778.3333333333334</ele><time>2026-04-17T08:39:44.135Z</time></trkpt><trkpt lat="43.4473183" lon="11.5030283"><ele>780.6666666666667</ele><time>2026-04-17T08:39:45.137Z</time></trkpt><trkpt lat="43.4474667" lon="11.5031"><ele>783.0</ele><time>2026-04-17T08:39:46.135Z</time></trkpt><trkpt lat="43.4476183" lon="11.5031833"><ele>783.0</ele><time>2026-04-17T08:39:47.137Z</time></trkpt><trkpt lat="43.447765" lon="11.50325"><ele>783.0</ele><time>2026-04-17T08:39:48.135Z</time></trkpt><trkpt lat="43.4479117" lon="11.5033083"><ele>783.0</ele><time>2026-04-17T08:39:49.138Z</time></trkpt><trkpt lat="43.44805" lon="11.5033567"><ele>781.0</ele><time>2026-04-17T08:39:50.136Z</time></trkpt><trkpt lat="43.448195" lon="11.503365"><ele>779.0</ele><time>2026-04-17T08:39:51.136Z</time></trkpt><trkpt lat="43.4483183" lon="11.503355"><ele>777.0</ele><time>2026-04-17T08:39:52.136Z</time></trkpt><trkpt lat="43.44842" lon="11.5033167"><ele>775.0</ele><time>2026-04-17T08:39:53.135Z</time></trkpt><trkpt lat="43.448505" lon="11.50324"><ele>775.0</ele><time>2026-04-17T08:39:54.136Z</time></trkpt><trkpt lat="43.4485783" lon="11.5031383"><ele>775.0</ele><time>2026-04-17T08:39:55.141Z</time></trkpt><trkpt lat="43.4486533" lon="11.5030333"><ele>775.0</ele><time>2026-04-17T08:39:56.137Z</time></trkpt><trkpt lat="43.44874" lon="11.50294"><ele>775.0</ele><time>2026-04-17T08:39:57.137Z</time></trkpt><trkpt lat="43.4488333" lon="11.5028583"><ele>775.0</ele><time>2026-04-17T08:39:58.137Z</time></trkpt><trkpt lat="43.4489333" lon="11.50279"><ele>769.75</ele><time>2026-04-17T08:39:59.136Z</time></trkpt><trkpt lat="43.44904" lon="11.5027333"><ele>764.5</ele><time>2026-04-17T08:40:00.134Z</time></trkpt><trkpt lat="43.4491467" lon="11.502675"><ele>759.25</ele><time>2026-04-17T08:40:01.134Z</time></trkpt><trkpt lat="43.449255" lon="11.50263"><ele>754.0</ele><time>2026-04-17T08:40:02.135Z</time></trkpt><trkpt lat="43.4493633" lon="11.5025767"><ele>754.0</ele><time>2026-04-17T08:40:03.135Z</time></trkpt><trkpt lat="43.4494667" lon="11.5025283"><ele>754.0</ele><time>2026-04-17T08:40:04.136Z</time></trkpt><trkpt lat="43.449565" lon="11.5024867"><ele>754.0</ele><time>2026-04-17T08:40:05.136Z</time></trkpt><trkpt lat="43.449665" lon="11.50245"><ele>754.0</ele><time>2026-04-17T08:40:06.134Z</time></trkpt><trkpt lat="43.44977" lon="11.502435"><ele>754.0</ele><time>2026-04-17T08:40:07.137Z</time></trkpt><trkpt lat="43.449885" lon="11.5024483"><ele>756.2</ele><time>2026-04-17T08:40:08.136Z</time></trkpt><trkpt lat="43.4499967" lon="11.5024783"><ele>758.4000000000001</ele><time>2026-04-17T08:40:09.137Z</time></trkpt><trkpt lat="43.4501017" lon="11.502505"><ele>760.6</ele><time>2026-04-17T08:40:10.137Z</time></trkpt><trkpt lat="43.450195" lon="11.5025233"><ele>762.8</ele><time>2026-04-17T08:40:11.133Z</time></trkpt><trkpt lat="43.4502867" lon="11.502535"><ele>765.0</ele><time>2026-04-17T08:40:12.135Z</time></trkpt><trkpt lat="43.45038" lon="11.502535"><ele>766.0</ele><time>2026-04-17T08:40:13.137Z</time></trkpt><trkpt lat="43.4504767" lon="11.5025117"><ele>767.0</ele><time>2026-04-17T08:40:14.139Z</time></trkpt><trkpt lat="43.45057" lon="11.5024533"><ele>768.0</ele><time>2026-04-17T08:40:15.136Z</time></trkpt><trkpt lat="43.450665" lon="11.5023683"><ele>769.0</ele><time>2026-04-17T08:40:16.135Z</time></trkpt><trkpt lat="43.4507583" lon="11.5022733"><ele>770.0</ele><time>2026-04-17T08:40:17.134Z</time></trkpt><trkpt lat="43.4508583" lon="11.502175"><ele>772.0</ele><time>2026-04-17T08:40:18.135Z</time></trkpt><trkpt lat="43.4509633" lon="11.5020633"><ele>774.0</ele><time>2026-04-17T08:40:19.135Z</time></trkpt><trkpt lat="43.4510817" lon="11.5019367"><ele>776.0</ele><time>2026-04-17T08:40:20.134Z</time></trkpt><trkpt lat="43.4512" lon="11.5018133"><ele>778.0</ele><time>2026-04-17T08:40:21.138Z</time></trkpt><trkpt lat="43.4513133" lon="11.5017133"><ele>779.25</ele><time>2026-04-17T08:40:22.135Z</time></trkpt><trkpt lat="43.45143" lon="11.5016483"><ele>780.5</ele><time>2026-04-17T08:40:23.135Z</time></trkpt><trkpt lat="43.4515417" lon="11.5016167"><ele>781.75</ele><time>2026-04-17T08:40:24.137Z</time></trkpt><trkpt lat="43.451655" lon="11.50158"><ele>783.0</ele><time>2026-04-17T08:40:25.136Z</time></trkpt><trkpt lat="43.45176" lon="11.50152"><ele>783.0</ele><time>2026-04-17T08:40:26.137Z</time></trkpt><trkpt lat="43.451865" lon="11.50142"><ele>783.0</ele><time>2026-04-17T08:40:27.135Z</time></trkpt><trkpt lat="43.451965" lon="11.5013117"><ele>783.0</ele><time>2026-04-17T08:40:28.136Z</time></trkpt><trkpt lat="43.4520683" lon="11.501195"><ele>783.0</ele><time>2026-04-17T08:40:29.135Z</time></trkpt><trkpt lat="43.452165" lon="11.5011217"><ele>786.25</ele><time>2026-04-17T08:40:30.136Z</time></trkpt><trkpt lat="43.4522717" lon="11.5010833"><ele>789.5</ele><time>2026-04-17T08:40:31.139Z</time></trkpt><trkpt lat="43.4523833" lon="11.501065"><ele>792.75</ele><time>2026-04-17T08:40:32.137Z</time></trkpt><trkpt lat="43.4525017" lon="11.501055"><ele>796.0</ele><time>2026-04-17T08:40:33.135Z</time></trkpt><trkpt lat="43.452625" lon="11.5010567"><ele>796.0</ele><time>2026-04-17T08:40:34.136Z</time></trkpt><trkpt lat="43.4527483" lon="11.5010867"><ele>796.0</ele><time>2026-04-17T08:40:35.135Z</time></trkpt><trkpt lat="43.45287" lon="11.5011367"><ele>796.0</ele><time>2026-04-17T08:40:36.135Z</time></trkpt><trkpt lat="43.452995" lon="11.5011967"><ele>796.0</ele><time>2026-04-17T08:40:37.136Z</time></trkpt><trkpt lat="43.4531183" lon="11.50126"><ele>794.8</ele><time>2026-04-17T08:40:38.136Z</time></trkpt><trkpt lat="43.45323" lon="11.5013183"><ele>793.5999999999999</ele><time>2026-04-17T08:40:39.139Z</time></trkpt><trkpt lat="43.45332" lon="11.50136"><ele>792.4</ele><time>2026-04-17T08:40:40.137Z</time></trkpt><trkpt lat="43.4534083" lon="11.5013783"><ele>791.2</ele><time>2026-04-17T08:40:41.135Z</time></trkpt><trkpt lat="43.4535" lon="11.50137"><ele>790.0</ele><time>2026-04-17T08:40:42.137Z</time></trkpt><trkpt lat="43.4536033" lon="11.501315"><ele>790.5</ele><time>2026-04-17T08:40:43.135Z</time></trkpt><trkpt lat="43.453715" lon="11.5012417"><ele>791.0</ele><time>2026-04-17T08:40:44.138Z</time></trkpt><trkpt lat="43.4538267" lon="11.50117"><ele>791.5</ele><time>2026-04-17T08:40:45.138Z</time></trkpt><trkpt lat="43.453935" lon="11.5011"><ele>792.0</ele><time>2026-04-17T08:40:46.136Z</time></trkpt><trkpt lat="43.4540567" lon="11.5010383"><ele>792.0</ele><time>2026-04-17T08:40:47.134Z</time></trkpt><trkpt lat="43.4541917" lon="11.5009817"><ele>792.0</ele><time>2026-04-17T08:40:48.136Z</time></trkpt><trkpt lat="43.454325" lon="11.500935"><ele>792.0</ele><time>2026-04-17T08:40:49.134Z</time></trkpt><trkpt lat="43.4544483" lon="11.5008867"><ele>792.0</ele><time>2026-04-17T08:40:50.137Z</time></trkpt><trkpt lat="43.4545633" lon="11.5008367"><ele>792.0</ele><time>2026-04-17T08:40:51.136Z</time></trkpt><trkpt lat="43.4546667" lon="11.5007917"><ele>792.0</ele><time>2026-04-17T08:40:52.137Z</time></trkpt><trkpt lat="43.454765" lon="11.5007533"><ele>792.0</ele><time>2026-04-17T08:40:53.135Z</time></trkpt><trkpt lat="43.4548583" lon="11.5007383"><ele>792.0</ele><time>2026-04-17T08:40:54.135Z</time></trkpt><trkpt lat="43.4549533" lon="11.500745"><ele>792.0</ele><time>2026-04-17T08:40:55.136Z</time></trkpt><trkpt lat="43.4550667" lon="11.50077"><ele>792.0</ele><time>2026-04-17T08:40:56.135Z</time></trkpt><trkpt lat="43.4551567" lon="11.5008083"><ele>792.0</ele><time>2026-04-17T08:40:57.137Z</time></trkpt><trkpt lat="43.4552517" lon="11.50084"><ele>792.0</ele><time>2026-04-17T08:40:58.136Z</time></trkpt><trkpt lat="43.4553583" lon="11.5008367"><ele>792.0</ele><time>2026-04-17T08:40:59.135Z</time></trkpt><trkpt lat="43.4554683" lon="11.500805"><ele>792.0</ele><time>2026-04-17T08:41:00.138Z</time></trkpt><trkpt lat="43.45558" lon="11.500765"><ele>792.2</ele><time>2026-04-17T08:41:01.136Z</time></trkpt><trkpt lat="43.4556867" lon="11.50072"><ele>792.4000000000001</ele><time>2026-04-17T08:41:02.137Z</time></trkpt><trkpt lat="43.4557817" lon="11.5006933"><ele>792.5999999999999</ele><time>2026-04-17T08:41:03.137Z</time></trkpt><trkpt lat="43.4558733" lon="11.5006767"><ele>792.8</ele><time>2026-04-17T08:41:04.136Z</time></trkpt><trkpt lat="43.4559617" lon="11.500665"><ele>793.0</ele><time>2026-04-17T08:41:05.137Z</time></trkpt><trkpt lat="43.4560467" lon="11.5006483"><ele>793.0</ele><time>2026-04-17T08:41:06.135Z</time></trkpt><trkpt lat="43.45613" lon="11.5006167"><ele>793.0</ele><time>2026-04-17T08:41:07.137Z</time></trkpt><trkpt lat="43.45622" lon="11.5005717"><ele>793.0</ele><time>2026-04-17T08:41:08.135Z</time></trkpt><trkpt lat="43.4563117" lon="11.50051"><ele>793.0</ele><time>2026-04-17T08:41:09.136Z</time></trkpt><trkpt lat="43.4564133" lon="11.500445"><ele>793.0</ele><time>2026-04-17T08:41:10.137Z</time></trkpt><trkpt lat="43.456535" lon="11.50039"><ele>789.75</ele><time>2026-04-17T08:41:11.135Z</time></trkpt><trkpt lat="43.4566567" lon="11.500335"><ele>786.5</ele><time>2026-04-17T08:41:12.135Z</time></trkpt><trkpt lat="43.4567833" lon="11.5002567"><ele>783.25</ele><time>2026-04-17T08:41:13.137Z</time></trkpt><trkpt lat="43.456895" lon="11.5002"><ele>780.0</ele><time>2026-04-17T08:41:14.135Z</time></trkpt><trkpt lat="43.457" lon="11.5001633"><ele>780.25</ele><time>2026-04-17T08:41:15.136Z</time></trkpt><trkpt lat="43.45712" lon="11.5001483"><ele>780.5</ele><time>2026-04-17T08:41:16.136Z</time></trkpt><trkpt lat="43.457255" lon="11.50017"><ele>780.75</ele><time>2026-04-17T08:41:17.134Z</time></trkpt><trkpt lat="43.457405" lon="11.5002233"><ele>781.0</ele><time>2026-04-17T08:41:18.135Z</time></trkpt><trkpt lat="43.457555" lon="11.5002883"><ele>781.0</ele><time>2026-04-17T08:41:19.135Z</time></trkpt><trkpt lat="43.4576983" lon="11.5003517"><ele>781.0</ele><time>2026-04-17T08:41:20.135Z</time></trkpt><trkpt lat="43.4578283" lon="11.5004033"><ele>781.0</ele><time>2026-04-17T08:41:21.136Z</time></trkpt><trkpt lat="43.4579367" lon="11.5004417"><ele>781.0</ele><time>2026-04-17T08:41:22.136Z</time></trkpt><trkpt lat="43.458035" lon="11.500475"><ele>779.8333333333333</ele><time>2026-04-17T08:41:23.136Z</time></trkpt><trkpt lat="43.458125" lon="11.5005133"><ele>778.6666666666666</ele><time>2026-04-17T08:41:24.137Z</time></trkpt><trkpt lat="43.458205" lon="11.50055"><ele>777.5</ele><time>2026-04-17T08:41:25.135Z</time></trkpt><trkpt lat="43.45828" lon="11.5005933"><ele>776.3333333333333</ele><time>2026-04-17T08:41:26.136Z</time></trkpt><trkpt lat="43.4583583" lon="11.5006483"><ele>775.1666666666666</ele><time>2026-04-17T08:41:27.137Z</time></trkpt><trkpt lat="43.45843" lon="11.5006983"><ele>774.0</ele><time>2026-04-17T08:41:28.136Z</time></trkpt><trkpt lat="43.4585033" lon="11.5007467"><ele>774.0</ele><time>2026-04-17T08:41:29.136Z</time></trkpt><trkpt lat="43.4585733" lon="11.5007917"><ele>774.0</ele><time>2026-04-17T08:41:30.137Z</time></trkpt><trkpt lat="43.4586483" lon="11.5008283"><ele>774.0</ele><time>2026-04-17T08:41:31.135Z</time></trkpt><trkpt lat="43.4587217" lon="11.5008733"><ele>774.0</ele><time>2026-04-17T08:41:32.135Z</time></trkpt><trkpt lat="43.4587967" lon="11.5009133"><ele>774.0</ele><time>2026-04-17T08:41:33.135Z</time></trkpt><trkpt lat="43.45888" lon="11.500955"><ele>774.0</ele><time>2026-04-17T08:41:34.135Z</time></trkpt><trkpt lat="43.458965" lon="11.5009967"><ele>771.8000000000001</ele><time>2026-04-17T08:41:35.137Z</time></trkpt><trkpt lat="43.45906" lon="11.5010283"><ele>769.6</ele><time>2026-04-17T08:41:36.137Z</time></trkpt><trkpt lat="43.4591533" lon="11.5010333"><ele>767.4</ele><time>2026-04-17T08:41:37.139Z</time></trkpt><trkpt lat="43.4592417" lon="11.5010167"><ele>765.2</ele><time>2026-04-17T08:41:38.137Z</time></trkpt><trkpt lat="43.4593183" lon="11.5009783"><ele>763.0</ele><time>2026-04-17T08:41:39.139Z</time></trkpt><trkpt lat="43.4594017" lon="11.5009267"><ele>763.0</ele><time>2026-04-17T08:41:40.137Z</time></trkpt><trkpt lat="43.4594783" lon="11.5008717"><ele>763.0</ele><time>2026-04-17T08:41:41.141Z</time></trkpt><trkpt lat="43.4595517" lon="11.5008167"><ele>763.0</ele><time>2026-04-17T08:41:42.137Z</time></trkpt><trkpt lat="43.4596233" lon="11.50077"><ele>763.0</ele><time>2026-04-17T08:41:43.137Z</time></trkpt><trkpt lat="43.4597083" lon="11.500735"><ele>763.0</ele><time>2026-04-17T08:41:44.138Z</time></trkpt><trkpt lat="43.4598033" lon="11.5007083"><ele>763.0</ele><time>2026-04-17T08:41:45.137Z</time></trkpt><trkpt lat="43.4598983" lon="11.5007"><ele>761.4</ele><time>2026-04-17T08:41:46.135Z</time></trkpt><trkpt lat="43.4599817" lon="11.50071"><ele>759.8</ele><time>2026-04-17T08:41:47.135Z</time></trkpt><trkpt lat="43.4600567" lon="11.5007383"><ele>758.2</ele><time>2026-04-17T08:41:48.136Z</time></trkpt><trkpt lat="43.4601283" lon="11.5007933"><ele>756.6</ele><time>2026-04-17T08:41:49.136Z</time></trkpt><trkpt lat="43.46021" lon="11.5009217"><ele>755.0</ele><time>2026-04-17T08:41:50.137Z</time></trkpt><trkpt lat="43.4602983" lon="11.5010433"><ele>755.0</ele><time>2026-04-17T08:41:51.135Z</time></trkpt><trkpt lat="43.4603767" lon="11.501145"><ele>755.0</ele><time>2026-04-17T08:41:52.135Z</time></trkpt><trkpt lat="43.4604467" lon="11.5012383"><ele>755.0</ele><time>2026-04-17T08:41:53.135Z</time></trkpt><trkpt lat="43.4605067" lon="11.50134"><ele>755.0</ele><time>2026-04-17T08:41:54.136Z</time></trkpt><trkpt lat="43.4605533" lon="11.5014783"><ele>755.0</ele><time>2026-04-17T08:41:55.137Z</time></trkpt><trkpt lat="43.4606033" lon="11.5016383"><ele>756.0</ele><time>2026-04-17T08:41:56.136Z</time></trkpt><trkpt lat="43.460645" lon="11.5018017"><ele>757.0</ele><time>2026-04-17T08:41:57.139Z</time></trkpt><trkpt lat="43.4606917" lon="11.5019667"><ele>758.0</ele><time>2026-04-17T08:41:58.135Z</time></trkpt><trkpt lat="43.4607433" lon="11.5021317"><ele>759.0</ele><time>2026-04-17T08:41:59.135Z</time></trkpt><trkpt lat="43.460795" lon="11.5022817"><ele>756.5</ele><time>2026-04-17T08:42:00.135Z</time></trkpt><trkpt lat="43.4608533" lon="11.50242"><ele>754.0</ele><time>2026-04-17T08:42:01.136Z</time></trkpt><trkpt lat="43.4609167" lon="11.5025567"><ele>751.5</ele><time>2026-04-17T08:42:02.136Z</time></trkpt><trkpt lat="43.4609817" lon="11.5026933"><ele>749.0</ele><time>2026-04-17T08:42:03.139Z</time></trkpt><trkpt lat="43.4610483" lon="11.5028283"><ele>749.8333333333333</ele><time>2026-04-17T08:42:04.135Z</time></trkpt><trkpt lat="43.4611133" lon="11.5029467"><ele>750.6666666666666</ele><time>2026-04-17T08:42:05.135Z</time></trkpt><trkpt lat="43.461175" lon="11.5030533"><ele>751.5</ele><time>2026-04-17T08:42:06.136Z</time></trkpt><trkpt lat="43.4612333" lon="11.5031333"><ele>752.3333333333334</ele><time>2026-04-17T08:42:07.136Z</time></trkpt><trkpt lat="43.46129" lon="11.5032083"><ele>753.1666666666667</ele><time>2026-04-17T08:42:08.136Z</time></trkpt><trkpt lat="43.4613417" lon="11.503285"><ele>754.0</ele><time>2026-04-17T08:42:09.136Z</time></trkpt><trkpt lat="43.4613767" lon="11.5033583"><ele>754.0</ele><time>2026-04-17T08:42:10.137Z</time></trkpt><trkpt lat="43.4614583" lon="11.5034833"><ele>754.0</ele><time>2026-04-17T08:42:12.135Z</time></trkpt><trkpt lat="43.4615167" lon="11.50353"><ele>754.0</ele><time>2026-04-17T08:42:13.135Z</time></trkpt><trkpt lat="43.4615933" lon="11.5035583"><ele>754.0</ele><time>2026-04-17T08:42:14.136Z</time></trkpt><trkpt lat="43.4616733" lon="11.5035867"><ele>754.0</ele><time>2026-04-17T08:42:15.136Z</time></trkpt><trkpt lat="43.4617533" lon="11.5036067"><ele>754.0</ele><time>2026-04-17T08:42:16.136Z</time></trkpt><trkpt lat="43.461835" lon="11.5036283"><ele>754.0</ele><time>2026-04-17T08:42:17.135Z</time></trkpt><trkpt lat="43.4619117" lon="11.5036417"><ele>754.0</ele><time>2026-04-17T08:42:18.134Z</time></trkpt><trkpt lat="43.46199" lon="11.5036317"><ele>754.0</ele><time>2026-04-17T08:42:19.135Z</time></trkpt><trkpt lat="43.4620717" lon="11.503605"><ele>754.0</ele><time>2026-04-17T08:42:20.135Z</time></trkpt><trkpt lat="43.46215" lon="11.5035667"><ele>754.0</ele><time>2026-04-17T08:42:21.135Z</time></trkpt><trkpt lat="43.4622283" lon="11.5035333"><ele>754.0</ele><time>2026-04-17T08:42:22.135Z</time></trkpt><trkpt lat="43.4623017" lon="11.5035133"><ele>753.8333333333334</ele><time>2026-04-17T08:42:23.135Z</time></trkpt><trkpt lat="43.46237" lon="11.503505"><ele>753.6666666666667</ele><time>2026-04-17T08:42:24.135Z</time></trkpt><trkpt lat="43.4624483" lon="11.5035167"><ele>753.5</ele><time>2026-04-17T08:42:25.135Z</time></trkpt><trkpt lat="43.462525" lon="11.5035483"><ele>753.3333333333334</ele><time>2026-04-17T08:42:26.135Z</time></trkpt><trkpt lat="43.4625967" lon="11.5035817"><ele>753.1666666666666</ele><time>2026-04-17T08:42:27.137Z</time></trkpt><trkpt lat="43.4626783" lon="11.5036083"><ele>753.0</ele><time>2026-04-17T08:42:28.134Z</time></trkpt><trkpt lat="43.4627617" lon="11.5036333"><ele>753.0</ele><time>2026-04-17T08:42:29.134Z</time></trkpt><trkpt lat="43.4628367" lon="11.5036617"><ele>753.0</ele><time>2026-04-17T08:42:30.134Z</time></trkpt><trkpt lat="43.4629067" lon="11.5036867"><ele>753.0</ele><time>2026-04-17T08:42:31.135Z</time></trkpt><trkpt lat="43.4629833" lon="11.50373"><ele>753.0</ele><time>2026-04-17T08:42:32.136Z</time></trkpt><trkpt lat="43.4630533" lon="11.5037883"><ele>753.0</ele><time>2026-04-17T08:42:33.136Z</time></trkpt><trkpt lat="43.4631267" lon="11.5038467"><ele>753.0</ele><time>2026-04-17T08:42:34.136Z</time></trkpt><trkpt lat="43.463205" lon="11.503915"><ele>750.0</ele><time>2026-04-17T08:42:35.136Z</time></trkpt><trkpt lat="43.46328" lon="11.5039867"><ele>747.0</ele><time>2026-04-17T08:42:36.136Z</time></trkpt><trkpt lat="43.4633517" lon="11.5040433"><ele>744.0</ele><time>2026-04-17T08:42:37.136Z</time></trkpt><trkpt lat="43.463405" lon="11.5041183"><ele>741.0</ele><time>2026-04-17T08:42:38.136Z</time></trkpt><trkpt lat="43.4634467" lon="11.5042033"><ele>738.0</ele><time>2026-04-17T08:42:39.136Z</time></trkpt><trkpt lat="43.4634867" lon="11.5042717"><ele>735.0</ele><time>2026-04-17T08:42:40.135Z</time></trkpt><trkpt lat="43.4635533" lon="11.504335"><ele>735.0</ele><time>2026-04-17T08:42:41.135Z</time></trkpt><trkpt lat="43.4636367" lon="11.5044"><ele>735.0</ele><time>2026-04-17T08:42:42.137Z</time></trkpt><trkpt lat="43.4637233" lon="11.5044567"><ele>735.0</ele><time>2026-04-17T08:42:43.136Z</time></trkpt><trkpt lat="43.46382" lon="11.5045117"><ele>735.0</ele><time>2026-04-17T08:42:44.136Z</time></trkpt><trkpt lat="43.46392" lon="11.5045683"><ele>735.0</ele><time>2026-04-17T08:42:45.136Z</time></trkpt><trkpt lat="43.4640167" lon="11.504615"><ele>735.2</ele><time>2026-04-17T08:42:46.136Z</time></trkpt><trkpt lat="43.4641117" lon="11.5046483"><ele>735.4</ele><time>2026-04-17T08:42:47.136Z</time></trkpt><trkpt lat="43.4642067" lon="11.50466"><ele>735.5999999999999</ele><time>2026-04-17T08:42:48.135Z</time></trkpt><trkpt lat="43.4643" lon="11.50465"><ele>735.8</ele><time>2026-04-17T08:42:49.134Z</time></trkpt><trkpt lat="43.4643867" lon="11.5046167"><ele>736.0</ele><time>2026-04-17T08:42:50.136Z</time></trkpt><trkpt lat="43.4644667" lon="11.504575"><ele>736.0</ele><time>2026-04-17T08:42:51.135Z</time></trkpt><trkpt lat="43.4645317" lon="11.5045433"><ele>736.0</ele><time>2026-04-17T08:42:52.136Z</time></trkpt><trkpt lat="43.4646483" lon="11.5046283"><ele>736.0</ele><time>2026-04-17T08:42:54.134Z</time></trkpt><trkpt lat="43.4646933" lon="11.504735"><ele>736.0</ele><time>2026-04-17T08:42:55.136Z</time></trkpt><trkpt lat="43.4647283" lon="11.5048567"><ele>736.0</ele><time>2026-04-17T08:42:56.136Z</time></trkpt><trkpt lat="43.4647567" lon="11.5049783"><ele>733.0</ele><time>2026-04-17T08:42:57.136Z</time></trkpt><trkpt lat="43.46479" lon="11.5051033"><ele>730.0</ele><time>2026-04-17T08:42:58.137Z</time></trkpt><trkpt lat="43.4648233" lon="11.5052383"><ele>727.0</ele><time>2026-04-17T08:42:59.136Z</time></trkpt><trkpt lat="43.4648517" lon="11.50538"><ele>724.0</ele><time>2026-04-17T08:43:00.136Z</time></trkpt><trkpt lat="43.4648783" lon="11.50552"><ele>721.0</ele><time>2026-04-17T08:43:01.137Z</time></trkpt><trkpt lat="43.46489" lon="11.5056383"><ele>721.0</ele><time>2026-04-17T08:43:02.137Z</time></trkpt><trkpt lat="43.4648983" lon="11.5057483"><ele>721.0</ele><time>2026-04-17T08:43:03.137Z</time></trkpt><trkpt lat="43.4649033" lon="11.50585"><ele>721.0</ele><time>2026-04-17T08:43:04.136Z</time></trkpt><trkpt lat="43.4649067" lon="11.50595"><ele>721.0</ele><time>2026-04-17T08:43:05.136Z</time></trkpt><trkpt lat="43.4649083" lon="11.50605"><ele>721.0</ele><time>2026-04-17T08:43:06.136Z</time></trkpt><trkpt lat="43.4649067" lon="11.5061517"><ele>721.0</ele><time>2026-04-17T08:43:07.138Z</time></trkpt><trkpt lat="43.4649117" lon="11.50626"><ele>719.1666666666667</ele><time>2026-04-17T08:43:08.136Z</time></trkpt><trkpt lat="43.4649183" lon="11.5063683"><ele>717.3333333333334</ele><time>2026-04-17T08:43:09.137Z</time></trkpt><trkpt lat="43.4649367" lon="11.5064783"><ele>715.5</ele><time>2026-04-17T08:43:10.136Z</time></trkpt><trkpt lat="43.4649617" lon="11.5065933"><ele>713.6666666666666</ele><time>2026-04-17T08:43:11.134Z</time></trkpt><trkpt lat="43.4649917" lon="11.5067033"><ele>711.8333333333333</ele><time>2026-04-17T08:43:12.136Z</time></trkpt><trkpt lat="43.4650317" lon="11.5068083"><ele>710.0</ele><time>2026-04-17T08:43:13.137Z</time></trkpt><trkpt lat="43.4650783" lon="11.506895"><ele>710.0</ele><time>2026-04-17T08:43:14.136Z</time></trkpt><trkpt lat="43.465135" lon="11.5069717"><ele>710.0</ele><time>2026-04-17T08:43:15.138Z</time></trkpt><trkpt lat="43.465195" lon="11.5070467"><ele>710.0</ele><time>2026-04-17T08:43:16.135Z</time></trkpt><trkpt lat="43.4652667" lon="11.5071017"><ele>710.0</ele><time>2026-04-17T08:43:17.136Z</time></trkpt><trkpt lat="43.4653417" lon="11.50715"><ele>710.0</ele><time>2026-04-17T08:43:18.134Z</time></trkpt><trkpt lat="43.4654183" lon="11.5072067"><ele>710.0</ele><time>2026-04-17T08:43:19.135Z</time></trkpt><trkpt lat="43.4654983" lon="11.5072617"><ele>707.8</ele><time>2026-04-17T08:43:20.135Z</time></trkpt><trkpt lat="43.4655817" lon="11.5073083"><ele>705.6</ele><time>2026-04-17T08:43:21.136Z</time></trkpt><trkpt lat="43.4656683" lon="11.507345"><ele>703.4000000000001</ele><time>2026-04-17T08:43:22.135Z</time></trkpt><trkpt lat="43.4657533" lon="11.5073817"><ele>701.2</ele><time>2026-04-17T08:43:23.135Z</time></trkpt><trkpt lat="43.46584" lon="11.50742"><ele>699.0</ele><time>2026-04-17T08:43:24.135Z</time></trkpt><trkpt lat="43.4659233" lon="11.5074683"><ele>699.0</ele><time>2026-04-17T08:43:25.137Z</time></trkpt><trkpt lat="43.4660067" lon="11.507535"><ele>699.0</ele><time>2026-04-17T08:43:26.136Z</time></trkpt><trkpt lat="43.466085" lon="11.507615"><ele>699.0</ele><time>2026-04-17T08:43:27.136Z</time></trkpt><trkpt lat="43.4661533" lon="11.5076983"><ele>699.0</ele><time>2026-04-17T08:43:28.137Z</time></trkpt><trkpt lat="43.466215" lon="11.5077733"><ele>699.0</ele><time>2026-04-17T08:43:29.136Z</time></trkpt><trkpt lat="43.4662683" lon="11.5078517"><ele>699.0</ele><time>2026-04-17T08:43:30.136Z</time></trkpt><trkpt lat="43.466315" lon="11.5079317"><ele>696.0</ele><time>2026-04-17T08:43:31.137Z</time></trkpt><trkpt lat="43.4663617" lon="11.5080283"><ele>693.0</ele><time>2026-04-17T08:43:32.136Z</time></trkpt><trkpt lat="43.4664183" lon="11.5081433"><ele>690.0</ele><time>2026-04-17T08:43:33.138Z</time></trkpt><trkpt lat="43.4664783" lon="11.5082817"><ele>687.0</ele><time>2026-04-17T08:43:34.135Z</time></trkpt><trkpt lat="43.4665367" lon="11.5084183"><ele>684.0</ele><time>2026-04-17T08:43:35.135Z</time></trkpt><trkpt lat="43.4665983" lon="11.5085533"><ele>684.0</ele><time>2026-04-17T08:43:36.138Z</time></trkpt><trkpt lat="43.4666683" lon="11.5086733"><ele>684.0</ele><time>2026-04-17T08:43:37.137Z</time></trkpt><trkpt lat="43.46674" lon="11.508775"><ele>684.0</ele><time>2026-04-17T08:43:38.135Z</time></trkpt><trkpt lat="43.4668233" lon="11.5088617"><ele>684.0</ele><time>2026-04-17T08:43:39.137Z</time></trkpt><trkpt lat="43.4669167" lon="11.5089317"><ele>684.0</ele><time>2026-04-17T08:43:40.136Z</time></trkpt><trkpt lat="43.4670267" lon="11.5090083"><ele>683.5</ele><time>2026-04-17T08:43:41.136Z</time></trkpt><trkpt lat="43.4671333" lon="11.5091017"><ele>683.0</ele><time>2026-04-17T08:43:42.137Z</time></trkpt><trkpt lat="43.467225" lon="11.509205"><ele>682.5</ele><time>2026-04-17T08:43:43.138Z</time></trkpt><trkpt lat="43.4673133" lon="11.5093167"><ele>682.0</ele><time>2026-04-17T08:43:44.139Z</time></trkpt><trkpt lat="43.467395" lon="11.509435"><ele>682.0</ele><time>2026-04-17T08:43:45.136Z</time></trkpt><trkpt lat="43.4674683" lon="11.50954"><ele>682.0</ele><time>2026-04-17T08:43:46.136Z</time></trkpt><trkpt lat="43.4675333" lon="11.50963"><ele>682.0</ele><time>2026-04-17T08:43:47.136Z</time></trkpt><trkpt lat="43.4675983" lon="11.50972"><ele>682.0</ele><time>2026-04-17T08:43:48.135Z</time></trkpt><trkpt lat="43.4676617" lon="11.5097933"><ele>682.0</ele><time>2026-04-17T08:43:49.137Z</time></trkpt><trkpt lat="43.4677217" lon="11.5098583"><ele>682.0</ele><time>2026-04-17T08:43:50.137Z</time></trkpt><trkpt lat="43.4677767" lon="11.5099333"><ele>683.3333333333334</ele><time>2026-04-17T08:43:51.137Z</time></trkpt><trkpt lat="43.4678233" lon="11.5100267"><ele>684.6666666666667</ele><time>2026-04-17T08:43:52.137Z</time></trkpt><trkpt lat="43.4678667" lon="11.51012"><ele>686.0</ele><time>2026-04-17T08:43:53.136Z</time></trkpt><trkpt lat="43.4679183" lon="11.5101983"><ele>687.3333333333334</ele><time>2026-04-17T08:43:54.136Z</time></trkpt><trkpt lat="43.467975" lon="11.5102617"><ele>688.6666666666666</ele><time>2026-04-17T08:43:55.137Z</time></trkpt><trkpt lat="43.4680317" lon="11.510325"><ele>690.0</ele><time>2026-04-17T08:43:56.136Z</time></trkpt><trkpt lat="43.468085" lon="11.510395"><ele>691.5</ele><time>2026-04-17T08:43:57.137Z</time></trkpt><trkpt lat="43.4681233" lon="11.5104883"><ele>693.0</ele><time>2026-04-17T08:43:58.136Z</time></trkpt><trkpt lat="43.4681517" lon="11.5105867"><ele>694.5</ele><time>2026-04-17T08:43:59.136Z</time></trkpt><trkpt lat="43.4681767" lon="11.5106933"><ele>696.0</ele><time>2026-04-17T08:44:00.136Z</time></trkpt><trkpt lat="43.4681967" lon="11.5108033"><ele>697.5</ele><time>2026-04-17T08:44:01.136Z</time></trkpt><trkpt lat="43.468205" lon="11.5109183"><ele>699.0</ele><time>2026-04-17T08:44:02.136Z</time></trkpt><trkpt lat="43.46822" lon="11.5110417"><ele>699.0</ele><time>2026-04-17T08:44:03.138Z</time></trkpt><trkpt lat="43.4682467" lon="11.511165"><ele>699.0</ele><time>2026-04-17T08:44:04.137Z</time></trkpt><trkpt lat="43.4682817" lon="11.511285"><ele>699.0</ele><time>2026-04-17T08:44:05.136Z</time></trkpt><trkpt lat="43.4683183" lon="11.511405"><ele>699.0</ele><time>2026-04-17T08:44:06.137Z</time></trkpt><trkpt lat="43.4683433" lon="11.5115217"><ele>699.0</ele><time>2026-04-17T08:44:07.134Z</time></trkpt><trkpt lat="43.4683567" lon="11.5116333"><ele>698.3333333333334</ele><time>2026-04-17T08:44:08.136Z</time></trkpt><trkpt lat="43.4683683" lon="11.5117483"><ele>697.6666666666666</ele><time>2026-04-17T08:44:09.137Z</time></trkpt><trkpt lat="43.4683933" lon="11.511865"><ele>697.0</ele><time>2026-04-17T08:44:10.136Z</time></trkpt><trkpt lat="43.4684167" lon="11.5119767"><ele>696.3333333333333</ele><time>2026-04-17T08:44:11.135Z</time></trkpt><trkpt lat="43.4684383" lon="11.5120883"><ele>695.6666666666666</ele><time>2026-04-17T08:44:12.144Z</time></trkpt><trkpt lat="43.46846" lon="11.51219"><ele>695.0</ele><time>2026-04-17T08:44:13.137Z</time></trkpt><trkpt lat="43.4684783" lon="11.512275"><ele>695.0</ele><time>2026-04-17T08:44:14.138Z</time></trkpt><trkpt lat="43.4684983" lon="11.512415"><ele>695.0</ele><time>2026-04-17T08:44:16.136Z</time></trkpt><trkpt lat="43.4684917" lon="11.51232"><ele>695.0</ele><time>2026-04-17T08:44:46.137Z</time></trkpt><trkpt lat="43.4684717" lon="11.51222"><ele>695.0</ele><time>2026-04-17T08:44:47.137Z</time></trkpt><trkpt lat="43.46845" lon="11.5121017"><ele>695.0</ele><time>2026-04-17T08:44:48.136Z</time></trkpt><trkpt lat="43.4684217" lon="11.5119667"><ele>695.0</ele><time>2026-04-17T08:44:49.136Z</time></trkpt><trkpt lat="43.4683983" lon="11.5118417"><ele>695.0</ele><time>2026-04-17T08:44:50.136Z</time></trkpt><trkpt lat="43.46838" lon="11.5117183"><ele>695.0</ele><time>2026-04-17T08:44:51.144Z</time></trkpt><trkpt lat="43.4683633" lon="11.5115917"><ele>695.0</ele><time>2026-04-17T08:44:52.135Z</time></trkpt><trkpt lat="43.46834" lon="11.51146"><ele>695.0</ele><time>2026-04-17T08:44:53.136Z</time></trkpt><trkpt lat="43.4683017" lon="11.51134"><ele>695.0</ele><time>2026-04-17T08:44:54.136Z</time></trkpt><trkpt lat="43.4682617" lon="11.5112333"><ele>695.6666666666666</ele><time>2026-04-17T08:44:55.135Z</time></trkpt><trkpt lat="43.4682283" lon="11.5111367"><ele>696.3333333333333</ele><time>2026-04-17T08:44:56.135Z</time></trkpt><trkpt lat="43.468215" lon="11.5110367"><ele>697.0</ele><time>2026-04-17T08:44:57.135Z</time></trkpt><trkpt lat="43.4682117" lon="11.510935"><ele>697.6666666666666</ele><time>2026-04-17T08:44:58.136Z</time></trkpt><trkpt lat="43.4682067" lon="11.510825"><ele>698.3333333333334</ele><time>2026-04-17T08:44:59.137Z</time></trkpt><trkpt lat="43.4681867" lon="11.5107183"><ele>699.0</ele><time>2026-04-17T08:45:00.135Z</time></trkpt><trkpt lat="43.46815" lon="11.5106"><ele>699.0</ele><time>2026-04-17T08:45:01.134Z</time></trkpt><trkpt lat="43.46811" lon="11.5104867"><ele>699.0</ele><time>2026-04-17T08:45:02.136Z</time></trkpt><trkpt lat="43.46807" lon="11.51039"><ele>699.0</ele><time>2026-04-17T08:45:03.136Z</time></trkpt><trkpt lat="43.46802" lon="11.51031"><ele>699.0</ele><time>2026-04-17T08:45:04.136Z</time></trkpt><trkpt lat="43.467955" lon="11.51025"><ele>699.0</ele><time>2026-04-17T08:45:05.135Z</time></trkpt><trkpt lat="43.4678917" lon="11.5101833"><ele>699.0</ele><time>2026-04-17T08:45:06.136Z</time></trkpt><trkpt lat="43.4678383" lon="11.510095"><ele>697.5</ele><time>2026-04-17T08:45:07.138Z</time></trkpt><trkpt lat="43.467795" lon="11.509995"><ele>696.0</ele><time>2026-04-17T08:45:08.136Z</time></trkpt><trkpt lat="43.4677467" lon="11.5099083"><ele>694.5</ele><time>2026-04-17T08:45:09.137Z</time></trkpt><trkpt lat="43.467695" lon="11.5098367"><ele>693.0</ele><time>2026-04-17T08:45:10.136Z</time></trkpt><trkpt lat="43.4676367" lon="11.5097583"><ele>691.5</ele><time>2026-04-17T08:45:11.136Z</time></trkpt><trkpt lat="43.46757" lon="11.5096717"><ele>690.0</ele><time>2026-04-17T08:45:12.135Z</time></trkpt><trkpt lat="43.4674967" lon="11.509575"><ele>688.0</ele><time>2026-04-17T08:45:13.138Z</time></trkpt><trkpt lat="43.4674183" lon="11.5094717"><ele>686.0</ele><time>2026-04-17T08:45:14.138Z</time></trkpt><trkpt lat="43.4673367" lon="11.50936"><ele>684.0</ele><time>2026-04-17T08:45:15.138Z</time></trkpt><trkpt lat="43.4672567" lon="11.5092483"><ele>682.0</ele><time>2026-04-17T08:45:16.135Z</time></trkpt><trkpt lat="43.467175" lon="11.50914"><ele>681.8</ele><time>2026-04-17T08:45:17.135Z</time></trkpt><trkpt lat="43.4670833" lon="11.5090433"><ele>681.6</ele><time>2026-04-17T08:45:18.135Z</time></trkpt><trkpt lat="43.4669817" lon="11.50896"><ele>681.4</ele><time>2026-04-17T08:45:19.136Z</time></trkpt><trkpt lat="43.4668817" lon="11.508885"><ele>681.1999999999999</ele><time>2026-04-17T08:45:20.136Z</time></trkpt><trkpt lat="43.4667967" lon="11.5088117"><ele>681.0</ele><time>2026-04-17T08:45:21.14Z</time></trkpt><trkpt lat="43.4667183" lon="11.5087383"><ele>681.75</ele><time>2026-04-17T08:45:22.135Z</time></trkpt><trkpt lat="43.4666417" lon="11.5086383"><ele>682.5</ele><time>2026-04-17T08:45:23.135Z</time></trkpt><trkpt lat="43.46656" lon="11.5084967"><ele>683.25</ele><time>2026-04-17T08:45:24.134Z</time></trkpt><trkpt lat="43.4664867" lon="11.508335"><ele>684.0</ele><time>2026-04-17T08:45:25.135Z</time></trkpt><trkpt lat="43.4664217" lon="11.5081883"><ele>684.0</ele><time>2026-04-17T08:45:26.133Z</time></trkpt><trkpt lat="43.466365" lon="11.50807"><ele>684.0</ele><time>2026-04-17T08:45:27.136Z</time></trkpt><trkpt lat="43.46631" lon="11.50797"><ele>684.0</ele><time>2026-04-17T08:45:28.134Z</time></trkpt><trkpt lat="43.46626" lon="11.507885"><ele>684.0</ele><time>2026-04-17T08:45:29.136Z</time></trkpt><trkpt lat="43.4662117" lon="11.507795"><ele>684.0</ele><time>2026-04-17T08:45:30.136Z</time></trkpt><trkpt lat="43.4661567" lon="11.5077017"><ele>684.0</ele><time>2026-04-17T08:45:31.136Z</time></trkpt><trkpt lat="43.4660767" lon="11.507605"><ele>687.0</ele><time>2026-04-17T08:45:32.136Z</time></trkpt><trkpt lat="43.4659933" lon="11.5075183"><ele>690.0</ele><time>2026-04-17T08:45:33.137Z</time></trkpt><trkpt lat="43.4659" lon="11.5074567"><ele>693.0</ele><time>2026-04-17T08:45:34.135Z</time></trkpt><trkpt lat="43.4658017" lon="11.5074117"><ele>696.0</ele><time>2026-04-17T08:45:35.135Z</time></trkpt><trkpt lat="43.465705" lon="11.50737"><ele>699.0</ele><time>2026-04-17T08:45:36.136Z</time></trkpt><trkpt lat="43.465605" lon="11.507335"><ele>699.0</ele><time>2026-04-17T08:45:37.136Z</time></trkpt><trkpt lat="43.4655067" lon="11.5072983"><ele>699.0</ele><time>2026-04-17T08:45:38.136Z</time></trkpt><trkpt lat="43.4654167" lon="11.5072533"><ele>699.0</ele><time>2026-04-17T08:45:39.137Z</time></trkpt><trkpt lat="43.4653433" lon="11.5072"><ele>699.0</ele><time>2026-04-17T08:45:40.137Z</time></trkpt><trkpt lat="43.4652667" lon="11.507145"><ele>699.0</ele><time>2026-04-17T08:45:41.136Z</time></trkpt><trkpt lat="43.4651883" lon="11.5070933"><ele>700.8333333333334</ele><time>2026-04-17T08:45:42.135Z</time></trkpt><trkpt lat="43.4651117" lon="11.5070367"><ele>702.6666666666666</ele><time>2026-04-17T08:45:43.138Z</time></trkpt><trkpt lat="43.4650383" lon="11.50697"><ele>704.5</ele><time>2026-04-17T08:45:44.14Z</time></trkpt><trkpt lat="43.464975" lon="11.5068867"><ele>706.3333333333333</ele><time>2026-04-17T08:45:45.138Z</time></trkpt><trkpt lat="43.46493" lon="11.50679"><ele>708.1666666666666</ele><time>2026-04-17T08:45:46.138Z</time></trkpt><trkpt lat="43.4649" lon="11.5066767"><ele>710.0</ele><time>2026-04-17T08:45:47.133Z</time></trkpt><trkpt lat="43.46488" lon="11.5065467"><ele>710.0</ele><time>2026-04-17T08:45:48.136Z</time></trkpt><trkpt lat="43.4648733" lon="11.50641"><ele>710.0</ele><time>2026-04-17T08:45:49.136Z</time></trkpt><trkpt lat="43.4648683" lon="11.5062917"><ele>710.0</ele><time>2026-04-17T08:45:50.137Z</time></trkpt><trkpt lat="43.4648733" lon="11.50618"><ele>710.0</ele><time>2026-04-17T08:45:51.137Z</time></trkpt><trkpt lat="43.46488" lon="11.50606"><ele>710.0</ele><time>2026-04-17T08:45:52.136Z</time></trkpt><trkpt lat="43.4648867" lon="11.5059283"><ele>711.6</ele><time>2026-04-17T08:45:53.134Z</time></trkpt><trkpt lat="43.4648917" lon="11.5057983"><ele>713.2</ele><time>2026-04-17T08:45:54.135Z</time></trkpt><trkpt lat="43.4648833" lon="11.505685"><ele>714.8</ele><time>2026-04-17T08:45:55.136Z</time></trkpt><trkpt lat="43.4648667" lon="11.5055533"><ele>716.4</ele><time>2026-04-17T08:45:56.136Z</time></trkpt><trkpt lat="43.4648417" lon="11.5054117"><ele>718.0</ele><time>2026-04-17T08:45:57.137Z</time></trkpt><trkpt lat="43.46481" lon="11.505265"><ele>718.0</ele><time>2026-04-17T08:45:58.135Z</time></trkpt><trkpt lat="43.4647733" lon="11.5051267"><ele>718.0</ele><time>2026-04-17T08:45:59.136Z</time></trkpt><trkpt lat="43.4647317" lon="11.5049967"><ele>718.0</ele><time>2026-04-17T08:46:00.136Z</time></trkpt><trkpt lat="43.4647033" lon="11.5048733"><ele>718.0</ele><time>2026-04-17T08:46:01.138Z</time></trkpt><trkpt lat="43.46469" lon="11.5047733"><ele>718.0</ele><time>2026-04-17T08:46:02.141Z</time></trkpt><trkpt lat="43.4646767" lon="11.5046483"><ele>716.8333333333334</ele><time>2026-04-17T08:46:04.138Z</time></trkpt><trkpt lat="43.4646583" lon="11.5045567"><ele>715.6666666666667</ele><time>2026-04-17T08:46:06.137Z</time></trkpt><trkpt lat="43.464595" lon="11.5044117"><ele>714.5</ele><time>2026-04-17T08:46:08.145Z</time></trkpt><trkpt lat="43.46453" lon="11.5043367"><ele>713.3333333333334</ele><time>2026-04-17T08:46:09.138Z</time></trkpt><trkpt lat="43.46446" lon="11.5042667"><ele>712.1666666666666</ele><time>2026-04-17T08:46:10.136Z</time></trkpt><trkpt lat="43.4643967" lon="11.5042"><ele>711.0</ele><time>2026-04-17T08:46:11.136Z</time></trkpt><trkpt lat="43.4643317" lon="11.5041283"><ele>714.5714285714286</ele><time>2026-04-17T08:46:12.14Z</time></trkpt><trkpt lat="43.4642767" lon="11.5040417"><ele>718.1428571428571</ele><time>2026-04-17T08:46:13.137Z</time></trkpt><trkpt lat="43.46424" lon="11.503945"><ele>721.7142857142858</ele><time>2026-04-17T08:46:14.138Z</time></trkpt><trkpt lat="43.46421" lon="11.5038467"><ele>725.2857142857142</ele><time>2026-04-17T08:46:15.138Z</time></trkpt><trkpt lat="43.4641767" lon="11.50376"><ele>728.8571428571428</ele><time>2026-04-17T08:46:16.136Z</time></trkpt><trkpt lat="43.464135" lon="11.5036833"><ele>732.4285714285714</ele><time>2026-04-17T08:46:17.137Z</time></trkpt><trkpt lat="43.464095" lon="11.5036083"><ele>736.0</ele><time>2026-04-17T08:46:18.136Z</time></trkpt><trkpt lat="43.4640317" lon="11.5034983"><ele>736.5999999999999</ele><time>2026-04-17T08:46:20.137Z</time></trkpt><trkpt lat="43.46411" lon="11.5035733"><ele>737.2</ele><time>2026-04-17T08:48:25.135Z</time></trkpt><trkpt lat="43.4640367" lon="11.5034967"><ele>737.8</ele><time>2026-04-17T08:48:41.137Z</time></trkpt><trkpt lat="43.463975" lon="11.5034233"><ele>738.4000000000001</ele><time>2026-04-17T08:48:43.137Z</time></trkpt><trkpt lat="43.4639083" lon="11.5033283"><ele>739.0</ele><time>2026-04-17T08:48:45.137Z</time></trkpt><trkpt lat="43.4638133" lon="11.5032467"><ele>741.6</ele><time>2026-04-17T08:48:47.136Z</time></trkpt><trkpt lat="43.4637333" lon="11.50316"><ele>744.2</ele><time>2026-04-17T08:48:49.14Z</time></trkpt><trkpt lat="43.4636667" lon="11.5030083"><ele>746.8000000000001</ele><time>2026-04-17T08:48:51.14Z</time></trkpt><trkpt lat="43.46364" lon="11.5029117"><ele>749.4000000000001</ele><time>2026-04-17T08:48:52.139Z</time></trkpt><trkpt lat="43.46361" lon="11.5028017"><ele>752.0</ele><time>2026-04-17T08:48:53.14Z</time></trkpt><trkpt lat="43.4635783" lon="11.5026817"><ele>754.8</ele><time>2026-04-17T08:48:54.138Z</time></trkpt><trkpt lat="43.4635367" lon="11.5025683"><ele>757.6</ele><time>2026-04-17T08:48:55.14Z</time></trkpt><trkpt lat="43.4634867" lon="11.5024617"><ele>760.4</ele><time>2026-04-17T08:48:56.139Z</time></trkpt><trkpt lat="43.4634333" lon="11.50237"><ele>763.1999999999999</ele><time>2026-04-17T08:48:57.139Z</time></trkpt><trkpt lat="43.4633817" lon="11.5022767"><ele>766.0</ele><time>2026-04-17T08:48:58.136Z</time></trkpt><trkpt lat="43.4633133" lon="11.502185"><ele>766.0</ele><time>2026-04-17T08:48:59.136Z</time></trkpt><trkpt lat="43.46325" lon="11.5020967"><ele>766.0</ele><time>2026-04-17T08:49:00.138Z</time></trkpt><trkpt lat="43.4632017" lon="11.5020167"><ele>766.0</ele><time>2026-04-17T08:49:01.137Z</time></trkpt><trkpt lat="43.4631617" lon="11.5019333"><ele>766.0</ele><time>2026-04-17T08:49:02.136Z</time></trkpt><trkpt lat="43.4631267" lon="11.5018283"><ele>766.0</ele><time>2026-04-17T08:49:03.138Z</time></trkpt><trkpt lat="43.4630933" lon="11.5017133"><ele>766.0</ele><time>2026-04-17T08:49:04.138Z</time></trkpt><trkpt lat="43.4630633" lon="11.50161"><ele>766.4</ele><time>2026-04-17T08:49:05.138Z</time></trkpt><trkpt lat="43.4630433" lon="11.5015117"><ele>766.8</ele><time>2026-04-17T08:49:06.135Z</time></trkpt><trkpt lat="43.4630183" lon="11.5014067"><ele>767.1999999999999</ele><time>2026-04-17T08:49:07.137Z</time></trkpt><trkpt lat="43.4629783" lon="11.5012933"><ele>767.5999999999999</ele><time>2026-04-17T08:49:08.137Z</time></trkpt><trkpt lat="43.4629217" lon="11.5011717"><ele>768.0</ele><time>2026-04-17T08:49:09.137Z</time></trkpt><trkpt lat="43.4628617" lon="11.5010617"><ele>770.0</ele><time>2026-04-17T08:49:10.137Z</time></trkpt><trkpt lat="43.4628067" lon="11.5009717"><ele>772.0</ele><time>2026-04-17T08:49:11.137Z</time></trkpt><trkpt lat="43.4627583" lon="11.50089"><ele>774.0</ele><time>2026-04-17T08:49:12.136Z</time></trkpt><trkpt lat="43.4626967" lon="11.500785"><ele>776.0</ele><time>2026-04-17T08:49:14.137Z</time></trkpt><trkpt lat="43.46262" lon="11.5007783"><ele>778.0</ele><time>2026-04-17T08:49:21.137Z</time></trkpt><trkpt lat="43.4626983" lon="11.5008267"><ele>780.0</ele><time>2026-04-17T08:49:32.137Z</time></trkpt><trkpt lat="43.46276" lon="11.5009683"><ele>780.0</ele><time>2026-04-17T08:49:34.132Z</time></trkpt><trkpt lat="43.46281" lon="11.5010533"><ele>780.0</ele><time>2026-04-17T08:49:35.138Z</time></trkpt><trkpt lat="43.4628667" lon="11.50114"><ele>780.0</ele><time>2026-04-17T08:49:36.139Z</time></trkpt><trkpt lat="43.46292" lon="11.50123"><ele>780.0</ele><time>2026-04-17T08:49:37.139Z</time></trkpt><trkpt lat="43.4629633" lon="11.50131"><ele>780.0</ele><time>2026-04-17T08:49:38.139Z</time></trkpt><trkpt lat="43.463" lon="11.5014"><ele>780.0</ele><time>2026-04-17T08:49:39.14Z</time></trkpt><trkpt lat="43.4630267" lon="11.5015"><ele>778.0</ele><time>2026-04-17T08:49:40.137Z</time></trkpt><trkpt lat="43.46305" lon="11.5016083"><ele>776.0</ele><time>2026-04-17T08:49:41.136Z</time></trkpt><trkpt lat="43.4630767" lon="11.5017083"><ele>774.0</ele><time>2026-04-17T08:49:42.139Z</time></trkpt><trkpt lat="43.463105" lon="11.5017967"><ele>772.0</ele><time>2026-04-17T08:49:43.14Z</time></trkpt><trkpt lat="43.4631367" lon="11.5018767"><ele>770.0</ele><time>2026-04-17T08:49:44.138Z</time></trkpt><trkpt lat="43.4631983" lon="11.5020333"><ele>768.0</ele><time>2026-04-17T08:49:46.137Z</time></trkpt><trkpt lat="43.4632383" lon="11.5021017"><ele>767.5999999999999</ele><time>2026-04-17T08:49:47.137Z</time></trkpt><trkpt lat="43.4633317" lon="11.5022183"><ele>767.1999999999999</ele><time>2026-04-17T08:49:49.138Z</time></trkpt><trkpt lat="43.4634183" lon="11.5023383"><ele>766.8</ele><time>2026-04-17T08:49:51.139Z</time></trkpt><trkpt lat="43.4634583" lon="11.5024133"><ele>766.4</ele><time>2026-04-17T08:49:52.138Z</time></trkpt><trkpt lat="43.4634967" lon="11.502495"><ele>766.0</ele><time>2026-04-17T08:49:53.137Z</time></trkpt><trkpt lat="43.463525" lon="11.5025817"><ele>766.0</ele><time>2026-04-17T08:49:54.138Z</time></trkpt><trkpt lat="43.4635483" lon="11.50267"><ele>766.0</ele><time>2026-04-17T08:49:55.138Z</time></trkpt><trkpt lat="43.46357" lon="11.5027683"><ele>766.0</ele><time>2026-04-17T08:49:56.138Z</time></trkpt><trkpt lat="43.46359" lon="11.502865"><ele>766.0</ele><time>2026-04-17T08:49:57.137Z</time></trkpt><trkpt lat="43.46361" lon="11.5029483"><ele>766.0</ele><time>2026-04-17T08:49:58.137Z</time></trkpt><trkpt lat="43.4636667" lon="11.5030933"><ele>766.0</ele><time>2026-04-17T08:50:00.138Z</time></trkpt><trkpt lat="43.4637317" lon="11.5032067"><ele>761.5</ele><time>2026-04-17T08:50:02.136Z</time></trkpt><trkpt lat="43.4638017" lon="11.50328"><ele>757.0</ele><time>2026-04-17T08:50:04.137Z</time></trkpt><trkpt lat="43.4638983" lon="11.503335"><ele>752.5</ele><time>2026-04-17T08:50:06.142Z</time></trkpt><trkpt lat="43.4639667" lon="11.50341"><ele>748.0</ele><time>2026-04-17T08:50:08.137Z</time></trkpt><trkpt lat="43.4640233" lon="11.50348"><ele>743.5</ele><time>2026-04-17T08:50:10.138Z</time></trkpt><trkpt lat="43.46408" lon="11.5035483"><ele>739.0</ele><time>2026-04-17T08:50:12.137Z</time></trkpt><trkpt lat="43.4641517" lon="11.5036633"><ele>738.5</ele><time>2026-04-17T08:50:15.14Z</time></trkpt><trkpt lat="43.4642117" lon="11.5038083"><ele>738.0</ele><time>2026-04-17T08:50:17.137Z</time></trkpt><trkpt lat="43.4642533" lon="11.50396"><ele>737.5</ele><time>2026-04-17T08:50:19.139Z</time></trkpt><trkpt lat="43.4642867" lon="11.5040367"><ele>737.0</ele><time>2026-04-17T08:50:20.139Z</time></trkpt><trkpt lat="43.4643333" lon="11.5041033"><ele>736.5</ele><time>2026-04-17T08:50:21.137Z</time></trkpt><trkpt lat="43.464385" lon="11.50417"><ele>736.0</ele><time>2026-04-17T08:50:22.138Z</time></trkpt><trkpt lat="43.4644417" lon="11.5042333"><ele>736.0</ele><time>2026-04-17T08:50:23.137Z</time></trkpt><trkpt lat="43.4645033" lon="11.5042917"><ele>736.0</ele><time>2026-04-17T08:50:24.138Z</time></trkpt><trkpt lat="43.4645683" lon="11.5043583"><ele>736.0</ele><time>2026-04-17T08:50:25.141Z</time></trkpt><trkpt lat="43.4646267" lon="11.50444"><ele>736.0</ele><time>2026-04-17T08:50:26.14Z</time></trkpt><trkpt lat="43.4646667" lon="11.504525"><ele>736.0</ele><time>2026-04-17T08:50:27.139Z</time></trkpt><trkpt lat="43.4646883" lon="11.5046067"><ele>736.0</ele><time>2026-04-17T08:50:28.139Z</time></trkpt><trkpt lat="43.4646183" lon="11.50461"><ele>736.0</ele><time>2026-04-17T08:50:44.136Z</time></trkpt><trkpt lat="43.4645333" lon="11.5045867"><ele>733.5999999999999</ele><time>2026-04-17T08:50:46.137Z</time></trkpt><trkpt lat="43.4644067" lon="11.504645"><ele>731.2</ele><time>2026-04-17T08:50:48.136Z</time></trkpt><trkpt lat="43.4643133" lon="11.50468"><ele>728.8</ele><time>2026-04-17T08:50:49.138Z</time></trkpt><trkpt lat="43.4642067" lon="11.504685"><ele>726.4000000000001</ele><time>2026-04-17T08:50:50.134Z</time></trkpt><trkpt lat="43.4640983" lon="11.5046683"><ele>724.0</ele><time>2026-04-17T08:50:51.137Z</time></trkpt><trkpt lat="43.463995" lon="11.5046317"><ele>726.2</ele><time>2026-04-17T08:50:52.135Z</time></trkpt><trkpt lat="43.4638933" lon="11.5045783"><ele>728.4000000000001</ele><time>2026-04-17T08:50:53.135Z</time></trkpt><trkpt lat="43.4637867" lon="11.5045233"><ele>730.6</ele><time>2026-04-17T08:50:54.136Z</time></trkpt><trkpt lat="43.463685" lon="11.504465"><ele>732.8</ele><time>2026-04-17T08:50:55.136Z</time></trkpt><trkpt lat="43.463595" lon="11.5044083"><ele>735.0</ele><time>2026-04-17T08:50:56.137Z</time></trkpt><trkpt lat="43.4635117" lon="11.5043433"><ele>735.0</ele><time>2026-04-17T08:50:57.137Z</time></trkpt><trkpt lat="43.4634517" lon="11.50427"><ele>735.0</ele><time>2026-04-17T08:50:58.138Z</time></trkpt><trkpt lat="43.463405" lon="11.5041867"><ele>735.0</ele><time>2026-04-17T08:50:59.137Z</time></trkpt><trkpt lat="43.4633583" lon="11.5040933"><ele>735.0</ele><time>2026-04-17T08:51:00.138Z</time></trkpt><trkpt lat="43.4633017" lon="11.5040017"><ele>735.0</ele><time>2026-04-17T08:51:01.139Z</time></trkpt><trkpt lat="43.4632283" lon="11.50393"><ele>735.0</ele><time>2026-04-17T08:51:02.136Z</time></trkpt><trkpt lat="43.463155" lon="11.503865"><ele>735.0</ele><time>2026-04-17T08:51:03.138Z</time></trkpt><trkpt lat="43.4630783" lon="11.5037917"><ele>735.0</ele><time>2026-04-17T08:51:04.136Z</time></trkpt><trkpt lat="43.4630017" lon="11.5037233"><ele>735.0</ele><time>2026-04-17T08:51:05.136Z</time></trkpt><trkpt lat="43.46292" lon="11.50367"><ele>735.0</ele><time>2026-04-17T08:51:06.136Z</time></trkpt><trkpt lat="43.46283" lon="11.503635"><ele>735.0</ele><time>2026-04-17T08:51:07.136Z</time></trkpt><trkpt lat="43.46274" lon="11.5036083"><ele>738.6</ele><time>2026-04-17T08:51:08.138Z</time></trkpt><trkpt lat="43.462645" lon="11.5035867"><ele>742.2</ele><time>2026-04-17T08:51:09.138Z</time></trkpt><trkpt lat="43.4625533" lon="11.503565"><ele>745.8</ele><time>2026-04-17T08:51:10.137Z</time></trkpt><trkpt lat="43.4624633" lon="11.5035317"><ele>749.4</ele><time>2026-04-17T08:51:11.136Z</time></trkpt><trkpt lat="43.4623767" lon="11.5035017"><ele>753.0</ele><time>2026-04-17T08:51:12.137Z</time></trkpt><trkpt lat="43.46229" lon="11.5034867"><ele>753.0</ele><time>2026-04-17T08:51:13.137Z</time></trkpt><trkpt lat="43.46219" lon="11.5034967"><ele>753.0</ele><time>2026-04-17T08:51:14.137Z</time></trkpt><trkpt lat="43.4621" lon="11.5035433"><ele>753.0</ele><time>2026-04-17T08:51:15.137Z</time></trkpt><trkpt lat="43.462015" lon="11.5035783"><ele>753.0</ele><time>2026-04-17T08:51:16.136Z</time></trkpt><trkpt lat="43.4619333" lon="11.5036"><ele>753.0</ele><time>2026-04-17T08:51:17.137Z</time></trkpt><trkpt lat="43.4618483" lon="11.5035933"><ele>753.1666666666666</ele><time>2026-04-17T08:51:18.136Z</time></trkpt><trkpt lat="43.4617567" lon="11.5035717"><ele>753.3333333333334</ele><time>2026-04-17T08:51:19.137Z</time></trkpt><trkpt lat="43.4616617" lon="11.50354"><ele>753.5</ele><time>2026-04-17T08:51:20.138Z</time></trkpt><trkpt lat="43.46157" lon="11.5035033"><ele>753.6666666666667</ele><time>2026-04-17T08:51:21.136Z</time></trkpt><trkpt lat="43.4614917" lon="11.5034633"><ele>753.8333333333334</ele><time>2026-04-17T08:51:22.137Z</time></trkpt><trkpt lat="43.4614283" lon="11.5034183"><ele>754.0</ele><time>2026-04-17T08:51:23.137Z</time></trkpt><trkpt lat="43.4613717" lon="11.5033583"><ele>754.0</ele><time>2026-04-17T08:51:24.137Z</time></trkpt><trkpt lat="43.4613233" lon="11.5032767"><ele>754.0</ele><time>2026-04-17T08:51:25.138Z</time></trkpt><trkpt lat="43.46128" lon="11.5031933"><ele>754.0</ele><time>2026-04-17T08:51:26.138Z</time></trkpt><trkpt lat="43.461235" lon="11.5031267"><ele>754.0</ele><time>2026-04-17T08:51:27.14Z</time></trkpt><trkpt lat="43.461175" lon="11.5030467"><ele>754.0</ele><time>2026-04-17T08:51:28.139Z</time></trkpt><trkpt lat="43.4611133" lon="11.5029433"><ele>754.0</ele><time>2026-04-17T08:51:29.141Z</time></trkpt><trkpt lat="43.4610517" lon="11.5028117"><ele>752.75</ele><time>2026-04-17T08:51:30.139Z</time></trkpt><trkpt lat="43.4609867" lon="11.5026717"><ele>751.5</ele><time>2026-04-17T08:51:31.139Z</time></trkpt><trkpt lat="43.4609233" lon="11.5025367"><ele>750.25</ele><time>2026-04-17T08:51:32.137Z</time></trkpt><trkpt lat="43.46086" lon="11.502405"><ele>749.0</ele><time>2026-04-17T08:51:33.138Z</time></trkpt><trkpt lat="43.4607983" lon="11.50227"><ele>749.0</ele><time>2026-04-17T08:51:34.137Z</time></trkpt><trkpt lat="43.4607433" lon="11.5021233"><ele>749.0</ele><time>2026-04-17T08:51:35.136Z</time></trkpt><trkpt lat="43.4606883" lon="11.5019733"><ele>749.0</ele><time>2026-04-17T08:51:36.138Z</time></trkpt><trkpt lat="43.4606417" lon="11.5018267"><ele>749.0</ele><time>2026-04-17T08:51:37.136Z</time></trkpt><trkpt lat="43.4606" lon="11.5016733"><ele>750.6666666666666</ele><time>2026-04-17T08:51:38.136Z</time></trkpt><trkpt lat="43.4605633" lon="11.50153"><ele>752.3333333333333</ele><time>2026-04-17T08:51:39.138Z</time></trkpt><trkpt lat="43.460535" lon="11.501415"><ele>754.0</ele><time>2026-04-17T08:51:40.138Z</time></trkpt><trkpt lat="43.46052" lon="11.501325"><ele>755.6666666666666</ele><time>2026-04-17T08:51:41.136Z</time></trkpt><trkpt lat="43.4605233" lon="11.501225"><ele>757.3333333333334</ele><time>2026-04-17T08:51:44.136Z</time></trkpt><trkpt lat="43.46057" lon="11.5011383"><ele>759.0</ele><time>2026-04-17T08:51:46.136Z</time></trkpt><trkpt lat="43.4606017" lon="11.501055"><ele>760.0</ele><time>2026-04-17T08:51:47.136Z</time></trkpt><trkpt lat="43.4606317" lon="11.5009517"><ele>761.0</ele><time>2026-04-17T08:51:48.136Z</time></trkpt><trkpt lat="43.46066" lon="11.5008567"><ele>762.0</ele><time>2026-04-17T08:51:49.138Z</time></trkpt><trkpt lat="43.4606867" lon="11.5007617"><ele>763.0</ele><time>2026-04-17T08:51:50.137Z</time></trkpt><trkpt lat="43.4607267" lon="11.5006683"><ele>764.0</ele><time>2026-04-17T08:51:51.137Z</time></trkpt><trkpt lat="43.46078" lon="11.5005683"><ele>765.0</ele><time>2026-04-17T08:51:52.138Z</time></trkpt><trkpt lat="43.4608433" lon="11.5004667"><ele>764.3333333333334</ele><time>2026-04-17T08:51:53.137Z</time></trkpt><trkpt lat="43.4609083" lon="11.5003767"><ele>763.6666666666666</ele><time>2026-04-17T08:51:54.137Z</time></trkpt><trkpt lat="43.4609767" lon="11.5002967"><ele>763.0</ele><time>2026-04-17T08:51:55.137Z</time></trkpt><trkpt lat="43.461045" lon="11.500225"><ele>762.3333333333333</ele><time>2026-04-17T08:51:56.137Z</time></trkpt><trkpt lat="43.4611167" lon="11.5001517"><ele>761.6666666666666</ele><time>2026-04-17T08:51:57.139Z</time></trkpt><trkpt lat="43.46119" lon="11.5000783"><ele>761.0</ele><time>2026-04-17T08:51:58.137Z</time></trkpt><trkpt lat="43.4612733" lon="11.5000083"><ele>763.5999999999999</ele><time>2026-04-17T08:51:59.137Z</time></trkpt><trkpt lat="43.4613583" lon="11.49995"><ele>766.2</ele><time>2026-04-17T08:52:00.137Z</time></trkpt><trkpt lat="43.46145" lon="11.4999017"><ele>768.8</ele><time>2026-04-17T08:52:01.138Z</time></trkpt><trkpt lat="43.461545" lon="11.4998567"><ele>771.4000000000001</ele><time>2026-04-17T08:52:02.135Z</time></trkpt><trkpt lat="43.4616333" lon="11.49981"><ele>774.0</ele><time>2026-04-17T08:52:03.133Z</time></trkpt><trkpt lat="43.4617083" lon="11.4997567"><ele>774.0</ele><time>2026-04-17T08:52:04.137Z</time></trkpt><trkpt lat="43.461775" lon="11.4997"><ele>774.0</ele><time>2026-04-17T08:52:05.134Z</time></trkpt><trkpt lat="43.461845" lon="11.4996283"><ele>774.0</ele><time>2026-04-17T08:52:06.137Z</time></trkpt><trkpt lat="43.4619217" lon="11.4995483"><ele>774.0</ele><time>2026-04-17T08:52:07.138Z</time></trkpt><trkpt lat="43.462" lon="11.4994633"><ele>774.0</ele><time>2026-04-17T08:52:08.136Z</time></trkpt><trkpt lat="43.462075" lon="11.4993983"><ele>775.0</ele><time>2026-04-17T08:52:09.133Z</time></trkpt><trkpt lat="43.46214" lon="11.499355"><ele>776.0</ele><time>2026-04-17T08:52:10.138Z</time></trkpt><trkpt lat="43.462195" lon="11.4992933"><ele>777.0</ele><time>2026-04-17T08:52:13.136Z</time></trkpt><trkpt lat="43.462095" lon="11.4993167"><ele>778.0</ele><time>2026-04-17T08:52:16.137Z</time></trkpt><trkpt lat="43.4620283" lon="11.4993783"><ele>779.0</ele><time>2026-04-17T08:52:17.136Z</time></trkpt><trkpt lat="43.4619617" lon="11.499465"><ele>780.0</ele><time>2026-04-17T08:52:18.138Z</time></trkpt><trkpt lat="43.4618933" lon="11.49955"><ele>778.8</ele><time>2026-04-17T08:52:19.138Z</time></trkpt><trkpt lat="43.4618267" lon="11.49963"><ele>777.6</ele><time>2026-04-17T08:52:20.133Z</time></trkpt><trkpt lat="43.4617633" lon="11.4996967"><ele>776.4000000000001</ele><time>2026-04-17T08:52:21.132Z</time></trkpt><trkpt lat="43.4616867" lon="11.4997667"><ele>775.2</ele><time>2026-04-17T08:52:22.138Z</time></trkpt><trkpt lat="43.4616017" lon="11.49983"><ele>774.0</ele><time>2026-04-17T08:52:23.135Z</time></trkpt><trkpt lat="43.46151" lon="11.4998733"><ele>774.0</ele><time>2026-04-17T08:52:24.137Z</time></trkpt><trkpt lat="43.4614117" lon="11.4999167"><ele>774.0</ele><time>2026-04-17T08:52:25.139Z</time></trkpt><trkpt lat="43.461315" lon="11.4999583"><ele>774.0</ele><time>2026-04-17T08:52:26.138Z</time></trkpt><trkpt lat="43.461215" lon="11.500015"><ele>774.0</ele><time>2026-04-17T08:52:27.136Z</time></trkpt><trkpt lat="43.4611267" lon="11.5000833"><ele>774.0</ele><time>2026-04-17T08:52:28.137Z</time></trkpt><trkpt lat="43.4610483" lon="11.5001567"><ele>772.2</ele><time>2026-04-17T08:52:29.136Z</time></trkpt><trkpt lat="43.4609717" lon="11.5002367"><ele>770.4000000000001</ele><time>2026-04-17T08:52:30.138Z</time></trkpt><trkpt lat="43.4609017" lon="11.5003217"><ele>768.6</ele><time>2026-04-17T08:52:31.138Z</time></trkpt><trkpt lat="43.4608367" lon="11.5004117"><ele>766.8</ele><time>2026-04-17T08:52:32.136Z</time></trkpt><trkpt lat="43.460775" lon="11.5005033"><ele>765.0</ele><time>2026-04-17T08:52:33.137Z</time></trkpt><trkpt lat="43.4607183" lon="11.5006"><ele>765.0</ele><time>2026-04-17T08:52:34.137Z</time></trkpt><trkpt lat="43.46067" lon="11.5007033"><ele>765.0</ele><time>2026-04-17T08:52:35.137Z</time></trkpt><trkpt lat="43.4606333" lon="11.5008033"><ele>765.0</ele><time>2026-04-17T08:52:36.136Z</time></trkpt><trkpt lat="43.4606017" lon="11.5009183"><ele>765.0</ele><time>2026-04-17T08:52:37.137Z</time></trkpt><trkpt lat="43.460575" lon="11.5010267"><ele>765.0</ele><time>2026-04-17T08:52:38.138Z</time></trkpt><trkpt lat="43.4605517" lon="11.501115"><ele>765.0</ele><time>2026-04-17T08:52:39.138Z</time></trkpt><trkpt lat="43.4605083" lon="11.501285"><ele>762.5</ele><time>2026-04-17T08:52:41.136Z</time></trkpt><trkpt lat="43.4604217" lon="11.5012767"><ele>760.0</ele><time>2026-04-17T08:52:43.136Z</time></trkpt><trkpt lat="43.4603083" lon="11.5010967"><ele>757.5</ele><time>2026-04-17T08:52:44.135Z</time></trkpt><trkpt lat="43.4602267" lon="11.500955"><ele>755.0</ele><time>2026-04-17T08:52:45.138Z</time></trkpt><trkpt lat="43.4601567" lon="11.5008333"><ele>755.0</ele><time>2026-04-17T08:52:46.137Z</time></trkpt><trkpt lat="43.4600967" lon="11.5007283"><ele>755.0</ele><time>2026-04-17T08:52:47.137Z</time></trkpt><trkpt lat="43.4600417" lon="11.50064"><ele>755.0</ele><time>2026-04-17T08:52:48.137Z</time></trkpt><trkpt lat="43.45998" lon="11.5005817"><ele>755.0</ele><time>2026-04-17T08:52:49.138Z</time></trkpt><trkpt lat="43.459905" lon="11.5005367"><ele>755.0</ele><time>2026-04-17T08:52:50.132Z</time></trkpt><trkpt lat="43.4597883" lon="11.50051"><ele>755.0</ele><time>2026-04-17T08:52:51.137Z</time></trkpt><trkpt lat="43.4596517" lon="11.500495"><ele>755.0</ele><time>2026-04-17T08:52:52.137Z</time></trkpt><trkpt lat="43.459515" lon="11.500475"><ele>755.0</ele><time>2026-04-17T08:52:53.136Z</time></trkpt><trkpt lat="43.459385" lon="11.500455"><ele>755.0</ele><time>2026-04-17T08:52:54.137Z</time></trkpt><trkpt lat="43.45926" lon="11.5004367"><ele>757.0</ele><time>2026-04-17T08:52:55.139Z</time></trkpt><trkpt lat="43.4591467" lon="11.5004283"><ele>759.0</ele><time>2026-04-17T08:52:56.138Z</time></trkpt><trkpt lat="43.4590317" lon="11.5004267"><ele>761.0</ele><time>2026-04-17T08:52:57.139Z</time></trkpt><trkpt lat="43.45892" lon="11.5004317"><ele>763.0</ele><time>2026-04-17T08:52:58.138Z</time></trkpt><trkpt lat="43.45881" lon="11.5004367"><ele>763.2</ele><time>2026-04-17T08:52:59.136Z</time></trkpt><trkpt lat="43.4586933" lon="11.5004367"><ele>763.4</ele><time>2026-04-17T08:53:00.137Z</time></trkpt><trkpt lat="43.4585867" lon="11.500425"><ele>763.6</ele><time>2026-04-17T08:53:01.138Z</time></trkpt><trkpt lat="43.45848" lon="11.50041"><ele>763.8000000000001</ele><time>2026-04-17T08:53:02.139Z</time></trkpt><trkpt lat="43.4583833" lon="11.5004"><ele>764.0</ele><time>2026-04-17T08:53:03.137Z</time></trkpt><trkpt lat="43.458295" lon="11.5004083"><ele>766.0</ele><time>2026-04-17T08:53:04.136Z</time></trkpt><trkpt lat="43.4582" lon="11.50043"><ele>768.0</ele><time>2026-04-17T08:53:05.137Z</time></trkpt><trkpt lat="43.4581033" lon="11.5004433"><ele>770.0</ele><time>2026-04-17T08:53:06.138Z</time></trkpt><trkpt lat="43.4579933" lon="11.5004333"><ele>772.0</ele><time>2026-04-17T08:53:07.137Z</time></trkpt><trkpt lat="43.457875" lon="11.5004033"><ele>774.0</ele><time>2026-04-17T08:53:08.138Z</time></trkpt><trkpt lat="43.4577567" lon="11.5003483"><ele>775.75</ele><time>2026-04-17T08:53:09.137Z</time></trkpt><trkpt lat="43.457625" lon="11.5002817"><ele>777.5</ele><time>2026-04-17T08:53:10.136Z</time></trkpt><trkpt lat="43.4574917" lon="11.5002117"><ele>779.25</ele><time>2026-04-17T08:53:11.137Z</time></trkpt><trkpt lat="43.457365" lon="11.5001483"><ele>781.0</ele><time>2026-04-17T08:53:12.136Z</time></trkpt><trkpt lat="43.45726" lon="11.5001033"><ele>781.0</ele><time>2026-04-17T08:53:13.135Z</time></trkpt><trkpt lat="43.4571517" lon="11.50009"><ele>781.0</ele><time>2026-04-17T08:53:14.138Z</time></trkpt><trkpt lat="43.457035" lon="11.5001117"><ele>781.0</ele><time>2026-04-17T08:53:15.137Z</time></trkpt><trkpt lat="43.4569117" lon="11.5001633"><ele>781.0</ele><time>2026-04-17T08:53:16.138Z</time></trkpt><trkpt lat="43.4567917" lon="11.50023"><ele>780.75</ele><time>2026-04-17T08:53:17.137Z</time></trkpt><trkpt lat="43.4566717" lon="11.5002817"><ele>780.5</ele><time>2026-04-17T08:53:18.137Z</time></trkpt><trkpt lat="43.4565533" lon="11.5003233"><ele>780.25</ele><time>2026-04-17T08:53:19.138Z</time></trkpt><trkpt lat="43.4564367" lon="11.5003667"><ele>780.0</ele><time>2026-04-17T08:53:20.138Z</time></trkpt><trkpt lat="43.4563183" lon="11.5004417"><ele>782.6</ele><time>2026-04-17T08:53:21.137Z</time></trkpt><trkpt lat="43.4562183" lon="11.500505"><ele>785.2</ele><time>2026-04-17T08:53:22.137Z</time></trkpt><trkpt lat="43.4561233" lon="11.5005533"><ele>787.8</ele><time>2026-04-17T08:53:23.137Z</time></trkpt><trkpt lat="43.4560267" lon="11.5005733"><ele>790.4</ele><time>2026-04-17T08:53:24.137Z</time></trkpt><trkpt lat="43.4559267" lon="11.5005883"><ele>793.0</ele><time>2026-04-17T08:53:25.138Z</time></trkpt><trkpt lat="43.4558267" lon="11.5006033"><ele>793.0</ele><time>2026-04-17T08:53:26.137Z</time></trkpt><trkpt lat="43.45572" lon="11.5006267"><ele>793.0</ele><time>2026-04-17T08:53:27.137Z</time></trkpt><trkpt lat="43.4556017" lon="11.5006783"><ele>793.0</ele><time>2026-04-17T08:53:28.138Z</time></trkpt><trkpt lat="43.4554833" lon="11.5007267"><ele>793.0</ele><time>2026-04-17T08:53:29.136Z</time></trkpt><trkpt lat="43.4553683" lon="11.5007633"><ele>792.8</ele><time>2026-04-17T08:53:30.138Z</time></trkpt><trkpt lat="43.4552617" lon="11.500765"><ele>792.5999999999999</ele><time>2026-04-17T08:53:31.137Z</time></trkpt><trkpt lat="43.45516" lon="11.5007433"><ele>792.4000000000001</ele><time>2026-04-17T08:53:32.136Z</time></trkpt><trkpt lat="43.4550733" lon="11.500695"><ele>792.2</ele><time>2026-04-17T08:53:33.136Z</time></trkpt><trkpt lat="43.4549867" lon="11.50066"><ele>792.0</ele><time>2026-04-17T08:53:34.135Z</time></trkpt><trkpt lat="43.4548817" lon="11.500655"><ele>792.0</ele><time>2026-04-17T08:53:35.136Z</time></trkpt><trkpt lat="43.4547633" lon="11.500685"><ele>792.0</ele><time>2026-04-17T08:53:36.138Z</time></trkpt><trkpt lat="43.454635" lon="11.5007417"><ele>792.0</ele><time>2026-04-17T08:53:37.137Z</time></trkpt><trkpt lat="43.454485" lon="11.5008033"><ele>792.0</ele><time>2026-04-17T08:53:38.136Z</time></trkpt><trkpt lat="43.454325" lon="11.5008617"><ele>792.0</ele><time>2026-04-17T08:53:39.135Z</time></trkpt><trkpt lat="43.45417" lon="11.5009117"><ele>792.0</ele><time>2026-04-17T08:53:40.136Z</time></trkpt><trkpt lat="43.4540233" lon="11.5009667"><ele>792.0</ele><time>2026-04-17T08:53:41.136Z</time></trkpt><trkpt lat="43.4538933" lon="11.5010417"><ele>791.5</ele><time>2026-04-17T08:53:42.136Z</time></trkpt><trkpt lat="43.4537683" lon="11.501125"><ele>791.0</ele><time>2026-04-17T08:53:43.138Z</time></trkpt><trkpt lat="43.453655" lon="11.5012133"><ele>790.5</ele><time>2026-04-17T08:53:44.137Z</time></trkpt><trkpt lat="43.4535517" lon="11.5013017"><ele>790.0</ele><time>2026-04-17T08:53:45.138Z</time></trkpt><trkpt lat="43.4534717" lon="11.5013567"><ele>790.0</ele><time>2026-04-17T08:53:46.138Z</time></trkpt><trkpt lat="43.4533917" lon="11.5013683"><ele>790.0</ele><time>2026-04-17T08:53:47.136Z</time></trkpt><trkpt lat="43.45326" lon="11.50135"><ele>790.0</ele><time>2026-04-17T08:53:48.136Z</time></trkpt><trkpt lat="43.4531483" lon="11.5012933"><ele>790.0</ele><time>2026-04-17T08:53:49.137Z</time></trkpt><trkpt lat="43.4530433" lon="11.5012433"><ele>790.0</ele><time>2026-04-17T08:53:50.138Z</time></trkpt><trkpt lat="43.4529333" lon="11.5011867"><ele>791.5</ele><time>2026-04-17T08:53:51.138Z</time></trkpt><trkpt lat="43.452825" lon="11.501135"><ele>793.0</ele><time>2026-04-17T08:53:52.138Z</time></trkpt><trkpt lat="43.4527083" lon="11.5010933"><ele>794.5</ele><time>2026-04-17T08:53:53.137Z</time></trkpt><trkpt lat="43.4525867" lon="11.5010783"><ele>796.0</ele><time>2026-04-17T08:53:54.137Z</time></trkpt><trkpt lat="43.4524617" lon="11.5010833"><ele>796.0</ele><time>2026-04-17T08:53:55.136Z</time></trkpt><trkpt lat="43.4523533" lon="11.5010917"><ele>796.0</ele><time>2026-04-17T08:53:56.137Z</time></trkpt><trkpt lat="43.452245" lon="11.5011133"><ele>796.0</ele><time>2026-04-17T08:53:57.136Z</time></trkpt><trkpt lat="43.4521433" lon="11.5011617"><ele>796.0</ele><time>2026-04-17T08:53:58.137Z</time></trkpt><trkpt lat="43.4520383" lon="11.50125"><ele>796.0</ele><time>2026-04-17T08:53:59.138Z</time></trkpt><trkpt lat="43.45193" lon="11.5013583"><ele>792.75</ele><time>2026-04-17T08:54:00.136Z</time></trkpt><trkpt lat="43.4518333" lon="11.501455"><ele>789.5</ele><time>2026-04-17T08:54:01.135Z</time></trkpt><trkpt lat="43.4517333" lon="11.5015383"><ele>786.25</ele><time>2026-04-17T08:54:02.137Z</time></trkpt><trkpt lat="43.4516167" lon="11.5015983"><ele>783.0</ele><time>2026-04-17T08:54:03.136Z</time></trkpt><trkpt lat="43.4514983" lon="11.5016283"><ele>783.0</ele><time>2026-04-17T08:54:04.136Z</time></trkpt><trkpt lat="43.45139" lon="11.5016683"><ele>783.0</ele><time>2026-04-17T08:54:05.135Z</time></trkpt><trkpt lat="43.45127" lon="11.5017517"><ele>783.0</ele><time>2026-04-17T08:54:06.136Z</time></trkpt><trkpt lat="43.451135" lon="11.50187"><ele>783.0</ele><time>2026-04-17T08:54:07.137Z</time></trkpt><trkpt lat="43.4509933" lon="11.502005"><ele>778.6666666666667</ele><time>2026-04-17T08:54:08.136Z</time></trkpt><trkpt lat="43.45086" lon="11.5021417"><ele>774.3333333333334</ele><time>2026-04-17T08:54:09.138Z</time></trkpt><trkpt lat="43.45074" lon="11.5022633"><ele>770.0</ele><time>2026-04-17T08:54:10.136Z</time></trkpt><trkpt lat="43.450625" lon="11.5023683"><ele>770.0</ele><time>2026-04-17T08:54:11.136Z</time></trkpt><trkpt lat="43.45052" lon="11.50245"><ele>770.0</ele><time>2026-04-17T08:54:12.137Z</time></trkpt><trkpt lat="43.4504217" lon="11.5024933"><ele>770.0</ele><time>2026-04-17T08:54:13.137Z</time></trkpt><trkpt lat="43.450305" lon="11.502505"><ele>770.0</ele><time>2026-04-17T08:54:14.138Z</time></trkpt><trkpt lat="43.4501717" lon="11.5024917"><ele>768.75</ele><time>2026-04-17T08:54:15.137Z</time></trkpt><trkpt lat="43.4500367" lon="11.5024567"><ele>767.5</ele><time>2026-04-17T08:54:16.136Z</time></trkpt><trkpt lat="43.4499033" lon="11.502425"><ele>766.25</ele><time>2026-04-17T08:54:17.136Z</time></trkpt><trkpt lat="43.4497733" lon="11.5024133"><ele>765.0</ele><time>2026-04-17T08:54:18.138Z</time></trkpt><trkpt lat="43.4496417" lon="11.5024317"><ele>762.8</ele><time>2026-04-17T08:54:19.135Z</time></trkpt><trkpt lat="43.4495167" lon="11.50248"><ele>760.6</ele><time>2026-04-17T08:54:20.133Z</time></trkpt><trkpt lat="43.4494067" lon="11.5025333"><ele>758.4000000000001</ele><time>2026-04-17T08:54:21.137Z</time></trkpt><trkpt lat="43.4493083" lon="11.5025767"><ele>756.2</ele><time>2026-04-17T08:54:22.136Z</time></trkpt><trkpt lat="43.4492183" lon="11.502595"><ele>754.0</ele><time>2026-04-17T08:54:23.137Z</time></trkpt><trkpt lat="43.4491167" lon="11.5026233"><ele>754.0</ele><time>2026-04-17T08:54:24.136Z</time></trkpt><trkpt lat="43.4490117" lon="11.5026717"><ele>754.0</ele><time>2026-04-17T08:54:25.139Z</time></trkpt><trkpt lat="43.4488933" lon="11.5027483"><ele>754.0</ele><time>2026-04-17T08:54:26.137Z</time></trkpt><trkpt lat="43.4487783" lon="11.50284"><ele>754.0</ele><time>2026-04-17T08:54:27.137Z</time></trkpt><trkpt lat="43.4486733" lon="11.5029717"><ele>759.25</ele><time>2026-04-17T08:54:28.138Z</time></trkpt><trkpt lat="43.4485767" lon="11.5031133"><ele>764.5</ele><time>2026-04-17T08:54:29.136Z</time></trkpt><trkpt lat="43.4484833" lon="11.50325"><ele>769.75</ele><time>2026-04-17T08:54:30.139Z</time></trkpt><trkpt lat="43.44838" lon="11.503345"><ele>775.0</ele><time>2026-04-17T08:54:31.137Z</time></trkpt><trkpt lat="43.4482633" lon="11.5034"><ele>775.0</ele><time>2026-04-17T08:54:32.136Z</time></trkpt><trkpt lat="43.448125" lon="11.5034067"><ele>775.0</ele><time>2026-04-17T08:54:33.137Z</time></trkpt><trkpt lat="43.447985" lon="11.50338"><ele>775.0</ele><time>2026-04-17T08:54:34.137Z</time></trkpt><trkpt lat="43.4478383" lon="11.5033333"><ele>775.0</ele><time>2026-04-17T08:54:35.136Z</time></trkpt><trkpt lat="43.4476983" lon="11.5032767"><ele>777.0</ele><time>2026-04-17T08:54:36.138Z</time></trkpt><trkpt lat="43.4475583" lon="11.5032017"><ele>779.0</ele><time>2026-04-17T08:54:37.139Z</time></trkpt><trkpt lat="43.447435" lon="11.5031233"><ele>781.0</ele><time>2026-04-17T08:54:38.137Z</time></trkpt><trkpt lat="43.4473067" lon="11.5030683"><ele>783.0</ele><time>2026-04-17T08:54:39.137Z</time></trkpt><trkpt lat="43.44719" lon="11.5030317"><ele>781.25</ele><time>2026-04-17T08:54:40.137Z</time></trkpt><trkpt lat="43.4470733" lon="11.5030217"><ele>779.5</ele><time>2026-04-17T08:54:41.136Z</time></trkpt><trkpt lat="43.44696" lon="11.5030483"><ele>777.75</ele><time>2026-04-17T08:54:42.139Z</time></trkpt><trkpt lat="43.4468483" lon="11.5031233"><ele>776.0</ele><time>2026-04-17T08:54:43.137Z</time></trkpt><trkpt lat="43.44674" lon="11.5032433"><ele>776.0</ele><time>2026-04-17T08:54:44.137Z</time></trkpt><trkpt lat="43.44665" lon="11.5033733"><ele>776.0</ele><time>2026-04-17T08:54:45.137Z</time></trkpt><trkpt lat="43.44657" lon="11.503535"><ele>776.0</ele><time>2026-04-17T08:54:46.137Z</time></trkpt><trkpt lat="43.44649" lon="11.5036983"><ele>776.0</ele><time>2026-04-17T08:54:47.135Z</time></trkpt><trkpt lat="43.4464033" lon="11.5038517"><ele>776.25</ele><time>2026-04-17T08:54:48.136Z</time></trkpt><trkpt lat="43.4463067" lon="11.5039817"><ele>776.5</ele><time>2026-04-17T08:54:49.137Z</time></trkpt><trkpt lat="43.4462083" lon="11.5040933"><ele>776.75</ele><time>2026-04-17T08:54:50.137Z</time></trkpt><trkpt lat="43.4461183" lon="11.504215"><ele>777.0</ele><time>2026-04-17T08:54:51.137Z</time></trkpt><trkpt lat="43.446045" lon="11.5043617"><ele>777.0</ele><time>2026-04-17T08:54:52.137Z</time></trkpt><trkpt lat="43.4459867" lon="11.5045317"><ele>777.0</ele><time>2026-04-17T08:54:53.136Z</time></trkpt><trkpt lat="43.445935" lon="11.5047117"><ele>777.0</ele><time>2026-04-17T08:54:54.137Z</time></trkpt><trkpt lat="43.445875" lon="11.5048733"><ele>777.0</ele><time>2026-04-17T08:54:55.137Z</time></trkpt><trkpt lat="43.445795" lon="11.5049867"><ele>776.5</ele><time>2026-04-17T08:54:56.137Z</time></trkpt><trkpt lat="43.4457" lon="11.5050567"><ele>776.0</ele><time>2026-04-17T08:54:57.138Z</time></trkpt><trkpt lat="43.4455833" lon="11.5050767"><ele>775.5</ele><time>2026-04-17T08:54:58.136Z</time></trkpt><trkpt lat="43.4454517" lon="11.5050517"><ele>775.0</ele><time>2026-04-17T08:54:59.137Z</time></trkpt><trkpt lat="43.4453133" lon="11.505025"><ele>775.0</ele><time>2026-04-17T08:55:00.136Z</time></trkpt><trkpt lat="43.445175" lon="11.5050217"><ele>775.0</ele><time>2026-04-17T08:55:01.136Z</time></trkpt><trkpt lat="43.4450433" lon="11.5050467"><ele>775.0</ele><time>2026-04-17T08:55:02.136Z</time></trkpt><trkpt lat="43.4449217" lon="11.5051117"><ele>775.0</ele><time>2026-04-17T08:55:03.137Z</time></trkpt><trkpt lat="43.444825" lon="11.5052317"><ele>775.0</ele><time>2026-04-17T08:55:04.137Z</time></trkpt><trkpt lat="43.44474" lon="11.5053883"><ele>775.0</ele><time>2026-04-17T08:55:05.138Z</time></trkpt><trkpt lat="43.4446533" lon="11.5055617"><ele>775.0</ele><time>2026-04-17T08:55:06.138Z</time></trkpt><trkpt lat="43.444565" lon="11.50572"><ele>775.0</ele><time>2026-04-17T08:55:07.136Z</time></trkpt><trkpt lat="43.4444733" lon="11.5058433"><ele>776.25</ele><time>2026-04-17T08:55:08.137Z</time></trkpt><trkpt lat="43.44438" lon="11.5059283"><ele>777.5</ele><time>2026-04-17T08:55:09.137Z</time></trkpt><trkpt lat="43.44428" lon="11.5059583"><ele>778.75</ele><time>2026-04-17T08:55:10.137Z</time></trkpt><trkpt lat="43.4441667" lon="11.5059267"><ele>780.0</ele><time>2026-04-17T08:55:11.136Z</time></trkpt><trkpt lat="43.4440383" lon="11.5058683"><ele>780.0</ele><time>2026-04-17T08:55:12.136Z</time></trkpt><trkpt lat="43.44392" lon="11.5058167"><ele>780.0</ele><time>2026-04-17T08:55:13.136Z</time></trkpt><trkpt lat="43.4438067" lon="11.5057733"><ele>780.0</ele><time>2026-04-17T08:55:14.137Z</time></trkpt><trkpt lat="43.4436933" lon="11.5057717"><ele>780.0</ele><time>2026-04-17T08:55:15.138Z</time></trkpt><trkpt lat="43.4435717" lon="11.5058167"><ele>780.75</ele><time>2026-04-17T08:55:16.136Z</time></trkpt><trkpt lat="43.4434533" lon="11.505875"><ele>781.5</ele><time>2026-04-17T08:55:17.136Z</time></trkpt><trkpt lat="43.4433233" lon="11.505935"><ele>782.25</ele><time>2026-04-17T08:55:18.136Z</time></trkpt><trkpt lat="43.4431933" lon="11.506"><ele>783.0</ele><time>2026-04-17T08:55:19.138Z</time></trkpt><trkpt lat="43.4430683" lon="11.5060683"><ele>783.0</ele><time>2026-04-17T08:55:20.138Z</time></trkpt><trkpt lat="43.4429667" lon="11.506145"><ele>783.0</ele><time>2026-04-17T08:55:21.137Z</time></trkpt><trkpt lat="43.4428767" lon="11.5062417"><ele>783.0</ele><time>2026-04-17T08:55:22.136Z</time></trkpt><trkpt lat="43.44281" lon="11.5063433"><ele>783.0</ele><time>2026-04-17T08:55:23.135Z</time></trkpt><trkpt lat="43.44276" lon="11.5064583"><ele>783.0</ele><time>2026-04-17T08:55:24.136Z</time></trkpt><trkpt lat="43.4427383" lon="11.5066017"><ele>784.2</ele><time>2026-04-17T08:55:25.139Z</time></trkpt><trkpt lat="43.4427383" lon="11.50676"><ele>785.4</ele><time>2026-04-17T08:55:26.138Z</time></trkpt><trkpt lat="43.44274" lon="11.506925"><ele>786.6</ele><time>2026-04-17T08:55:27.139Z</time></trkpt><trkpt lat="43.44275" lon="11.5070533"><ele>787.8000000000001</ele><time>2026-04-17T08:55:28.137Z</time></trkpt><trkpt lat="43.4427683" lon="11.50717"><ele>789.0</ele><time>2026-04-17T08:55:29.133Z</time></trkpt><trkpt lat="43.4427967" lon="11.5072933"><ele>789.0</ele><time>2026-04-17T08:55:30.135Z</time></trkpt><trkpt lat="43.4428317" lon="11.5074317"><ele>789.0</ele><time>2026-04-17T08:55:31.138Z</time></trkpt><trkpt lat="43.4428733" lon="11.50758"><ele>789.0</ele><time>2026-04-17T08:55:32.14Z</time></trkpt><trkpt lat="43.442915" lon="11.5077417"><ele>789.0</ele><time>2026-04-17T08:55:33.14Z</time></trkpt><trkpt lat="43.442955" lon="11.5078783"><ele>785.0</ele><time>2026-04-17T08:55:34.138Z</time></trkpt><trkpt lat="43.4430133" lon="11.5080117"><ele>781.0</ele><time>2026-04-17T08:55:35.138Z</time></trkpt><trkpt lat="43.4430917" lon="11.50811"><ele>777.0</ele><time>2026-04-17T08:55:36.138Z</time></trkpt><trkpt lat="43.4432133" lon="11.5082033"><ele>773.0</ele><time>2026-04-17T08:55:37.139Z</time></trkpt><trkpt lat="43.443345" lon="11.5082433"><ele>773.0</ele><time>2026-04-17T08:55:38.139Z</time></trkpt><trkpt lat="43.4434633" lon="11.5082933"><ele>773.0</ele><time>2026-04-17T08:55:39.139Z</time></trkpt><trkpt lat="43.4435783" lon="11.5083567"><ele>773.0</ele><time>2026-04-17T08:55:40.138Z</time></trkpt><trkpt lat="43.4436767" lon="11.50843"><ele>773.0</ele><time>2026-04-17T08:55:41.137Z</time></trkpt><trkpt lat="43.4437617" lon="11.5085"><ele>775.5</ele><time>2026-04-17T08:55:42.136Z</time></trkpt><trkpt lat="43.443875" lon="11.5085483"><ele>778.0</ele><time>2026-04-17T08:55:43.136Z</time></trkpt><trkpt lat="43.444005" lon="11.5085583"><ele>780.5</ele><time>2026-04-17T08:55:44.138Z</time></trkpt><trkpt lat="43.4441567" lon="11.508545"><ele>783.0</ele><time>2026-04-17T08:55:45.137Z</time></trkpt><trkpt lat="43.444315" lon="11.50854"><ele>783.0</ele><time>2026-04-17T08:55:46.135Z</time></trkpt><trkpt lat="43.4444733" lon="11.5085483"><ele>783.0</ele><time>2026-04-17T08:55:47.137Z</time></trkpt><trkpt lat="43.4446117" lon="11.50857"><ele>783.0</ele><time>2026-04-17T08:55:48.138Z</time></trkpt><trkpt lat="43.444725" lon="11.5086233"><ele>783.0</ele><time>2026-04-17T08:55:49.139Z</time></trkpt><trkpt lat="43.4448233" lon="11.5087283"><ele>774.0</ele><time>2026-04-17T08:55:50.139Z</time></trkpt><trkpt lat="43.4449017" lon="11.5088767"><ele>765.0</ele><time>2026-04-17T08:55:51.138Z</time></trkpt><trkpt lat="43.44498" lon="11.50906"><ele>756.0</ele><time>2026-04-17T08:55:52.135Z</time></trkpt><trkpt lat="43.44507" lon="11.509255"><ele>756.0</ele><time>2026-04-17T08:55:53.138Z</time></trkpt><trkpt lat="43.4451483" lon="11.5094433"><ele>756.0</ele><time>2026-04-17T08:55:54.134Z</time></trkpt><trkpt lat="43.44522" lon="11.5096283"><ele>756.0</ele><time>2026-04-17T08:55:55.14Z</time></trkpt><trkpt lat="43.445275" lon="11.5098183"><ele>750.0</ele><time>2026-04-17T08:55:56.139Z</time></trkpt><trkpt lat="43.4453067" lon="11.5100167"><ele>744.0</ele><time>2026-04-17T08:55:57.134Z</time></trkpt><trkpt lat="43.445335" lon="11.5102083"><ele>738.0</ele><time>2026-04-17T08:55:58.138Z</time></trkpt><trkpt lat="43.4453717" lon="11.5103833"><ele>732.0</ele><time>2026-04-17T08:55:59.137Z</time></trkpt><trkpt lat="43.445415" lon="11.51055"><ele>731.75</ele><time>2026-04-17T08:56:00.138Z</time></trkpt><trkpt lat="43.44547" lon="11.5107133"><ele>731.5</ele><time>2026-04-17T08:56:01.14Z</time></trkpt><trkpt lat="43.445505" lon="11.510875"><ele>731.25</ele><time>2026-04-17T08:56:02.138Z</time></trkpt><trkpt lat="43.44552" lon="11.5110483"><ele>731.0</ele><time>2026-04-17T08:56:03.136Z</time></trkpt><trkpt lat="43.445525" lon="11.5112183"><ele>727.75</ele><time>2026-04-17T08:56:04.137Z</time></trkpt><trkpt lat="43.4455217" lon="11.5114"><ele>724.5</ele><time>2026-04-17T08:56:05.136Z</time></trkpt><trkpt lat="43.4455117" lon="11.511585"><ele>721.25</ele><time>2026-04-17T08:56:06.136Z</time></trkpt><trkpt lat="43.4455017" lon="11.5117583"><ele>718.0</ele><time>2026-04-17T08:56:07.138Z</time></trkpt><trkpt lat="43.4454933" lon="11.5119033"><ele>718.0</ele><time>2026-04-17T08:56:08.135Z</time></trkpt><trkpt lat="43.4454883" lon="11.5120033"><ele>718.0</ele><time>2026-04-17T08:56:09.138Z</time></trkpt><trkpt lat="43.4454867" lon="11.5121317"><ele>718.0</ele><time>2026-04-17T08:56:11.138Z</time></trkpt><trkpt lat="43.44539" lon="11.512155"><ele>718.0</ele><time>2026-04-17T08:56:14.136Z</time></trkpt><trkpt lat="43.445315" lon="11.5121617"><ele>718.0</ele><time>2026-04-17T08:56:15.138Z</time></trkpt><trkpt lat="43.445215" lon="11.512185"><ele>718.0</ele><time>2026-04-17T08:56:16.135Z</time></trkpt><trkpt lat="43.44511" lon="11.5122083"><ele>719.8</ele><time>2026-04-17T08:56:17.135Z</time></trkpt><trkpt lat="43.445015" lon="11.5122383"><ele>721.5999999999999</ele><time>2026-04-17T08:56:18.135Z</time></trkpt><trkpt lat="43.444935" lon="11.512285"><ele>723.4000000000001</ele><time>2026-04-17T08:56:19.136Z</time></trkpt><trkpt lat="43.4448633" lon="11.5123517"><ele>725.2</ele><time>2026-04-17T08:56:20.136Z</time></trkpt><trkpt lat="43.444795" lon="11.5124333"><ele>727.0</ele><time>2026-04-17T08:56:21.136Z</time></trkpt><trkpt lat="43.4447217" lon="11.5125183"><ele>727.0</ele><time>2026-04-17T08:56:22.137Z</time></trkpt><trkpt lat="43.444645" lon="11.5126067"><ele>727.0</ele><time>2026-04-17T08:56:23.136Z</time></trkpt><trkpt lat="43.4445767" lon="11.5127167"><ele>727.0</ele><time>2026-04-17T08:56:24.136Z</time></trkpt><trkpt lat="43.4445167" lon="11.5128317"><ele>727.0</ele><time>2026-04-17T08:56:25.137Z</time></trkpt><trkpt lat="43.4444567" lon="11.51293"><ele>727.0</ele><time>2026-04-17T08:56:26.137Z</time></trkpt><trkpt lat="43.44439" lon="11.5130117"><ele>723.6</ele><time>2026-04-17T08:56:27.136Z</time></trkpt><trkpt lat="43.4443183" lon="11.5130983"><ele>720.2</ele><time>2026-04-17T08:56:28.136Z</time></trkpt><trkpt lat="43.4442483" lon="11.5131783"><ele>716.8</ele><time>2026-04-17T08:56:29.136Z</time></trkpt><trkpt lat="43.4441933" lon="11.5132533"><ele>713.4</ele><time>2026-04-17T08:56:30.136Z</time></trkpt><trkpt lat="43.4441333" lon="11.5134017"><ele>710.0</ele><time>2026-04-17T08:56:32.137Z</time></trkpt><trkpt lat="43.4441383" lon="11.513515"><ele>710.0</ele><time>2026-04-17T08:56:33.137Z</time></trkpt><trkpt lat="43.4441467" lon="11.51366"><ele>710.0</ele><time>2026-04-17T08:56:34.136Z</time></trkpt><trkpt lat="43.4441583" lon="11.5138167"><ele>710.0</ele><time>2026-04-17T08:56:35.137Z</time></trkpt><trkpt lat="43.44417" lon="11.5139567"><ele>710.0</ele><time>2026-04-17T08:56:36.137Z</time></trkpt><trkpt lat="43.4441733" lon="11.5140917"><ele>710.0</ele><time>2026-04-17T08:56:37.138Z</time></trkpt><trkpt lat="43.4441717" lon="11.5142167"><ele>710.0</ele><time>2026-04-17T08:56:38.137Z</time></trkpt><trkpt lat="43.4441633" lon="11.51433"><ele>710.0</ele><time>2026-04-17T08:56:39.136Z</time></trkpt><trkpt lat="43.444145" lon="11.5144367"><ele>710.0</ele><time>2026-04-17T08:56:40.137Z</time></trkpt><trkpt lat="43.44413" lon="11.5145483"><ele>710.0</ele><time>2026-04-17T08:56:41.137Z</time></trkpt><trkpt lat="43.44412" lon="11.5146717"><ele>710.0</ele><time>2026-04-17T08:56:42.136Z</time></trkpt><trkpt lat="43.4441217" lon="11.51479"><ele>710.0</ele><time>2026-04-17T08:56:43.138Z</time></trkpt><trkpt lat="43.444105" lon="11.514915"><ele>709.8333333333333</ele><time>2026-04-17T08:56:44.136Z</time></trkpt><trkpt lat="43.4440733" lon="11.515035"><ele>709.6666666666666</ele><time>2026-04-17T08:56:45.137Z</time></trkpt><trkpt lat="43.44404" lon="11.51514"><ele>709.5</ele><time>2026-04-17T08:56:46.136Z</time></trkpt><trkpt lat="43.4440133" lon="11.5152317"><ele>709.3333333333334</ele><time>2026-04-17T08:56:47.135Z</time></trkpt><trkpt lat="43.44393" lon="11.5151917"><ele>709.1666666666667</ele><time>2026-04-17T08:57:08.139Z</time></trkpt><trkpt lat="43.4438717" lon="11.5152283"><ele>709.0</ele><time>2026-04-17T08:57:09.139Z</time></trkpt><trkpt lat="43.4437967" lon="11.5152817"><ele>706.5</ele><time>2026-04-17T08:57:10.137Z</time></trkpt><trkpt lat="43.4437083" lon="11.515335"><ele>704.0</ele><time>2026-04-17T08:57:11.138Z</time></trkpt><trkpt lat="43.4436183" lon="11.5153717"><ele>701.5</ele><time>2026-04-17T08:57:12.139Z</time></trkpt><trkpt lat="43.4435333" lon="11.5153983"><ele>699.0</ele><time>2026-04-17T08:57:13.138Z</time></trkpt><trkpt lat="43.4434567" lon="11.515415"><ele>696.5</ele><time>2026-04-17T08:57:14.138Z</time></trkpt><trkpt lat="43.44338" lon="11.5154267"><ele>694.0</ele><time>2026-04-17T08:57:15.139Z</time></trkpt><trkpt lat="43.4433017" lon="11.5154317"><ele>694.0</ele><time>2026-04-17T08:57:16.138Z</time></trkpt><trkpt lat="43.443235" lon="11.5154383"><ele>694.0</ele><time>2026-04-17T08:57:17.139Z</time></trkpt><trkpt lat="43.4431717" lon="11.5154417"><ele>694.0</ele><time>2026-04-17T08:57:18.139Z</time></trkpt><trkpt lat="43.4431067" lon="11.51545"><ele>694.0</ele><time>2026-04-17T08:57:19.139Z</time></trkpt><trkpt lat="43.4429867" lon="11.5154717"><ele>694.0</ele><time>2026-04-17T08:57:21.14Z</time></trkpt><trkpt lat="43.442895" lon="11.5155517"><ele>694.0</ele><time>2026-04-17T08:57:23.138Z</time></trkpt><trkpt lat="43.44287" lon="11.515635"><ele>690.4000000000001</ele><time>2026-04-17T08:57:24.137Z</time></trkpt><trkpt lat="43.442855" lon="11.51575"><ele>686.8</ele><time>2026-04-17T08:57:25.138Z</time></trkpt><trkpt lat="43.4428417" lon="11.51588"><ele>683.2</ele><time>2026-04-17T08:57:26.14Z</time></trkpt><trkpt lat="43.44283" lon="11.5160133"><ele>679.5999999999999</ele><time>2026-04-17T08:57:27.14Z</time></trkpt><trkpt lat="43.4428317" lon="11.5161433"><ele>676.0</ele><time>2026-04-17T08:57:28.138Z</time></trkpt><trkpt lat="43.44284" lon="11.516265"><ele>674.6666666666667</ele><time>2026-04-17T08:57:29.138Z</time></trkpt><trkpt lat="43.4428483" lon="11.5163767"><ele>673.3333333333334</ele><time>2026-04-17T08:57:30.14Z</time></trkpt><trkpt lat="43.44286" lon="11.5164733"><ele>672.0</ele><time>2026-04-17T08:57:31.138Z</time></trkpt><trkpt lat="43.4428817" lon="11.5165733"><ele>670.6666666666666</ele><time>2026-04-17T08:57:32.139Z</time></trkpt><trkpt lat="43.442915" lon="11.5166817"><ele>669.3333333333333</ele><time>2026-04-17T08:57:33.139Z</time></trkpt><trkpt lat="43.4429517" lon="11.5167983"><ele>668.0</ele><time>2026-04-17T08:57:34.139Z</time></trkpt><trkpt lat="43.442985" lon="11.5169183"><ele>669.6666666666666</ele><time>2026-04-17T08:57:35.138Z</time></trkpt><trkpt lat="43.4430117" lon="11.5170417"><ele>671.3333333333333</ele><time>2026-04-17T08:57:36.138Z</time></trkpt><trkpt lat="43.4430383" lon="11.5171583"><ele>673.0</ele><time>2026-04-17T08:57:37.139Z</time></trkpt><trkpt lat="43.4430567" lon="11.5172733"><ele>674.6666666666666</ele><time>2026-04-17T08:57:38.141Z</time></trkpt><trkpt lat="43.443065" lon="11.5173833"><ele>676.3333333333334</ele><time>2026-04-17T08:57:39.14Z</time></trkpt><trkpt lat="43.4430633" lon="11.5175017"><ele>678.0</ele><time>2026-04-17T08:57:40.138Z</time></trkpt><trkpt lat="43.4430517" lon="11.5176217"><ele>678.0</ele><time>2026-04-17T08:57:41.139Z</time></trkpt><trkpt lat="43.443035" lon="11.5177383"><ele>678.0</ele><time>2026-04-17T08:57:42.141Z</time></trkpt><trkpt lat="43.44301" lon="11.5178533"><ele>678.0</ele><time>2026-04-17T08:57:43.137Z</time></trkpt><trkpt lat="43.4429767" lon="11.5179633"><ele>678.0</ele><time>2026-04-17T08:57:44.137Z</time></trkpt><trkpt lat="43.442945" lon="11.5180783"><ele>678.0</ele><time>2026-04-17T08:57:45.136Z</time></trkpt><trkpt lat="43.44292" lon="11.5181967"><ele>678.0</ele><time>2026-04-17T08:57:46.138Z</time></trkpt><trkpt lat="43.4429017" lon="11.5183017"><ele>675.0</ele><time>2026-04-17T08:57:47.137Z</time></trkpt><trkpt lat="43.442885" lon="11.5183967"><ele>672.0</ele><time>2026-04-17T08:57:48.137Z</time></trkpt><trkpt lat="43.4428617" lon="11.5184867"><ele>669.0</ele><time>2026-04-17T08:57:49.138Z</time></trkpt><trkpt lat="43.44284" lon="11.5185767"><ele>666.0</ele><time>2026-04-17T08:57:50.137Z</time></trkpt><trkpt lat="43.4428233" lon="11.5186717"><ele>663.0</ele><time>2026-04-17T08:57:51.136Z</time></trkpt><trkpt lat="43.4428117" lon="11.5187667"><ele>660.0</ele><time>2026-04-17T08:57:52.137Z</time></trkpt><trkpt lat="43.4428033" lon="11.518875"><ele>657.0</ele><time>2026-04-17T08:57:53.138Z</time></trkpt><trkpt lat="43.4427983" lon="11.5189867"><ele>656.3333333333334</ele><time>2026-04-17T08:57:54.141Z</time></trkpt><trkpt lat="43.4427933" lon="11.5191033"><ele>655.6666666666666</ele><time>2026-04-17T08:57:55.135Z</time></trkpt><trkpt lat="43.44279" lon="11.5192267"><ele>655.0</ele><time>2026-04-17T08:57:56.136Z</time></trkpt><trkpt lat="43.4427917" lon="11.5193333"><ele>654.3333333333333</ele><time>2026-04-17T08:57:57.135Z</time></trkpt><trkpt lat="43.4428" lon="11.5194367"><ele>653.6666666666666</ele><time>2026-04-17T08:57:58.133Z</time></trkpt><trkpt lat="43.4428367" lon="11.5195317"><ele>653.0</ele><time>2026-04-17T08:57:59.131Z</time></trkpt><trkpt lat="43.4428817" lon="11.519615"><ele>653.0</ele><time>2026-04-17T08:58:00.131Z</time></trkpt><trkpt lat="43.442935" lon="11.51969"><ele>653.0</ele><time>2026-04-17T08:58:01.137Z</time></trkpt><trkpt lat="43.443005" lon="11.5197783"><ele>653.0</ele><time>2026-04-17T08:58:03.131Z</time></trkpt><trkpt lat="43.4430833" lon="11.51984"><ele>653.0</ele><time>2026-04-17T08:58:06.137Z</time></trkpt><trkpt lat="43.44309" lon="11.5199567"><ele>653.0</ele><time>2026-04-17T08:58:10.133Z</time></trkpt><trkpt lat="43.443055" lon="11.5200383"><ele>653.0</ele><time>2026-04-17T08:58:11.132Z</time></trkpt><trkpt lat="43.4430033" lon="11.5201733"><ele>651.6666666666666</ele><time>2026-04-17T08:58:12.139Z</time></trkpt><trkpt lat="43.4429017" lon="11.520415"><ele>650.3333333333334</ele><time>2026-04-17T08:58:13.14Z</time></trkpt><trkpt lat="43.4428267" lon="11.52062"><ele>649.0</ele><time>2026-04-17T08:58:14.146Z</time></trkpt><trkpt lat="43.4427583" lon="11.5208117"><ele>649.0</ele><time>2026-04-17T08:58:15.139Z</time></trkpt><trkpt lat="43.4426817" lon="11.5210067"><ele>649.0</ele><time>2026-04-17T08:58:16.139Z</time></trkpt><trkpt lat="43.4425967" lon="11.5211683"><ele>649.0</ele><time>2026-04-17T08:58:17.136Z</time></trkpt><trkpt lat="43.4424917" lon="11.5213083"><ele>650.0</ele><time>2026-04-17T08:58:18.136Z</time></trkpt><trkpt lat="43.4423767" lon="11.5214483"><ele>651.0</ele><time>2026-04-17T08:58:19.137Z</time></trkpt><trkpt lat="43.4422583" lon="11.5215767"><ele>652.0</ele><time>2026-04-17T08:58:20.138Z</time></trkpt><trkpt lat="43.44214" lon="11.5216933"><ele>651.0</ele><time>2026-04-17T08:58:21.138Z</time></trkpt><trkpt lat="43.442025" lon="11.521815"><ele>650.0</ele><time>2026-04-17T08:58:22.136Z</time></trkpt><trkpt lat="43.4419133" lon="11.521925"><ele>649.0</ele><time>2026-04-17T08:58:23.137Z</time></trkpt><trkpt lat="43.4418133" lon="11.5220217"><ele>648.0</ele><time>2026-04-17T08:58:24.137Z</time></trkpt><trkpt lat="43.4417317" lon="11.5221"><ele>648.0</ele><time>2026-04-17T08:58:25.144Z</time></trkpt><trkpt lat="43.4416717" lon="11.5221633"><ele>648.0</ele><time>2026-04-17T08:58:26.138Z</time></trkpt><trkpt lat="43.4416133" lon="11.522235"><ele>648.0</ele><time>2026-04-17T08:58:27.137Z</time></trkpt><trkpt lat="43.441565" lon="11.52233"><ele>648.0</ele><time>2026-04-17T08:58:28.136Z</time></trkpt><trkpt lat="43.4415217" lon="11.5224533"><ele>648.0</ele><time>2026-04-17T08:58:29.138Z</time></trkpt><trkpt lat="43.4414917" lon="11.5226167"><ele>648.0</ele><time>2026-04-17T08:58:30.136Z</time></trkpt><trkpt lat="43.4414567" lon="11.522755"><ele>648.0</ele><time>2026-04-17T08:58:31.137Z</time></trkpt><trkpt lat="43.441425" lon="11.522865"><ele>648.0</ele><time>2026-04-17T08:58:32.132Z</time></trkpt><trkpt lat="43.44139" lon="11.5229467"><ele>648.0</ele><time>2026-04-17T08:58:33.137Z</time></trkpt><trkpt lat="43.44136" lon="11.5230967"><ele>648.0</ele><time>2026-04-17T08:58:35.137Z</time></trkpt><trkpt lat="43.44138" lon="11.52318"><ele>648.0</ele><time>2026-04-17T08:58:36.137Z</time></trkpt><trkpt lat="43.4414233" lon="11.523255"><ele>646.5999999999999</ele><time>2026-04-17T08:58:37.136Z</time></trkpt><trkpt lat="43.44149" lon="11.5233217"><ele>645.1999999999999</ele><time>2026-04-17T08:58:38.135Z</time></trkpt><trkpt lat="43.4415817" lon="11.523395"><ele>643.8</ele><time>2026-04-17T08:58:39.137Z</time></trkpt><trkpt lat="43.4417067" lon="11.52347"><ele>642.4</ele><time>2026-04-17T08:58:40.137Z</time></trkpt><trkpt lat="43.4418117" lon="11.5235517"><ele>641.0</ele><time>2026-04-17T08:58:41.133Z</time></trkpt><trkpt lat="43.4419117" lon="11.5236333"><ele>641.0</ele><time>2026-04-17T08:58:42.137Z</time></trkpt><trkpt lat="43.442015" lon="11.5237"><ele>641.0</ele><time>2026-04-17T08:58:43.137Z</time></trkpt><trkpt lat="43.44211" lon="11.5237633"><ele>641.0</ele><time>2026-04-17T08:58:44.136Z</time></trkpt><trkpt lat="43.4421817" lon="11.5238217"><ele>641.0</ele><time>2026-04-17T08:58:45.137Z</time></trkpt><trkpt lat="43.4422367" lon="11.5238817"><ele>641.0</ele><time>2026-04-17T08:58:46.136Z</time></trkpt><trkpt lat="43.4422767" lon="11.524045"><ele>640.0</ele><time>2026-04-17T08:58:48.137Z</time></trkpt><trkpt lat="43.442295" lon="11.5241467"><ele>639.0</ele><time>2026-04-17T08:58:49.137Z</time></trkpt><trkpt lat="43.4423233" lon="11.5242533"><ele>638.0</ele><time>2026-04-17T08:58:50.137Z</time></trkpt><trkpt lat="43.44237" lon="11.5243667"><ele>637.0</ele><time>2026-04-17T08:58:51.138Z</time></trkpt><trkpt lat="43.4424483" lon="11.5244733"><ele>636.0</ele><time>2026-04-17T08:58:52.132Z</time></trkpt><trkpt lat="43.4425283" lon="11.5245817"><ele>630.6666666666666</ele><time>2026-04-17T08:58:53.138Z</time></trkpt><trkpt lat="43.4426067" lon="11.5247"><ele>625.3333333333333</ele><time>2026-04-17T08:58:54.138Z</time></trkpt><trkpt lat="43.4426933" lon="11.5248283"><ele>620.0</ele><time>2026-04-17T08:58:55.136Z</time></trkpt><trkpt lat="43.4428267" lon="11.5251317"><ele>620.0</ele><time>2026-04-17T08:58:57.136Z</time></trkpt><trkpt lat="43.4428983" lon="11.5253233"><ele>620.0</ele><time>2026-04-17T08:58:58.135Z</time></trkpt><trkpt lat="43.4429633" lon="11.5255267"><ele>620.0</ele><time>2026-04-17T08:58:59.137Z</time></trkpt><trkpt lat="43.44302" lon="11.5257267"><ele>619.25</ele><time>2026-04-17T08:59:00.138Z</time></trkpt><trkpt lat="43.443075" lon="11.5259367"><ele>618.5</ele><time>2026-04-17T08:59:01.136Z</time></trkpt><trkpt lat="43.44312" lon="11.5261333"><ele>617.75</ele><time>2026-04-17T08:59:02.137Z</time></trkpt><trkpt lat="43.44315" lon="11.5263083"><ele>617.0</ele><time>2026-04-17T08:59:03.136Z</time></trkpt><trkpt lat="43.4431567" lon="11.5264667"><ele>617.0</ele><time>2026-04-17T08:59:04.136Z</time></trkpt><trkpt lat="43.4431417" lon="11.5266167"><ele>617.0</ele><time>2026-04-17T08:59:05.137Z</time></trkpt><trkpt lat="43.4430983" lon="11.5267833"><ele>617.0</ele><time>2026-04-17T08:59:06.139Z</time></trkpt><trkpt lat="43.4430333" lon="11.5269267"><ele>617.0</ele><time>2026-04-17T08:59:07.133Z</time></trkpt><trkpt lat="43.4429717" lon="11.5270467"><ele>615.4</ele><time>2026-04-17T08:59:08.137Z</time></trkpt><trkpt lat="43.4429083" lon="11.527145"><ele>613.8000000000001</ele><time>2026-04-17T08:59:09.138Z</time></trkpt><trkpt lat="43.4428367" lon="11.5271983"><ele>612.2</ele><time>2026-04-17T08:59:10.137Z</time></trkpt><trkpt lat="43.442745" lon="11.5272317"><ele>610.6</ele><time>2026-04-17T08:59:11.137Z</time></trkpt><trkpt lat="43.4426083" lon="11.5272217"><ele>609.0</ele><time>2026-04-17T08:59:12.139Z</time></trkpt><trkpt lat="43.4424533" lon="11.527195"><ele>609.0</ele><time>2026-04-17T08:59:13.137Z</time></trkpt><trkpt lat="43.4423033" lon="11.5271667"><ele>609.0</ele><time>2026-04-17T08:59:14.135Z</time></trkpt><trkpt lat="43.442175" lon="11.52716"><ele>609.0</ele><time>2026-04-17T08:59:15.138Z</time></trkpt><trkpt lat="43.4420467" lon="11.527185"><ele>609.0</ele><time>2026-04-17T08:59:16.135Z</time></trkpt><trkpt lat="43.44191" lon="11.5272533"><ele>609.75</ele><time>2026-04-17T08:59:17.136Z</time></trkpt><trkpt lat="43.4417633" lon="11.5273433"><ele>610.5</ele><time>2026-04-17T08:59:18.136Z</time></trkpt><trkpt lat="43.4416283" lon="11.52743"><ele>611.25</ele><time>2026-04-17T08:59:19.134Z</time></trkpt><trkpt lat="43.4415167" lon="11.527495"><ele>612.0</ele><time>2026-04-17T08:59:20.138Z</time></trkpt><trkpt lat="43.4414217" lon="11.527555"><ele>612.0</ele><time>2026-04-17T08:59:21.138Z</time></trkpt><trkpt lat="43.4413333" lon="11.52763"><ele>612.0</ele><time>2026-04-17T08:59:22.137Z</time></trkpt><trkpt lat="43.4412517" lon="11.5277367"><ele>612.0</ele><time>2026-04-17T08:59:23.137Z</time></trkpt><trkpt lat="43.4411667" lon="11.52788"><ele>612.0</ele><time>2026-04-17T08:59:24.137Z</time></trkpt><trkpt lat="43.441075" lon="11.5280617"><ele>614.5</ele><time>2026-04-17T08:59:25.136Z</time></trkpt><trkpt lat="43.4409933" lon="11.5282467"><ele>617.0</ele><time>2026-04-17T08:59:26.136Z</time></trkpt><trkpt lat="43.4409283" lon="11.528415"><ele>619.5</ele><time>2026-04-17T08:59:27.137Z</time></trkpt><trkpt lat="43.440875" lon="11.5285733"><ele>622.0</ele><time>2026-04-17T08:59:28.136Z</time></trkpt><trkpt lat="43.44084" lon="11.5287217"><ele>621.6</ele><time>2026-04-17T08:59:29.136Z</time></trkpt><trkpt lat="43.4408217" lon="11.52885"><ele>621.2</ele><time>2026-04-17T08:59:30.13Z</time></trkpt><trkpt lat="43.44082" lon="11.5289867"><ele>620.8</ele><time>2026-04-17T08:59:31.137Z</time></trkpt><trkpt lat="43.4408233" lon="11.5291333"><ele>620.4</ele><time>2026-04-17T08:59:32.133Z</time></trkpt><trkpt lat="43.4408267" lon="11.5292933"><ele>620.0</ele><time>2026-04-17T08:59:33.136Z</time></trkpt><trkpt lat="43.44083" lon="11.5294267"><ele>620.0</ele><time>2026-04-17T08:59:34.137Z</time></trkpt><trkpt lat="43.4408383" lon="11.52954"><ele>620.0</ele><time>2026-04-17T08:59:35.137Z</time></trkpt><trkpt lat="43.4408617" lon="11.52963"><ele>620.0</ele><time>2026-04-17T08:59:36.136Z</time></trkpt><trkpt lat="43.4409067" lon="11.5297083"><ele>620.0</ele><time>2026-04-17T08:59:37.135Z</time></trkpt><trkpt lat="43.4409767" lon="11.52984"><ele>620.0</ele><time>2026-04-17T08:59:39.133Z</time></trkpt><trkpt lat="43.44093" lon="11.52992"><ele>620.0</ele><time>2026-04-17T08:59:41.136Z</time></trkpt><trkpt lat="43.4408433" lon="11.5300117"><ele>621.8333333333333</ele><time>2026-04-17T08:59:43.136Z</time></trkpt><trkpt lat="43.4408717" lon="11.5301017"><ele>623.6666666666666</ele><time>2026-04-17T08:59:45.14Z</time></trkpt><trkpt lat="43.4409433" lon="11.5301283"><ele>625.5</ele><time>2026-04-17T08:59:46.136Z</time></trkpt><trkpt lat="43.4410267" lon="11.530145"><ele>627.3333333333334</ele><time>2026-04-17T08:59:47.137Z</time></trkpt><trkpt lat="43.4411117" lon="11.5301617"><ele>629.1666666666667</ele><time>2026-04-17T08:59:48.136Z</time></trkpt><trkpt lat="43.4412033" lon="11.5301833"><ele>631.0</ele><time>2026-04-17T08:59:49.137Z</time></trkpt><trkpt lat="43.4412883" lon="11.53021"><ele>630.8</ele><time>2026-04-17T08:59:50.137Z</time></trkpt><trkpt lat="43.4413533" lon="11.5302367"><ele>630.6</ele><time>2026-04-17T08:59:51.139Z</time></trkpt><trkpt lat="43.4414017" lon="11.5303033"><ele>630.4</ele><time>2026-04-17T08:59:53.136Z</time></trkpt><trkpt lat="43.4413633" lon="11.5304617"><ele>630.2</ele><time>2026-04-17T08:59:55.138Z</time></trkpt><trkpt lat="43.4413317" lon="11.53058"><ele>630.0</ele><time>2026-04-17T08:59:56.137Z</time></trkpt><trkpt lat="43.441315" lon="11.5307167"><ele>632.4</ele><time>2026-04-17T08:59:57.133Z</time></trkpt><trkpt lat="43.4413033" lon="11.5308583"><ele>634.8</ele><time>2026-04-17T08:59:58.137Z</time></trkpt><trkpt lat="43.4412983" lon="11.5309917"><ele>637.2</ele><time>2026-04-17T08:59:59.136Z</time></trkpt><trkpt lat="43.4413017" lon="11.5311183"><ele>639.6</ele><time>2026-04-17T09:00:00.134Z</time></trkpt><trkpt lat="43.4413217" lon="11.5312583"><ele>642.0</ele><time>2026-04-17T09:00:01.134Z</time></trkpt><trkpt lat="43.4413467" lon="11.5313917"><ele>644.8</ele><time>2026-04-17T09:00:02.134Z</time></trkpt><trkpt lat="43.4413767" lon="11.5315267"><ele>647.6</ele><time>2026-04-17T09:00:03.133Z</time></trkpt><trkpt lat="43.44141" lon="11.5316583"><ele>650.4</ele><time>2026-04-17T09:00:04.134Z</time></trkpt><trkpt lat="43.4414283" lon="11.5317717"><ele>653.1999999999999</ele><time>2026-04-17T09:00:05.131Z</time></trkpt><trkpt lat="43.44144" lon="11.5318883"><ele>656.0</ele><time>2026-04-17T09:00:06.131Z</time></trkpt><trkpt lat="43.44143" lon="11.5320117"><ele>654.8</ele><time>2026-04-17T09:00:07.134Z</time></trkpt><trkpt lat="43.4414033" lon="11.532145"><ele>653.5999999999999</ele><time>2026-04-17T09:00:08.135Z</time></trkpt><trkpt lat="43.4413767" lon="11.53228"><ele>652.4</ele><time>2026-04-17T09:00:09.137Z</time></trkpt><trkpt lat="43.4413583" lon="11.5324167"><ele>651.2</ele><time>2026-04-17T09:00:10.136Z</time></trkpt><trkpt lat="43.4413617" lon="11.53253"><ele>650.0</ele><time>2026-04-17T09:00:11.137Z</time></trkpt><trkpt lat="43.4413567" lon="11.532625"><ele>650.0</ele><time>2026-04-17T09:00:12.137Z</time></trkpt><trkpt lat="43.4413583" lon="11.53272"><ele>650.0</ele><time>2026-04-17T09:00:13.139Z</time></trkpt><trkpt lat="43.44137" lon="11.5328267"><ele>650.0</ele><time>2026-04-17T09:00:14.137Z</time></trkpt><trkpt lat="43.44139" lon="11.5329367"><ele>650.0</ele><time>2026-04-17T09:00:15.14Z</time></trkpt><trkpt lat="43.44142" lon="11.53306"><ele>650.0</ele><time>2026-04-17T09:00:16.137Z</time></trkpt><trkpt lat="43.4414567" lon="11.53319"><ele>650.0</ele><time>2026-04-17T09:00:17.134Z</time></trkpt><trkpt lat="43.441485" lon="11.5333133"><ele>649.4285714285714</ele><time>2026-04-17T09:00:18.135Z</time></trkpt><trkpt lat="43.441505" lon="11.5334283"><ele>648.8571428571429</ele><time>2026-04-17T09:00:19.146Z</time></trkpt><trkpt lat="43.441515" lon="11.53354"><ele>648.2857142857143</ele><time>2026-04-17T09:00:20.138Z</time></trkpt><trkpt lat="43.4415233" lon="11.5336417"><ele>647.7142857142858</ele><time>2026-04-17T09:00:21.14Z</time></trkpt><trkpt lat="43.4415367" lon="11.5337383"><ele>647.1428571428571</ele><time>2026-04-17T09:00:22.137Z</time></trkpt><trkpt lat="43.44153" lon="11.53383"><ele>646.5714285714287</ele><time>2026-04-17T09:00:23.138Z</time></trkpt><trkpt lat="43.441525" lon="11.5339233"><ele>646.0</ele><time>2026-04-17T09:00:24.136Z</time></trkpt><trkpt lat="43.44154" lon="11.5340833"><ele>645.6666666666667</ele><time>2026-04-17T09:00:26.137Z</time></trkpt><trkpt lat="43.44157" lon="11.5341683"><ele>645.3333333333334</ele><time>2026-04-17T09:00:27.137Z</time></trkpt><trkpt lat="43.4416233" lon="11.5342733"><ele>645.0</ele><time>2026-04-17T09:00:28.141Z</time></trkpt><trkpt lat="43.441685" lon="11.5343717"><ele>644.6666666666666</ele><time>2026-04-17T09:00:29.137Z</time></trkpt><trkpt lat="43.4417433" lon="11.5344767"><ele>644.3333333333333</ele><time>2026-04-17T09:00:30.137Z</time></trkpt><trkpt lat="43.4417933" lon="11.5345633"><ele>644.0</ele><time>2026-04-17T09:00:31.139Z</time></trkpt><trkpt lat="43.441835" lon="11.5346283"><ele>642.2</ele><time>2026-04-17T09:00:32.14Z</time></trkpt><trkpt lat="43.44188" lon="11.53469"><ele>640.4000000000001</ele><time>2026-04-17T09:00:33.138Z</time></trkpt><trkpt lat="43.441985" lon="11.5347"><ele>638.6</ele><time>2026-04-17T09:00:35.136Z</time></trkpt><trkpt lat="43.4420467" lon="11.5347217"><ele>636.8</ele><time>2026-04-17T09:00:36.135Z</time></trkpt><trkpt lat="43.44215" lon="11.5348117"><ele>635.0</ele><time>2026-04-17T09:00:38.139Z</time></trkpt><trkpt lat="43.442215" lon="11.5349367"><ele>634.9999999999999</ele><time>2026-04-17T09:00:40.136Z</time></trkpt><trkpt lat="43.4422383" lon="11.5350217"><ele>635.0</ele><time>2026-04-17T09:00:41.137Z</time></trkpt><trkpt lat="43.44225" lon="11.5351167"><ele>635.0</ele><time>2026-04-17T09:00:42.138Z</time></trkpt><trkpt lat="43.4422583" lon="11.535215"><ele>635.0</ele><time>2026-04-17T09:00:43.138Z</time></trkpt><trkpt lat="43.4422683" lon="11.5353183"><ele>635.0</ele><time>2026-04-17T09:00:44.138Z</time></trkpt><trkpt lat="43.442275" lon="11.53542"><ele>634.9999999999999</ele><time>2026-04-17T09:00:45.14Z</time></trkpt><trkpt lat="43.4422817" lon="11.5355083"><ele>635.0</ele><time>2026-04-17T09:00:46.136Z</time></trkpt><trkpt lat="43.44224" lon="11.5356517"><ele>634.2</ele><time>2026-04-17T09:00:48.137Z</time></trkpt><trkpt lat="43.4421633" lon="11.5357533"><ele>633.4</ele><time>2026-04-17T09:00:50.137Z</time></trkpt><trkpt lat="43.442125" lon="11.5358383"><ele>632.6</ele><time>2026-04-17T09:00:52.137Z</time></trkpt><trkpt lat="43.4421117" lon="11.5359433"><ele>631.8</ele><time>2026-04-17T09:00:54.137Z</time></trkpt><trkpt lat="43.44211" lon="11.5361167"><ele>631.0</ele><time>2026-04-17T09:00:56.139Z</time></trkpt><trkpt lat="43.44211" lon="11.536225"><ele>631.0</ele><time>2026-04-17T09:00:57.139Z</time></trkpt><trkpt lat="43.4421117" lon="11.536345"><ele>631.0</ele><time>2026-04-17T09:00:58.139Z</time></trkpt><trkpt lat="43.4421183" lon="11.5364917"><ele>631.0</ele><time>2026-04-17T09:00:59.138Z</time></trkpt><trkpt lat="43.44213" lon="11.5366433"><ele>631.0</ele><time>2026-04-17T09:01:00.138Z</time></trkpt><trkpt lat="43.442135" lon="11.5367783"><ele>631.0</ele><time>2026-04-17T09:01:01.138Z</time></trkpt><trkpt lat="43.4421283" lon="11.5369133"><ele>628.2</ele><time>2026-04-17T09:01:02.138Z</time></trkpt><trkpt lat="43.44212" lon="11.537035"><ele>625.4000000000001</ele><time>2026-04-17T09:01:03.14Z</time></trkpt><trkpt lat="43.4420967" lon="11.53714"><ele>622.6</ele><time>2026-04-17T09:01:04.139Z</time></trkpt><trkpt lat="43.442075" lon="11.5372333"><ele>619.8000000000001</ele><time>2026-04-17T09:01:05.133Z</time></trkpt><trkpt lat="43.4420467" lon="11.5374283"><ele>617.0</ele><time>2026-04-17T09:01:07.139Z</time></trkpt><trkpt lat="43.4420417" lon="11.53755"><ele>616.5</ele><time>2026-04-17T09:01:08.137Z</time></trkpt><trkpt lat="43.442015" lon="11.5376833"><ele>616.0</ele><time>2026-04-17T09:01:09.139Z</time></trkpt><trkpt lat="43.4420033" lon="11.537815"><ele>615.5</ele><time>2026-04-17T09:01:10.138Z</time></trkpt><trkpt lat="43.441985" lon="11.5379283"><ele>615.0</ele><time>2026-04-17T09:01:11.138Z</time></trkpt><trkpt lat="43.4419683" lon="11.538025"><ele>614.5</ele><time>2026-04-17T09:01:12.138Z</time></trkpt><trkpt lat="43.4419483" lon="11.53811"><ele>614.0</ele><time>2026-04-17T09:01:13.138Z</time></trkpt><trkpt lat="43.44188" lon="11.53825"><ele>613.5</ele><time>2026-04-17T09:01:15.136Z</time></trkpt><trkpt lat="43.4418583" lon="11.5383683"><ele>613.0</ele><time>2026-04-17T09:01:17.136Z</time></trkpt><trkpt lat="43.4419" lon="11.5384667"><ele>612.5</ele><time>2026-04-17T09:01:19.137Z</time></trkpt><trkpt lat="43.4419083" lon="11.538555"><ele>612.0</ele><time>2026-04-17T09:01:21.138Z</time></trkpt><trkpt lat="43.44189" lon="11.538655"><ele>611.5</ele><time>2026-04-17T09:01:23.136Z</time></trkpt><trkpt lat="43.4418467" lon="11.5387383"><ele>611.0</ele><time>2026-04-17T09:01:25.137Z</time></trkpt><trkpt lat="43.4418617" lon="11.5388417"><ele>611.0</ele><time>2026-04-17T09:01:28.137Z</time></trkpt><trkpt lat="43.4419233" lon="11.5388867"><ele>611.0</ele><time>2026-04-17T09:01:30.138Z</time></trkpt><trkpt lat="43.44198" lon="11.5390033"><ele>611.0</ele><time>2026-04-17T09:01:32.137Z</time></trkpt><trkpt lat="43.4419917" lon="11.53909"><ele>611.0</ele><time>2026-04-17T09:01:33.137Z</time></trkpt><trkpt lat="43.4419883" lon="11.5391867"><ele>611.0</ele><time>2026-04-17T09:01:34.137Z</time></trkpt><trkpt lat="43.44198" lon="11.53932"><ele>611.0</ele><time>2026-04-17T09:01:35.137Z</time></trkpt><trkpt lat="43.4419667" lon="11.5394533"><ele>611.6</ele><time>2026-04-17T09:01:36.136Z</time></trkpt><trkpt lat="43.4419583" lon="11.5395833"><ele>612.2</ele><time>2026-04-17T09:01:37.138Z</time></trkpt><trkpt lat="43.44195" lon="11.5397117"><ele>612.8</ele><time>2026-04-17T09:01:38.138Z</time></trkpt><trkpt lat="43.4419583" lon="11.5398333"><ele>613.4</ele><time>2026-04-17T09:01:39.138Z</time></trkpt><trkpt lat="43.4419817" lon="11.5399517"><ele>614.0</ele><time>2026-04-17T09:01:40.138Z</time></trkpt><trkpt lat="43.4420067" lon="11.5400683"><ele>614.0</ele><time>2026-04-17T09:01:41.137Z</time></trkpt><trkpt lat="43.44202" lon="11.54018"><ele>614.0</ele><time>2026-04-17T09:01:42.138Z</time></trkpt><trkpt lat="43.4420217" lon="11.5402883"><ele>614.0</ele><time>2026-04-17T09:01:43.138Z</time></trkpt><trkpt lat="43.4420217" lon="11.5404167"><ele>614.0</ele><time>2026-04-17T09:01:44.136Z</time></trkpt><trkpt lat="43.442015" lon="11.540545"><ele>614.0</ele><time>2026-04-17T09:01:45.137Z</time></trkpt><trkpt lat="43.44201" lon="11.5406767"><ele>614.0</ele><time>2026-04-17T09:01:46.136Z</time></trkpt><trkpt lat="43.44201" lon="11.5408083"><ele>613.8333333333333</ele><time>2026-04-17T09:01:47.136Z</time></trkpt><trkpt lat="43.4420167" lon="11.5409283"><ele>613.6666666666666</ele><time>2026-04-17T09:01:48.149Z</time></trkpt><trkpt lat="43.44203" lon="11.5410383"><ele>613.5</ele><time>2026-04-17T09:01:49.138Z</time></trkpt><trkpt lat="43.4420533" lon="11.541135"><ele>613.3333333333334</ele><time>2026-04-17T09:01:50.137Z</time></trkpt><trkpt lat="43.4420717" lon="11.5412267"><ele>613.1666666666667</ele><time>2026-04-17T09:01:51.137Z</time></trkpt><trkpt lat="43.44208" lon="11.5413217"><ele>613.0</ele><time>2026-04-17T09:01:52.136Z</time></trkpt><trkpt lat="43.4420883" lon="11.5414283"><ele>610.3333333333334</ele><time>2026-04-17T09:01:53.136Z</time></trkpt><trkpt lat="43.4420933" lon="11.5415467"><ele>607.6666666666667</ele><time>2026-04-17T09:01:54.138Z</time></trkpt><trkpt lat="43.4421" lon="11.54166"><ele>605.0</ele><time>2026-04-17T09:01:55.136Z</time></trkpt><trkpt lat="43.4420967" lon="11.5417817"><ele>602.3333333333334</ele><time>2026-04-17T09:01:56.137Z</time></trkpt><trkpt lat="43.44209" lon="11.5419033"><ele>599.6666666666666</ele><time>2026-04-17T09:01:57.138Z</time></trkpt><trkpt lat="43.4420783" lon="11.5420033"><ele>597.0</ele><time>2026-04-17T09:01:58.133Z</time></trkpt><trkpt lat="43.4420733" lon="11.5421017"><ele>594.8333333333334</ele><time>2026-04-17T09:01:59.137Z</time></trkpt><trkpt lat="43.442085" lon="11.5422"><ele>592.6666666666666</ele><time>2026-04-17T09:02:00.137Z</time></trkpt><trkpt lat="43.442115" lon="11.5423067"><ele>590.5</ele><time>2026-04-17T09:02:01.137Z</time></trkpt><trkpt lat="43.4421583" lon="11.5424233"><ele>588.3333333333333</ele><time>2026-04-17T09:02:02.137Z</time></trkpt><trkpt lat="43.4422033" lon="11.54253"><ele>586.1666666666666</ele><time>2026-04-17T09:02:03.137Z</time></trkpt><trkpt lat="43.442245" lon="11.5426317"><ele>584.0</ele><time>2026-04-17T09:02:04.138Z</time></trkpt><trkpt lat="43.442285" lon="11.5427317"><ele>584.0</ele><time>2026-04-17T09:02:05.135Z</time></trkpt><trkpt lat="43.442315" lon="11.5428267"><ele>584.0</ele><time>2026-04-17T09:02:06.137Z</time></trkpt><trkpt lat="43.4423333" lon="11.5429217"><ele>584.0</ele><time>2026-04-17T09:02:07.134Z</time></trkpt><trkpt lat="43.4423367" lon="11.5430217"><ele>584.0</ele><time>2026-04-17T09:02:08.136Z</time></trkpt><trkpt lat="43.4423133" lon="11.543125"><ele>584.0</ele><time>2026-04-17T09:02:09.138Z</time></trkpt><trkpt lat="43.4422783" lon="11.5432567"><ele>584.0</ele><time>2026-04-17T09:02:10.137Z</time></trkpt><trkpt lat="43.442255" lon="11.543405"><ele>584.4</ele><time>2026-04-17T09:02:11.137Z</time></trkpt><trkpt lat="43.4422417" lon="11.5435483"><ele>584.8</ele><time>2026-04-17T09:02:12.137Z</time></trkpt><trkpt lat="43.44224" lon="11.543675"><ele>585.2</ele><time>2026-04-17T09:02:13.135Z</time></trkpt><trkpt lat="43.4422617" lon="11.5437967"><ele>585.6</ele><time>2026-04-17T09:02:14.136Z</time></trkpt><trkpt lat="43.44229" lon="11.5439117"><ele>586.0</ele><time>2026-04-17T09:02:15.137Z</time></trkpt><trkpt lat="43.442315" lon="11.5440267"><ele>586.6666666666667</ele><time>2026-04-17T09:02:16.136Z</time></trkpt><trkpt lat="43.4423333" lon="11.5441467"><ele>587.3333333333334</ele><time>2026-04-17T09:02:17.136Z</time></trkpt><trkpt lat="43.4423517" lon="11.5442633"><ele>588.0</ele><time>2026-04-17T09:02:18.137Z</time></trkpt><trkpt lat="43.4423733" lon="11.5443717"><ele>588.6666666666666</ele><time>2026-04-17T09:02:19.138Z</time></trkpt><trkpt lat="43.4424067" lon="11.5444683"><ele>589.3333333333333</ele><time>2026-04-17T09:02:20.136Z</time></trkpt><trkpt lat="43.442455" lon="11.5445683"><ele>590.0</ele><time>2026-04-17T09:02:21.138Z</time></trkpt><trkpt lat="43.442505" lon="11.5446717"><ele>592.2</ele><time>2026-04-17T09:02:22.137Z</time></trkpt><trkpt lat="43.4425617" lon="11.5447883"><ele>594.4</ele><time>2026-04-17T09:02:23.136Z</time></trkpt><trkpt lat="43.4426233" lon="11.5449167"><ele>596.6</ele><time>2026-04-17T09:02:24.137Z</time></trkpt><trkpt lat="43.4426817" lon="11.5450433"><ele>598.8</ele><time>2026-04-17T09:02:25.138Z</time></trkpt><trkpt lat="43.4427333" lon="11.5451817"><ele>601.0</ele><time>2026-04-17T09:02:26.138Z</time></trkpt><trkpt lat="43.4427817" lon="11.545325"><ele>603.0</ele><time>2026-04-17T09:02:27.136Z</time></trkpt><trkpt lat="43.4428267" lon="11.5454633"><ele>605.0</ele><time>2026-04-17T09:02:28.136Z</time></trkpt><trkpt lat="43.442865" lon="11.5456083"><ele>607.0</ele><time>2026-04-17T09:02:29.137Z</time></trkpt><trkpt lat="43.44289" lon="11.5457517"><ele>609.0</ele><time>2026-04-17T09:02:30.137Z</time></trkpt><trkpt lat="43.4429" lon="11.5458817"><ele>611.0</ele><time>2026-04-17T09:02:31.138Z</time></trkpt><trkpt lat="43.4428883" lon="11.5459983"><ele>611.0</ele><time>2026-04-17T09:02:32.138Z</time></trkpt><trkpt lat="43.4428533" lon="11.5461067"><ele>611.0</ele><time>2026-04-17T09:02:33.138Z</time></trkpt><trkpt lat="43.4427933" lon="11.54619"><ele>611.0</ele><time>2026-04-17T09:02:34.139Z</time></trkpt><trkpt lat="43.4427233" lon="11.5462633"><ele>611.0</ele><time>2026-04-17T09:02:35.137Z</time></trkpt><trkpt lat="43.4426517" lon="11.5463167"><ele>611.0</ele><time>2026-04-17T09:02:36.138Z</time></trkpt><trkpt lat="43.442585" lon="11.5463633"><ele>611.0</ele><time>2026-04-17T09:02:37.137Z</time></trkpt><trkpt lat="43.4425067" lon="11.5464217"><ele>609.0</ele><time>2026-04-17T09:02:38.138Z</time></trkpt><trkpt lat="43.4424267" lon="11.5464983"><ele>607.0</ele><time>2026-04-17T09:02:39.137Z</time></trkpt><trkpt lat="43.44236" lon="11.5465983"><ele>605.0</ele><time>2026-04-17T09:02:40.138Z</time></trkpt><trkpt lat="43.4423033" lon="11.5467033"><ele>603.0</ele><time>2026-04-17T09:02:41.136Z</time></trkpt><trkpt lat="43.4422467" lon="11.54682"><ele>601.0</ele><time>2026-04-17T09:02:42.137Z</time></trkpt><trkpt lat="43.4422067" lon="11.5469467"><ele>599.2</ele><time>2026-04-17T09:02:43.138Z</time></trkpt><trkpt lat="43.44218" lon="11.5470917"><ele>597.4000000000001</ele><time>2026-04-17T09:02:44.138Z</time></trkpt><trkpt lat="43.4421617" lon="11.5472367"><ele>595.6</ele><time>2026-04-17T09:02:45.137Z</time></trkpt><trkpt lat="43.442155" lon="11.547375"><ele>593.8000000000001</ele><time>2026-04-17T09:02:46.14Z</time></trkpt><trkpt lat="43.442175" lon="11.5475033"><ele>592.0</ele><time>2026-04-17T09:02:47.137Z</time></trkpt><trkpt lat="43.4422167" lon="11.5476267"><ele>592.0</ele><time>2026-04-17T09:02:48.138Z</time></trkpt><trkpt lat="43.442255" lon="11.5477567"><ele>592.0</ele><time>2026-04-17T09:02:49.137Z</time></trkpt><trkpt lat="43.4422833" lon="11.5478917"><ele>592.0</ele><time>2026-04-17T09:02:50.136Z</time></trkpt><trkpt lat="43.4422983" lon="11.548035"><ele>592.0</ele><time>2026-04-17T09:02:51.136Z</time></trkpt><trkpt lat="43.4423067" lon="11.54818"><ele>592.0</ele><time>2026-04-17T09:02:52.138Z</time></trkpt><trkpt lat="43.4423117" lon="11.548335"><ele>592.0</ele><time>2026-04-17T09:02:53.137Z</time></trkpt><trkpt lat="43.44231" lon="11.54849"><ele>592.0</ele><time>2026-04-17T09:02:54.138Z</time></trkpt><trkpt lat="43.4423083" lon="11.54864"><ele>592.0</ele><time>2026-04-17T09:02:55.137Z</time></trkpt><trkpt lat="43.4423067" lon="11.5488"><ele>592.0</ele><time>2026-04-17T09:02:56.137Z</time></trkpt><trkpt lat="43.442305" lon="11.548975"><ele>592.0</ele><time>2026-04-17T09:02:57.138Z</time></trkpt><trkpt lat="43.4423033" lon="11.5491517"><ele>592.0</ele><time>2026-04-17T09:02:58.137Z</time></trkpt><trkpt lat="43.442305" lon="11.54931"><ele>592.0</ele><time>2026-04-17T09:02:59.136Z</time></trkpt><trkpt lat="43.4423" lon="11.5494567"><ele>592.0</ele><time>2026-04-17T09:03:00.139Z</time></trkpt><trkpt lat="43.4422783" lon="11.5496083"><ele>592.0</ele><time>2026-04-17T09:03:01.138Z</time></trkpt><trkpt lat="43.4422333" lon="11.5497383"><ele>592.0</ele><time>2026-04-17T09:03:02.138Z</time></trkpt><trkpt lat="43.4421833" lon="11.549865"><ele>592.0</ele><time>2026-04-17T09:03:03.138Z</time></trkpt><trkpt lat="43.4421417" lon="11.5499733"><ele>592.0</ele><time>2026-04-17T09:03:04.137Z</time></trkpt><trkpt lat="43.4421267" lon="11.55008"><ele>592.0</ele><time>2026-04-17T09:03:05.136Z</time></trkpt><trkpt lat="43.4421333" lon="11.55019"><ele>592.0</ele><time>2026-04-17T09:03:06.137Z</time></trkpt><trkpt lat="43.4421833" lon="11.550315"><ele>592.0</ele><time>2026-04-17T09:03:07.139Z</time></trkpt><trkpt lat="43.4422533" lon="11.5504667"><ele>592.0</ele><time>2026-04-17T09:03:08.139Z</time></trkpt><trkpt lat="43.442325" lon="11.55063"><ele>592.0</ele><time>2026-04-17T09:03:09.138Z</time></trkpt><trkpt lat="43.4423783" lon="11.5507817"><ele>592.6</ele><time>2026-04-17T09:03:10.14Z</time></trkpt><trkpt lat="43.4424317" lon="11.55091"><ele>593.2</ele><time>2026-04-17T09:03:11.138Z</time></trkpt><trkpt lat="43.442505" lon="11.5510267"><ele>593.8</ele><time>2026-04-17T09:03:12.136Z</time></trkpt><trkpt lat="43.4425883" lon="11.5511233"><ele>594.4</ele><time>2026-04-17T09:03:13.137Z</time></trkpt><trkpt lat="43.44267" lon="11.5512083"><ele>595.0</ele><time>2026-04-17T09:03:14.136Z</time></trkpt><trkpt lat="43.4427367" lon="11.5513"><ele>595.0</ele><time>2026-04-17T09:03:15.137Z</time></trkpt><trkpt lat="43.4427917" lon="11.5513983"><ele>595.0</ele><time>2026-04-17T09:03:16.136Z</time></trkpt><trkpt lat="43.4428383" lon="11.5515217"><ele>595.0</ele><time>2026-04-17T09:03:17.136Z</time></trkpt><trkpt lat="43.4428883" lon="11.5516433"><ele>595.0</ele><time>2026-04-17T09:03:18.138Z</time></trkpt><trkpt lat="43.4429583" lon="11.5517533"><ele>595.0</ele><time>2026-04-17T09:03:19.137Z</time></trkpt><trkpt lat="43.4430367" lon="11.5518683"><ele>594.5</ele><time>2026-04-17T09:03:20.137Z</time></trkpt><trkpt lat="43.443105" lon="11.551985"><ele>594.0</ele><time>2026-04-17T09:03:21.139Z</time></trkpt><trkpt lat="43.44317" lon="11.55213"><ele>593.5</ele><time>2026-04-17T09:03:22.137Z</time></trkpt><trkpt lat="43.4432317" lon="11.5522833"><ele>593.0</ele><time>2026-04-17T09:03:23.136Z</time></trkpt><trkpt lat="43.4432917" lon="11.5524333"><ele>593.0</ele><time>2026-04-17T09:03:24.137Z</time></trkpt><trkpt lat="43.4433483" lon="11.55258"><ele>593.0</ele><time>2026-04-17T09:03:25.138Z</time></trkpt><trkpt lat="43.4433967" lon="11.5527333"><ele>593.0</ele><time>2026-04-17T09:03:26.138Z</time></trkpt><trkpt lat="43.4434483" lon="11.5529"><ele>593.0</ele><time>2026-04-17T09:03:27.137Z</time></trkpt><trkpt lat="43.4435133" lon="11.5530617"><ele>597.75</ele><time>2026-04-17T09:03:28.138Z</time></trkpt><trkpt lat="43.4435683" lon="11.5532117"><ele>602.5</ele><time>2026-04-17T09:03:29.137Z</time></trkpt><trkpt lat="43.44361" lon="11.5533583"><ele>607.25</ele><time>2026-04-17T09:03:30.137Z</time></trkpt><trkpt lat="43.4436467" lon="11.5535067"><ele>612.0</ele><time>2026-04-17T09:03:31.138Z</time></trkpt><trkpt lat="43.443675" lon="11.5536533"><ele>614.0</ele><time>2026-04-17T09:03:32.137Z</time></trkpt><trkpt lat="43.443705" lon="11.5537817"><ele>616.0</ele><time>2026-04-17T09:03:33.137Z</time></trkpt><trkpt lat="43.443745" lon="11.5539117"><ele>618.0</ele><time>2026-04-17T09:03:34.137Z</time></trkpt><trkpt lat="43.4437933" lon="11.554055"><ele>620.0</ele><time>2026-04-17T09:03:35.135Z</time></trkpt><trkpt lat="43.4438483" lon="11.554215"><ele>622.0</ele><time>2026-04-17T09:03:36.137Z</time></trkpt><trkpt lat="43.4439067" lon="11.55438"><ele>616.5</ele><time>2026-04-17T09:03:37.138Z</time></trkpt><trkpt lat="43.4439767" lon="11.554545"><ele>611.0</ele><time>2026-04-17T09:03:38.136Z</time></trkpt><trkpt lat="43.4440517" lon="11.5547167"><ele>605.5</ele><time>2026-04-17T09:03:39.138Z</time></trkpt><trkpt lat="43.4441267" lon="11.5548783"><ele>600.0</ele><time>2026-04-17T09:03:40.133Z</time></trkpt><trkpt lat="43.444195" lon="11.5550283"><ele>600.0</ele><time>2026-04-17T09:03:41.136Z</time></trkpt><trkpt lat="43.4442583" lon="11.55517"><ele>600.0</ele><time>2026-04-17T09:03:42.136Z</time></trkpt><trkpt lat="43.44432" lon="11.5553033"><ele>600.0</ele><time>2026-04-17T09:03:43.137Z</time></trkpt><trkpt lat="43.4443933" lon="11.5554383"><ele>600.0</ele><time>2026-04-17T09:03:44.137Z</time></trkpt><trkpt lat="43.4444683" lon="11.5555633"><ele>602.0</ele><time>2026-04-17T09:03:45.137Z</time></trkpt><trkpt lat="43.4445217" lon="11.555675"><ele>604.0</ele><time>2026-04-17T09:03:46.136Z</time></trkpt><trkpt lat="43.4445567" lon="11.55578"><ele>606.0</ele><time>2026-04-17T09:03:47.135Z</time></trkpt><trkpt lat="43.444575" lon="11.5558933"><ele>608.0</ele><time>2026-04-17T09:03:48.137Z</time></trkpt><trkpt lat="43.444575" lon="11.5560383"><ele>610.0</ele><time>2026-04-17T09:03:49.136Z</time></trkpt><trkpt lat="43.4445617" lon="11.5562167"><ele>610.75</ele><time>2026-04-17T09:03:50.137Z</time></trkpt><trkpt lat="43.44454" lon="11.5563817"><ele>611.5</ele><time>2026-04-17T09:03:51.137Z</time></trkpt><trkpt lat="43.444505" lon="11.5565417"><ele>612.25</ele><time>2026-04-17T09:03:52.138Z</time></trkpt><trkpt lat="43.4444533" lon="11.5567083"><ele>613.0</ele><time>2026-04-17T09:03:53.136Z</time></trkpt><trkpt lat="43.4443817" lon="11.5568283"><ele>613.0</ele><time>2026-04-17T09:03:54.137Z</time></trkpt><trkpt lat="43.44431" lon="11.5569083"><ele>613.0</ele><time>2026-04-17T09:03:55.138Z</time></trkpt><trkpt lat="43.4442367" lon="11.55696"><ele>613.0</ele><time>2026-04-17T09:03:56.139Z</time></trkpt><trkpt lat="43.4441683" lon="11.5570167"><ele>613.0</ele><time>2026-04-17T09:03:57.137Z</time></trkpt><trkpt lat="43.4440817" lon="11.55708"><ele>613.0</ele><time>2026-04-17T09:03:58.136Z</time></trkpt><trkpt lat="43.443975" lon="11.55712"><ele>611.0</ele><time>2026-04-17T09:03:59.137Z</time></trkpt><trkpt lat="43.4438667" lon="11.5571617"><ele>609.0</ele><time>2026-04-17T09:04:00.139Z</time></trkpt><trkpt lat="43.443755" lon="11.55722"><ele>607.0</ele><time>2026-04-17T09:04:01.136Z</time></trkpt><trkpt lat="43.4436467" lon="11.5572833"><ele>605.0</ele><time>2026-04-17T09:04:02.14Z</time></trkpt><trkpt lat="43.4435533" lon="11.5573533"><ele>604.8</ele><time>2026-04-17T09:04:03.137Z</time></trkpt><trkpt lat="43.443465" lon="11.557455"><ele>604.6</ele><time>2026-04-17T09:04:04.136Z</time></trkpt><trkpt lat="43.44339" lon="11.557575"><ele>604.4</ele><time>2026-04-17T09:04:05.136Z</time></trkpt><trkpt lat="43.44334" lon="11.5576933"><ele>604.2</ele><time>2026-04-17T09:04:06.137Z</time></trkpt><trkpt lat="43.4433133" lon="11.55782"><ele>604.0</ele><time>2026-04-17T09:04:07.14Z</time></trkpt><trkpt lat="43.4433167" lon="11.5579533"><ele>603.4</ele><time>2026-04-17T09:04:08.138Z</time></trkpt><trkpt lat="43.443335" lon="11.5580883"><ele>602.8</ele><time>2026-04-17T09:04:09.137Z</time></trkpt><trkpt lat="43.44336" lon="11.5581933"><ele>602.2</ele><time>2026-04-17T09:04:10.138Z</time></trkpt><trkpt lat="43.4432883" lon="11.5582767"><ele>601.6</ele><time>2026-04-17T09:04:13.136Z</time></trkpt><trkpt lat="43.4431983" lon="11.5582783"><ele>601.0</ele><time>2026-04-17T09:04:14.133Z</time></trkpt><trkpt lat="43.4430983" lon="11.5582833"><ele>601.0</ele><time>2026-04-17T09:04:15.137Z</time></trkpt><trkpt lat="43.4429867" lon="11.558305"><ele>601.0</ele><time>2026-04-17T09:04:16.137Z</time></trkpt><trkpt lat="43.4428717" lon="11.558345"><ele>601.0</ele><time>2026-04-17T09:04:17.136Z</time></trkpt><trkpt lat="43.4427567" lon="11.55839"><ele>601.0</ele><time>2026-04-17T09:04:18.136Z</time></trkpt><trkpt lat="43.4426483" lon="11.5584483"><ele>601.25</ele><time>2026-04-17T09:04:19.138Z</time></trkpt><trkpt lat="43.4425367" lon="11.5585167"><ele>601.5</ele><time>2026-04-17T09:04:20.138Z</time></trkpt><trkpt lat="43.4424233" lon="11.55859"><ele>601.75</ele><time>2026-04-17T09:04:21.14Z</time></trkpt><trkpt lat="43.4423" lon="11.5586633"><ele>602.0</ele><time>2026-04-17T09:04:22.138Z</time></trkpt><trkpt lat="43.4421733" lon="11.5587283"><ele>600.5</ele><time>2026-04-17T09:04:23.137Z</time></trkpt><trkpt lat="43.4420333" lon="11.5587867"><ele>599.0</ele><time>2026-04-17T09:04:24.137Z</time></trkpt><trkpt lat="43.44189" lon="11.5588467"><ele>597.5</ele><time>2026-04-17T09:04:25.136Z</time></trkpt><trkpt lat="43.4417633" lon="11.558905"><ele>596.0</ele><time>2026-04-17T09:04:26.136Z</time></trkpt><trkpt lat="43.4416583" lon="11.55897"><ele>596.0</ele><time>2026-04-17T09:04:27.138Z</time></trkpt><trkpt lat="43.4415733" lon="11.5590383"><ele>596.0</ele><time>2026-04-17T09:04:28.136Z</time></trkpt><trkpt lat="43.441495" lon="11.5591183"><ele>596.0</ele><time>2026-04-17T09:04:29.136Z</time></trkpt><trkpt lat="43.4414233" lon="11.55922"><ele>596.0</ele><time>2026-04-17T09:04:30.135Z</time></trkpt><trkpt lat="43.4413617" lon="11.559345"><ele>596.0</ele><time>2026-04-17T09:04:31.139Z</time></trkpt><trkpt lat="43.4413083" lon="11.5594733"><ele>594.0</ele><time>2026-04-17T09:04:32.137Z</time></trkpt><trkpt lat="43.4412567" lon="11.559605"><ele>592.0</ele><time>2026-04-17T09:04:33.138Z</time></trkpt><trkpt lat="43.4412033" lon="11.559735"><ele>590.0</ele><time>2026-04-17T09:04:34.138Z</time></trkpt><trkpt lat="43.4411533" lon="11.5598733"><ele>588.0</ele><time>2026-04-17T09:04:35.136Z</time></trkpt><trkpt lat="43.4411033" lon="11.5600283"><ele>588.0</ele><time>2026-04-17T09:04:36.137Z</time></trkpt><trkpt lat="43.4410567" lon="11.56018"><ele>588.0</ele><time>2026-04-17T09:04:37.137Z</time></trkpt><trkpt lat="43.441015" lon="11.5603183"><ele>588.0</ele><time>2026-04-17T09:04:38.136Z</time></trkpt><trkpt lat="43.440985" lon="11.5604517"><ele>588.0</ele><time>2026-04-17T09:04:39.138Z</time></trkpt><trkpt lat="43.440975" lon="11.560585"><ele>588.0</ele><time>2026-04-17T09:04:40.131Z</time></trkpt><trkpt lat="43.44097" lon="11.560715"><ele>588.7142857142857</ele><time>2026-04-17T09:04:41.137Z</time></trkpt><trkpt lat="43.44096" lon="11.5608233"><ele>589.4285714285714</ele><time>2026-04-17T09:04:42.137Z</time></trkpt><trkpt lat="43.440935" lon="11.560905"><ele>590.1428571428571</ele><time>2026-04-17T09:04:43.136Z</time></trkpt><trkpt lat="43.440895" lon="11.5609817"><ele>590.8571428571429</ele><time>2026-04-17T09:04:44.137Z</time></trkpt><trkpt lat="43.4408367" lon="11.5610233"><ele>591.5714285714286</ele><time>2026-04-17T09:04:45.137Z</time></trkpt><trkpt lat="43.440765" lon="11.5610483"><ele>592.2857142857142</ele><time>2026-04-17T09:04:46.136Z</time></trkpt><trkpt lat="43.44068" lon="11.5610433"><ele>593.0</ele><time>2026-04-17T09:04:47.136Z</time></trkpt><trkpt lat="43.44059" lon="11.56102"><ele>593.0</ele><time>2026-04-17T09:04:48.138Z</time></trkpt><trkpt lat="43.4405133" lon="11.5609783"><ele>593.0</ele><time>2026-04-17T09:04:49.135Z</time></trkpt><trkpt lat="43.4404283" lon="11.5608967"><ele>593.0</ele><time>2026-04-17T09:04:50.137Z</time></trkpt><trkpt lat="43.4403433" lon="11.5607967"><ele>593.0</ele><time>2026-04-17T09:04:51.139Z</time></trkpt><trkpt lat="43.4402717" lon="11.560695"><ele>593.0</ele><time>2026-04-17T09:04:52.137Z</time></trkpt><trkpt lat="43.4402083" lon="11.5605883"><ele>593.6</ele><time>2026-04-17T09:04:53.136Z</time></trkpt><trkpt lat="43.44015" lon="11.56048"><ele>594.1999999999999</ele><time>2026-04-17T09:04:54.138Z</time></trkpt><trkpt lat="43.4400867" lon="11.560385"><ele>594.8</ele><time>2026-04-17T09:04:55.134Z</time></trkpt><trkpt lat="43.44001" lon="11.5603083"><ele>595.4</ele><time>2026-04-17T09:04:56.139Z</time></trkpt><trkpt lat="43.4399233" lon="11.5602467"><ele>596.0</ele><time>2026-04-17T09:04:57.138Z</time></trkpt><trkpt lat="43.4398333" lon="11.5601833"><ele>596.0</ele><time>2026-04-17T09:04:58.134Z</time></trkpt><trkpt lat="43.4397517" lon="11.5600883"><ele>596.0</ele><time>2026-04-17T09:04:59.135Z</time></trkpt><trkpt lat="43.4396817" lon="11.55998"><ele>596.0</ele><time>2026-04-17T09:05:00.135Z</time></trkpt><trkpt lat="43.43963" lon="11.5598633"><ele>596.0</ele><time>2026-04-17T09:05:01.137Z</time></trkpt><trkpt lat="43.4395833" lon="11.55974"><ele>596.0</ele><time>2026-04-17T09:05:02.142Z</time></trkpt><trkpt lat="43.4395433" lon="11.5596333"><ele>599.0</ele><time>2026-04-17T09:05:03.138Z</time></trkpt><trkpt lat="43.439495" lon="11.5595367"><ele>602.0</ele><time>2026-04-17T09:05:04.136Z</time></trkpt><trkpt lat="43.43944" lon="11.5594483"><ele>605.0</ele><time>2026-04-17T09:05:05.134Z</time></trkpt><trkpt lat="43.4393733" lon="11.5593683"><ele>608.0</ele><time>2026-04-17T09:05:06.139Z</time></trkpt><trkpt lat="43.4392967" lon="11.5593033"><ele>611.0</ele><time>2026-04-17T09:05:07.136Z</time></trkpt><trkpt lat="43.439225" lon="11.5592483"><ele>614.0</ele><time>2026-04-17T09:05:08.136Z</time></trkpt><trkpt lat="43.43917" lon="11.5591967"><ele>614.1666666666666</ele><time>2026-04-17T09:05:09.137Z</time></trkpt><trkpt lat="43.4391183" lon="11.5591467"><ele>614.3333333333333</ele><time>2026-04-17T09:05:10.135Z</time></trkpt><trkpt lat="43.4390133" lon="11.5590883"><ele>614.5</ele><time>2026-04-17T09:05:12.137Z</time></trkpt><trkpt lat="43.4389083" lon="11.5591267"><ele>614.6666666666666</ele><time>2026-04-17T09:05:14.138Z</time></trkpt><trkpt lat="43.438845" lon="11.559145"><ele>614.8333333333334</ele><time>2026-04-17T09:05:15.139Z</time></trkpt><trkpt lat="43.4387683" lon="11.5591367"><ele>615.0</ele><time>2026-04-17T09:05:16.133Z</time></trkpt><trkpt lat="43.4386867" lon="11.559105"><ele>613.8333333333334</ele><time>2026-04-17T09:05:17.132Z</time></trkpt><trkpt lat="43.4386083" lon="11.5590617"><ele>612.6666666666666</ele><time>2026-04-17T09:05:18.136Z</time></trkpt><trkpt lat="43.4385333" lon="11.5590217"><ele>611.5</ele><time>2026-04-17T09:05:19.131Z</time></trkpt><trkpt lat="43.43845" lon="11.558985"><ele>610.3333333333333</ele><time>2026-04-17T09:05:20.138Z</time></trkpt><trkpt lat="43.4383633" lon="11.5589617"><ele>609.1666666666666</ele><time>2026-04-17T09:05:21.139Z</time></trkpt><trkpt lat="43.43827" lon="11.5589367"><ele>608.0</ele><time>2026-04-17T09:05:22.136Z</time></trkpt><trkpt lat="43.438185" lon="11.558895"><ele>608.0</ele><time>2026-04-17T09:05:23.136Z</time></trkpt><trkpt lat="43.4381017" lon="11.5588483"><ele>608.0</ele><time>2026-04-17T09:05:24.136Z</time></trkpt><trkpt lat="43.4380133" lon="11.5588017"><ele>608.0</ele><time>2026-04-17T09:05:25.136Z</time></trkpt><trkpt lat="43.4379183" lon="11.5587517"><ele>608.0</ele><time>2026-04-17T09:05:26.137Z</time></trkpt><trkpt lat="43.4378333" lon="11.558715"><ele>608.0</ele><time>2026-04-17T09:05:27.138Z</time></trkpt><trkpt lat="43.43776" lon="11.558675"><ele>607.8333333333333</ele><time>2026-04-17T09:05:28.134Z</time></trkpt><trkpt lat="43.4376933" lon="11.5586233"><ele>607.6666666666666</ele><time>2026-04-17T09:05:29.135Z</time></trkpt><trkpt lat="43.43764" lon="11.558565"><ele>607.5</ele><time>2026-04-17T09:05:30.133Z</time></trkpt><trkpt lat="43.43756" lon="11.5585"><ele>607.3333333333334</ele><time>2026-04-17T09:05:32.133Z</time></trkpt><trkpt lat="43.43745" lon="11.558555"><ele>607.1666666666667</ele><time>2026-04-17T09:05:35.135Z</time></trkpt><trkpt lat="43.4373933" lon="11.5586233"><ele>607.0</ele><time>2026-04-17T09:05:36.137Z</time></trkpt><trkpt lat="43.4373133" lon="11.5587067"><ele>606.3333333333334</ele><time>2026-04-17T09:05:37.142Z</time></trkpt><trkpt lat="43.4372317" lon="11.55879"><ele>605.6666666666667</ele><time>2026-04-17T09:05:38.137Z</time></trkpt><trkpt lat="43.4371517" lon="11.5588733"><ele>605.0</ele><time>2026-04-17T09:05:39.137Z</time></trkpt><trkpt lat="43.437085" lon="11.5589483"><ele>604.3333333333334</ele><time>2026-04-17T09:05:40.139Z</time></trkpt><trkpt lat="43.4370233" lon="11.559005"><ele>603.6666666666666</ele><time>2026-04-17T09:05:41.136Z</time></trkpt><trkpt lat="43.436965" lon="11.5590583"><ele>603.0</ele><time>2026-04-17T09:05:42.133Z</time></trkpt><trkpt lat="43.4368733" lon="11.5591767"><ele>603.0</ele><time>2026-04-17T09:05:44.137Z</time></trkpt><trkpt lat="43.4368217" lon="11.5592433"><ele>603.0</ele><time>2026-04-17T09:05:45.139Z</time></trkpt><trkpt lat="43.4367583" lon="11.5593083"><ele>603.0</ele><time>2026-04-17T09:05:46.136Z</time></trkpt><trkpt lat="43.436695" lon="11.5593617"><ele>603.0</ele><time>2026-04-17T09:05:47.132Z</time></trkpt><trkpt lat="43.4366283" lon="11.5594017"><ele>603.0</ele><time>2026-04-17T09:05:48.143Z</time></trkpt><trkpt lat="43.4365533" lon="11.5594233"><ele>603.0</ele><time>2026-04-17T09:05:49.137Z</time></trkpt><trkpt lat="43.4364867" lon="11.5594217"><ele>603.0</ele><time>2026-04-17T09:05:50.138Z</time></trkpt><trkpt lat="43.4364183" lon="11.5593933"><ele>603.0</ele><time>2026-04-17T09:05:51.139Z</time></trkpt><trkpt lat="43.4363383" lon="11.55935"><ele>603.0</ele><time>2026-04-17T09:05:52.132Z</time></trkpt><trkpt lat="43.4362617" lon="11.55929"><ele>603.0</ele><time>2026-04-17T09:05:53.134Z</time></trkpt><trkpt lat="43.4361867" lon="11.5592217"><ele>603.0</ele><time>2026-04-17T09:05:54.136Z</time></trkpt><trkpt lat="43.436045" lon="11.559095"><ele>603.0</ele><time>2026-04-17T09:05:56.14Z</time></trkpt><trkpt lat="43.4359767" lon="11.5590383"><ele>602.75</ele><time>2026-04-17T09:05:57.133Z</time></trkpt><trkpt lat="43.4359" lon="11.558945"><ele>602.5</ele><time>2026-04-17T09:05:59.138Z</time></trkpt><trkpt lat="43.4358517" lon="11.5590633"><ele>602.25</ele><time>2026-04-17T09:06:03.138Z</time></trkpt><trkpt lat="43.435855" lon="11.5592783"><ele>602.0</ele><time>2026-04-17T09:06:05.133Z</time></trkpt><trkpt lat="43.4358367" lon="11.5594333"><ele>601.0</ele><time>2026-04-17T09:06:06.139Z</time></trkpt><trkpt lat="43.435815" lon="11.5596117"><ele>600.0</ele><time>2026-04-17T09:06:07.138Z</time></trkpt><trkpt lat="43.4357983" lon="11.5597467"><ele>599.0</ele><time>2026-04-17T09:06:08.139Z</time></trkpt><trkpt lat="43.4357633" lon="11.5598367"><ele>598.0</ele><time>2026-04-17T09:06:09.139Z</time></trkpt><trkpt lat="43.43572" lon="11.559925"><ele>597.0</ele><time>2026-04-17T09:06:10.139Z</time></trkpt><trkpt lat="43.4356617" lon="11.5599983"><ele>597.0</ele><time>2026-04-17T09:06:11.138Z</time></trkpt><trkpt lat="43.4356033" lon="11.56005"><ele>597.0</ele><time>2026-04-17T09:06:12.139Z</time></trkpt><trkpt lat="43.43554" lon="11.560105"><ele>597.0</ele><time>2026-04-17T09:06:13.138Z</time></trkpt><trkpt lat="43.4354767" lon="11.560175"><ele>597.0</ele><time>2026-04-17T09:06:14.139Z</time></trkpt><trkpt lat="43.435445" lon="11.560265"><ele>597.0</ele><time>2026-04-17T09:06:15.139Z</time></trkpt><trkpt lat="43.435415" lon="11.56036"><ele>597.0</ele><time>2026-04-17T09:06:16.137Z</time></trkpt><trkpt lat="43.4353933" lon="11.56048"><ele>601.6</ele><time>2026-04-17T09:06:17.137Z</time></trkpt><trkpt lat="43.4353883" lon="11.5606167"><ele>606.2</ele><time>2026-04-17T09:06:18.138Z</time></trkpt><trkpt lat="43.4353617" lon="11.5607467"><ele>610.8</ele><time>2026-04-17T09:06:19.141Z</time></trkpt><trkpt lat="43.4353433" lon="11.5608767"><ele>615.4</ele><time>2026-04-17T09:06:20.138Z</time></trkpt><trkpt lat="43.4353167" lon="11.5610017"><ele>620.0</ele><time>2026-04-17T09:06:21.139Z</time></trkpt><trkpt lat="43.4352833" lon="11.5611067"><ele>617.8333333333333</ele><time>2026-04-17T09:06:22.138Z</time></trkpt><trkpt lat="43.435245" lon="11.5612017"><ele>615.6666666666666</ele><time>2026-04-17T09:06:23.143Z</time></trkpt><trkpt lat="43.4351917" lon="11.5612933"><ele>613.5</ele><time>2026-04-17T09:06:24.137Z</time></trkpt><trkpt lat="43.4351167" lon="11.56136"><ele>611.3333333333334</ele><time>2026-04-17T09:06:25.132Z</time></trkpt><trkpt lat="43.4350383" lon="11.5614233"><ele>609.1666666666667</ele><time>2026-04-17T09:06:26.136Z</time></trkpt><trkpt lat="43.434965" lon="11.5614783"><ele>607.0</ele><time>2026-04-17T09:06:27.138Z</time></trkpt><trkpt lat="43.4348767" lon="11.56152"><ele>607.0</ele><time>2026-04-17T09:06:28.137Z</time></trkpt><trkpt lat="43.4347883" lon="11.56155"><ele>607.0</ele><time>2026-04-17T09:06:29.137Z</time></trkpt><trkpt lat="43.43469" lon="11.5615617"><ele>607.0</ele><time>2026-04-17T09:06:30.137Z</time></trkpt><trkpt lat="43.434585" lon="11.56156"><ele>607.0</ele><time>2026-04-17T09:06:31.137Z</time></trkpt><trkpt lat="43.4344833" lon="11.5615717"><ele>607.0</ele><time>2026-04-17T09:06:32.137Z</time></trkpt><trkpt lat="43.43438" lon="11.5615933"><ele>607.6</ele><time>2026-04-17T09:06:33.138Z</time></trkpt><trkpt lat="43.4342833" lon="11.561615"><ele>608.2</ele><time>2026-04-17T09:06:34.137Z</time></trkpt><trkpt lat="43.4341967" lon="11.5616217"><ele>608.8</ele><time>2026-04-17T09:06:35.136Z</time></trkpt><trkpt lat="43.4341267" lon="11.5616133"><ele>609.4</ele><time>2026-04-17T09:06:36.141Z</time></trkpt><trkpt lat="43.4340233" lon="11.5616333"><ele>610.0</ele><time>2026-04-17T09:06:38.137Z</time></trkpt><trkpt lat="43.4339217" lon="11.56172"><ele>610.0</ele><time>2026-04-17T09:06:40.137Z</time></trkpt><trkpt lat="43.4338233" lon="11.561805"><ele>610.0</ele><time>2026-04-17T09:06:42.138Z</time></trkpt><trkpt lat="43.4337617" lon="11.5619017"><ele>610.0</ele><time>2026-04-17T09:06:44.135Z</time></trkpt><trkpt lat="43.43374" lon="11.56207"><ele>610.0</ele><time>2026-04-17T09:06:46.136Z</time></trkpt><trkpt lat="43.4337283" lon="11.5621767"><ele>610.0</ele><time>2026-04-17T09:06:47.138Z</time></trkpt><trkpt lat="43.4337133" lon="11.56229"><ele>611.0</ele><time>2026-04-17T09:06:48.138Z</time></trkpt><trkpt lat="43.4336867" lon="11.56241"><ele>612.0</ele><time>2026-04-17T09:06:49.133Z</time></trkpt><trkpt lat="43.4336583" lon="11.56253"><ele>613.0</ele><time>2026-04-17T09:06:50.137Z</time></trkpt><trkpt lat="43.433635" lon="11.5626567"><ele>614.0</ele><time>2026-04-17T09:06:51.133Z</time></trkpt><trkpt lat="43.4336133" lon="11.562805"><ele>615.0</ele><time>2026-04-17T09:06:52.138Z</time></trkpt><trkpt lat="43.4335917" lon="11.562965"><ele>615.2</ele><time>2026-04-17T09:06:53.136Z</time></trkpt><trkpt lat="43.43358" lon="11.5631233"><ele>615.4</ele><time>2026-04-17T09:06:54.135Z</time></trkpt><trkpt lat="43.4335767" lon="11.56325"><ele>615.6</ele><time>2026-04-17T09:06:55.136Z</time></trkpt><trkpt lat="43.4335867" lon="11.5633617"><ele>615.8</ele><time>2026-04-17T09:06:56.141Z</time></trkpt><trkpt lat="43.4336117" lon="11.56348"><ele>616.0</ele><time>2026-04-17T09:06:57.138Z</time></trkpt><trkpt lat="43.4336533" lon="11.5635967"><ele>616.6</ele><time>2026-04-17T09:06:58.138Z</time></trkpt><trkpt lat="43.4336933" lon="11.5637117"><ele>617.2</ele><time>2026-04-17T09:06:59.138Z</time></trkpt><trkpt lat="43.43373" lon="11.5638333"><ele>617.8</ele><time>2026-04-17T09:07:00.135Z</time></trkpt><trkpt lat="43.4337483" lon="11.563975"><ele>618.4</ele><time>2026-04-17T09:07:01.138Z</time></trkpt><trkpt lat="43.4337667" lon="11.5641217"><ele>619.0</ele><time>2026-04-17T09:07:02.138Z</time></trkpt><trkpt lat="43.4337817" lon="11.5642583"><ele>619.0</ele><time>2026-04-17T09:07:03.136Z</time></trkpt><trkpt lat="43.4337933" lon="11.5643783"><ele>619.0</ele><time>2026-04-17T09:07:04.138Z</time></trkpt><trkpt lat="43.4338067" lon="11.5644817"><ele>619.0</ele><time>2026-04-17T09:07:05.137Z</time></trkpt><trkpt lat="43.4338167" lon="11.56457"><ele>619.0</ele><time>2026-04-17T09:07:06.136Z</time></trkpt><trkpt lat="43.4337817" lon="11.5647067"><ele>619.0</ele><time>2026-04-17T09:07:08.137Z</time></trkpt><trkpt lat="43.4337267" lon="11.56483"><ele>619.0</ele><time>2026-04-17T09:07:10.137Z</time></trkpt><trkpt lat="43.4336567" lon="11.56493"><ele>617.4</ele><time>2026-04-17T09:07:12.135Z</time></trkpt><trkpt lat="43.4335667" lon="11.56504"><ele>615.8</ele><time>2026-04-17T09:07:20.137Z</time></trkpt><trkpt lat="43.4334983" lon="11.5650933"><ele>614.2</ele><time>2026-04-17T09:07:22.139Z</time></trkpt><trkpt lat="43.4334417" lon="11.56515"><ele>612.6</ele><time>2026-04-17T09:07:24.139Z</time></trkpt><trkpt lat="43.43337" lon="11.5652667"><ele>611.0</ele><time>2026-04-17T09:07:26.14Z</time></trkpt><trkpt lat="43.4333133" lon="11.565405"><ele>607.6666666666666</ele><time>2026-04-17T09:07:28.14Z</time></trkpt><trkpt lat="43.4332633" lon="11.565565"><ele>604.3333333333333</ele><time>2026-04-17T09:07:30.137Z</time></trkpt><trkpt lat="43.4332383" lon="11.5656583"><ele>601.0</ele><time>2026-04-17T09:07:31.138Z</time></trkpt><trkpt lat="43.433205" lon="11.56576"><ele>597.6666666666666</ele><time>2026-04-17T09:07:32.137Z</time></trkpt><trkpt lat="43.43317" lon="11.565865"><ele>594.3333333333334</ele><time>2026-04-17T09:07:33.138Z</time></trkpt><trkpt lat="43.43313" lon="11.565965"><ele>591.0</ele><time>2026-04-17T09:07:34.139Z</time></trkpt><trkpt lat="43.4330867" lon="11.5660667"><ele>591.0</ele><time>2026-04-17T09:07:35.136Z</time></trkpt><trkpt lat="43.4330367" lon="11.5661717"><ele>591.0</ele><time>2026-04-17T09:07:36.136Z</time></trkpt><trkpt lat="43.4329867" lon="11.566275"><ele>591.0</ele><time>2026-04-17T09:07:37.137Z</time></trkpt><trkpt lat="43.4329367" lon="11.566375"><ele>591.0</ele><time>2026-04-17T09:07:38.136Z</time></trkpt><trkpt lat="43.4328867" lon="11.566465"><ele>591.0</ele><time>2026-04-17T09:07:39.137Z</time></trkpt><trkpt lat="43.4328483" lon="11.5665633"><ele>591.0</ele><time>2026-04-17T09:07:40.136Z</time></trkpt><trkpt lat="43.4328283" lon="11.566675"><ele>592.6666666666666</ele><time>2026-04-17T09:07:41.136Z</time></trkpt><trkpt lat="43.432815" lon="11.566785"><ele>594.3333333333334</ele><time>2026-04-17T09:07:42.139Z</time></trkpt><trkpt lat="43.4328033" lon="11.5668867"><ele>596.0</ele><time>2026-04-17T09:07:43.134Z</time></trkpt><trkpt lat="43.432795" lon="11.5669867"><ele>597.6666666666667</ele><time>2026-04-17T09:07:44.133Z</time></trkpt><trkpt lat="43.432785" lon="11.56709"><ele>599.3333333333334</ele><time>2026-04-17T09:07:45.136Z</time></trkpt><trkpt lat="43.432765" lon="11.5672017"><ele>601.0</ele><time>2026-04-17T09:07:46.137Z</time></trkpt><trkpt lat="43.43275" lon="11.567325"><ele>601.6</ele><time>2026-04-17T09:07:47.14Z</time></trkpt><trkpt lat="43.432735" lon="11.5674567"><ele>602.2</ele><time>2026-04-17T09:07:48.135Z</time></trkpt><trkpt lat="43.432725" lon="11.56758"><ele>602.8</ele><time>2026-04-17T09:07:49.139Z</time></trkpt><trkpt lat="43.43271" lon="11.5677017"><ele>603.4</ele><time>2026-04-17T09:07:50.14Z</time></trkpt><trkpt lat="43.4326883" lon="11.5678283"><ele>604.0</ele><time>2026-04-17T09:07:51.141Z</time></trkpt><trkpt lat="43.4326683" lon="11.5679483"><ele>604.5</ele><time>2026-04-17T09:07:52.139Z</time></trkpt><trkpt lat="43.4326517" lon="11.5680633"><ele>605.0</ele><time>2026-04-17T09:07:53.139Z</time></trkpt><trkpt lat="43.4326367" lon="11.5681767"><ele>605.5</ele><time>2026-04-17T09:07:54.133Z</time></trkpt><trkpt lat="43.4326333" lon="11.5683017"><ele>606.0</ele><time>2026-04-17T09:07:55.133Z</time></trkpt><trkpt lat="43.4326333" lon="11.5684217"><ele>606.5</ele><time>2026-04-17T09:07:56.131Z</time></trkpt><trkpt lat="43.4326433" lon="11.56854"><ele>607.0</ele><time>2026-04-17T09:07:57.138Z</time></trkpt><trkpt lat="43.4326467" lon="11.568675"><ele>606.2</ele><time>2026-04-17T09:07:58.137Z</time></trkpt><trkpt lat="43.4326517" lon="11.5688167"><ele>605.4000000000001</ele><time>2026-04-17T09:07:59.137Z</time></trkpt><trkpt lat="43.4326733" lon="11.5689567"><ele>604.5999999999999</ele><time>2026-04-17T09:08:00.136Z</time></trkpt><trkpt lat="43.432705" lon="11.5690867"><ele>603.8</ele><time>2026-04-17T09:08:01.138Z</time></trkpt><trkpt lat="43.4327367" lon="11.569195"><ele>603.0</ele><time>2026-04-17T09:08:02.136Z</time></trkpt><trkpt lat="43.4327567" lon="11.5693267"><ele>603.0</ele><time>2026-04-17T09:08:04.136Z</time></trkpt><trkpt lat="43.432735" lon="11.569465"><ele>603.0</ele><time>2026-04-17T09:08:06.137Z</time></trkpt><trkpt lat="43.4326233" lon="11.56952"><ele>603.0</ele><time>2026-04-17T09:08:08.138Z</time></trkpt><trkpt lat="43.4324967" lon="11.5694733"><ele>603.0</ele><time>2026-04-17T09:08:09.14Z</time></trkpt><trkpt lat="43.4324017" lon="11.5694333"><ele>603.0</ele><time>2026-04-17T09:08:10.135Z</time></trkpt><trkpt lat="43.4323083" lon="11.56938"><ele>603.0</ele><time>2026-04-17T09:08:11.137Z</time></trkpt><trkpt lat="43.4322267" lon="11.569335"><ele>603.0</ele><time>2026-04-17T09:08:12.136Z</time></trkpt><trkpt lat="43.43215" lon="11.5693067"><ele>603.0</ele><time>2026-04-17T09:08:13.137Z</time></trkpt><trkpt lat="43.43209" lon="11.569335"><ele>603.0</ele><time>2026-04-17T09:08:14.136Z</time></trkpt><trkpt lat="43.4320233" lon="11.569375"><ele>603.0</ele><time>2026-04-17T09:08:15.137Z</time></trkpt><trkpt lat="43.4319567" lon="11.569405"><ele>605.4</ele><time>2026-04-17T09:08:16.136Z</time></trkpt><trkpt lat="43.4318717" lon="11.5693633"><ele>607.8</ele><time>2026-04-17T09:08:17.138Z</time></trkpt><trkpt lat="43.4317783" lon="11.5692867"><ele>610.2</ele><time>2026-04-17T09:08:18.136Z</time></trkpt><trkpt lat="43.431685" lon="11.5692"><ele>612.6</ele><time>2026-04-17T09:08:19.136Z</time></trkpt><trkpt lat="43.4315733" lon="11.569115"><ele>615.0</ele><time>2026-04-17T09:08:20.135Z</time></trkpt><trkpt lat="43.4314583" lon="11.56903"><ele>615.0</ele><time>2026-04-17T09:08:21.136Z</time></trkpt><trkpt lat="43.4313567" lon="11.5689517"><ele>615.0</ele><time>2026-04-17T09:08:22.136Z</time></trkpt><trkpt lat="43.43126" lon="11.568895"><ele>615.0</ele><time>2026-04-17T09:08:23.138Z</time></trkpt><trkpt lat="43.4311667" lon="11.5688567"><ele>615.0</ele><time>2026-04-17T09:08:24.136Z</time></trkpt><trkpt lat="43.4310617" lon="11.56885"><ele>615.0</ele><time>2026-04-17T09:08:25.136Z</time></trkpt><trkpt lat="43.430955" lon="11.5688617"><ele>614.2</ele><time>2026-04-17T09:08:26.137Z</time></trkpt><trkpt lat="43.43086" lon="11.5688633"><ele>613.4</ele><time>2026-04-17T09:08:27.137Z</time></trkpt><trkpt lat="43.43077" lon="11.5688383"><ele>612.6</ele><time>2026-04-17T09:08:28.136Z</time></trkpt><trkpt lat="43.4306883" lon="11.5687917"><ele>611.8</ele><time>2026-04-17T09:08:29.137Z</time></trkpt><trkpt lat="43.43061" lon="11.568735"><ele>611.0</ele><time>2026-04-17T09:08:30.137Z</time></trkpt><trkpt lat="43.430525" lon="11.56867"><ele>614.0</ele><time>2026-04-17T09:08:31.137Z</time></trkpt><trkpt lat="43.4304467" lon="11.5686017"><ele>617.0</ele><time>2026-04-17T09:08:32.136Z</time></trkpt><trkpt lat="43.4303717" lon="11.56852"><ele>620.0</ele><time>2026-04-17T09:08:33.137Z</time></trkpt><trkpt lat="43.4303033" lon="11.5684167"><ele>623.0</ele><time>2026-04-17T09:08:34.136Z</time></trkpt><trkpt lat="43.4302383" lon="11.568295"><ele>626.0</ele><time>2026-04-17T09:08:35.138Z</time></trkpt><trkpt lat="43.4301683" lon="11.5681617"><ele>626.0</ele><time>2026-04-17T09:08:36.137Z</time></trkpt><trkpt lat="43.430095" lon="11.5680117"><ele>626.0</ele><time>2026-04-17T09:08:37.138Z</time></trkpt><trkpt lat="43.430025" lon="11.56787"><ele>626.0</ele><time>2026-04-17T09:08:38.137Z</time></trkpt><trkpt lat="43.4299617" lon="11.567735"><ele>626.0</ele><time>2026-04-17T09:08:39.143Z</time></trkpt><trkpt lat="43.429905" lon="11.5676033"><ele>628.0</ele><time>2026-04-17T09:08:40.138Z</time></trkpt><trkpt lat="43.4298533" lon="11.5674733"><ele>630.0</ele><time>2026-04-17T09:08:41.139Z</time></trkpt><trkpt lat="43.4297967" lon="11.5673567"><ele>632.0</ele><time>2026-04-17T09:08:42.136Z</time></trkpt><trkpt lat="43.4297383" lon="11.567245"><ele>634.0</ele><time>2026-04-17T09:08:43.138Z</time></trkpt><trkpt lat="43.42968" lon="11.567135"><ele>636.0</ele><time>2026-04-17T09:08:44.135Z</time></trkpt><trkpt lat="43.4296283" lon="11.567025"><ele>632.0</ele><time>2026-04-17T09:08:45.137Z</time></trkpt><trkpt lat="43.4295883" lon="11.5669083"><ele>628.0</ele><time>2026-04-17T09:08:46.135Z</time></trkpt><trkpt lat="43.4295733" lon="11.5667883"><ele>624.0</ele><time>2026-04-17T09:08:47.136Z</time></trkpt><trkpt lat="43.4295783" lon="11.5666633"><ele>620.0</ele><time>2026-04-17T09:08:48.136Z</time></trkpt><trkpt lat="43.42959" lon="11.5665483"><ele>616.0</ele><time>2026-04-17T09:08:49.137Z</time></trkpt><trkpt lat="43.4295833" lon="11.5664333"><ele>612.0</ele><time>2026-04-17T09:08:50.136Z</time></trkpt><trkpt lat="43.42955" lon="11.5663167"><ele>613.4</ele><time>2026-04-17T09:08:51.138Z</time></trkpt><trkpt lat="43.4294983" lon="11.56619"><ele>614.8000000000001</ele><time>2026-04-17T09:08:52.136Z</time></trkpt><trkpt lat="43.4294483" lon="11.5660667"><ele>616.2</ele><time>2026-04-17T09:08:53.136Z</time></trkpt><trkpt lat="43.4294017" lon="11.56595"><ele>617.6</ele><time>2026-04-17T09:08:54.137Z</time></trkpt><trkpt lat="43.4293533" lon="11.56583"><ele>619.0</ele><time>2026-04-17T09:08:55.136Z</time></trkpt><trkpt lat="43.429305" lon="11.5657133"><ele>619.0</ele><time>2026-04-17T09:08:56.134Z</time></trkpt><trkpt lat="43.4292433" lon="11.5655917"><ele>619.0</ele><time>2026-04-17T09:08:57.137Z</time></trkpt><trkpt lat="43.429175" lon="11.5654717"><ele>619.0</ele><time>2026-04-17T09:08:58.136Z</time></trkpt><trkpt lat="43.4291033" lon="11.5653667"><ele>619.0</ele><time>2026-04-17T09:08:59.136Z</time></trkpt><trkpt lat="43.4290367" lon="11.5652717"><ele>619.0</ele><time>2026-04-17T09:09:00.136Z</time></trkpt><trkpt lat="43.4289867" lon="11.5651833"><ele>619.0</ele><time>2026-04-17T09:09:01.135Z</time></trkpt><trkpt lat="43.42897" lon="11.5650783"><ele>619.0</ele><time>2026-04-17T09:09:03.137Z</time></trkpt><trkpt lat="43.4290767" lon="11.5650483"><ele>619.0</ele><time>2026-04-17T09:09:06.136Z</time></trkpt><trkpt lat="43.4291417" lon="11.5650617"><ele>619.0</ele><time>2026-04-17T09:09:07.137Z</time></trkpt><trkpt lat="43.42922" lon="11.5650817"><ele>619.0</ele><time>2026-04-17T09:09:08.138Z</time></trkpt><trkpt lat="43.429345" lon="11.56513"><ele>619.0</ele><time>2026-04-17T09:09:09.132Z</time></trkpt><trkpt lat="43.4294817" lon="11.5651833"><ele>619.0</ele><time>2026-04-17T09:09:10.137Z</time></trkpt><trkpt lat="43.4296067" lon="11.5652267"><ele>619.0</ele><time>2026-04-17T09:09:11.137Z</time></trkpt><trkpt lat="43.4297133" lon="11.56525"><ele>619.0</ele><time>2026-04-17T09:09:12.135Z</time></trkpt><trkpt lat="43.4298183" lon="11.565255"><ele>619.2</ele><time>2026-04-17T09:09:13.138Z</time></trkpt><trkpt lat="43.42992" lon="11.565245"><ele>619.4</ele><time>2026-04-17T09:09:14.136Z</time></trkpt><trkpt lat="43.43001" lon="11.5652117"><ele>619.6</ele><time>2026-04-17T09:09:15.137Z</time></trkpt><trkpt lat="43.4300833" lon="11.5651483"><ele>619.8</ele><time>2026-04-17T09:09:16.135Z</time></trkpt><trkpt lat="43.4301517" lon="11.5650683"><ele>620.0</ele><time>2026-04-17T09:09:17.137Z</time></trkpt><trkpt lat="43.4302133" lon="11.5649883"><ele>620.0</ele><time>2026-04-17T09:09:18.135Z</time></trkpt><trkpt lat="43.4302733" lon="11.564925"><ele>620.0</ele><time>2026-04-17T09:09:19.136Z</time></trkpt><trkpt lat="43.4303483" lon="11.5648917"><ele>620.0</ele><time>2026-04-17T09:09:20.136Z</time></trkpt><trkpt lat="43.4304417" lon="11.5648867"><ele>620.0</ele><time>2026-04-17T09:09:21.138Z</time></trkpt><trkpt lat="43.4305483" lon="11.564915"><ele>620.0</ele><time>2026-04-17T09:09:22.136Z</time></trkpt><trkpt lat="43.4306517" lon="11.56495"><ele>621.0</ele><time>2026-04-17T09:09:23.136Z</time></trkpt><trkpt lat="43.4307517" lon="11.5649783"><ele>622.0</ele><time>2026-04-17T09:09:24.135Z</time></trkpt><trkpt lat="43.430855" lon="11.5650017"><ele>623.0</ele><time>2026-04-17T09:09:25.137Z</time></trkpt><trkpt lat="43.4309533" lon="11.56502"><ele>624.0</ele><time>2026-04-17T09:09:26.137Z</time></trkpt><trkpt lat="43.4310383" lon="11.565025"><ele>625.0</ele><time>2026-04-17T09:09:27.138Z</time></trkpt><trkpt lat="43.43111" lon="11.5650233"><ele>625.0</ele><time>2026-04-17T09:09:28.142Z</time></trkpt><trkpt lat="43.431185" lon="11.565015"><ele>625.0</ele><time>2026-04-17T09:09:29.138Z</time></trkpt><trkpt lat="43.4312667" lon="11.56497"><ele>625.0</ele><time>2026-04-17T09:09:30.136Z</time></trkpt><trkpt lat="43.4313483" lon="11.564895"><ele>625.0</ele><time>2026-04-17T09:09:31.137Z</time></trkpt><trkpt lat="43.43143" lon="11.5648083"><ele>625.0</ele><time>2026-04-17T09:09:32.137Z</time></trkpt><trkpt lat="43.4315083" lon="11.5647133"><ele>625.4</ele><time>2026-04-17T09:09:33.138Z</time></trkpt><trkpt lat="43.4315883" lon="11.5646183"><ele>625.8</ele><time>2026-04-17T09:09:34.138Z</time></trkpt><trkpt lat="43.4316733" lon="11.5645167"><ele>626.2</ele><time>2026-04-17T09:09:35.136Z</time></trkpt><trkpt lat="43.43175" lon="11.5644133"><ele>626.6</ele><time>2026-04-17T09:09:36.137Z</time></trkpt><trkpt lat="43.4318217" lon="11.5643"><ele>627.0</ele><time>2026-04-17T09:09:37.138Z</time></trkpt><trkpt lat="43.431895" lon="11.56419"><ele>626.0</ele><time>2026-04-17T09:09:38.138Z</time></trkpt><trkpt lat="43.43196" lon="11.5640683"><ele>625.0</ele><time>2026-04-17T09:09:39.139Z</time></trkpt><trkpt lat="43.43202" lon="11.5639317"><ele>624.0</ele><time>2026-04-17T09:09:40.138Z</time></trkpt><trkpt lat="43.4320717" lon="11.563775"><ele>623.0</ele><time>2026-04-17T09:09:41.137Z</time></trkpt><trkpt lat="43.432115" lon="11.5636167"><ele>623.6</ele><time>2026-04-17T09:09:42.138Z</time></trkpt><trkpt lat="43.4321533" lon="11.56347"><ele>624.1999999999999</ele><time>2026-04-17T09:09:43.138Z</time></trkpt><trkpt lat="43.4321917" lon="11.5633333"><ele>624.8</ele><time>2026-04-17T09:09:44.136Z</time></trkpt><trkpt lat="43.4322267" lon="11.5632083"><ele>625.4</ele><time>2026-04-17T09:09:45.139Z</time></trkpt><trkpt lat="43.43226" lon="11.5631033"><ele>626.0</ele><time>2026-04-17T09:09:46.142Z</time></trkpt><trkpt lat="43.432295" lon="11.563015"><ele>626.0</ele><time>2026-04-17T09:09:47.136Z</time></trkpt><trkpt lat="43.4323383" lon="11.5629417"><ele>626.0</ele><time>2026-04-17T09:09:48.137Z</time></trkpt><trkpt lat="43.4323767" lon="11.5628567"><ele>626.0</ele><time>2026-04-17T09:09:49.137Z</time></trkpt><trkpt lat="43.4323983" lon="11.5627633"><ele>626.0</ele><time>2026-04-17T09:09:50.137Z</time></trkpt><trkpt lat="43.4324267" lon="11.562675"><ele>626.0</ele><time>2026-04-17T09:09:51.138Z</time></trkpt><trkpt lat="43.4324717" lon="11.562595"><ele>626.0</ele><time>2026-04-17T09:09:52.137Z</time></trkpt><trkpt lat="43.432535" lon="11.5625567"><ele>626.0</ele><time>2026-04-17T09:09:53.137Z</time></trkpt><trkpt lat="43.4326083" lon="11.5625683"><ele>625.6666666666666</ele><time>2026-04-17T09:09:54.136Z</time></trkpt><trkpt lat="43.4326883" lon="11.562595"><ele>625.3333333333333</ele><time>2026-04-17T09:09:55.135Z</time></trkpt><trkpt lat="43.4327683" lon="11.5626067"><ele>625.0</ele><time>2026-04-17T09:09:56.135Z</time></trkpt><trkpt lat="43.432845" lon="11.56257"><ele>624.6666666666666</ele><time>2026-04-17T09:09:57.135Z</time></trkpt><trkpt lat="43.4329317" lon="11.5625217"><ele>624.3333333333334</ele><time>2026-04-17T09:09:58.135Z</time></trkpt><trkpt lat="43.4330217" lon="11.56247"><ele>624.0</ele><time>2026-04-17T09:09:59.136Z</time></trkpt><trkpt lat="43.433105" lon="11.5624167"><ele>622.2</ele><time>2026-04-17T09:10:00.137Z</time></trkpt><trkpt lat="43.43319" lon="11.562355"><ele>620.4</ele><time>2026-04-17T09:10:01.137Z</time></trkpt><trkpt lat="43.4332767" lon="11.562275"><ele>618.6</ele><time>2026-04-17T09:10:02.136Z</time></trkpt><trkpt lat="43.433365" lon="11.5621883"><ele>616.8</ele><time>2026-04-17T09:10:03.138Z</time></trkpt><trkpt lat="43.433455" lon="11.562095"><ele>615.0</ele><time>2026-04-17T09:10:04.137Z</time></trkpt><trkpt lat="43.43354" lon="11.5620017"><ele>614.8</ele><time>2026-04-17T09:10:05.136Z</time></trkpt><trkpt lat="43.4336267" lon="11.56192"><ele>614.6</ele><time>2026-04-17T09:10:06.137Z</time></trkpt><trkpt lat="43.43372" lon="11.561845"><ele>614.4</ele><time>2026-04-17T09:10:07.135Z</time></trkpt><trkpt lat="43.4338167" lon="11.5617683"><ele>614.2</ele><time>2026-04-17T09:10:08.137Z</time></trkpt><trkpt lat="43.4339183" lon="11.56168"><ele>614.0</ele><time>2026-04-17T09:10:09.137Z</time></trkpt><trkpt lat="43.4340083" lon="11.5616033"><ele>613.3333333333333</ele><time>2026-04-17T09:10:10.136Z</time></trkpt><trkpt lat="43.4340967" lon="11.5615483"><ele>612.6666666666666</ele><time>2026-04-17T09:10:11.137Z</time></trkpt><trkpt lat="43.4341867" lon="11.5615183"><ele>612.0</ele><time>2026-04-17T09:10:12.136Z</time></trkpt><trkpt lat="43.4342717" lon="11.5615"><ele>611.3333333333334</ele><time>2026-04-17T09:10:13.137Z</time></trkpt><trkpt lat="43.434345" lon="11.56147"><ele>610.6666666666667</ele><time>2026-04-17T09:10:14.134Z</time></trkpt><trkpt lat="43.4344033" lon="11.5614083"><ele>610.0</ele><time>2026-04-17T09:10:15.136Z</time></trkpt><trkpt lat="43.4344533" lon="11.5613333"><ele>610.0</ele><time>2026-04-17T09:10:16.137Z</time></trkpt><trkpt lat="43.43449" lon="11.5612617"><ele>610.0</ele><time>2026-04-17T09:10:17.137Z</time></trkpt><trkpt lat="43.4346033" lon="11.5611867"><ele>610.0</ele><time>2026-04-17T09:10:19.137Z</time></trkpt><trkpt lat="43.434695" lon="11.5611067"><ele>610.0</ele><time>2026-04-17T09:10:21.138Z</time></trkpt><trkpt lat="43.4347567" lon="11.5609567"><ele>610.0</ele><time>2026-04-17T09:10:23.136Z</time></trkpt><trkpt lat="43.4347833" lon="11.5608633"><ele>611.6666666666667</ele><time>2026-04-17T09:10:24.137Z</time></trkpt><trkpt lat="43.4348067" lon="11.5607617"><ele>613.3333333333334</ele><time>2026-04-17T09:10:25.137Z</time></trkpt><trkpt lat="43.4348217" lon="11.5606633"><ele>615.0</ele><time>2026-04-17T09:10:26.133Z</time></trkpt><trkpt lat="43.43483" lon="11.5605583"><ele>616.6666666666666</ele><time>2026-04-17T09:10:27.137Z</time></trkpt><trkpt lat="43.4348417" lon="11.5604633"><ele>618.3333333333333</ele><time>2026-04-17T09:10:28.136Z</time></trkpt><trkpt lat="43.434855" lon="11.5603783"><ele>620.0</ele><time>2026-04-17T09:10:29.138Z</time></trkpt><trkpt lat="43.4348417" lon="11.5602133"><ele>620.6666666666666</ele><time>2026-04-17T09:10:31.137Z</time></trkpt><trkpt lat="43.4348083" lon="11.5601333"><ele>621.3333333333333</ele><time>2026-04-17T09:10:32.131Z</time></trkpt><trkpt lat="43.4347683" lon="11.56005"><ele>622.0</ele><time>2026-04-17T09:10:33.137Z</time></trkpt><trkpt lat="43.43473" lon="11.5599633"><ele>622.6666666666666</ele><time>2026-04-17T09:10:34.137Z</time></trkpt><trkpt lat="43.4346983" lon="11.5598583"><ele>623.3333333333334</ele><time>2026-04-17T09:10:35.135Z</time></trkpt><trkpt lat="43.434665" lon="11.5597467"><ele>624.0</ele><time>2026-04-17T09:10:36.141Z</time></trkpt><trkpt lat="43.4346217" lon="11.5596417"><ele>624.4</ele><time>2026-04-17T09:10:37.137Z</time></trkpt><trkpt lat="43.4345717" lon="11.5595383"><ele>624.8</ele><time>2026-04-17T09:10:38.135Z</time></trkpt><trkpt lat="43.4345267" lon="11.5594367"><ele>625.2</ele><time>2026-04-17T09:10:39.137Z</time></trkpt><trkpt lat="43.4344783" lon="11.5593317"><ele>625.6</ele><time>2026-04-17T09:10:40.136Z</time></trkpt><trkpt lat="43.4344217" lon="11.5592183"><ele>626.0</ele><time>2026-04-17T09:10:41.135Z</time></trkpt><trkpt lat="43.43437" lon="11.5590817"><ele>627.75</ele><time>2026-04-17T09:10:42.135Z</time></trkpt><trkpt lat="43.4343267" lon="11.5589333"><ele>629.5</ele><time>2026-04-17T09:10:43.136Z</time></trkpt><trkpt lat="43.4342833" lon="11.558785"><ele>631.25</ele><time>2026-04-17T09:10:44.136Z</time></trkpt><trkpt lat="43.4342467" lon="11.5586333"><ele>633.0</ele><time>2026-04-17T09:10:45.137Z</time></trkpt><trkpt lat="43.4342117" lon="11.5584783"><ele>633.0</ele><time>2026-04-17T09:10:46.137Z</time></trkpt><trkpt lat="43.43418" lon="11.5583217"><ele>633.0</ele><time>2026-04-17T09:10:47.137Z</time></trkpt><trkpt lat="43.4341583" lon="11.55818"><ele>633.0</ele><time>2026-04-17T09:10:48.137Z</time></trkpt><trkpt lat="43.434155" lon="11.5580367"><ele>633.0</ele><time>2026-04-17T09:10:49.137Z</time></trkpt><trkpt lat="43.434175" lon="11.55788"><ele>633.0</ele><time>2026-04-17T09:10:50.139Z</time></trkpt><trkpt lat="43.4342117" lon="11.5577283"><ele>633.0</ele><time>2026-04-17T09:10:51.138Z</time></trkpt><trkpt lat="43.434255" lon="11.5575783"><ele>633.0</ele><time>2026-04-17T09:10:52.135Z</time></trkpt><trkpt lat="43.434295" lon="11.5574333"><ele>633.0</ele><time>2026-04-17T09:10:53.137Z</time></trkpt><trkpt lat="43.4343267" lon="11.55729"><ele>633.0</ele><time>2026-04-17T09:10:54.137Z</time></trkpt><trkpt lat="43.4343433" lon="11.5571317"><ele>632.25</ele><time>2026-04-17T09:10:55.137Z</time></trkpt><trkpt lat="43.4343567" lon="11.5569617"><ele>631.5</ele><time>2026-04-17T09:10:56.138Z</time></trkpt><trkpt lat="43.4343667" lon="11.5567967"><ele>630.75</ele><time>2026-04-17T09:10:57.136Z</time></trkpt><trkpt lat="43.434375" lon="11.5566433"><ele>630.0</ele><time>2026-04-17T09:10:58.138Z</time></trkpt><trkpt lat="43.43438" lon="11.5564967"><ele>630.0</ele><time>2026-04-17T09:10:59.137Z</time></trkpt><trkpt lat="43.4343933" lon="11.556355"><ele>630.0</ele><time>2026-04-17T09:11:00.138Z</time></trkpt><trkpt lat="43.434425" lon="11.5562217"><ele>630.0</ele><time>2026-04-17T09:11:01.139Z</time></trkpt><trkpt lat="43.4344683" lon="11.5560817"><ele>630.0</ele><time>2026-04-17T09:11:02.135Z</time></trkpt><trkpt lat="43.43452" lon="11.5559433"><ele>630.0</ele><time>2026-04-17T09:11:03.138Z</time></trkpt><trkpt lat="43.434585" lon="11.555805"><ele>631.8</ele><time>2026-04-17T09:11:04.137Z</time></trkpt><trkpt lat="43.43465" lon="11.5556617"><ele>633.6</ele><time>2026-04-17T09:11:05.136Z</time></trkpt><trkpt lat="43.4347067" lon="11.5555217"><ele>635.4</ele><time>2026-04-17T09:11:06.136Z</time></trkpt><trkpt lat="43.43475" lon="11.5553967"><ele>637.2</ele><time>2026-04-17T09:11:07.137Z</time></trkpt><trkpt lat="43.4347933" lon="11.5552867"><ele>639.0</ele><time>2026-04-17T09:11:08.131Z</time></trkpt><trkpt lat="43.4348333" lon="11.55519"><ele>639.0</ele><time>2026-04-17T09:11:09.136Z</time></trkpt><trkpt lat="43.43487" lon="11.5551083"><ele>639.0</ele><time>2026-04-17T09:11:10.137Z</time></trkpt><trkpt lat="43.4349483" lon="11.5550217"><ele>639.0</ele><time>2026-04-17T09:11:12.136Z</time></trkpt><trkpt lat="43.43502" lon="11.5550017"><ele>639.0</ele><time>2026-04-17T09:11:13.137Z</time></trkpt><trkpt lat="43.4351" lon="11.5550017"><ele>639.0</ele><time>2026-04-17T09:11:14.137Z</time></trkpt><trkpt lat="43.4351833" lon="11.55502"><ele>639.0</ele><time>2026-04-17T09:11:15.137Z</time></trkpt><trkpt lat="43.435275" lon="11.5550383"><ele>639.0</ele><time>2026-04-17T09:11:16.136Z</time></trkpt><trkpt lat="43.435385" lon="11.5550567"><ele>639.0</ele><time>2026-04-17T09:11:17.137Z</time></trkpt><trkpt lat="43.4355017" lon="11.5550767"><ele>639.0</ele><time>2026-04-17T09:11:18.136Z</time></trkpt><trkpt lat="43.4356083" lon="11.5551017"><ele>639.0</ele><time>2026-04-17T09:11:19.137Z</time></trkpt><trkpt lat="43.4357083" lon="11.55513"><ele>639.0</ele><time>2026-04-17T09:11:20.138Z</time></trkpt><trkpt lat="43.4357917" lon="11.555155"><ele>639.6</ele><time>2026-04-17T09:11:21.137Z</time></trkpt><trkpt lat="43.4358733" lon="11.555195"><ele>640.2</ele><time>2026-04-17T09:11:22.139Z</time></trkpt><trkpt lat="43.435965" lon="11.5552433"><ele>640.8000000000001</ele><time>2026-04-17T09:11:23.136Z</time></trkpt><trkpt lat="43.436055" lon="11.5553"><ele>641.4</ele><time>2026-04-17T09:11:24.138Z</time></trkpt><trkpt lat="43.436135" lon="11.5553583"><ele>642.0</ele><time>2026-04-17T09:11:25.138Z</time></trkpt><trkpt lat="43.4362067" lon="11.5554117"><ele>642.5</ele><time>2026-04-17T09:11:26.136Z</time></trkpt><trkpt lat="43.43629" lon="11.5554567"><ele>643.0</ele><time>2026-04-17T09:11:27.137Z</time></trkpt><trkpt lat="43.4363717" lon="11.5555167"><ele>643.5</ele><time>2026-04-17T09:11:28.139Z</time></trkpt><trkpt lat="43.4364467" lon="11.5555883"><ele>644.0</ele><time>2026-04-17T09:11:29.137Z</time></trkpt><trkpt lat="43.4365133" lon="11.555655"><ele>644.5</ele><time>2026-04-17T09:11:30.139Z</time></trkpt><trkpt lat="43.4365767" lon="11.5557133"><ele>645.0</ele><time>2026-04-17T09:11:31.14Z</time></trkpt><trkpt lat="43.4366517" lon="11.5557583"><ele>645.0</ele><time>2026-04-17T09:11:32.139Z</time></trkpt><trkpt lat="43.4367367" lon="11.5557917"><ele>645.0</ele><time>2026-04-17T09:11:33.137Z</time></trkpt><trkpt lat="43.4368367" lon="11.5558067"><ele>645.0</ele><time>2026-04-17T09:11:34.136Z</time></trkpt><trkpt lat="43.4369367" lon="11.555815"><ele>645.0</ele><time>2026-04-17T09:11:35.135Z</time></trkpt><trkpt lat="43.4370267" lon="11.5558083"><ele>645.0</ele><time>2026-04-17T09:11:36.136Z</time></trkpt><trkpt lat="43.437105" lon="11.555795"><ele>643.6666666666666</ele><time>2026-04-17T09:11:37.136Z</time></trkpt><trkpt lat="43.4371767" lon="11.5558033"><ele>642.3333333333334</ele><time>2026-04-17T09:11:38.137Z</time></trkpt><trkpt lat="43.4372517" lon="11.5558433"><ele>641.0</ele><time>2026-04-17T09:11:39.137Z</time></trkpt><trkpt lat="43.4373217" lon="11.5558967"><ele>639.6666666666667</ele><time>2026-04-17T09:11:40.135Z</time></trkpt><trkpt lat="43.4373883" lon="11.55595"><ele>638.3333333333334</ele><time>2026-04-17T09:11:41.137Z</time></trkpt><trkpt lat="43.437455" lon="11.556005"><ele>637.0</ele><time>2026-04-17T09:11:42.138Z</time></trkpt><trkpt lat="43.4375267" lon="11.5560567"><ele>637.0</ele><time>2026-04-17T09:11:43.137Z</time></trkpt><trkpt lat="43.437595" lon="11.5560967"><ele>637.0</ele><time>2026-04-17T09:11:44.136Z</time></trkpt><trkpt lat="43.43766" lon="11.55614"><ele>637.0</ele><time>2026-04-17T09:11:45.137Z</time></trkpt><trkpt lat="43.4377233" lon="11.5561817"><ele>637.0</ele><time>2026-04-17T09:11:46.138Z</time></trkpt><trkpt lat="43.4377833" lon="11.5562233"><ele>637.0</ele><time>2026-04-17T09:11:47.136Z</time></trkpt><trkpt lat="43.4378417" lon="11.55628"><ele>637.0</ele><time>2026-04-17T09:11:48.137Z</time></trkpt><trkpt lat="43.4378967" lon="11.5563467"><ele>637.0</ele><time>2026-04-17T09:11:49.137Z</time></trkpt><trkpt lat="43.43795" lon="11.5564317"><ele>634.1666666666667</ele><time>2026-04-17T09:11:50.138Z</time></trkpt><trkpt lat="43.4379933" lon="11.5565217"><ele>631.3333333333334</ele><time>2026-04-17T09:11:51.136Z</time></trkpt><trkpt lat="43.438035" lon="11.5566133"><ele>628.5</ele><time>2026-04-17T09:11:52.134Z</time></trkpt><trkpt lat="43.438075" lon="11.5567033"><ele>625.6666666666666</ele><time>2026-04-17T09:11:53.137Z</time></trkpt><trkpt lat="43.4381167" lon="11.5567983"><ele>622.8333333333333</ele><time>2026-04-17T09:11:54.137Z</time></trkpt><trkpt lat="43.438165" lon="11.5568883"><ele>620.0</ele><time>2026-04-17T09:11:55.136Z</time></trkpt><trkpt lat="43.438215" lon="11.5569733"><ele>619.8333333333333</ele><time>2026-04-17T09:11:56.134Z</time></trkpt><trkpt lat="43.438265" lon="11.5570517"><ele>619.6666666666666</ele><time>2026-04-17T09:11:57.137Z</time></trkpt><trkpt lat="43.4383167" lon="11.55714"><ele>619.5</ele><time>2026-04-17T09:11:58.137Z</time></trkpt><trkpt lat="43.438365" lon="11.557245"><ele>619.3333333333334</ele><time>2026-04-17T09:11:59.141Z</time></trkpt><trkpt lat="43.4384083" lon="11.557365"><ele>619.1666666666667</ele><time>2026-04-17T09:12:00.136Z</time></trkpt><trkpt lat="43.4384417" lon="11.557495"><ele>619.0</ele><time>2026-04-17T09:12:01.14Z</time></trkpt><trkpt lat="43.4384767" lon="11.5576417"><ele>619.0</ele><time>2026-04-17T09:12:02.138Z</time></trkpt><trkpt lat="43.4385133" lon="11.5577967"><ele>619.0</ele><time>2026-04-17T09:12:03.139Z</time></trkpt><trkpt lat="43.43855" lon="11.5579433"><ele>619.0</ele><time>2026-04-17T09:12:04.137Z</time></trkpt><trkpt lat="43.4385867" lon="11.5580767"><ele>619.0</ele><time>2026-04-17T09:12:05.136Z</time></trkpt><trkpt lat="43.4386167" lon="11.5581817"><ele>619.0</ele><time>2026-04-17T09:12:06.137Z</time></trkpt><trkpt lat="43.4386583" lon="11.5582733"><ele>618.3333333333334</ele><time>2026-04-17T09:12:07.136Z</time></trkpt><trkpt lat="43.438715" lon="11.5583783"><ele>617.6666666666667</ele><time>2026-04-17T09:12:08.137Z</time></trkpt><trkpt lat="43.4387817" lon="11.5584933"><ele>617.0</ele><time>2026-04-17T09:12:09.136Z</time></trkpt><trkpt lat="43.438845" lon="11.5585933"><ele>616.3333333333334</ele><time>2026-04-17T09:12:10.137Z</time></trkpt><trkpt lat="43.4389017" lon="11.5586717"><ele>615.6666666666666</ele><time>2026-04-17T09:12:11.137Z</time></trkpt><trkpt lat="43.4389483" lon="11.55874"><ele>615.0</ele><time>2026-04-17T09:12:12.132Z</time></trkpt><trkpt lat="43.4390133" lon="11.5588367"><ele>615.0</ele><time>2026-04-17T09:12:14.137Z</time></trkpt><trkpt lat="43.4390567" lon="11.5589167"><ele>615.0</ele><time>2026-04-17T09:12:16.136Z</time></trkpt><trkpt lat="43.439075" lon="11.559"><ele>615.0</ele><time>2026-04-17T09:12:18.137Z</time></trkpt><trkpt lat="43.4390167" lon="11.5591133"><ele>615.0</ele><time>2026-04-17T09:12:21.138Z</time></trkpt><trkpt lat="43.438905" lon="11.5591583"><ele>615.0</ele><time>2026-04-17T09:12:23.136Z</time></trkpt><trkpt lat="43.4388383" lon="11.5591667"><ele>615.0</ele><time>2026-04-17T09:12:24.14Z</time></trkpt><trkpt lat="43.4387667" lon="11.5591633"><ele>613.8333333333334</ele><time>2026-04-17T09:12:25.136Z</time></trkpt><trkpt lat="43.438695" lon="11.55914"><ele>612.6666666666666</ele><time>2026-04-17T09:12:26.138Z</time></trkpt><trkpt lat="43.4386267" lon="11.5590967"><ele>611.5</ele><time>2026-04-17T09:12:27.138Z</time></trkpt><trkpt lat="43.43856" lon="11.5590467"><ele>610.3333333333333</ele><time>2026-04-17T09:12:28.138Z</time></trkpt><trkpt lat="43.43849" lon="11.55901"><ele>609.1666666666666</ele><time>2026-04-17T09:12:29.137Z</time></trkpt><trkpt lat="43.438415" lon="11.5589867"><ele>608.0</ele><time>2026-04-17T09:12:30.138Z</time></trkpt><trkpt lat="43.4383317" lon="11.55896"><ele>608.0</ele><time>2026-04-17T09:12:31.137Z</time></trkpt><trkpt lat="43.4382483" lon="11.558925"><ele>608.0</ele><time>2026-04-17T09:12:32.137Z</time></trkpt><trkpt lat="43.4381717" lon="11.5588867"><ele>608.0</ele><time>2026-04-17T09:12:33.136Z</time></trkpt><trkpt lat="43.4381017" lon="11.5588417"><ele>608.0</ele><time>2026-04-17T09:12:34.137Z</time></trkpt><trkpt lat="43.4380133" lon="11.5588067"><ele>608.0</ele><time>2026-04-17T09:12:35.139Z</time></trkpt><trkpt lat="43.437925" lon="11.558765"><ele>608.0</ele><time>2026-04-17T09:12:36.138Z</time></trkpt><trkpt lat="43.43784" lon="11.558725"><ele>607.8333333333333</ele><time>2026-04-17T09:12:37.139Z</time></trkpt><trkpt lat="43.4377533" lon="11.5586817"><ele>607.6666666666666</ele><time>2026-04-17T09:12:38.137Z</time></trkpt><trkpt lat="43.4376783" lon="11.55863"><ele>607.5</ele><time>2026-04-17T09:12:39.139Z</time></trkpt><trkpt lat="43.4376267" lon="11.5585667"><ele>607.3333333333334</ele><time>2026-04-17T09:12:40.137Z</time></trkpt><trkpt lat="43.43755" lon="11.5584883"><ele>607.1666666666667</ele><time>2026-04-17T09:12:42.137Z</time></trkpt><trkpt lat="43.4374633" lon="11.558555"><ele>607.0</ele><time>2026-04-17T09:12:45.134Z</time></trkpt><trkpt lat="43.43742" lon="11.5586233"><ele>607.0</ele><time>2026-04-17T09:12:46.168Z</time></trkpt><trkpt lat="43.4373567" lon="11.5586983"><ele>607.0</ele><time>2026-04-17T09:12:47.136Z</time></trkpt><trkpt lat="43.437285" lon="11.5587683"><ele>607.0</ele><time>2026-04-17T09:12:48.136Z</time></trkpt><trkpt lat="43.4372233" lon="11.5588267"><ele>607.0</ele><time>2026-04-17T09:12:49.137Z</time></trkpt><trkpt lat="43.4371567" lon="11.5588817"><ele>607.0</ele><time>2026-04-17T09:12:50.136Z</time></trkpt><trkpt lat="43.43708" lon="11.5589367"><ele>607.0</ele><time>2026-04-17T09:12:51.137Z</time></trkpt><trkpt lat="43.43701" lon="11.558995"><ele>606.3333333333334</ele><time>2026-04-17T09:12:52.137Z</time></trkpt><trkpt lat="43.43695" lon="11.5590633"><ele>605.6666666666667</ele><time>2026-04-17T09:12:53.137Z</time></trkpt><trkpt lat="43.436885" lon="11.55914"><ele>605.0</ele><time>2026-04-17T09:12:54.137Z</time></trkpt><trkpt lat="43.43682" lon="11.5592117"><ele>604.3333333333334</ele><time>2026-04-17T09:12:55.137Z</time></trkpt><trkpt lat="43.43675" lon="11.55928"><ele>603.6666666666666</ele><time>2026-04-17T09:12:56.135Z</time></trkpt><trkpt lat="43.4366767" lon="11.5593317"><ele>603.0</ele><time>2026-04-17T09:12:57.137Z</time></trkpt><trkpt lat="43.4365983" lon="11.5593683"><ele>603.0</ele><time>2026-04-17T09:12:58.139Z</time></trkpt><trkpt lat="43.436525" lon="11.5593833"><ele>603.0</ele><time>2026-04-17T09:12:59.136Z</time></trkpt><trkpt lat="43.4364483" lon="11.5593717"><ele>603.0</ele><time>2026-04-17T09:13:00.138Z</time></trkpt><trkpt lat="43.4363717" lon="11.559335"><ele>603.0</ele><time>2026-04-17T09:13:01.135Z</time></trkpt><trkpt lat="43.4362933" lon="11.5592733"><ele>603.0</ele><time>2026-04-17T09:13:02.137Z</time></trkpt><trkpt lat="43.4362083" lon="11.55921"><ele>603.0</ele><time>2026-04-17T09:13:03.138Z</time></trkpt><trkpt lat="43.43613" lon="11.5591483"><ele>602.8333333333334</ele><time>2026-04-17T09:13:04.136Z</time></trkpt><trkpt lat="43.4360567" lon="11.5590917"><ele>602.6666666666666</ele><time>2026-04-17T09:13:05.136Z</time></trkpt><trkpt lat="43.43599" lon="11.5590267"><ele>602.5</ele><time>2026-04-17T09:13:06.137Z</time></trkpt><trkpt lat="43.43593" lon="11.558965"><ele>602.3333333333333</ele><time>2026-04-17T09:13:07.136Z</time></trkpt><trkpt lat="43.4358383" lon="11.5589233"><ele>602.1666666666666</ele><time>2026-04-17T09:13:09.137Z</time></trkpt><trkpt lat="43.4357783" lon="11.5590333"><ele>602.0</ele><time>2026-04-17T09:13:12.136Z</time></trkpt><trkpt lat="43.4357717" lon="11.5591283"><ele>602.0</ele><time>2026-04-17T09:13:13.136Z</time></trkpt><trkpt lat="43.4357683" lon="11.5592467"><ele>602.0</ele><time>2026-04-17T09:13:14.137Z</time></trkpt><trkpt lat="43.43577" lon="11.5594"><ele>602.0</ele><time>2026-04-17T09:13:15.139Z</time></trkpt><trkpt lat="43.4357583" lon="11.55956"><ele>602.0</ele><time>2026-04-17T09:13:16.136Z</time></trkpt><trkpt lat="43.4357483" lon="11.5597033"><ele>602.0</ele><time>2026-04-17T09:13:17.137Z</time></trkpt><trkpt lat="43.43572" lon="11.55982"><ele>601.0</ele><time>2026-04-17T09:13:18.136Z</time></trkpt><trkpt lat="43.43569" lon="11.5599117"><ele>600.0</ele><time>2026-04-17T09:13:19.138Z</time></trkpt><trkpt lat="43.4356033" lon="11.560005"><ele>599.0</ele><time>2026-04-17T09:13:21.138Z</time></trkpt><trkpt lat="43.4355167" lon="11.5600783"><ele>598.0</ele><time>2026-04-17T09:13:23.136Z</time></trkpt><trkpt lat="43.4354767" lon="11.5602583"><ele>597.0</ele><time>2026-04-17T09:13:25.137Z</time></trkpt><trkpt lat="43.4354533" lon="11.5603783"><ele>601.6</ele><time>2026-04-17T09:13:26.137Z</time></trkpt><trkpt lat="43.43543" lon="11.56051"><ele>606.2</ele><time>2026-04-17T09:13:27.137Z</time></trkpt><trkpt lat="43.4354133" lon="11.5606383"><ele>610.8</ele><time>2026-04-17T09:13:28.136Z</time></trkpt><trkpt lat="43.4353967" lon="11.56078"><ele>615.4</ele><time>2026-04-17T09:13:29.137Z</time></trkpt><trkpt lat="43.4353717" lon="11.5609167"><ele>620.0</ele><time>2026-04-17T09:13:30.137Z</time></trkpt><trkpt lat="43.435345" lon="11.56105"><ele>620.0</ele><time>2026-04-17T09:13:31.132Z</time></trkpt><trkpt lat="43.4353183" lon="11.5611533"><ele>620.0</ele><time>2026-04-17T09:13:32.138Z</time></trkpt><trkpt lat="43.4352733" lon="11.5612383"><ele>620.0</ele><time>2026-04-17T09:13:33.137Z</time></trkpt><trkpt lat="43.4352017" lon="11.5613067"><ele>620.0</ele><time>2026-04-17T09:13:34.135Z</time></trkpt><trkpt lat="43.43512" lon="11.5613683"><ele>620.0</ele><time>2026-04-17T09:13:35.136Z</time></trkpt><trkpt lat="43.435045" lon="11.5614283"><ele>620.0</ele><time>2026-04-17T09:13:36.136Z</time></trkpt><trkpt lat="43.43496" lon="11.56149"><ele>618.0</ele><time>2026-04-17T09:13:37.136Z</time></trkpt><trkpt lat="43.4348683" lon="11.5615233"><ele>616.0</ele><time>2026-04-17T09:13:38.137Z</time></trkpt><trkpt lat="43.4347717" lon="11.5615483"><ele>614.0</ele><time>2026-04-17T09:13:39.137Z</time></trkpt><trkpt lat="43.4346733" lon="11.5615617"><ele>612.0</ele><time>2026-04-17T09:13:40.139Z</time></trkpt><trkpt lat="43.434575" lon="11.5615633"><ele>610.0</ele><time>2026-04-17T09:13:41.136Z</time></trkpt><trkpt lat="43.43448" lon="11.5615667"><ele>610.0</ele><time>2026-04-17T09:13:42.138Z</time></trkpt><trkpt lat="43.434385" lon="11.561585"><ele>610.0</ele><time>2026-04-17T09:13:43.137Z</time></trkpt><trkpt lat="43.434285" lon="11.5616067"><ele>610.0</ele><time>2026-04-17T09:13:44.136Z</time></trkpt><trkpt lat="43.4342017" lon="11.5616133"><ele>610.0</ele><time>2026-04-17T09:13:45.137Z</time></trkpt><trkpt lat="43.4341267" lon="11.5616067"><ele>610.0</ele><time>2026-04-17T09:13:46.137Z</time></trkpt><trkpt lat="43.43405" lon="11.5616167"><ele>610.0</ele><time>2026-04-17T09:13:47.138Z</time></trkpt><trkpt lat="43.43398" lon="11.5616467"><ele>610.0</ele><time>2026-04-17T09:13:48.136Z</time></trkpt><trkpt lat="43.4338817" lon="11.5617083"><ele>610.0</ele><time>2026-04-17T09:13:49.136Z</time></trkpt><trkpt lat="43.4338083" lon="11.5617667"><ele>610.0</ele><time>2026-04-17T09:13:50.136Z</time></trkpt><trkpt lat="43.433755" lon="11.5618233"><ele>610.0</ele><time>2026-04-17T09:13:51.137Z</time></trkpt><trkpt lat="43.4337133" lon="11.5619367"><ele>610.0</ele><time>2026-04-17T09:13:53.137Z</time></trkpt><trkpt lat="43.4337" lon="11.562035"><ele>610.0</ele><time>2026-04-17T09:13:54.136Z</time></trkpt><trkpt lat="43.433665" lon="11.5621433"><ele>611.0</ele><time>2026-04-17T09:13:55.138Z</time></trkpt><trkpt lat="43.4336467" lon="11.5622833"><ele>612.0</ele><time>2026-04-17T09:13:56.139Z</time></trkpt><trkpt lat="43.4336267" lon="11.5624183"><ele>613.0</ele><time>2026-04-17T09:13:57.136Z</time></trkpt><trkpt lat="43.4336017" lon="11.5625467"><ele>614.0</ele><time>2026-04-17T09:13:58.137Z</time></trkpt><trkpt lat="43.4335783" lon="11.5626833"><ele>615.0</ele><time>2026-04-17T09:13:59.137Z</time></trkpt><trkpt lat="43.43356" lon="11.5628333"><ele>615.2</ele><time>2026-04-17T09:14:00.138Z</time></trkpt><trkpt lat="43.4335433" lon="11.5629983"><ele>615.4</ele><time>2026-04-17T09:14:01.14Z</time></trkpt><trkpt lat="43.433535" lon="11.5631467"><ele>615.6</ele><time>2026-04-17T09:14:02.137Z</time></trkpt><trkpt lat="43.4335417" lon="11.563285"><ele>615.8</ele><time>2026-04-17T09:14:03.139Z</time></trkpt><trkpt lat="43.4335667" lon="11.5634133"><ele>616.0</ele><time>2026-04-17T09:14:04.139Z</time></trkpt><trkpt lat="43.43361" lon="11.5635333"><ele>616.0</ele><time>2026-04-17T09:14:05.137Z</time></trkpt><trkpt lat="43.43366" lon="11.5636367"><ele>616.0</ele><time>2026-04-17T09:14:06.137Z</time></trkpt><trkpt lat="43.433695" lon="11.56374"><ele>616.0</ele><time>2026-04-17T09:14:07.137Z</time></trkpt><trkpt lat="43.433725" lon="11.5638517"><ele>616.0</ele><time>2026-04-17T09:14:08.137Z</time></trkpt><trkpt lat="43.4337467" lon="11.5639733"><ele>616.0</ele><time>2026-04-17T09:14:09.137Z</time></trkpt><trkpt lat="43.4337567" lon="11.564085"><ele>616.0</ele><time>2026-04-17T09:14:10.137Z</time></trkpt><trkpt lat="43.43377" lon="11.5642117"><ele>616.5</ele><time>2026-04-17T09:14:11.136Z</time></trkpt><trkpt lat="43.43378" lon="11.5643317"><ele>617.0</ele><time>2026-04-17T09:14:12.137Z</time></trkpt><trkpt lat="43.43379" lon="11.564445"><ele>617.5</ele><time>2026-04-17T09:14:13.136Z</time></trkpt><trkpt lat="43.4337967" lon="11.5645467"><ele>618.0</ele><time>2026-04-17T09:14:14.138Z</time></trkpt><trkpt lat="43.43379" lon="11.5646417"><ele>618.5</ele><time>2026-04-17T09:14:15.137Z</time></trkpt><trkpt lat="43.4337617" lon="11.5647283"><ele>619.0</ele><time>2026-04-17T09:14:16.136Z</time></trkpt><trkpt lat="43.4337167" lon="11.5648133"><ele>617.8571428571429</ele><time>2026-04-17T09:14:17.136Z</time></trkpt><trkpt lat="43.43366" lon="11.5649"><ele>616.7142857142858</ele><time>2026-04-17T09:14:18.137Z</time></trkpt><trkpt lat="43.4335933" lon="11.5649683"><ele>615.5714285714287</ele><time>2026-04-17T09:14:19.138Z</time></trkpt><trkpt lat="43.4335333" lon="11.565035"><ele>614.4285714285714</ele><time>2026-04-17T09:14:20.138Z</time></trkpt><trkpt lat="43.4334867" lon="11.5651017"><ele>613.2857142857143</ele><time>2026-04-17T09:14:21.137Z</time></trkpt><trkpt lat="43.4334483" lon="11.5651783"><ele>612.1428571428572</ele><time>2026-04-17T09:14:22.138Z</time></trkpt><trkpt lat="43.4334133" lon="11.5652567"><ele>611.0</ele><time>2026-04-17T09:14:23.136Z</time></trkpt><trkpt lat="43.4333767" lon="11.5653367"><ele>607.6666666666666</ele><time>2026-04-17T09:14:24.136Z</time></trkpt><trkpt lat="43.4333383" lon="11.5654267"><ele>604.3333333333333</ele><time>2026-04-17T09:14:25.137Z</time></trkpt><trkpt lat="43.4332967" lon="11.565525"><ele>601.0</ele><time>2026-04-17T09:14:26.136Z</time></trkpt><trkpt lat="43.4332533" lon="11.5656233"><ele>597.6666666666666</ele><time>2026-04-17T09:14:27.139Z</time></trkpt><trkpt lat="43.4332067" lon="11.5657267"><ele>594.3333333333334</ele><time>2026-04-17T09:14:28.135Z</time></trkpt><trkpt lat="43.4331667" lon="11.565835"><ele>591.0</ele><time>2026-04-17T09:14:29.141Z</time></trkpt><trkpt lat="43.43313" lon="11.56595"><ele>591.0</ele><time>2026-04-17T09:14:30.137Z</time></trkpt><trkpt lat="43.43309" lon="11.566075"><ele>591.0</ele><time>2026-04-17T09:14:31.139Z</time></trkpt><trkpt lat="43.4330383" lon="11.566205"><ele>591.0</ele><time>2026-04-17T09:14:32.137Z</time></trkpt><trkpt lat="43.432985" lon="11.5663233"><ele>591.0</ele><time>2026-04-17T09:14:33.137Z</time></trkpt><trkpt lat="43.432925" lon="11.5664333"><ele>591.0</ele><time>2026-04-17T09:14:34.136Z</time></trkpt><trkpt lat="43.4328667" lon="11.5665417"><ele>592.6666666666666</ele><time>2026-04-17T09:14:35.137Z</time></trkpt><trkpt lat="43.4328267" lon="11.566645"><ele>594.3333333333334</ele><time>2026-04-17T09:14:36.136Z</time></trkpt><trkpt lat="43.4328033" lon="11.566755"><ele>596.0</ele><time>2026-04-17T09:14:37.138Z</time></trkpt><trkpt lat="43.43279" lon="11.5668683"><ele>597.6666666666667</ele><time>2026-04-17T09:14:38.137Z</time></trkpt><trkpt lat="43.432785" lon="11.5669733"><ele>599.3333333333334</ele><time>2026-04-17T09:14:39.137Z</time></trkpt><trkpt lat="43.4327783" lon="11.567075"><ele>601.0</ele><time>2026-04-17T09:14:40.137Z</time></trkpt><trkpt lat="43.4327683" lon="11.5671767"><ele>601.6</ele><time>2026-04-17T09:14:41.136Z</time></trkpt><trkpt lat="43.4327533" lon="11.5672917"><ele>602.2</ele><time>2026-04-17T09:14:42.136Z</time></trkpt><trkpt lat="43.4327383" lon="11.567425"><ele>602.8</ele><time>2026-04-17T09:14:43.137Z</time></trkpt><trkpt lat="43.43273" lon="11.5675617"><ele>603.4</ele><time>2026-04-17T09:14:44.137Z</time></trkpt><trkpt lat="43.4327217" lon="11.5677"><ele>604.0</ele><time>2026-04-17T09:14:45.138Z</time></trkpt><trkpt lat="43.4327083" lon="11.5678283"><ele>604.5</ele><time>2026-04-17T09:14:46.137Z</time></trkpt><trkpt lat="43.4326933" lon="11.5679383"><ele>605.0</ele><time>2026-04-17T09:14:47.137Z</time></trkpt><trkpt lat="43.432675" lon="11.5680433"><ele>605.5</ele><time>2026-04-17T09:14:48.137Z</time></trkpt><trkpt lat="43.43265" lon="11.5681533"><ele>606.0</ele><time>2026-04-17T09:14:49.137Z</time></trkpt><trkpt lat="43.43263" lon="11.56827"><ele>606.5</ele><time>2026-04-17T09:14:50.136Z</time></trkpt><trkpt lat="43.4326167" lon="11.5683933"><ele>607.0</ele><time>2026-04-17T09:14:51.138Z</time></trkpt><trkpt lat="43.432615" lon="11.5685117"><ele>607.0</ele><time>2026-04-17T09:14:52.136Z</time></trkpt><trkpt lat="43.43263" lon="11.5686233"><ele>607.0</ele><time>2026-04-17T09:14:53.138Z</time></trkpt><trkpt lat="43.432645" lon="11.5687333"><ele>607.0</ele><time>2026-04-17T09:14:54.136Z</time></trkpt><trkpt lat="43.43266" lon="11.5688617"><ele>607.0</ele><time>2026-04-17T09:14:55.137Z</time></trkpt><trkpt lat="43.4326833" lon="11.5690083"><ele>607.0</ele><time>2026-04-17T09:14:56.137Z</time></trkpt><trkpt lat="43.4327067" lon="11.569155"><ele>606.3333333333334</ele><time>2026-04-17T09:14:57.136Z</time></trkpt><trkpt lat="43.4327283" lon="11.5692733"><ele>605.6666666666667</ele><time>2026-04-17T09:14:58.135Z</time></trkpt><trkpt lat="43.4327517" lon="11.5693567"><ele>605.0</ele><time>2026-04-17T09:14:59.136Z</time></trkpt><trkpt lat="43.4327717" lon="11.5694783"><ele>604.3333333333334</ele><time>2026-04-17T09:15:01.137Z</time></trkpt><trkpt lat="43.4327117" lon="11.569535"><ele>603.6666666666666</ele><time>2026-04-17T09:15:03.137Z</time></trkpt><trkpt lat="43.4326433" lon="11.5695467"><ele>603.0</ele><time>2026-04-17T09:15:04.137Z</time></trkpt><trkpt lat="43.432545" lon="11.56952"><ele>603.0</ele><time>2026-04-17T09:15:05.136Z</time></trkpt><trkpt lat="43.4324217" lon="11.5694817"><ele>603.0</ele><time>2026-04-17T09:15:06.135Z</time></trkpt><trkpt lat="43.432335" lon="11.5694367"><ele>603.0</ele><time>2026-04-17T09:15:07.135Z</time></trkpt><trkpt lat="43.4322483" lon="11.5693733"><ele>603.0</ele><time>2026-04-17T09:15:08.136Z</time></trkpt><trkpt lat="43.4321767" lon="11.5693233"><ele>603.0</ele><time>2026-04-17T09:15:09.138Z</time></trkpt><trkpt lat="43.4321117" lon="11.5692933"><ele>605.0</ele><time>2026-04-17T09:15:10.136Z</time></trkpt><trkpt lat="43.432045" lon="11.5693217"><ele>607.0</ele><time>2026-04-17T09:15:11.133Z</time></trkpt><trkpt lat="43.4319817" lon="11.569355"><ele>609.0</ele><time>2026-04-17T09:15:12.137Z</time></trkpt><trkpt lat="43.431915" lon="11.5693767"><ele>611.0</ele><time>2026-04-17T09:15:13.135Z</time></trkpt><trkpt lat="43.4318367" lon="11.5693433"><ele>613.0</ele><time>2026-04-17T09:15:14.139Z</time></trkpt><trkpt lat="43.4317433" lon="11.5692567"><ele>615.0</ele><time>2026-04-17T09:15:15.137Z</time></trkpt><trkpt lat="43.4316333" lon="11.5691617"><ele>615.0</ele><time>2026-04-17T09:15:16.136Z</time></trkpt><trkpt lat="43.4315217" lon="11.56908"><ele>615.0</ele><time>2026-04-17T09:15:17.136Z</time></trkpt><trkpt lat="43.4314083" lon="11.569"><ele>615.0</ele><time>2026-04-17T09:15:18.136Z</time></trkpt><trkpt lat="43.431305" lon="11.5689267"><ele>615.0</ele><time>2026-04-17T09:15:19.137Z</time></trkpt><trkpt lat="43.431205" lon="11.568875"><ele>614.2</ele><time>2026-04-17T09:15:20.132Z</time></trkpt><trkpt lat="43.431105" lon="11.5688417"><ele>613.4</ele><time>2026-04-17T09:15:21.138Z</time></trkpt><trkpt lat="43.4309867" lon="11.5688367"><ele>612.6</ele><time>2026-04-17T09:15:22.138Z</time></trkpt><trkpt lat="43.43088" lon="11.568845"><ele>611.8</ele><time>2026-04-17T09:15:23.137Z</time></trkpt><trkpt lat="43.4307833" lon="11.5688433"><ele>611.0</ele><time>2026-04-17T09:15:24.137Z</time></trkpt><trkpt lat="43.4307" lon="11.5688267"><ele>611.0</ele><time>2026-04-17T09:15:25.137Z</time></trkpt><trkpt lat="43.4306133" lon="11.5687933"><ele>611.0</ele><time>2026-04-17T09:15:26.136Z</time></trkpt><trkpt lat="43.43053" lon="11.568725"><ele>611.0</ele><time>2026-04-17T09:15:27.139Z</time></trkpt><trkpt lat="43.4304517" lon="11.568645"><ele>611.0</ele><time>2026-04-17T09:15:28.136Z</time></trkpt><trkpt lat="43.4303833" lon="11.5685567"><ele>611.0</ele><time>2026-04-17T09:15:29.136Z</time></trkpt><trkpt lat="43.4303183" lon="11.5684667"><ele>614.75</ele><time>2026-04-17T09:15:30.137Z</time></trkpt><trkpt lat="43.430265" lon="11.5683533"><ele>618.5</ele><time>2026-04-17T09:15:31.137Z</time></trkpt><trkpt lat="43.4301983" lon="11.5682317"><ele>622.25</ele><time>2026-04-17T09:15:32.136Z</time></trkpt><trkpt lat="43.4301283" lon="11.5680933"><ele>626.0</ele><time>2026-04-17T09:15:33.135Z</time></trkpt><trkpt lat="43.430055" lon="11.567945"><ele>628.5</ele><time>2026-04-17T09:15:34.136Z</time></trkpt><trkpt lat="43.429985" lon="11.5677967"><ele>631.0</ele><time>2026-04-17T09:15:35.137Z</time></trkpt><trkpt lat="43.4299167" lon="11.5676533"><ele>633.5</ele><time>2026-04-17T09:15:36.137Z</time></trkpt><trkpt lat="43.4298567" lon="11.567515"><ele>636.0</ele><time>2026-04-17T09:15:37.137Z</time></trkpt><trkpt lat="43.4298" lon="11.56739"><ele>636.0</ele><time>2026-04-17T09:15:38.136Z</time></trkpt><trkpt lat="43.42974" lon="11.5672733"><ele>636.0</ele><time>2026-04-17T09:15:39.136Z</time></trkpt><trkpt lat="43.4296833" lon="11.567165"><ele>636.0</ele><time>2026-04-17T09:15:40.133Z</time></trkpt><trkpt lat="43.42963" lon="11.567055"><ele>636.0</ele><time>2026-04-17T09:15:41.135Z</time></trkpt><trkpt lat="43.4295967" lon="11.5669433"><ele>636.0</ele><time>2026-04-17T09:15:42.136Z</time></trkpt><trkpt lat="43.4295833" lon="11.5668233"><ele>632.6</ele><time>2026-04-17T09:15:43.135Z</time></trkpt><trkpt lat="43.4295917" lon="11.566695"><ele>629.2</ele><time>2026-04-17T09:15:44.135Z</time></trkpt><trkpt lat="43.429605" lon="11.56657"><ele>625.8</ele><time>2026-04-17T09:15:45.137Z</time></trkpt><trkpt lat="43.4296083" lon="11.5664417"><ele>622.4</ele><time>2026-04-17T09:15:46.136Z</time></trkpt><trkpt lat="43.429595" lon="11.5663133"><ele>619.0</ele><time>2026-04-17T09:15:47.136Z</time></trkpt><trkpt lat="43.4295383" lon="11.56617"><ele>619.0</ele><time>2026-04-17T09:15:48.136Z</time></trkpt><trkpt lat="43.42948" lon="11.5660283"><ele>619.0</ele><time>2026-04-17T09:15:49.137Z</time></trkpt><trkpt lat="43.4294267" lon="11.5658983"><ele>619.0</ele><time>2026-04-17T09:15:50.137Z</time></trkpt><trkpt lat="43.4293717" lon="11.5657717"><ele>619.0</ele><time>2026-04-17T09:15:51.137Z</time></trkpt><trkpt lat="43.4293133" lon="11.5656467"><ele>619.0</ele><time>2026-04-17T09:15:52.137Z</time></trkpt><trkpt lat="43.4292467" lon="11.5655283"><ele>619.0</ele><time>2026-04-17T09:15:53.136Z</time></trkpt><trkpt lat="43.4291683" lon="11.565405"><ele>619.0</ele><time>2026-04-17T09:15:54.137Z</time></trkpt><trkpt lat="43.42909" lon="11.5652967"><ele>619.0</ele><time>2026-04-17T09:15:55.137Z</time></trkpt><trkpt lat="43.4290233" lon="11.56521"><ele>619.0</ele><time>2026-04-17T09:15:56.137Z</time></trkpt><trkpt lat="43.4289783" lon="11.5651333"><ele>619.0</ele><time>2026-04-17T09:15:57.139Z</time></trkpt><trkpt lat="43.4290417" lon="11.5650517"><ele>619.0</ele><time>2026-04-17T09:16:00.136Z</time></trkpt><trkpt lat="43.4291683" lon="11.5650717"><ele>619.0</ele><time>2026-04-17T09:16:02.137Z</time></trkpt><trkpt lat="43.4292967" lon="11.56513"><ele>619.0</ele><time>2026-04-17T09:16:03.138Z</time></trkpt><trkpt lat="43.429405" lon="11.5651833"><ele>619.0</ele><time>2026-04-17T09:16:04.137Z</time></trkpt><trkpt lat="43.4295183" lon="11.565225"><ele>619.0</ele><time>2026-04-17T09:16:05.137Z</time></trkpt><trkpt lat="43.4296333" lon="11.5652567"><ele>619.0</ele><time>2026-04-17T09:16:06.138Z</time></trkpt><trkpt lat="43.4297517" lon="11.56528"><ele>619.0</ele><time>2026-04-17T09:16:07.137Z</time></trkpt><trkpt lat="43.4298533" lon="11.5652767"><ele>619.0</ele><time>2026-04-17T09:16:08.137Z</time></trkpt><trkpt lat="43.429945" lon="11.565255"><ele>619.0</ele><time>2026-04-17T09:16:09.138Z</time></trkpt><trkpt lat="43.4300283" lon="11.5652133"><ele>619.1666666666667</ele><time>2026-04-17T09:16:10.137Z</time></trkpt><trkpt lat="43.4300983" lon="11.5651417"><ele>619.3333333333334</ele><time>2026-04-17T09:16:11.137Z</time></trkpt><trkpt lat="43.4301617" lon="11.5650567"><ele>619.5</ele><time>2026-04-17T09:16:12.138Z</time></trkpt><trkpt lat="43.4302183" lon="11.5649783"><ele>619.6666666666666</ele><time>2026-04-17T09:16:13.135Z</time></trkpt><trkpt lat="43.4302783" lon="11.56492"><ele>619.8333333333333</ele><time>2026-04-17T09:16:14.131Z</time></trkpt><trkpt lat="43.430345" lon="11.56489"><ele>620.0</ele><time>2026-04-17T09:16:15.138Z</time></trkpt><trkpt lat="43.4304183" lon="11.564885"><ele>621.0</ele><time>2026-04-17T09:16:16.136Z</time></trkpt><trkpt lat="43.43052" lon="11.564915"><ele>622.0</ele><time>2026-04-17T09:16:17.137Z</time></trkpt><trkpt lat="43.4306183" lon="11.5649517"><ele>623.0</ele><time>2026-04-17T09:16:18.136Z</time></trkpt><trkpt lat="43.43072" lon="11.5649833"><ele>624.0</ele><time>2026-04-17T09:16:19.138Z</time></trkpt><trkpt lat="43.4308267" lon="11.5650033"><ele>625.0</ele><time>2026-04-17T09:16:20.145Z</time></trkpt><trkpt lat="43.4309367" lon="11.565025"><ele>625.0</ele><time>2026-04-17T09:16:21.137Z</time></trkpt><trkpt lat="43.431035" lon="11.5650267"><ele>625.0</ele><time>2026-04-17T09:16:22.136Z</time></trkpt><trkpt lat="43.4311183" lon="11.565025"><ele>625.0</ele><time>2026-04-17T09:16:23.139Z</time></trkpt><trkpt lat="43.4312017" lon="11.565005"><ele>625.0</ele><time>2026-04-17T09:16:24.138Z</time></trkpt><trkpt lat="43.4312917" lon="11.5649567"><ele>625.0</ele><time>2026-04-17T09:16:25.137Z</time></trkpt><trkpt lat="43.4313833" lon="11.5648667"><ele>625.5</ele><time>2026-04-17T09:16:26.139Z</time></trkpt><trkpt lat="43.4314783" lon="11.5647633"><ele>626.0</ele><time>2026-04-17T09:16:27.139Z</time></trkpt><trkpt lat="43.43157" lon="11.5646583"><ele>626.5</ele><time>2026-04-17T09:16:28.138Z</time></trkpt><trkpt lat="43.431655" lon="11.5645583"><ele>627.0</ele><time>2026-04-17T09:16:29.139Z</time></trkpt><trkpt lat="43.4317333" lon="11.5644533"><ele>626.2</ele><time>2026-04-17T09:16:30.136Z</time></trkpt><trkpt lat="43.431805" lon="11.56435"><ele>625.4000000000001</ele><time>2026-04-17T09:16:31.137Z</time></trkpt><trkpt lat="43.4318783" lon="11.5642367"><ele>624.5999999999999</ele><time>2026-04-17T09:16:32.136Z</time></trkpt><trkpt lat="43.4319467" lon="11.5641217"><ele>623.8</ele><time>2026-04-17T09:16:33.137Z</time></trkpt><trkpt lat="43.4320067" lon="11.56399"><ele>623.0</ele><time>2026-04-17T09:16:34.137Z</time></trkpt><trkpt lat="43.432065" lon="11.5638333"><ele>623.75</ele><time>2026-04-17T09:16:35.136Z</time></trkpt><trkpt lat="43.4321167" lon="11.5636667"><ele>624.5</ele><time>2026-04-17T09:16:36.141Z</time></trkpt><trkpt lat="43.4321567" lon="11.5635083"><ele>625.25</ele><time>2026-04-17T09:16:37.138Z</time></trkpt><trkpt lat="43.43219" lon="11.5633667"><ele>626.0</ele><time>2026-04-17T09:16:38.137Z</time></trkpt><trkpt lat="43.4322217" lon="11.56324"><ele>626.0</ele><time>2026-04-17T09:16:39.142Z</time></trkpt><trkpt lat="43.432255" lon="11.56313"><ele>626.0</ele><time>2026-04-17T09:16:40.139Z</time></trkpt><trkpt lat="43.432295" lon="11.5630417"><ele>626.0</ele><time>2026-04-17T09:16:41.138Z</time></trkpt><trkpt lat="43.43234" lon="11.5629617"><ele>626.0</ele><time>2026-04-17T09:16:42.138Z</time></trkpt><trkpt lat="43.4323733" lon="11.5628833"><ele>626.0</ele><time>2026-04-17T09:16:43.138Z</time></trkpt><trkpt lat="43.4323933" lon="11.5627917"><ele>626.0</ele><time>2026-04-17T09:16:44.138Z</time></trkpt><trkpt lat="43.43241" lon="11.5626983"><ele>626.0</ele><time>2026-04-17T09:16:45.138Z</time></trkpt><trkpt lat="43.4324433" lon="11.5626133"><ele>625.6666666666666</ele><time>2026-04-17T09:16:46.136Z</time></trkpt><trkpt lat="43.4324967" lon="11.5625567"><ele>625.3333333333333</ele><time>2026-04-17T09:16:47.136Z</time></trkpt><trkpt lat="43.4325633" lon="11.5625383"><ele>625.0</ele><time>2026-04-17T09:16:48.137Z</time></trkpt><trkpt lat="43.432635" lon="11.56256"><ele>624.6666666666666</ele><time>2026-04-17T09:16:49.137Z</time></trkpt><trkpt lat="43.4327083" lon="11.5625833"><ele>624.3333333333334</ele><time>2026-04-17T09:16:50.138Z</time></trkpt><trkpt lat="43.4327833" lon="11.5625783"><ele>624.0</ele><time>2026-04-17T09:16:51.141Z</time></trkpt><trkpt lat="43.4328717" lon="11.5625433"><ele>624.0</ele><time>2026-04-17T09:16:52.139Z</time></trkpt><trkpt lat="43.4329667" lon="11.5624867"><ele>624.0</ele><time>2026-04-17T09:16:53.137Z</time></trkpt><trkpt lat="43.43306" lon="11.562425"><ele>624.0</ele><time>2026-04-17T09:16:54.138Z</time></trkpt><trkpt lat="43.4331467" lon="11.5623717"><ele>624.0</ele><time>2026-04-17T09:16:55.137Z</time></trkpt><trkpt lat="43.43323" lon="11.5623033"><ele>624.0</ele><time>2026-04-17T09:16:56.138Z</time></trkpt><trkpt lat="43.4333217" lon="11.5622167"><ele>621.75</ele><time>2026-04-17T09:16:57.138Z</time></trkpt><trkpt lat="43.4334183" lon="11.5621233"><ele>619.5</ele><time>2026-04-17T09:16:58.138Z</time></trkpt><trkpt lat="43.4335133" lon="11.5620233"><ele>617.25</ele><time>2026-04-17T09:16:59.133Z</time></trkpt><trkpt lat="43.433605" lon="11.5619317"><ele>615.0</ele><time>2026-04-17T09:17:00.138Z</time></trkpt><trkpt lat="43.4337" lon="11.5618517"><ele>614.8</ele><time>2026-04-17T09:17:01.138Z</time></trkpt><trkpt lat="43.4338" lon="11.5617733"><ele>614.6</ele><time>2026-04-17T09:17:02.136Z</time></trkpt><trkpt lat="43.4339033" lon="11.5616867"><ele>614.4</ele><time>2026-04-17T09:17:03.137Z</time></trkpt><trkpt lat="43.4339967" lon="11.56161"><ele>614.2</ele><time>2026-04-17T09:17:04.136Z</time></trkpt><trkpt lat="43.4340783" lon="11.5615633"><ele>614.0</ele><time>2026-04-17T09:17:05.136Z</time></trkpt><trkpt lat="43.43417" lon="11.5615367"><ele>613.3333333333333</ele><time>2026-04-17T09:17:06.135Z</time></trkpt><trkpt lat="43.4342583" lon="11.5615183"><ele>612.6666666666666</ele><time>2026-04-17T09:17:07.135Z</time></trkpt><trkpt lat="43.4343333" lon="11.5614883"><ele>612.0</ele><time>2026-04-17T09:17:08.137Z</time></trkpt><trkpt lat="43.4343917" lon="11.5614267"><ele>611.3333333333334</ele><time>2026-04-17T09:17:09.136Z</time></trkpt><trkpt lat="43.4344333" lon="11.5613433"><ele>610.6666666666667</ele><time>2026-04-17T09:17:10.136Z</time></trkpt><trkpt lat="43.4344733" lon="11.5612667"><ele>610.0</ele><time>2026-04-17T09:17:11.137Z</time></trkpt><trkpt lat="43.43453" lon="11.5612167"><ele>611.0</ele><time>2026-04-17T09:17:12.137Z</time></trkpt><trkpt lat="43.4345983" lon="11.5611833"><ele>612.0</ele><time>2026-04-17T09:17:13.143Z</time></trkpt><trkpt lat="43.4346567" lon="11.5611433"><ele>613.0</ele><time>2026-04-17T09:17:14.132Z</time></trkpt><trkpt lat="43.4347267" lon="11.56102"><ele>614.0</ele><time>2026-04-17T09:17:16.138Z</time></trkpt><trkpt lat="43.4347517" lon="11.56094"><ele>615.0</ele><time>2026-04-17T09:17:17.137Z</time></trkpt><trkpt lat="43.4347733" lon="11.5608517"><ele>616.0</ele><time>2026-04-17T09:17:18.136Z</time></trkpt><trkpt lat="43.4347933" lon="11.5607567"><ele>616.8</ele><time>2026-04-17T09:17:19.138Z</time></trkpt><trkpt lat="43.434805" lon="11.560665"><ele>617.6</ele><time>2026-04-17T09:17:20.139Z</time></trkpt><trkpt lat="43.4348117" lon="11.56057"><ele>618.4</ele><time>2026-04-17T09:17:21.139Z</time></trkpt><trkpt lat="43.434825" lon="11.5604717"><ele>619.2</ele><time>2026-04-17T09:17:22.137Z</time></trkpt><trkpt lat="43.434845" lon="11.5603133"><ele>620.0</ele><time>2026-04-17T09:17:24.137Z</time></trkpt><trkpt lat="43.43479" lon="11.5601517"><ele>620.6666666666666</ele><time>2026-04-17T09:17:26.136Z</time></trkpt><trkpt lat="43.4347467" lon="11.560055"><ele>621.3333333333333</ele><time>2026-04-17T09:17:27.139Z</time></trkpt><trkpt lat="43.4347083" lon="11.5599433"><ele>622.0</ele><time>2026-04-17T09:17:28.137Z</time></trkpt><trkpt lat="43.4346717" lon="11.5598367"><ele>622.6666666666666</ele><time>2026-04-17T09:17:29.136Z</time></trkpt><trkpt lat="43.4346383" lon="11.5597267"><ele>623.3333333333334</ele><time>2026-04-17T09:17:30.136Z</time></trkpt><trkpt lat="43.4345967" lon="11.5596167"><ele>624.0</ele><time>2026-04-17T09:17:31.138Z</time></trkpt><trkpt lat="43.4345483" lon="11.55951"><ele>625.8</ele><time>2026-04-17T09:17:32.137Z</time></trkpt><trkpt lat="43.4344967" lon="11.5594"><ele>627.5999999999999</ele><time>2026-04-17T09:17:33.138Z</time></trkpt><trkpt lat="43.4344417" lon="11.55928"><ele>629.4</ele><time>2026-04-17T09:17:34.137Z</time></trkpt><trkpt lat="43.43439" lon="11.559145"><ele>631.1999999999999</ele><time>2026-04-17T09:17:35.136Z</time></trkpt><trkpt lat="43.4343483" lon="11.5589883"><ele>633.0</ele><time>2026-04-17T09:17:36.138Z</time></trkpt><trkpt lat="43.4343167" lon="11.5588217"><ele>633.25</ele><time>2026-04-17T09:17:37.136Z</time></trkpt><trkpt lat="43.4342833" lon="11.5586633"><ele>633.5</ele><time>2026-04-17T09:17:38.139Z</time></trkpt><trkpt lat="43.4342517" lon="11.5585017"><ele>633.75</ele><time>2026-04-17T09:17:39.138Z</time></trkpt><trkpt lat="43.43422" lon="11.5583433"><ele>634.0</ele><time>2026-04-17T09:17:40.137Z</time></trkpt><trkpt lat="43.4341933" lon="11.558195"><ele>634.0</ele><time>2026-04-17T09:17:41.136Z</time></trkpt><trkpt lat="43.43418" lon="11.5580517"><ele>634.0</ele><time>2026-04-17T09:17:42.137Z</time></trkpt><trkpt lat="43.4341867" lon="11.5579067"><ele>634.0</ele><time>2026-04-17T09:17:43.136Z</time></trkpt><trkpt lat="43.4342083" lon="11.5577583"><ele>634.0</ele><time>2026-04-17T09:17:44.137Z</time></trkpt><trkpt lat="43.4342467" lon="11.5576083"><ele>634.0</ele><time>2026-04-17T09:17:45.138Z</time></trkpt><trkpt lat="43.43429" lon="11.5574617"><ele>633.8</ele><time>2026-04-17T09:17:46.138Z</time></trkpt><trkpt lat="43.434325" lon="11.5573283"><ele>633.5999999999999</ele><time>2026-04-17T09:17:47.136Z</time></trkpt><trkpt lat="43.4343467" lon="11.55719"><ele>633.4</ele><time>2026-04-17T09:17:48.138Z</time></trkpt><trkpt lat="43.4343617" lon="11.5570333"><ele>633.1999999999999</ele><time>2026-04-17T09:17:49.138Z</time></trkpt><trkpt lat="43.4343717" lon="11.5568683"><ele>633.0</ele><time>2026-04-17T09:17:50.137Z</time></trkpt><trkpt lat="43.4343783" lon="11.556705"><ele>632.4</ele><time>2026-04-17T09:17:51.137Z</time></trkpt><trkpt lat="43.4343817" lon="11.5565483"><ele>631.8</ele><time>2026-04-17T09:17:52.137Z</time></trkpt><trkpt lat="43.4343917" lon="11.5563967"><ele>631.2</ele><time>2026-04-17T09:17:53.137Z</time></trkpt><trkpt lat="43.4344133" lon="11.5562567"><ele>630.6</ele><time>2026-04-17T09:17:54.137Z</time></trkpt><trkpt lat="43.434445" lon="11.55613"><ele>630.0</ele><time>2026-04-17T09:17:55.137Z</time></trkpt><trkpt lat="43.4344833" lon="11.556015"><ele>629.0</ele><time>2026-04-17T09:17:56.138Z</time></trkpt><trkpt lat="43.43453" lon="11.5558933"><ele>628.0</ele><time>2026-04-17T09:17:57.138Z</time></trkpt><trkpt lat="43.43459" lon="11.55576"><ele>627.0</ele><time>2026-04-17T09:17:58.137Z</time></trkpt><trkpt lat="43.4346533" lon="11.5556233"><ele>626.0</ele><time>2026-04-17T09:17:59.136Z</time></trkpt><trkpt lat="43.4347083" lon="11.555495"><ele>625.0</ele><time>2026-04-17T09:18:00.134Z</time></trkpt><trkpt lat="43.4347517" lon="11.5553717"><ele>627.3333333333334</ele><time>2026-04-17T09:18:01.136Z</time></trkpt><trkpt lat="43.4347967" lon="11.5552583"><ele>629.6666666666667</ele><time>2026-04-17T09:18:02.136Z</time></trkpt><trkpt lat="43.4348367" lon="11.5551717"><ele>632.0</ele><time>2026-04-17T09:18:03.136Z</time></trkpt><trkpt lat="43.4348783" lon="11.5551"><ele>634.3333333333334</ele><time>2026-04-17T09:18:04.136Z</time></trkpt><trkpt lat="43.4349717" lon="11.5550067"><ele>636.6666666666666</ele><time>2026-04-17T09:18:06.136Z</time></trkpt><trkpt lat="43.4350383" lon="11.554995"><ele>639.0</ele><time>2026-04-17T09:18:07.136Z</time></trkpt><trkpt lat="43.4351167" lon="11.5550067"><ele>639.0</ele><time>2026-04-17T09:18:08.136Z</time></trkpt><trkpt lat="43.4352" lon="11.5550317"><ele>639.0</ele><time>2026-04-17T09:18:09.137Z</time></trkpt><trkpt lat="43.4353033" lon="11.5550483"><ele>639.0</ele><time>2026-04-17T09:18:10.136Z</time></trkpt><trkpt lat="43.43541" lon="11.5550617"><ele>639.0</ele><time>2026-04-17T09:18:11.136Z</time></trkpt><trkpt lat="43.43552" lon="11.5550833"><ele>639.0</ele><time>2026-04-17T09:18:12.136Z</time></trkpt><trkpt lat="43.4356233" lon="11.5551117"><ele>639.6</ele><time>2026-04-17T09:18:13.138Z</time></trkpt><trkpt lat="43.43572" lon="11.5551383"><ele>640.2</ele><time>2026-04-17T09:18:14.139Z</time></trkpt><trkpt lat="43.4358083" lon="11.5551633"><ele>640.8000000000001</ele><time>2026-04-17T09:18:15.143Z</time></trkpt><trkpt lat="43.4358783" lon="11.5551933"><ele>641.4</ele><time>2026-04-17T09:18:16.138Z</time></trkpt><trkpt lat="43.4360017" lon="11.5552617"><ele>642.0</ele><time>2026-04-17T09:18:18.138Z</time></trkpt><trkpt lat="43.4360783" lon="11.555315"><ele>642.6</ele><time>2026-04-17T09:18:19.138Z</time></trkpt><trkpt lat="43.43616" lon="11.55538"><ele>643.2</ele><time>2026-04-17T09:18:20.137Z</time></trkpt><trkpt lat="43.436235" lon="11.55543"><ele>643.8</ele><time>2026-04-17T09:18:21.137Z</time></trkpt><trkpt lat="43.4363167" lon="11.555485"><ele>644.4</ele><time>2026-04-17T09:18:22.136Z</time></trkpt><trkpt lat="43.4364017" lon="11.555555"><ele>645.0</ele><time>2026-04-17T09:18:23.136Z</time></trkpt><trkpt lat="43.4364733" lon="11.555625"><ele>645.0</ele><time>2026-04-17T09:18:24.138Z</time></trkpt><trkpt lat="43.436535" lon="11.55569"><ele>645.0</ele><time>2026-04-17T09:18:25.137Z</time></trkpt><trkpt lat="43.4366017" lon="11.55574"><ele>645.0</ele><time>2026-04-17T09:18:26.138Z</time></trkpt><trkpt lat="43.4366783" lon="11.55578"><ele>645.0</ele><time>2026-04-17T09:18:27.137Z</time></trkpt><trkpt lat="43.4367667" lon="11.5558033"><ele>645.0</ele><time>2026-04-17T09:18:28.138Z</time></trkpt><trkpt lat="43.4368683" lon="11.5558133"><ele>645.0</ele><time>2026-04-17T09:18:29.134Z</time></trkpt><trkpt lat="43.436965" lon="11.5558083"><ele>645.0</ele><time>2026-04-17T09:18:30.136Z</time></trkpt><trkpt lat="43.4370517" lon="11.5557967"><ele>645.0</ele><time>2026-04-17T09:18:31.137Z</time></trkpt><trkpt lat="43.43713" lon="11.5557883"><ele>645.0</ele><time>2026-04-17T09:18:32.136Z</time></trkpt><trkpt lat="43.4372" lon="11.5558"><ele>645.0</ele><time>2026-04-17T09:18:33.138Z</time></trkpt><trkpt lat="43.4372667" lon="11.555835"><ele>645.0</ele><time>2026-04-17T09:18:34.137Z</time></trkpt><trkpt lat="43.43733" lon="11.5558867"><ele>645.0</ele><time>2026-04-17T09:18:35.136Z</time></trkpt><trkpt lat="43.43739" lon="11.5559417"><ele>643.8571428571429</ele><time>2026-04-17T09:18:36.139Z</time></trkpt><trkpt lat="43.437455" lon="11.5559933"><ele>642.7142857142857</ele><time>2026-04-17T09:18:37.138Z</time></trkpt><trkpt lat="43.437525" lon="11.5560433"><ele>641.5714285714286</ele><time>2026-04-17T09:18:38.139Z</time></trkpt><trkpt lat="43.43759" lon="11.5560883"><ele>640.4285714285714</ele><time>2026-04-17T09:18:39.139Z</time></trkpt><trkpt lat="43.437655" lon="11.55613"><ele>639.2857142857142</ele><time>2026-04-17T09:18:40.137Z</time></trkpt><trkpt lat="43.43772" lon="11.55617"><ele>638.1428571428571</ele><time>2026-04-17T09:18:41.137Z</time></trkpt><trkpt lat="43.437785" lon="11.556215"><ele>637.0</ele><time>2026-04-17T09:18:42.137Z</time></trkpt><trkpt lat="43.4378433" lon="11.5562633"><ele>635.8571428571429</ele><time>2026-04-17T09:18:43.137Z</time></trkpt><trkpt lat="43.4378967" lon="11.5563233"><ele>634.7142857142858</ele><time>2026-04-17T09:18:44.139Z</time></trkpt><trkpt lat="43.4379433" lon="11.5564017"><ele>633.5714285714286</ele><time>2026-04-17T09:18:45.137Z</time></trkpt><trkpt lat="43.4379867" lon="11.5564883"><ele>632.4285714285714</ele><time>2026-04-17T09:18:46.136Z</time></trkpt><trkpt lat="43.4380267" lon="11.5565767"><ele>631.2857142857143</ele><time>2026-04-17T09:18:47.137Z</time></trkpt><trkpt lat="43.4380633" lon="11.556665"><ele>630.1428571428571</ele><time>2026-04-17T09:18:48.138Z</time></trkpt><trkpt lat="43.4381033" lon="11.55675"><ele>629.0</ele><time>2026-04-17T09:18:49.136Z</time></trkpt><trkpt lat="43.4381433" lon="11.5568383"><ele>627.2</ele><time>2026-04-17T09:18:50.137Z</time></trkpt><trkpt lat="43.4381883" lon="11.5569283"><ele>625.4</ele><time>2026-04-17T09:18:51.137Z</time></trkpt><trkpt lat="43.43824" lon="11.5570217"><ele>623.6</ele><time>2026-04-17T09:18:52.136Z</time></trkpt><trkpt lat="43.438295" lon="11.5571233"><ele>621.8</ele><time>2026-04-17T09:18:53.136Z</time></trkpt><trkpt lat="43.4383467" lon="11.557245"><ele>620.0</ele><time>2026-04-17T09:18:54.138Z</time></trkpt><trkpt lat="43.438395" lon="11.55737"><ele>619.75</ele><time>2026-04-17T09:18:55.139Z</time></trkpt><trkpt lat="43.43843" lon="11.557495"><ele>619.5</ele><time>2026-04-17T09:18:56.137Z</time></trkpt><trkpt lat="43.4384617" lon="11.55764"><ele>619.25</ele><time>2026-04-17T09:18:57.139Z</time></trkpt><trkpt lat="43.4384967" lon="11.5577983"><ele>619.0</ele><time>2026-04-17T09:18:58.137Z</time></trkpt><trkpt lat="43.4385383" lon="11.5579583"><ele>617.6</ele><time>2026-04-17T09:18:59.137Z</time></trkpt><trkpt lat="43.4385733" lon="11.55809"><ele>616.2</ele><time>2026-04-17T09:19:00.137Z</time></trkpt><trkpt lat="43.4386117" lon="11.5581933"><ele>614.8000000000001</ele><time>2026-04-17T09:19:01.139Z</time></trkpt><trkpt lat="43.43866" lon="11.55829"><ele>613.4</ele><time>2026-04-17T09:19:02.138Z</time></trkpt><trkpt lat="43.43872" lon="11.5583967"><ele>612.0</ele><time>2026-04-17T09:19:03.137Z</time></trkpt><trkpt lat="43.4387867" lon="11.5585117"><ele>612.5</ele><time>2026-04-17T09:19:04.137Z</time></trkpt><trkpt lat="43.43885" lon="11.55861"><ele>613.0</ele><time>2026-04-17T09:19:05.137Z</time></trkpt><trkpt lat="43.438905" lon="11.5586917"><ele>613.5</ele><time>2026-04-17T09:19:06.137Z</time></trkpt><trkpt lat="43.43895" lon="11.5587567"><ele>614.0</ele><time>2026-04-17T09:19:07.137Z</time></trkpt><trkpt lat="43.4390217" lon="11.5588633"><ele>614.5</ele><time>2026-04-17T09:19:09.137Z</time></trkpt><trkpt lat="43.439055" lon="11.5589733"><ele>615.0</ele><time>2026-04-17T09:19:11.138Z</time></trkpt><trkpt lat="43.43904" lon="11.559075"><ele>615.0</ele><time>2026-04-17T09:19:13.139Z</time></trkpt><trkpt lat="43.4389517" lon="11.55916"><ele>615.0</ele><time>2026-04-17T09:19:15.139Z</time></trkpt><trkpt lat="43.4388867" lon="11.5591833"><ele>615.0</ele><time>2026-04-17T09:19:16.138Z</time></trkpt><trkpt lat="43.4388167" lon="11.5591883"><ele>615.0</ele><time>2026-04-17T09:19:17.137Z</time></trkpt><trkpt lat="43.4387467" lon="11.5591783"><ele>615.0</ele><time>2026-04-17T09:19:18.139Z</time></trkpt><trkpt lat="43.43868" lon="11.5591433"><ele>615.0</ele><time>2026-04-17T09:19:19.137Z</time></trkpt><trkpt lat="43.4386067" lon="11.5590933"><ele>613.8333333333334</ele><time>2026-04-17T09:19:20.137Z</time></trkpt><trkpt lat="43.438535" lon="11.5590433"><ele>612.6666666666666</ele><time>2026-04-17T09:19:21.138Z</time></trkpt><trkpt lat="43.4384583" lon="11.5589983"><ele>611.5</ele><time>2026-04-17T09:19:22.137Z</time></trkpt><trkpt lat="43.4383717" lon="11.5589717"><ele>610.3333333333333</ele><time>2026-04-17T09:19:23.138Z</time></trkpt><trkpt lat="43.4382817" lon="11.5589433"><ele>609.1666666666666</ele><time>2026-04-17T09:19:24.137Z</time></trkpt><trkpt lat="43.4381917" lon="11.5589033"><ele>608.0</ele><time>2026-04-17T09:19:25.138Z</time></trkpt><trkpt lat="43.43811" lon="11.5588533"><ele>608.0</ele><time>2026-04-17T09:19:26.137Z</time></trkpt><trkpt lat="43.4380267" lon="11.5588133"><ele>608.0</ele><time>2026-04-17T09:19:27.137Z</time></trkpt><trkpt lat="43.4379333" lon="11.5587717"><ele>608.0</ele><time>2026-04-17T09:19:28.136Z</time></trkpt><trkpt lat="43.4378467" lon="11.5587317"><ele>608.0</ele><time>2026-04-17T09:19:29.137Z</time></trkpt><trkpt lat="43.4377633" lon="11.5586917"><ele>608.0</ele><time>2026-04-17T09:19:30.136Z</time></trkpt><trkpt lat="43.4376917" lon="11.5586367"><ele>608.0</ele><time>2026-04-17T09:19:31.138Z</time></trkpt><trkpt lat="43.4376317" lon="11.558575"><ele>607.8333333333333</ele><time>2026-04-17T09:19:32.137Z</time></trkpt><trkpt lat="43.43755" lon="11.558495"><ele>607.6666666666666</ele><time>2026-04-17T09:19:34.137Z</time></trkpt><trkpt lat="43.4374817" lon="11.55851"><ele>607.5</ele><time>2026-04-17T09:19:36.138Z</time></trkpt><trkpt lat="43.4373917" lon="11.5585933"><ele>607.3333333333334</ele><time>2026-04-17T09:19:38.137Z</time></trkpt><trkpt lat="43.4373367" lon="11.5586633"><ele>607.1666666666667</ele><time>2026-04-17T09:19:39.138Z</time></trkpt><trkpt lat="43.4372733" lon="11.5587383"><ele>607.0</ele><time>2026-04-17T09:19:40.136Z</time></trkpt><trkpt lat="43.4372083" lon="11.5588083"><ele>606.3333333333334</ele><time>2026-04-17T09:19:41.138Z</time></trkpt><trkpt lat="43.4371483" lon="11.5588667"><ele>605.6666666666667</ele><time>2026-04-17T09:19:42.138Z</time></trkpt><trkpt lat="43.437075" lon="11.5589233"><ele>605.0</ele><time>2026-04-17T09:19:43.138Z</time></trkpt><trkpt lat="43.4370067" lon="11.5589733"><ele>604.3333333333334</ele><time>2026-04-17T09:19:44.138Z</time></trkpt><trkpt lat="43.4369433" lon="11.55903"><ele>603.6666666666666</ele><time>2026-04-17T09:19:45.135Z</time></trkpt><trkpt lat="43.4368833" lon="11.5590933"><ele>603.0</ele><time>2026-04-17T09:19:46.137Z</time></trkpt><trkpt lat="43.4368283" lon="11.5591633"><ele>603.0</ele><time>2026-04-17T09:19:47.137Z</time></trkpt><trkpt lat="43.4367617" lon="11.5592333"><ele>603.0</ele><time>2026-04-17T09:19:48.137Z</time></trkpt><trkpt lat="43.4366867" lon="11.55929"><ele>603.0</ele><time>2026-04-17T09:19:49.137Z</time></trkpt><trkpt lat="43.4366167" lon="11.5593217"><ele>603.0</ele><time>2026-04-17T09:19:50.137Z</time></trkpt><trkpt lat="43.4365417" lon="11.559335"><ele>603.0</ele><time>2026-04-17T09:19:51.137Z</time></trkpt><trkpt lat="43.4364633" lon="11.55934"><ele>603.0</ele><time>2026-04-17T09:19:52.137Z</time></trkpt><trkpt lat="43.4363817" lon="11.5593183"><ele>603.0</ele><time>2026-04-17T09:19:53.136Z</time></trkpt><trkpt lat="43.4363033" lon="11.559275"><ele>603.0</ele><time>2026-04-17T09:19:54.136Z</time></trkpt><trkpt lat="43.436225" lon="11.5592217"><ele>603.0</ele><time>2026-04-17T09:19:55.138Z</time></trkpt><trkpt lat="43.436145" lon="11.5591617"><ele>603.0</ele><time>2026-04-17T09:19:56.135Z</time></trkpt><trkpt lat="43.4360633" lon="11.5591117"><ele>603.0</ele><time>2026-04-17T09:19:57.138Z</time></trkpt><trkpt lat="43.435995" lon="11.559055"><ele>603.0</ele><time>2026-04-17T09:19:58.136Z</time></trkpt><trkpt lat="43.43594" lon="11.559"><ele>602.8</ele><time>2026-04-17T09:19:59.137Z</time></trkpt><trkpt lat="43.435865" lon="11.55895"><ele>602.5999999999999</ele><time>2026-04-17T09:20:01.137Z</time></trkpt><trkpt lat="43.4358167" lon="11.5590517"><ele>602.4000000000001</ele><time>2026-04-17T09:20:04.137Z</time></trkpt><trkpt lat="43.4358217" lon="11.5591617"><ele>602.2</ele><time>2026-04-17T09:20:05.139Z</time></trkpt><trkpt lat="43.4358217" lon="11.5592917"><ele>602.0</ele><time>2026-04-17T09:20:06.137Z</time></trkpt><trkpt lat="43.4358167" lon="11.559455"><ele>601.1666666666666</ele><time>2026-04-17T09:20:07.136Z</time></trkpt><trkpt lat="43.4358033" lon="11.5596133"><ele>600.3333333333333</ele><time>2026-04-17T09:20:08.137Z</time></trkpt><trkpt lat="43.4357783" lon="11.5597383"><ele>599.5</ele><time>2026-04-17T09:20:09.137Z</time></trkpt><trkpt lat="43.43574" lon="11.559825"><ele>598.6666666666666</ele><time>2026-04-17T09:20:10.137Z</time></trkpt><trkpt lat="43.4357017" lon="11.5599467"><ele>597.8333333333334</ele><time>2026-04-17T09:20:11.136Z</time></trkpt><trkpt lat="43.4356417" lon="11.55999"><ele>597.0</ele><time>2026-04-17T09:20:12.136Z</time></trkpt><trkpt lat="43.4355683" lon="11.560015"><ele>597.0</ele><time>2026-04-17T09:20:13.138Z</time></trkpt><trkpt lat="43.4355033" lon="11.5600467"><ele>597.0</ele><time>2026-04-17T09:20:14.136Z</time></trkpt><trkpt lat="43.4354433" lon="11.56009"><ele>597.0</ele><time>2026-04-17T09:20:15.139Z</time></trkpt><trkpt lat="43.435395" lon="11.5601583"><ele>597.0</ele><time>2026-04-17T09:20:16.137Z</time></trkpt><trkpt lat="43.4353783" lon="11.5602733"><ele>597.0</ele><time>2026-04-17T09:20:17.136Z</time></trkpt><trkpt lat="43.4353517" lon="11.5603817"><ele>597.0</ele><time>2026-04-17T09:20:18.136Z</time></trkpt><trkpt lat="43.4353483" lon="11.5605133"><ele>601.6</ele><time>2026-04-17T09:20:19.138Z</time></trkpt><trkpt lat="43.4353383" lon="11.5606533"><ele>606.2</ele><time>2026-04-17T09:20:20.137Z</time></trkpt><trkpt lat="43.435325" lon="11.5607883"><ele>610.8</ele><time>2026-04-17T09:20:21.139Z</time></trkpt><trkpt lat="43.435305" lon="11.5609233"><ele>615.4</ele><time>2026-04-17T09:20:22.137Z</time></trkpt><trkpt lat="43.4352733" lon="11.561035"><ele>620.0</ele><time>2026-04-17T09:20:23.137Z</time></trkpt><trkpt lat="43.4352267" lon="11.5611383"><ele>617.4</ele><time>2026-04-17T09:20:24.136Z</time></trkpt><trkpt lat="43.4351667" lon="11.56123"><ele>614.8</ele><time>2026-04-17T09:20:25.137Z</time></trkpt><trkpt lat="43.4350917" lon="11.56131"><ele>612.2</ele><time>2026-04-17T09:20:26.136Z</time></trkpt><trkpt lat="43.43501" lon="11.5613833"><ele>609.6</ele><time>2026-04-17T09:20:27.137Z</time></trkpt><trkpt lat="43.4349283" lon="11.56145"><ele>607.0</ele><time>2026-04-17T09:20:28.136Z</time></trkpt><trkpt lat="43.4348467" lon="11.5615033"><ele>607.0</ele><time>2026-04-17T09:20:29.137Z</time></trkpt><trkpt lat="43.434755" lon="11.5615333"><ele>607.0</ele><time>2026-04-17T09:20:30.136Z</time></trkpt><trkpt lat="43.4346517" lon="11.56154"><ele>607.0</ele><time>2026-04-17T09:20:31.138Z</time></trkpt><trkpt lat="43.4345483" lon="11.5615417"><ele>607.0</ele><time>2026-04-17T09:20:32.137Z</time></trkpt><trkpt lat="43.4344533" lon="11.5615533"><ele>607.0</ele><time>2026-04-17T09:20:33.138Z</time></trkpt><trkpt lat="43.43435" lon="11.56158"><ele>607.6</ele><time>2026-04-17T09:20:34.136Z</time></trkpt><trkpt lat="43.4342483" lon="11.5615967"><ele>608.2</ele><time>2026-04-17T09:20:35.136Z</time></trkpt><trkpt lat="43.4341533" lon="11.5616033"><ele>608.8</ele><time>2026-04-17T09:20:36.137Z</time></trkpt><trkpt lat="43.4340633" lon="11.5616067"><ele>609.4</ele><time>2026-04-17T09:20:37.134Z</time></trkpt><trkpt lat="43.43398" lon="11.5616317"><ele>610.0</ele><time>2026-04-17T09:20:38.135Z</time></trkpt><trkpt lat="43.43389" lon="11.5616833"><ele>610.0</ele><time>2026-04-17T09:20:39.137Z</time></trkpt><trkpt lat="43.43381" lon="11.5617483"><ele>610.0</ele><time>2026-04-17T09:20:40.135Z</time></trkpt><trkpt lat="43.433755" lon="11.56181"><ele>610.0</ele><time>2026-04-17T09:20:41.137Z</time></trkpt><trkpt lat="43.4337133" lon="11.5619217"><ele>610.0</ele><time>2026-04-17T09:20:43.139Z</time></trkpt><trkpt lat="43.4336967" lon="11.5620117"><ele>610.0</ele><time>2026-04-17T09:20:44.137Z</time></trkpt><trkpt lat="43.433675" lon="11.562155"><ele>610.0</ele><time>2026-04-17T09:20:45.137Z</time></trkpt><trkpt lat="43.4336567" lon="11.5623"><ele>611.25</ele><time>2026-04-17T09:20:46.138Z</time></trkpt><trkpt lat="43.43363" lon="11.5624433"><ele>612.5</ele><time>2026-04-17T09:20:47.137Z</time></trkpt><trkpt lat="43.4336" lon="11.562595"><ele>613.75</ele><time>2026-04-17T09:20:48.137Z</time></trkpt><trkpt lat="43.4335717" lon="11.5627433"><ele>615.0</ele><time>2026-04-17T09:20:49.138Z</time></trkpt><trkpt lat="43.43355" lon="11.5629117"><ele>615.2</ele><time>2026-04-17T09:20:50.137Z</time></trkpt><trkpt lat="43.4335383" lon="11.5630767"><ele>615.4</ele><time>2026-04-17T09:20:51.139Z</time></trkpt><trkpt lat="43.43353" lon="11.56321"><ele>615.6</ele><time>2026-04-17T09:20:52.138Z</time></trkpt><trkpt lat="43.4335333" lon="11.5633317"><ele>615.8</ele><time>2026-04-17T09:20:53.137Z</time></trkpt><trkpt lat="43.433565" lon="11.5634517"><ele>616.0</ele><time>2026-04-17T09:20:54.137Z</time></trkpt><trkpt lat="43.433615" lon="11.5635717"><ele>616.0</ele><time>2026-04-17T09:20:55.137Z</time></trkpt><trkpt lat="43.43367" lon="11.56369"><ele>616.0</ele><time>2026-04-17T09:20:56.137Z</time></trkpt><trkpt lat="43.4337133" lon="11.563815"><ele>616.0</ele><time>2026-04-17T09:20:57.137Z</time></trkpt><trkpt lat="43.4337367" lon="11.563965"><ele>616.0</ele><time>2026-04-17T09:20:58.138Z</time></trkpt><trkpt lat="43.433755" lon="11.56412"><ele>616.0</ele><time>2026-04-17T09:20:59.136Z</time></trkpt><trkpt lat="43.4337733" lon="11.56426"><ele>616.5</ele><time>2026-04-17T09:21:00.137Z</time></trkpt><trkpt lat="43.433785" lon="11.5643883"><ele>617.0</ele><time>2026-04-17T09:21:01.137Z</time></trkpt><trkpt lat="43.4337967" lon="11.5645017"><ele>617.5</ele><time>2026-04-17T09:21:02.139Z</time></trkpt><trkpt lat="43.4338" lon="11.5646017"><ele>618.0</ele><time>2026-04-17T09:21:03.14Z</time></trkpt><trkpt lat="43.43378" lon="11.5646917"><ele>618.5</ele><time>2026-04-17T09:21:04.137Z</time></trkpt><trkpt lat="43.4337417" lon="11.5647767"><ele>619.0</ele><time>2026-04-17T09:21:05.137Z</time></trkpt><trkpt lat="43.43369" lon="11.5648717"><ele>617.6666666666667</ele><time>2026-04-17T09:21:06.137Z</time></trkpt><trkpt lat="43.4336267" lon="11.5649583"><ele>616.3333333333334</ele><time>2026-04-17T09:21:07.137Z</time></trkpt><trkpt lat="43.433565" lon="11.56503"><ele>615.0</ele><time>2026-04-17T09:21:08.137Z</time></trkpt><trkpt lat="43.433515" lon="11.5651017"><ele>613.6666666666666</ele><time>2026-04-17T09:21:09.137Z</time></trkpt><trkpt lat="43.4334683" lon="11.5651817"><ele>612.3333333333333</ele><time>2026-04-17T09:21:10.137Z</time></trkpt><trkpt lat="43.43343" lon="11.56527"><ele>611.0</ele><time>2026-04-17T09:21:11.14Z</time></trkpt><trkpt lat="43.4333917" lon="11.565365"><ele>607.6666666666666</ele><time>2026-04-17T09:21:12.137Z</time></trkpt><trkpt lat="43.43335" lon="11.56546"><ele>604.3333333333333</ele><time>2026-04-17T09:21:13.137Z</time></trkpt><trkpt lat="43.4333117" lon="11.5655533"><ele>601.0</ele><time>2026-04-17T09:21:14.138Z</time></trkpt><trkpt lat="43.43327" lon="11.56565"><ele>597.6666666666666</ele><time>2026-04-17T09:21:15.137Z</time></trkpt><trkpt lat="43.4332367" lon="11.5657583"><ele>594.3333333333334</ele><time>2026-04-17T09:21:16.138Z</time></trkpt><trkpt lat="43.4332067" lon="11.5658633"><ele>591.0</ele><time>2026-04-17T09:21:17.139Z</time></trkpt><trkpt lat="43.43316" lon="11.5659817"><ele>591.0</ele><time>2026-04-17T09:21:18.137Z</time></trkpt><trkpt lat="43.4331033" lon="11.5661017"><ele>591.0</ele><time>2026-04-17T09:21:19.137Z</time></trkpt><trkpt lat="43.4330467" lon="11.5662183"><ele>591.0</ele><time>2026-04-17T09:21:20.136Z</time></trkpt><trkpt lat="43.4329733" lon="11.5663517"><ele>591.0</ele><time>2026-04-17T09:21:21.139Z</time></trkpt><trkpt lat="43.4329067" lon="11.5664633"><ele>591.0</ele><time>2026-04-17T09:21:22.137Z</time></trkpt><trkpt lat="43.4328567" lon="11.5665683"><ele>593.0</ele><time>2026-04-17T09:21:23.136Z</time></trkpt><trkpt lat="43.4328267" lon="11.5666833"><ele>595.0</ele><time>2026-04-17T09:21:24.136Z</time></trkpt><trkpt lat="43.4328083" lon="11.5668117"><ele>597.0</ele><time>2026-04-17T09:21:25.138Z</time></trkpt><trkpt lat="43.432785" lon="11.5669383"><ele>599.0</ele><time>2026-04-17T09:21:26.137Z</time></trkpt><trkpt lat="43.4327617" lon="11.56706"><ele>601.0</ele><time>2026-04-17T09:21:27.137Z</time></trkpt><trkpt lat="43.4327467" lon="11.56718"><ele>601.6</ele><time>2026-04-17T09:21:28.137Z</time></trkpt><trkpt lat="43.4327383" lon="11.5673083"><ele>602.2</ele><time>2026-04-17T09:21:29.137Z</time></trkpt><trkpt lat="43.4327233" lon="11.567445"><ele>602.8</ele><time>2026-04-17T09:21:30.136Z</time></trkpt><trkpt lat="43.4327117" lon="11.5675883"><ele>603.4</ele><time>2026-04-17T09:21:31.138Z</time></trkpt><trkpt lat="43.4327033" lon="11.5677183"><ele>604.0</ele><time>2026-04-17T09:21:32.136Z</time></trkpt><trkpt lat="43.4326883" lon="11.5678433"><ele>604.6</ele><time>2026-04-17T09:21:33.137Z</time></trkpt><trkpt lat="43.4326683" lon="11.567975"><ele>605.2</ele><time>2026-04-17T09:21:34.137Z</time></trkpt><trkpt lat="43.4326433" lon="11.5681017"><ele>605.8000000000001</ele><time>2026-04-17T09:21:35.136Z</time></trkpt><trkpt lat="43.4326267" lon="11.568225"><ele>606.4</ele><time>2026-04-17T09:21:36.138Z</time></trkpt><trkpt lat="43.432615" lon="11.568365"><ele>607.0</ele><time>2026-04-17T09:21:37.137Z</time></trkpt><trkpt lat="43.4326133" lon="11.5685017"><ele>607.0</ele><time>2026-04-17T09:21:38.138Z</time></trkpt><trkpt lat="43.4326333" lon="11.5686267"><ele>607.0</ele><time>2026-04-17T09:21:39.137Z</time></trkpt><trkpt lat="43.4326517" lon="11.5687533"><ele>607.0</ele><time>2026-04-17T09:21:40.137Z</time></trkpt><trkpt lat="43.432665" lon="11.568885"><ele>607.0</ele><time>2026-04-17T09:21:41.137Z</time></trkpt><trkpt lat="43.43269" lon="11.5690233"><ele>607.0</ele><time>2026-04-17T09:21:42.136Z</time></trkpt><trkpt lat="43.4327233" lon="11.56917"><ele>606.2</ele><time>2026-04-17T09:21:43.137Z</time></trkpt><trkpt lat="43.432755" lon="11.5692983"><ele>605.4000000000001</ele><time>2026-04-17T09:21:44.138Z</time></trkpt><trkpt lat="43.43278" lon="11.5694083"><ele>604.5999999999999</ele><time>2026-04-17T09:21:45.138Z</time></trkpt><trkpt lat="43.43284" lon="11.569555"><ele>603.8</ele><time>2026-04-17T09:21:47.137Z</time></trkpt><trkpt lat="43.4328933" lon="11.56962"><ele>603.0</ele><time>2026-04-17T09:21:48.139Z</time></trkpt><trkpt lat="43.4329583" lon="11.5696833"><ele>600.8333333333334</ele><time>2026-04-17T09:21:49.138Z</time></trkpt><trkpt lat="43.4330233" lon="11.5697433"><ele>598.6666666666666</ele><time>2026-04-17T09:21:50.137Z</time></trkpt><trkpt lat="43.4330867" lon="11.5697933"><ele>596.5</ele><time>2026-04-17T09:21:51.136Z</time></trkpt><trkpt lat="43.4331533" lon="11.5698183"><ele>594.3333333333333</ele><time>2026-04-17T09:21:52.135Z</time></trkpt><trkpt lat="43.4332433" lon="11.5698183"><ele>592.1666666666666</ele><time>2026-04-17T09:21:53.137Z</time></trkpt><trkpt lat="43.43335" lon="11.5697967"><ele>590.0</ele><time>2026-04-17T09:21:54.136Z</time></trkpt><trkpt lat="43.4334783" lon="11.5697583"><ele>590.0</ele><time>2026-04-17T09:21:55.137Z</time></trkpt><trkpt lat="43.433615" lon="11.5697317"><ele>590.0</ele><time>2026-04-17T09:21:56.136Z</time></trkpt><trkpt lat="43.433755" lon="11.5697317"><ele>590.0</ele><time>2026-04-17T09:21:57.136Z</time></trkpt><trkpt lat="43.4339" lon="11.5697517"><ele>590.0</ele><time>2026-04-17T09:21:58.136Z</time></trkpt><trkpt lat="43.43405" lon="11.5697717"><ele>590.0</ele><time>2026-04-17T09:21:59.136Z</time></trkpt><trkpt lat="43.4341967" lon="11.56978"><ele>590.0</ele><time>2026-04-17T09:22:00.136Z</time></trkpt><trkpt lat="43.4343383" lon="11.56978"><ele>590.0</ele><time>2026-04-17T09:22:01.137Z</time></trkpt><trkpt lat="43.4344633" lon="11.56977"><ele>590.0</ele><time>2026-04-17T09:22:02.138Z</time></trkpt><trkpt lat="43.4345683" lon="11.569775"><ele>590.5</ele><time>2026-04-17T09:22:03.14Z</time></trkpt><trkpt lat="43.4346717" lon="11.5698183"><ele>591.0</ele><time>2026-04-17T09:22:04.138Z</time></trkpt><trkpt lat="43.43478" lon="11.56989"><ele>591.5</ele><time>2026-04-17T09:22:05.137Z</time></trkpt><trkpt lat="43.4348983" lon="11.5699783"><ele>592.0</ele><time>2026-04-17T09:22:06.138Z</time></trkpt><trkpt lat="43.4350183" lon="11.570085"><ele>592.0</ele><time>2026-04-17T09:22:07.137Z</time></trkpt><trkpt lat="43.435135" lon="11.5702067"><ele>592.0</ele><time>2026-04-17T09:22:08.138Z</time></trkpt><trkpt lat="43.43525" lon="11.570325"><ele>592.0</ele><time>2026-04-17T09:22:09.139Z</time></trkpt><trkpt lat="43.435355" lon="11.5704383"><ele>592.0</ele><time>2026-04-17T09:22:10.138Z</time></trkpt><trkpt lat="43.4354533" lon="11.5705417"><ele>590.4</ele><time>2026-04-17T09:22:11.138Z</time></trkpt><trkpt lat="43.43554" lon="11.57063"><ele>588.8000000000001</ele><time>2026-04-17T09:22:12.138Z</time></trkpt><trkpt lat="43.4356317" lon="11.5707067"><ele>587.2</ele><time>2026-04-17T09:22:13.137Z</time></trkpt><trkpt lat="43.4357317" lon="11.5707767"><ele>585.6</ele><time>2026-04-17T09:22:14.138Z</time></trkpt><trkpt lat="43.435835" lon="11.5708283"><ele>584.0</ele><time>2026-04-17T09:22:15.138Z</time></trkpt><trkpt lat="43.4359417" lon="11.570865"><ele>584.0</ele><time>2026-04-17T09:22:16.139Z</time></trkpt><trkpt lat="43.4360517" lon="11.570905"><ele>584.0</ele><time>2026-04-17T09:22:17.137Z</time></trkpt><trkpt lat="43.436145" lon="11.5709633"><ele>584.0</ele><time>2026-04-17T09:22:18.137Z</time></trkpt><trkpt lat="43.436225" lon="11.5710467"><ele>584.0</ele><time>2026-04-17T09:22:19.138Z</time></trkpt><trkpt lat="43.43629" lon="11.5711683"><ele>584.0</ele><time>2026-04-17T09:22:20.137Z</time></trkpt><trkpt lat="43.436335" lon="11.5713183"><ele>583.75</ele><time>2026-04-17T09:22:21.137Z</time></trkpt><trkpt lat="43.4363717" lon="11.5714767"><ele>583.5</ele><time>2026-04-17T09:22:22.138Z</time></trkpt><trkpt lat="43.4364" lon="11.571635"><ele>583.25</ele><time>2026-04-17T09:22:23.137Z</time></trkpt><trkpt lat="43.4364333" lon="11.571785"><ele>583.0</ele><time>2026-04-17T09:22:24.138Z</time></trkpt><trkpt lat="43.4364767" lon="11.571925"><ele>578.5</ele><time>2026-04-17T09:22:25.137Z</time></trkpt><trkpt lat="43.43654" lon="11.5720533"><ele>574.0</ele><time>2026-04-17T09:22:26.138Z</time></trkpt><trkpt lat="43.4366067" lon="11.572175"><ele>569.5</ele><time>2026-04-17T09:22:27.14Z</time></trkpt><trkpt lat="43.43668" lon="11.572315"><ele>565.0</ele><time>2026-04-17T09:22:28.139Z</time></trkpt><trkpt lat="43.436755" lon="11.572485"><ele>565.0</ele><time>2026-04-17T09:22:29.137Z</time></trkpt><trkpt lat="43.43683" lon="11.5726683"><ele>565.0</ele><time>2026-04-17T09:22:30.14Z</time></trkpt><trkpt lat="43.4369" lon="11.5728417"><ele>565.0</ele><time>2026-04-17T09:22:31.138Z</time></trkpt><trkpt lat="43.436955" lon="11.5730017"><ele>565.0</ele><time>2026-04-17T09:22:32.135Z</time></trkpt><trkpt lat="43.436985" lon="11.573145"><ele>562.0</ele><time>2026-04-17T09:22:33.136Z</time></trkpt><trkpt lat="43.437005" lon="11.5732717"><ele>559.0</ele><time>2026-04-17T09:22:34.136Z</time></trkpt><trkpt lat="43.4370367" lon="11.573385"><ele>556.0</ele><time>2026-04-17T09:22:35.139Z</time></trkpt><trkpt lat="43.4370817" lon="11.573485"><ele>553.0</ele><time>2026-04-17T09:22:36.137Z</time></trkpt><trkpt lat="43.4371383" lon="11.57357"><ele>550.0</ele><time>2026-04-17T09:22:37.137Z</time></trkpt><trkpt lat="43.4372183" lon="11.57365"><ele>552.0</ele><time>2026-04-17T09:22:38.137Z</time></trkpt><trkpt lat="43.4373183" lon="11.573745"><ele>554.0</ele><time>2026-04-17T09:22:39.138Z</time></trkpt><trkpt lat="43.4374233" lon="11.5738467"><ele>556.0</ele><time>2026-04-17T09:22:40.136Z</time></trkpt><trkpt lat="43.4375217" lon="11.5739367"><ele>558.0</ele><time>2026-04-17T09:22:41.138Z</time></trkpt><trkpt lat="43.43759" lon="11.5740117"><ele>558.0</ele><time>2026-04-17T09:22:42.136Z</time></trkpt><trkpt lat="43.4376267" lon="11.5741"><ele>558.0</ele><time>2026-04-17T09:22:43.138Z</time></trkpt><trkpt lat="43.4376383" lon="11.5742133"><ele>558.0</ele><time>2026-04-17T09:22:44.138Z</time></trkpt><trkpt lat="43.4376383" lon="11.5743433"><ele>558.0</ele><time>2026-04-17T09:22:45.138Z</time></trkpt><trkpt lat="43.4376417" lon="11.5744783"><ele>558.0</ele><time>2026-04-17T09:22:46.137Z</time></trkpt><trkpt lat="43.4376567" lon="11.5745983"><ele>558.0</ele><time>2026-04-17T09:22:47.136Z</time></trkpt><trkpt lat="43.43769" lon="11.5747"><ele>559.1666666666666</ele><time>2026-04-17T09:22:48.137Z</time></trkpt><trkpt lat="43.4377417" lon="11.5747833"><ele>560.3333333333334</ele><time>2026-04-17T09:22:49.138Z</time></trkpt><trkpt lat="43.437815" lon="11.5748517"><ele>561.5</ele><time>2026-04-17T09:22:50.138Z</time></trkpt><trkpt lat="43.4379" lon="11.5748917"><ele>562.6666666666667</ele><time>2026-04-17T09:22:51.138Z</time></trkpt><trkpt lat="43.43799" lon="11.5749217"><ele>563.8333333333334</ele><time>2026-04-17T09:22:52.138Z</time></trkpt><trkpt lat="43.438075" lon="11.5749733"><ele>565.0</ele><time>2026-04-17T09:22:53.138Z</time></trkpt><trkpt lat="43.4381467" lon="11.575075"><ele>565.0</ele><time>2026-04-17T09:22:54.139Z</time></trkpt><trkpt lat="43.438215" lon="11.5752033"><ele>565.0</ele><time>2026-04-17T09:22:55.139Z</time></trkpt><trkpt lat="43.4382883" lon="11.57535"><ele>565.0</ele><time>2026-04-17T09:22:56.138Z</time></trkpt><trkpt lat="43.43836" lon="11.5755017"><ele>565.0</ele><time>2026-04-17T09:22:57.14Z</time></trkpt><trkpt lat="43.4384217" lon="11.57565"><ele>561.2</ele><time>2026-04-17T09:22:58.137Z</time></trkpt><trkpt lat="43.4384633" lon="11.57579"><ele>557.4</ele><time>2026-04-17T09:22:59.137Z</time></trkpt><trkpt lat="43.43847" lon="11.5759217"><ele>553.6</ele><time>2026-04-17T09:23:00.137Z</time></trkpt><trkpt lat="43.4384567" lon="11.5760417"><ele>549.8</ele><time>2026-04-17T09:23:01.137Z</time></trkpt><trkpt lat="43.4384467" lon="11.576155"><ele>546.0</ele><time>2026-04-17T09:23:02.137Z</time></trkpt><trkpt lat="43.4384583" lon="11.5762667"><ele>542.0</ele><time>2026-04-17T09:23:03.14Z</time></trkpt><trkpt lat="43.43849" lon="11.576375"><ele>538.0</ele><time>2026-04-17T09:23:04.138Z</time></trkpt><trkpt lat="43.43854" lon="11.5764817"><ele>534.0</ele><time>2026-04-17T09:23:05.137Z</time></trkpt><trkpt lat="43.4386117" lon="11.5765933"><ele>530.0</ele><time>2026-04-17T09:23:06.138Z</time></trkpt><trkpt lat="43.4386933" lon="11.5767133"><ele>526.0</ele><time>2026-04-17T09:23:07.136Z</time></trkpt><trkpt lat="43.4387717" lon="11.5768433"><ele>526.25</ele><time>2026-04-17T09:23:08.136Z</time></trkpt><trkpt lat="43.4388483" lon="11.57697"><ele>526.5</ele><time>2026-04-17T09:23:09.138Z</time></trkpt><trkpt lat="43.4389233" lon="11.5770933"><ele>526.75</ele><time>2026-04-17T09:23:10.137Z</time></trkpt><trkpt lat="43.439" lon="11.5772133"><ele>527.0</ele><time>2026-04-17T09:23:11.139Z</time></trkpt><trkpt lat="43.4390667" lon="11.5773217"><ele>527.0</ele><time>2026-04-17T09:23:12.136Z</time></trkpt><trkpt lat="43.4391033" lon="11.57742"><ele>527.0</ele><time>2026-04-17T09:23:13.137Z</time></trkpt><trkpt lat="43.4391183" lon="11.5775183"><ele>527.0</ele><time>2026-04-17T09:23:14.136Z</time></trkpt><trkpt lat="43.43911" lon="11.5776483"><ele>527.0</ele><time>2026-04-17T09:23:15.139Z</time></trkpt><trkpt lat="43.4391" lon="11.5777883"><ele>527.0</ele><time>2026-04-17T09:23:16.137Z</time></trkpt><trkpt lat="43.4391017" lon="11.5779317"><ele>526.4</ele><time>2026-04-17T09:23:17.138Z</time></trkpt><trkpt lat="43.4391083" lon="11.5780867"><ele>525.8000000000001</ele><time>2026-04-17T09:23:18.134Z</time></trkpt><trkpt lat="43.4391083" lon="11.578235"><ele>525.2</ele><time>2026-04-17T09:23:19.139Z</time></trkpt><trkpt lat="43.439095" lon="11.57837"><ele>524.6</ele><time>2026-04-17T09:23:20.137Z</time></trkpt><trkpt lat="43.43909" lon="11.5784933"><ele>524.0</ele><time>2026-04-17T09:23:21.139Z</time></trkpt><trkpt lat="43.43911" lon="11.5786017"><ele>524.4</ele><time>2026-04-17T09:23:22.138Z</time></trkpt><trkpt lat="43.43916" lon="11.5787017"><ele>524.8</ele><time>2026-04-17T09:23:23.138Z</time></trkpt><trkpt lat="43.4392067" lon="11.5788133"><ele>525.2</ele><time>2026-04-17T09:23:24.139Z</time></trkpt><trkpt lat="43.4392333" lon="11.578945"><ele>525.6</ele><time>2026-04-17T09:23:25.139Z</time></trkpt><trkpt lat="43.4392383" lon="11.5791"><ele>526.0</ele><time>2026-04-17T09:23:26.138Z</time></trkpt><trkpt lat="43.43924" lon="11.5792467"><ele>526.0</ele><time>2026-04-17T09:23:27.138Z</time></trkpt><trkpt lat="43.43926" lon="11.57938"><ele>526.0</ele><time>2026-04-17T09:23:28.138Z</time></trkpt><trkpt lat="43.439305" lon="11.5794967"><ele>526.0</ele><time>2026-04-17T09:23:29.137Z</time></trkpt><trkpt lat="43.4393633" lon="11.5796017"><ele>526.0</ele><time>2026-04-17T09:23:30.137Z</time></trkpt><trkpt lat="43.4394283" lon="11.5796983"><ele>526.0</ele><time>2026-04-17T09:23:31.137Z</time></trkpt><trkpt lat="43.4394983" lon="11.579795"><ele>525.2</ele><time>2026-04-17T09:23:32.136Z</time></trkpt><trkpt lat="43.4395817" lon="11.5798867"><ele>524.4000000000001</ele><time>2026-04-17T09:23:33.137Z</time></trkpt><trkpt lat="43.4396633" lon="11.5799467"><ele>523.6</ele><time>2026-04-17T09:23:34.137Z</time></trkpt><trkpt lat="43.4397467" lon="11.5799983"><ele>522.8000000000001</ele><time>2026-04-17T09:23:35.137Z</time></trkpt><trkpt lat="43.43983" lon="11.5800483"><ele>522.0</ele><time>2026-04-17T09:23:36.137Z</time></trkpt><trkpt lat="43.43991" lon="11.5801017"><ele>521.1666666666666</ele><time>2026-04-17T09:23:37.137Z</time></trkpt><trkpt lat="43.4399883" lon="11.5801533"><ele>520.3333333333334</ele><time>2026-04-17T09:23:38.138Z</time></trkpt><trkpt lat="43.4400683" lon="11.5802083"><ele>519.5</ele><time>2026-04-17T09:23:39.136Z</time></trkpt><trkpt lat="43.440145" lon="11.58027"><ele>518.6666666666667</ele><time>2026-04-17T09:23:40.137Z</time></trkpt><trkpt lat="43.4402267" lon="11.580335"><ele>517.8333333333334</ele><time>2026-04-17T09:23:41.139Z</time></trkpt><trkpt lat="43.440305" lon="11.5803933"><ele>517.0</ele><time>2026-04-17T09:23:42.13Z</time></trkpt><trkpt lat="43.4403817" lon="11.5804517"><ele>516.4</ele><time>2026-04-17T09:23:43.138Z</time></trkpt><trkpt lat="43.4404583" lon="11.58053"><ele>515.8000000000001</ele><time>2026-04-17T09:23:44.137Z</time></trkpt><trkpt lat="43.4405267" lon="11.5806267"><ele>515.2</ele><time>2026-04-17T09:23:45.138Z</time></trkpt><trkpt lat="43.4405833" lon="11.58073"><ele>514.6</ele><time>2026-04-17T09:23:46.138Z</time></trkpt><trkpt lat="43.440645" lon="11.5808267"><ele>514.0</ele><time>2026-04-17T09:23:47.136Z</time></trkpt><trkpt lat="43.44071" lon="11.5809117"><ele>511.6666666666667</ele><time>2026-04-17T09:23:48.138Z</time></trkpt><trkpt lat="43.4407817" lon="11.5809833"><ele>509.33333333333337</ele><time>2026-04-17T09:23:49.137Z</time></trkpt><trkpt lat="43.4408533" lon="11.581045"><ele>507.0</ele><time>2026-04-17T09:23:50.138Z</time></trkpt><trkpt lat="43.440915" lon="11.5811017"><ele>504.66666666666663</ele><time>2026-04-17T09:23:51.139Z</time></trkpt><trkpt lat="43.44096" lon="11.58117"><ele>502.3333333333333</ele><time>2026-04-17T09:23:52.137Z</time></trkpt><trkpt lat="43.4409783" lon="11.5812617"><ele>500.0</ele><time>2026-04-17T09:23:53.137Z</time></trkpt><trkpt lat="43.4409817" lon="11.5813817"><ele>499.6</ele><time>2026-04-17T09:23:54.141Z</time></trkpt><trkpt lat="43.4409867" lon="11.581525"><ele>499.2</ele><time>2026-04-17T09:23:55.138Z</time></trkpt><trkpt lat="43.4409967" lon="11.58166"><ele>498.79999999999995</ele><time>2026-04-17T09:23:56.138Z</time></trkpt><trkpt lat="43.441015" lon="11.5817883"><ele>498.4</ele><time>2026-04-17T09:23:57.138Z</time></trkpt><trkpt lat="43.4410333" lon="11.5819117"><ele>498.0</ele><time>2026-04-17T09:23:58.138Z</time></trkpt><trkpt lat="43.4410467" lon="11.5820217"><ele>496.85714285714283</ele><time>2026-04-17T09:23:59.137Z</time></trkpt><trkpt lat="43.441045" lon="11.5821233"><ele>495.71428571428567</ele><time>2026-04-17T09:24:00.138Z</time></trkpt><trkpt lat="43.4410233" lon="11.5822117"><ele>494.57142857142856</ele><time>2026-04-17T09:24:01.137Z</time></trkpt><trkpt lat="43.4410017" lon="11.5823033"><ele>493.42857142857144</ele><time>2026-04-17T09:24:02.138Z</time></trkpt><trkpt lat="43.4409933" lon="11.5824017"><ele>492.2857142857143</ele><time>2026-04-17T09:24:03.138Z</time></trkpt><trkpt lat="43.441" lon="11.58251"><ele>491.1428571428571</ele><time>2026-04-17T09:24:04.145Z</time></trkpt><trkpt lat="43.4410167" lon="11.5826217"><ele>490.0</ele><time>2026-04-17T09:24:05.137Z</time></trkpt><trkpt lat="43.4410417" lon="11.582735"><ele>490.00000000000006</ele><time>2026-04-17T09:24:06.136Z</time></trkpt><trkpt lat="43.4410683" lon="11.582845"><ele>490.0</ele><time>2026-04-17T09:24:07.137Z</time></trkpt><trkpt lat="43.4411033" lon="11.582955"><ele>490.0</ele><time>2026-04-17T09:24:08.136Z</time></trkpt><trkpt lat="43.4411433" lon="11.5830433"><ele>490.0</ele><time>2026-04-17T09:24:09.139Z</time></trkpt><trkpt lat="43.4412083" lon="11.58315"><ele>490.00000000000006</ele><time>2026-04-17T09:24:11.136Z</time></trkpt><trkpt lat="43.4412217" lon="11.58324"><ele>490.0</ele><time>2026-04-17T09:24:13.138Z</time></trkpt><trkpt lat="43.4411633" lon="11.5832883"><ele>487.2</ele><time>2026-04-17T09:24:15.138Z</time></trkpt><trkpt lat="43.44106" lon="11.58321"><ele>484.4</ele><time>2026-04-17T09:24:17.137Z</time></trkpt><trkpt lat="43.4410133" lon="11.5831483"><ele>481.6</ele><time>2026-04-17T09:24:18.136Z</time></trkpt><trkpt lat="43.4409383" lon="11.5830767"><ele>478.8</ele><time>2026-04-17T09:24:20.137Z</time></trkpt><trkpt lat="43.4409117" lon="11.5831783"><ele>476.0</ele><time>2026-04-17T09:24:24.139Z</time></trkpt><trkpt lat="43.4410033" lon="11.583295"><ele>476.0</ele><time>2026-04-17T09:24:26.138Z</time></trkpt><trkpt lat="43.44107" lon="11.5833617"><ele>476.0</ele><time>2026-04-17T09:24:27.139Z</time></trkpt><trkpt lat="43.4411567" lon="11.5834183"><ele>476.0</ele><time>2026-04-17T09:24:28.138Z</time></trkpt><trkpt lat="43.44126" lon="11.583455"><ele>476.0</ele><time>2026-04-17T09:24:29.137Z</time></trkpt><trkpt lat="43.4413567" lon="11.5834917"><ele>476.0</ele><time>2026-04-17T09:24:30.137Z</time></trkpt><trkpt lat="43.4414417" lon="11.5835133"><ele>477.8</ele><time>2026-04-17T09:24:31.138Z</time></trkpt><trkpt lat="43.44152" lon="11.5835033"><ele>479.6</ele><time>2026-04-17T09:24:32.138Z</time></trkpt><trkpt lat="43.4415983" lon="11.5834533"><ele>481.4</ele><time>2026-04-17T09:24:33.141Z</time></trkpt><trkpt lat="43.441685" lon="11.5833917"><ele>483.2</ele><time>2026-04-17T09:24:34.139Z</time></trkpt><trkpt lat="43.4417833" lon="11.58334"><ele>485.0</ele><time>2026-04-17T09:24:35.137Z</time></trkpt><trkpt lat="43.44188" lon="11.58331"><ele>485.0</ele><time>2026-04-17T09:24:36.139Z</time></trkpt><trkpt lat="43.4419733" lon="11.583325"><ele>485.0</ele><time>2026-04-17T09:24:37.137Z</time></trkpt><trkpt lat="43.4420633" lon="11.583385"><ele>485.0</ele><time>2026-04-17T09:24:38.136Z</time></trkpt><trkpt lat="43.4421483" lon="11.583465"><ele>485.0</ele><time>2026-04-17T09:24:39.137Z</time></trkpt><trkpt lat="43.4422267" lon="11.5835333"><ele>485.0</ele><time>2026-04-17T09:24:40.137Z</time></trkpt><trkpt lat="43.4423133" lon="11.5835867"><ele>486.4</ele><time>2026-04-17T09:24:41.137Z</time></trkpt><trkpt lat="43.442405" lon="11.5836133"><ele>487.8</ele><time>2026-04-17T09:24:42.139Z</time></trkpt><trkpt lat="43.4424983" lon="11.583605"><ele>489.20000000000005</ele><time>2026-04-17T09:24:43.137Z</time></trkpt><trkpt lat="43.4425967" lon="11.5835783"><ele>490.6</ele><time>2026-04-17T09:24:44.139Z</time></trkpt><trkpt lat="43.4427017" lon="11.58356"><ele>492.0</ele><time>2026-04-17T09:24:45.138Z</time></trkpt><trkpt lat="43.44281" lon="11.583565"><ele>492.0</ele><time>2026-04-17T09:24:46.136Z</time></trkpt><trkpt lat="43.4429217" lon="11.5835867"><ele>492.0</ele><time>2026-04-17T09:24:47.139Z</time></trkpt><trkpt lat="43.4430367" lon="11.5836033"><ele>492.0</ele><time>2026-04-17T09:24:48.137Z</time></trkpt><trkpt lat="43.4431467" lon="11.5836133"><ele>492.0</ele><time>2026-04-17T09:24:49.138Z</time></trkpt><trkpt lat="43.4432633" lon="11.5836133"><ele>493.5</ele><time>2026-04-17T09:24:50.138Z</time></trkpt><trkpt lat="43.4433883" lon="11.5836017"><ele>495.0</ele><time>2026-04-17T09:24:51.138Z</time></trkpt><trkpt lat="43.4435133" lon="11.5835817"><ele>496.5</ele><time>2026-04-17T09:24:52.138Z</time></trkpt><trkpt lat="43.4436267" lon="11.58357"><ele>498.0</ele><time>2026-04-17T09:24:53.139Z</time></trkpt><trkpt lat="43.4437267" lon="11.583575"><ele>497.2</ele><time>2026-04-17T09:24:54.138Z</time></trkpt><trkpt lat="43.4438167" lon="11.583585"><ele>496.4</ele><time>2026-04-17T09:24:55.137Z</time></trkpt><trkpt lat="43.44391" lon="11.5835833"><ele>495.59999999999997</ele><time>2026-04-17T09:24:56.138Z</time></trkpt><trkpt lat="43.4440233" lon="11.5835683"><ele>494.79999999999995</ele><time>2026-04-17T09:24:57.139Z</time></trkpt><trkpt lat="43.44414" lon="11.583555"><ele>494.0</ele><time>2026-04-17T09:24:58.138Z</time></trkpt><trkpt lat="43.44425" lon="11.5835633"><ele>494.0</ele><time>2026-04-17T09:24:59.136Z</time></trkpt><trkpt lat="43.4443517" lon="11.5835883"><ele>494.0</ele><time>2026-04-17T09:25:00.137Z</time></trkpt><trkpt lat="43.4444433" lon="11.5836033"><ele>494.0</ele><time>2026-04-17T09:25:01.138Z</time></trkpt><trkpt lat="43.4445333" lon="11.5836067"><ele>494.0</ele><time>2026-04-17T09:25:02.137Z</time></trkpt><trkpt lat="43.44462" lon="11.5835867"><ele>494.0</ele><time>2026-04-17T09:25:03.139Z</time></trkpt><trkpt lat="43.4447117" lon="11.5835317"><ele>492.2</ele><time>2026-04-17T09:25:04.135Z</time></trkpt><trkpt lat="43.4448067" lon="11.5834633"><ele>490.4</ele><time>2026-04-17T09:25:05.137Z</time></trkpt><trkpt lat="43.4448933" lon="11.5833917"><ele>488.6</ele><time>2026-04-17T09:25:06.138Z</time></trkpt><trkpt lat="43.4449783" lon="11.5833183"><ele>486.8</ele><time>2026-04-17T09:25:07.137Z</time></trkpt><trkpt lat="43.4450617" lon="11.5832467"><ele>485.0</ele><time>2026-04-17T09:25:08.136Z</time></trkpt><trkpt lat="43.445135" lon="11.58319"><ele>485.0</ele><time>2026-04-17T09:25:09.138Z</time></trkpt><trkpt lat="43.445195" lon="11.5831567"><ele>485.0</ele><time>2026-04-17T09:25:10.137Z</time></trkpt><trkpt lat="43.4453183" lon="11.5831733"><ele>485.0</ele><time>2026-04-17T09:25:12.138Z</time></trkpt><trkpt lat="43.4453833" lon="11.5832233"><ele>485.0</ele><time>2026-04-17T09:25:13.135Z</time></trkpt><trkpt lat="43.4454633" lon="11.583305"><ele>485.0</ele><time>2026-04-17T09:25:14.137Z</time></trkpt><trkpt lat="43.4455567" lon="11.58339"><ele>485.75</ele><time>2026-04-17T09:25:15.138Z</time></trkpt><trkpt lat="43.4456583" lon="11.5834733"><ele>486.5</ele><time>2026-04-17T09:25:16.137Z</time></trkpt><trkpt lat="43.445765" lon="11.5835483"><ele>487.25</ele><time>2026-04-17T09:25:17.136Z</time></trkpt><trkpt lat="43.4458717" lon="11.58361"><ele>488.0</ele><time>2026-04-17T09:25:18.137Z</time></trkpt><trkpt lat="43.445985" lon="11.583665"><ele>486.0</ele><time>2026-04-17T09:25:19.139Z</time></trkpt><trkpt lat="43.4460967" lon="11.5837183"><ele>483.99999999999994</ele><time>2026-04-17T09:25:20.137Z</time></trkpt><trkpt lat="43.4462033" lon="11.583775"><ele>481.99999999999994</ele><time>2026-04-17T09:25:21.139Z</time></trkpt><trkpt lat="43.4463033" lon="11.5838333"><ele>480.0</ele><time>2026-04-17T09:25:22.135Z</time></trkpt><trkpt lat="43.4463917" lon="11.5838833"><ele>478.0</ele><time>2026-04-17T09:25:23.136Z</time></trkpt><trkpt lat="43.44648" lon="11.5839117"><ele>478.00000000000006</ele><time>2026-04-17T09:25:24.14Z</time></trkpt><trkpt lat="43.4465717" lon="11.58391"><ele>478.0</ele><time>2026-04-17T09:25:25.139Z</time></trkpt><trkpt lat="43.4466517" lon="11.5838767"><ele>478.0</ele><time>2026-04-17T09:25:26.139Z</time></trkpt><trkpt lat="43.4467267" lon="11.5838383"><ele>478.0</ele><time>2026-04-17T09:25:27.142Z</time></trkpt><trkpt lat="43.4468167" lon="11.5838117"><ele>478.00000000000006</ele><time>2026-04-17T09:25:28.138Z</time></trkpt><trkpt lat="43.4469133" lon="11.5838017"><ele>478.0</ele><time>2026-04-17T09:25:29.137Z</time></trkpt><trkpt lat="43.4470033" lon="11.58379"><ele>478.0</ele><time>2026-04-17T09:25:30.137Z</time></trkpt><trkpt lat="43.4470883" lon="11.5837583"><ele>477.99999999999994</ele><time>2026-04-17T09:25:31.137Z</time></trkpt><trkpt lat="43.4471783" lon="11.5837083"><ele>477.99999999999994</ele><time>2026-04-17T09:25:32.139Z</time></trkpt><trkpt lat="43.4472733" lon="11.5836483"><ele>478.0</ele><time>2026-04-17T09:25:33.142Z</time></trkpt><trkpt lat="43.4473783" lon="11.5836"><ele>478.0</ele><time>2026-04-17T09:25:34.139Z</time></trkpt><trkpt lat="43.4474867" lon="11.5835683"><ele>480.33333333333337</ele><time>2026-04-17T09:25:35.138Z</time></trkpt><trkpt lat="43.4475867" lon="11.58355"><ele>482.6666666666667</ele><time>2026-04-17T09:25:36.137Z</time></trkpt><trkpt lat="43.4476683" lon="11.5835367"><ele>485.0</ele><time>2026-04-17T09:25:37.138Z</time></trkpt><trkpt lat="43.4477433" lon="11.583515"><ele>487.33333333333337</ele><time>2026-04-17T09:25:38.136Z</time></trkpt><trkpt lat="43.4478133" lon="11.5834733"><ele>489.6666666666667</ele><time>2026-04-17T09:25:39.138Z</time></trkpt><trkpt lat="43.4478783" lon="11.5834283"><ele>492.0</ele><time>2026-04-17T09:25:40.138Z</time></trkpt><trkpt lat="43.4479483" lon="11.5833767"><ele>490.28571428571433</ele><time>2026-04-17T09:25:41.137Z</time></trkpt><trkpt lat="43.4480233" lon="11.58333"><ele>488.57142857142856</ele><time>2026-04-17T09:25:42.136Z</time></trkpt><trkpt lat="43.4480933" lon="11.5832883"><ele>486.8571428571429</ele><time>2026-04-17T09:25:43.138Z</time></trkpt><trkpt lat="43.4481567" lon="11.5832567"><ele>485.14285714285717</ele><time>2026-04-17T09:25:44.135Z</time></trkpt><trkpt lat="43.4482217" lon="11.5832383"><ele>483.42857142857144</ele><time>2026-04-17T09:25:45.139Z</time></trkpt><trkpt lat="43.448285" lon="11.583225"><ele>481.7142857142857</ele><time>2026-04-17T09:25:46.137Z</time></trkpt><trkpt lat="43.4483483" lon="11.5832067"><ele>480.0</ele><time>2026-04-17T09:25:47.138Z</time></trkpt><trkpt lat="43.4484133" lon="11.5831883"><ele>480.0</ele><time>2026-04-17T09:25:48.139Z</time></trkpt><trkpt lat="43.4484783" lon="11.58317"><ele>480.0</ele><time>2026-04-17T09:25:49.138Z</time></trkpt><trkpt lat="43.448545" lon="11.583145"><ele>480.0</ele><time>2026-04-17T09:25:50.138Z</time></trkpt><trkpt lat="43.4486133" lon="11.58312"><ele>480.0</ele><time>2026-04-17T09:25:51.139Z</time></trkpt><trkpt lat="43.4486833" lon="11.5831"><ele>480.0</ele><time>2026-04-17T09:25:52.138Z</time></trkpt><trkpt lat="43.4487583" lon="11.583075"><ele>480.0</ele><time>2026-04-17T09:25:53.137Z</time></trkpt><trkpt lat="43.4488333" lon="11.58305"><ele>480.0</ele><time>2026-04-17T09:25:54.137Z</time></trkpt><trkpt lat="43.4488983" lon="11.5830167"><ele>477.4</ele><time>2026-04-17T09:25:55.137Z</time></trkpt><trkpt lat="43.448965" lon="11.5829817"><ele>474.8</ele><time>2026-04-17T09:25:56.138Z</time></trkpt><trkpt lat="43.44908" lon="11.5829767"><ele>472.20000000000005</ele><time>2026-04-17T09:25:58.138Z</time></trkpt><trkpt lat="43.449165" lon="11.5829033"><ele>469.6</ele><time>2026-04-17T09:26:00.137Z</time></trkpt><trkpt lat="43.44919" lon="11.582815"><ele>467.0</ele><time>2026-04-17T09:26:01.138Z</time></trkpt><trkpt lat="43.4492183" lon="11.582685"><ele>467.0</ele><time>2026-04-17T09:26:02.137Z</time></trkpt><trkpt lat="43.4492567" lon="11.5825367"><ele>467.00000000000006</ele><time>2026-04-17T09:26:03.138Z</time></trkpt><trkpt lat="43.449305" lon="11.5824"><ele>467.00000000000006</ele><time>2026-04-17T09:26:04.138Z</time></trkpt><trkpt lat="43.4493683" lon="11.5822867"><ele>467.0</ele><time>2026-04-17T09:26:05.136Z</time></trkpt><trkpt lat="43.449455" lon="11.5821917"><ele>467.0</ele><time>2026-04-17T09:26:06.137Z</time></trkpt><trkpt lat="43.4495583" lon="11.582115"><ele>466.8</ele><time>2026-04-17T09:26:07.138Z</time></trkpt><trkpt lat="43.4496667" lon="11.5820483"><ele>466.6</ele><time>2026-04-17T09:26:08.138Z</time></trkpt><trkpt lat="43.4497717" lon="11.581985"><ele>466.40000000000003</ele><time>2026-04-17T09:26:09.139Z</time></trkpt><trkpt lat="43.4498667" lon="11.581925"><ele>466.20000000000005</ele><time>2026-04-17T09:26:10.137Z</time></trkpt><trkpt lat="43.449955" lon="11.5818783"><ele>466.0</ele><time>2026-04-17T09:26:11.137Z</time></trkpt><trkpt lat="43.450045" lon="11.58185"><ele>466.0</ele><time>2026-04-17T09:26:12.138Z</time></trkpt><trkpt lat="43.4501467" lon="11.581835"><ele>466.0</ele><time>2026-04-17T09:26:13.138Z</time></trkpt><trkpt lat="43.4502567" lon="11.5818217"><ele>466.0</ele><time>2026-04-17T09:26:14.138Z</time></trkpt><trkpt lat="43.45036" lon="11.5818117"><ele>466.0</ele><time>2026-04-17T09:26:15.138Z</time></trkpt><trkpt lat="43.4504633" lon="11.5818033"><ele>466.0</ele><time>2026-04-17T09:26:16.138Z</time></trkpt><trkpt lat="43.450565" lon="11.5817867"><ele>465.42857142857144</ele><time>2026-04-17T09:26:17.139Z</time></trkpt><trkpt lat="43.4506467" lon="11.5817633"><ele>464.85714285714283</ele><time>2026-04-17T09:26:18.138Z</time></trkpt><trkpt lat="43.4507117" lon="11.5817417"><ele>464.2857142857143</ele><time>2026-04-17T09:26:19.136Z</time></trkpt><trkpt lat="43.45078" lon="11.5817367"><ele>463.7142857142857</ele><time>2026-04-17T09:26:20.137Z</time></trkpt><trkpt lat="43.4508517" lon="11.5817533"><ele>463.1428571428571</ele><time>2026-04-17T09:26:21.136Z</time></trkpt><trkpt lat="43.4509217" lon="11.5817917"><ele>462.57142857142856</ele><time>2026-04-17T09:26:22.137Z</time></trkpt><trkpt lat="43.4509833" lon="11.581845"><ele>462.0</ele><time>2026-04-17T09:26:23.138Z</time></trkpt><trkpt lat="43.4510417" lon="11.5819017"><ele>462.0</ele><time>2026-04-17T09:26:24.137Z</time></trkpt><trkpt lat="43.4510983" lon="11.5819483"><ele>462.0</ele><time>2026-04-17T09:26:25.139Z</time></trkpt><trkpt lat="43.4511917" lon="11.581945"><ele>462.0</ele><time>2026-04-17T09:26:27.132Z</time></trkpt><trkpt lat="43.45122" lon="11.5818017"><ele>462.0</ele><time>2026-04-17T09:26:29.136Z</time></trkpt><trkpt lat="43.451205" lon="11.5816983"><ele>462.0</ele><time>2026-04-17T09:26:30.135Z</time></trkpt><trkpt lat="43.4511883" lon="11.5815983"><ele>462.0</ele><time>2026-04-17T09:26:31.137Z</time></trkpt><trkpt lat="43.451175" lon="11.5815"><ele>462.0</ele><time>2026-04-17T09:26:32.136Z</time></trkpt><trkpt lat="43.4511633" lon="11.5813933"><ele>462.0</ele><time>2026-04-17T09:26:33.134Z</time></trkpt><trkpt lat="43.451165" lon="11.5812917"><ele>462.0</ele><time>2026-04-17T09:26:34.135Z</time></trkpt><trkpt lat="43.451185" lon="11.5811867"><ele>462.0</ele><time>2026-04-17T09:26:35.136Z</time></trkpt><trkpt lat="43.4512267" lon="11.5810883"><ele>462.0</ele><time>2026-04-17T09:26:36.136Z</time></trkpt><trkpt lat="43.451285" lon="11.5809983"><ele>462.0</ele><time>2026-04-17T09:26:37.136Z</time></trkpt><trkpt lat="43.451365" lon="11.58091"><ele>459.5</ele><time>2026-04-17T09:26:38.139Z</time></trkpt><trkpt lat="43.4514467" lon="11.580835"><ele>457.0</ele><time>2026-04-17T09:26:39.136Z</time></trkpt><trkpt lat="43.4515233" lon="11.58077"><ele>454.5</ele><time>2026-04-17T09:26:40.135Z</time></trkpt><trkpt lat="43.4515917" lon="11.5807217"><ele>452.0</ele><time>2026-04-17T09:26:41.135Z</time></trkpt><trkpt lat="43.4516567" lon="11.5806767"><ele>449.5</ele><time>2026-04-17T09:26:42.137Z</time></trkpt><trkpt lat="43.4517283" lon="11.580635"><ele>447.0</ele><time>2026-04-17T09:26:43.137Z</time></trkpt><trkpt lat="43.4518167" lon="11.5805983"><ele>447.0</ele><time>2026-04-17T09:26:44.137Z</time></trkpt><trkpt lat="43.45191" lon="11.5805767"><ele>447.0</ele><time>2026-04-17T09:26:45.138Z</time></trkpt><trkpt lat="43.451995" lon="11.58057"><ele>447.0</ele><time>2026-04-17T09:26:46.138Z</time></trkpt><trkpt lat="43.4520733" lon="11.5805733"><ele>447.0</ele><time>2026-04-17T09:26:47.136Z</time></trkpt><trkpt lat="43.4521517" lon="11.5805883"><ele>447.0</ele><time>2026-04-17T09:26:48.138Z</time></trkpt><trkpt lat="43.4522233" lon="11.580605"><ele>447.0</ele><time>2026-04-17T09:26:49.136Z</time></trkpt><trkpt lat="43.4523067" lon="11.58061"><ele>445.40000000000003</ele><time>2026-04-17T09:26:50.136Z</time></trkpt><trkpt lat="43.4524033" lon="11.5805883"><ele>443.80000000000007</ele><time>2026-04-17T09:26:51.137Z</time></trkpt><trkpt lat="43.452505" lon="11.5805483"><ele>442.2</ele><time>2026-04-17T09:26:52.136Z</time></trkpt><trkpt lat="43.452615" lon="11.5805117"><ele>440.6</ele><time>2026-04-17T09:26:53.136Z</time></trkpt><trkpt lat="43.4527233" lon="11.5804833"><ele>439.0</ele><time>2026-04-17T09:26:54.137Z</time></trkpt><trkpt lat="43.4528267" lon="11.58046"><ele>439.0</ele><time>2026-04-17T09:26:55.137Z</time></trkpt><trkpt lat="43.4529317" lon="11.5804433"><ele>439.0</ele><time>2026-04-17T09:26:56.136Z</time></trkpt><trkpt lat="43.453035" lon="11.5804367"><ele>439.0</ele><time>2026-04-17T09:26:57.136Z</time></trkpt><trkpt lat="43.45314" lon="11.580445"><ele>439.0</ele><time>2026-04-17T09:26:58.137Z</time></trkpt><trkpt lat="43.45324" lon="11.5804733"><ele>439.0</ele><time>2026-04-17T09:26:59.135Z</time></trkpt><trkpt lat="43.4533333" lon="11.580525"><ele>437.0</ele><time>2026-04-17T09:27:00.134Z</time></trkpt><trkpt lat="43.4534183" lon="11.5805983"><ele>435.0</ele><time>2026-04-17T09:27:01.138Z</time></trkpt><trkpt lat="43.4535" lon="11.5806783"><ele>433.0</ele><time>2026-04-17T09:27:02.137Z</time></trkpt><trkpt lat="43.4535767" lon="11.580775"><ele>431.0</ele><time>2026-04-17T09:27:03.137Z</time></trkpt><trkpt lat="43.4536517" lon="11.5808833"><ele>429.0</ele><time>2026-04-17T09:27:04.135Z</time></trkpt><trkpt lat="43.4537217" lon="11.5809867"><ele>429.0</ele><time>2026-04-17T09:27:05.137Z</time></trkpt><trkpt lat="43.4537883" lon="11.5810883"><ele>429.0</ele><time>2026-04-17T09:27:06.136Z</time></trkpt><trkpt lat="43.45386" lon="11.5811783"><ele>429.0</ele><time>2026-04-17T09:27:07.135Z</time></trkpt><trkpt lat="43.4539317" lon="11.5812617"><ele>429.0</ele><time>2026-04-17T09:27:08.135Z</time></trkpt><trkpt lat="43.4540017" lon="11.58134"><ele>429.0</ele><time>2026-04-17T09:27:09.136Z</time></trkpt><trkpt lat="43.4540683" lon="11.5814117"><ele>427.2857142857143</ele><time>2026-04-17T09:27:10.135Z</time></trkpt><trkpt lat="43.454135" lon="11.5814683"><ele>425.57142857142856</ele><time>2026-04-17T09:27:11.135Z</time></trkpt><trkpt lat="43.454205" lon="11.5815083"><ele>423.8571428571429</ele><time>2026-04-17T09:27:12.137Z</time></trkpt><trkpt lat="43.4542767" lon="11.5815283"><ele>422.1428571428571</ele><time>2026-04-17T09:27:13.135Z</time></trkpt><trkpt lat="43.454345" lon="11.5815267"><ele>420.4285714285714</ele><time>2026-04-17T09:27:14.136Z</time></trkpt><trkpt lat="43.4544117" lon="11.581515"><ele>418.7142857142857</ele><time>2026-04-17T09:27:15.137Z</time></trkpt><trkpt lat="43.4544733" lon="11.581495"><ele>417.0</ele><time>2026-04-17T09:27:16.137Z</time></trkpt><trkpt lat="43.4545683" lon="11.58144"><ele>416.6</ele><time>2026-04-17T09:27:18.137Z</time></trkpt><trkpt lat="43.454645" lon="11.58132"><ele>416.20000000000005</ele><time>2026-04-17T09:27:20.136Z</time></trkpt><trkpt lat="43.4546883" lon="11.5812317"><ele>415.8</ele><time>2026-04-17T09:27:21.138Z</time></trkpt><trkpt lat="43.45473" lon="11.5811333"><ele>415.4</ele><time>2026-04-17T09:27:22.136Z</time></trkpt><trkpt lat="43.4547683" lon="11.5810283"><ele>415.0</ele><time>2026-04-17T09:27:23.135Z</time></trkpt><trkpt lat="43.4548" lon="11.5809133"><ele>417.00000000000006</ele><time>2026-04-17T09:27:24.137Z</time></trkpt><trkpt lat="43.4548133" lon="11.5808"><ele>419.0</ele><time>2026-04-17T09:27:25.138Z</time></trkpt><trkpt lat="43.4548317" lon="11.5807017"><ele>421.0</ele><time>2026-04-17T09:27:26.136Z</time></trkpt><trkpt lat="43.4548567" lon="11.5806133"><ele>423.0</ele><time>2026-04-17T09:27:27.138Z</time></trkpt><trkpt lat="43.454895" lon="11.58054"><ele>425.00000000000006</ele><time>2026-04-17T09:27:28.138Z</time></trkpt><trkpt lat="43.4549967" lon="11.5804317"><ele>427.0</ele><time>2026-04-17T09:27:30.137Z</time></trkpt><trkpt lat="43.4550533" lon="11.5803883"><ele>428.85714285714283</ele><time>2026-04-17T09:27:31.139Z</time></trkpt><trkpt lat="43.455115" lon="11.5803467"><ele>430.7142857142857</ele><time>2026-04-17T09:27:32.136Z</time></trkpt><trkpt lat="43.455185" lon="11.5803217"><ele>432.57142857142856</ele><time>2026-04-17T09:27:33.137Z</time></trkpt><trkpt lat="43.45525" lon="11.5802883"><ele>434.42857142857144</ele><time>2026-04-17T09:27:34.136Z</time></trkpt><trkpt lat="43.4552967" lon="11.5802283"><ele>436.2857142857143</ele><time>2026-04-17T09:27:35.135Z</time></trkpt><trkpt lat="43.4553233" lon="11.580145"><ele>438.1428571428571</ele><time>2026-04-17T09:27:36.137Z</time></trkpt><trkpt lat="43.45534" lon="11.5800533"><ele>440.0</ele><time>2026-04-17T09:27:37.136Z</time></trkpt><trkpt lat="43.45536" lon="11.5799517"><ele>439.99999999999994</ele><time>2026-04-17T09:27:38.135Z</time></trkpt><trkpt lat="43.4553883" lon="11.57984"><ele>440.0</ele><time>2026-04-17T09:27:39.139Z</time></trkpt><trkpt lat="43.455415" lon="11.5797183"><ele>440.0</ele><time>2026-04-17T09:27:40.137Z</time></trkpt><trkpt lat="43.45543" lon="11.579595"><ele>440.0</ele><time>2026-04-17T09:27:41.135Z</time></trkpt><trkpt lat="43.4554367" lon="11.5794817"><ele>439.99999999999994</ele><time>2026-04-17T09:27:42.137Z</time></trkpt><trkpt lat="43.455445" lon="11.579375"><ele>440.0</ele><time>2026-04-17T09:27:43.133Z</time></trkpt><trkpt lat="43.4554617" lon="11.57925"><ele>440.4</ele><time>2026-04-17T09:27:44.137Z</time></trkpt><trkpt lat="43.4554817" lon="11.579115"><ele>440.8</ele><time>2026-04-17T09:27:45.138Z</time></trkpt><trkpt lat="43.455505" lon="11.5789767"><ele>441.20000000000005</ele><time>2026-04-17T09:27:46.136Z</time></trkpt><trkpt lat="43.45554" lon="11.5788583"><ele>441.6</ele><time>2026-04-17T09:27:47.135Z</time></trkpt><trkpt lat="43.4555967" lon="11.57877"><ele>442.0</ele><time>2026-04-17T09:27:48.141Z</time></trkpt><trkpt lat="43.4556683" lon="11.5786833"><ele>444.8</ele><time>2026-04-17T09:27:49.137Z</time></trkpt><trkpt lat="43.4557433" lon="11.5785917"><ele>447.6</ele><time>2026-04-17T09:27:50.136Z</time></trkpt><trkpt lat="43.455825" lon="11.5784867"><ele>450.40000000000003</ele><time>2026-04-17T09:27:51.136Z</time></trkpt><trkpt lat="43.4558983" lon="11.578385"><ele>453.20000000000005</ele><time>2026-04-17T09:27:52.136Z</time></trkpt><trkpt lat="43.4559633" lon="11.5782917"><ele>456.0</ele><time>2026-04-17T09:27:53.135Z</time></trkpt><trkpt lat="43.456015" lon="11.5782017"><ele>456.0</ele><time>2026-04-17T09:27:54.136Z</time></trkpt><trkpt lat="43.4560583" lon="11.5780983"><ele>456.0</ele><time>2026-04-17T09:27:55.137Z</time></trkpt><trkpt lat="43.4561" lon="11.5779883"><ele>456.0</ele><time>2026-04-17T09:27:56.137Z</time></trkpt><trkpt lat="43.4561367" lon="11.5778783"><ele>456.0</ele><time>2026-04-17T09:27:57.138Z</time></trkpt><trkpt lat="43.4561533" lon="11.5777767"><ele>456.0</ele><time>2026-04-17T09:27:58.137Z</time></trkpt><trkpt lat="43.4561617" lon="11.577665"><ele>456.0</ele><time>2026-04-17T09:27:59.136Z</time></trkpt><trkpt lat="43.456155" lon="11.5775517"><ele>456.0</ele><time>2026-04-17T09:28:00.137Z</time></trkpt><trkpt lat="43.4561533" lon="11.5774433"><ele>456.0</ele><time>2026-04-17T09:28:01.138Z</time></trkpt><trkpt lat="43.4561667" lon="11.57735"><ele>456.0</ele><time>2026-04-17T09:28:02.135Z</time></trkpt><trkpt lat="43.4562083" lon="11.577275"><ele>456.0</ele><time>2026-04-17T09:28:03.137Z</time></trkpt><trkpt lat="43.45626" lon="11.5771983"><ele>456.0</ele><time>2026-04-17T09:28:04.136Z</time></trkpt><trkpt lat="43.4563167" lon="11.5771017"><ele>456.0</ele><time>2026-04-17T09:28:05.135Z</time></trkpt><trkpt lat="43.4563717" lon="11.5769917"><ele>457.4</ele><time>2026-04-17T09:28:06.135Z</time></trkpt><trkpt lat="43.45642" lon="11.57686"><ele>458.8</ele><time>2026-04-17T09:28:07.135Z</time></trkpt><trkpt lat="43.45646" lon="11.57673"><ele>460.19999999999993</ele><time>2026-04-17T09:28:08.136Z</time></trkpt><trkpt lat="43.456505" lon="11.5766133"><ele>461.59999999999997</ele><time>2026-04-17T09:28:09.136Z</time></trkpt><trkpt lat="43.4565617" lon="11.576505"><ele>463.0</ele><time>2026-04-17T09:28:10.135Z</time></trkpt><trkpt lat="43.4566217" lon="11.5764033"><ele>463.0</ele><time>2026-04-17T09:28:11.135Z</time></trkpt><trkpt lat="43.4566767" lon="11.5763033"><ele>462.99999999999994</ele><time>2026-04-17T09:28:12.135Z</time></trkpt><trkpt lat="43.4567317" lon="11.576195"><ele>462.99999999999994</ele><time>2026-04-17T09:28:13.136Z</time></trkpt><trkpt lat="43.4567917" lon="11.5760867"><ele>463.0</ele><time>2026-04-17T09:28:14.137Z</time></trkpt><trkpt lat="43.456855" lon="11.57599"><ele>463.0</ele><time>2026-04-17T09:28:15.131Z</time></trkpt><trkpt lat="43.4569217" lon="11.5759167"><ele>463.00000000000006</ele><time>2026-04-17T09:28:16.139Z</time></trkpt><trkpt lat="43.4570017" lon="11.5758617"><ele>463.0</ele><time>2026-04-17T09:28:17.138Z</time></trkpt><trkpt lat="43.4570867" lon="11.57583"><ele>463.0</ele><time>2026-04-17T09:28:18.136Z</time></trkpt><trkpt lat="43.4571667" lon="11.5758"><ele>463.0</ele><time>2026-04-17T09:28:19.136Z</time></trkpt><trkpt lat="43.4572383" lon="11.5757633"><ele>463.00000000000006</ele><time>2026-04-17T09:28:20.136Z</time></trkpt><trkpt lat="43.4573083" lon="11.5757233"><ele>463.0</ele><time>2026-04-17T09:28:21.14Z</time></trkpt><trkpt lat="43.4573817" lon="11.5756783"><ele>463.6666666666667</ele><time>2026-04-17T09:28:22.137Z</time></trkpt><trkpt lat="43.4574583" lon="11.575645"><ele>464.33333333333337</ele><time>2026-04-17T09:28:23.136Z</time></trkpt><trkpt lat="43.457535" lon="11.575635"><ele>465.0</ele><time>2026-04-17T09:28:24.138Z</time></trkpt><trkpt lat="43.4576133" lon="11.5756533"><ele>465.66666666666663</ele><time>2026-04-17T09:28:25.138Z</time></trkpt><trkpt lat="43.4576867" lon="11.5756733"><ele>466.3333333333333</ele><time>2026-04-17T09:28:26.138Z</time></trkpt><trkpt lat="43.4577517" lon="11.575675"><ele>467.0</ele><time>2026-04-17T09:28:27.139Z</time></trkpt><trkpt lat="43.45787" lon="11.575605"><ele>466.99999999999994</ele><time>2026-04-17T09:28:29.136Z</time></trkpt><trkpt lat="43.4579117" lon="11.575525"><ele>467.0</ele><time>2026-04-17T09:28:30.136Z</time></trkpt><trkpt lat="43.4579533" lon="11.5754283"><ele>467.0</ele><time>2026-04-17T09:28:31.138Z</time></trkpt><trkpt lat="43.4579933" lon="11.5753333"><ele>467.0</ele><time>2026-04-17T09:28:32.136Z</time></trkpt><trkpt lat="43.4580317" lon="11.5752367"><ele>466.99999999999994</ele><time>2026-04-17T09:28:33.138Z</time></trkpt><trkpt lat="43.4580683" lon="11.57514"><ele>467.0</ele><time>2026-04-17T09:28:34.138Z</time></trkpt><trkpt lat="43.458105" lon="11.575045"><ele>464.99999999999994</ele><time>2026-04-17T09:28:35.136Z</time></trkpt><trkpt lat="43.4581483" lon="11.5749567"><ele>463.0</ele><time>2026-04-17T09:28:36.136Z</time></trkpt><trkpt lat="43.4581933" lon="11.5748717"><ele>460.99999999999994</ele><time>2026-04-17T09:28:37.137Z</time></trkpt><trkpt lat="43.4582333" lon="11.5747933"><ele>458.99999999999994</ele><time>2026-04-17T09:28:38.136Z</time></trkpt><trkpt lat="43.458285" lon="11.574735"><ele>457.0</ele><time>2026-04-17T09:28:39.137Z</time></trkpt><trkpt lat="43.4583533" lon="11.5747217"><ele>454.99999999999994</ele><time>2026-04-17T09:28:40.136Z</time></trkpt><trkpt lat="43.4584383" lon="11.5747483"><ele>452.99999999999994</ele><time>2026-04-17T09:28:41.134Z</time></trkpt><trkpt lat="43.4585333" lon="11.57479"><ele>453.0</ele><time>2026-04-17T09:28:42.136Z</time></trkpt><trkpt lat="43.4586383" lon="11.5748333"><ele>452.99999999999994</ele><time>2026-04-17T09:28:43.136Z</time></trkpt><trkpt lat="43.4587533" lon="11.574865"><ele>452.99999999999994</ele><time>2026-04-17T09:28:44.136Z</time></trkpt><trkpt lat="43.45886" lon="11.5748817"><ele>453.0</ele><time>2026-04-17T09:28:45.137Z</time></trkpt><trkpt lat="43.4589667" lon="11.5748983"><ele>453.0</ele><time>2026-04-17T09:28:46.136Z</time></trkpt><trkpt lat="43.45907" lon="11.57491"><ele>451.59999999999997</ele><time>2026-04-17T09:28:47.136Z</time></trkpt><trkpt lat="43.4591717" lon="11.5749167"><ele>450.19999999999993</ele><time>2026-04-17T09:28:48.139Z</time></trkpt><trkpt lat="43.4592717" lon="11.5749267"><ele>448.8</ele><time>2026-04-17T09:28:49.137Z</time></trkpt><trkpt lat="43.4593583" lon="11.5749183"><ele>447.4</ele><time>2026-04-17T09:28:50.136Z</time></trkpt><trkpt lat="43.459445" lon="11.5748883"><ele>446.0</ele><time>2026-04-17T09:28:51.138Z</time></trkpt><trkpt lat="43.4595333" lon="11.5748233"><ele>444.0</ele><time>2026-04-17T09:28:52.136Z</time></trkpt><trkpt lat="43.45962" lon="11.5747483"><ele>442.0</ele><time>2026-04-17T09:28:53.136Z</time></trkpt><trkpt lat="43.459715" lon="11.574675"><ele>440.0</ele><time>2026-04-17T09:28:54.136Z</time></trkpt><trkpt lat="43.4598183" lon="11.5746083"><ele>438.0</ele><time>2026-04-17T09:28:55.136Z</time></trkpt><trkpt lat="43.4599317" lon="11.5745583"><ele>436.0</ele><time>2026-04-17T09:28:56.137Z</time></trkpt><trkpt lat="43.460055" lon="11.5745317"><ele>436.0</ele><time>2026-04-17T09:28:57.136Z</time></trkpt><trkpt lat="43.4601883" lon="11.5745183"><ele>436.0</ele><time>2026-04-17T09:28:58.136Z</time></trkpt><trkpt lat="43.4603217" lon="11.5745033"><ele>436.0</ele><time>2026-04-17T09:28:59.135Z</time></trkpt><trkpt lat="43.4604483" lon="11.57449"><ele>436.0</ele><time>2026-04-17T09:29:00.137Z</time></trkpt><trkpt lat="43.4605633" lon="11.5744767"><ele>436.00000000000006</ele><time>2026-04-17T09:29:01.138Z</time></trkpt><trkpt lat="43.4606667" lon="11.574465"><ele>436.0</ele><time>2026-04-17T09:29:02.136Z</time></trkpt><trkpt lat="43.460765" lon="11.5744533"><ele>436.0</ele><time>2026-04-17T09:29:03.137Z</time></trkpt><trkpt lat="43.4608583" lon="11.574435"><ele>436.0</ele><time>2026-04-17T09:29:04.136Z</time></trkpt><trkpt lat="43.4609333" lon="11.574405"><ele>436.00000000000006</ele><time>2026-04-17T09:29:05.135Z</time></trkpt><trkpt lat="43.4609833" lon="11.5743367"><ele>436.0</ele><time>2026-04-17T09:29:06.136Z</time></trkpt><trkpt lat="43.461015" lon="11.57424"><ele>436.00000000000006</ele><time>2026-04-17T09:29:07.135Z</time></trkpt><trkpt lat="43.46105" lon="11.5741483"><ele>436.0</ele><time>2026-04-17T09:29:08.136Z</time></trkpt><trkpt lat="43.4610983" lon="11.5740833"><ele>436.0</ele><time>2026-04-17T09:29:09.137Z</time></trkpt><trkpt lat="43.461165" lon="11.574035"><ele>436.0</ele><time>2026-04-17T09:29:10.135Z</time></trkpt><trkpt lat="43.4612367" lon="11.5739817"><ele>436.00000000000006</ele><time>2026-04-17T09:29:11.136Z</time></trkpt><trkpt lat="43.4613033" lon="11.57392"><ele>436.0</ele><time>2026-04-17T09:29:12.137Z</time></trkpt><trkpt lat="43.46137" lon="11.5738483"><ele>437.50000000000006</ele><time>2026-04-17T09:29:13.137Z</time></trkpt><trkpt lat="43.46144" lon="11.5737817"><ele>439.0</ele><time>2026-04-17T09:29:14.136Z</time></trkpt><trkpt lat="43.46151" lon="11.5737217"><ele>440.5</ele><time>2026-04-17T09:29:15.138Z</time></trkpt><trkpt lat="43.46158" lon="11.5736667"><ele>442.0</ele><time>2026-04-17T09:29:16.138Z</time></trkpt><trkpt lat="43.4616533" lon="11.5736267"><ele>443.50000000000006</ele><time>2026-04-17T09:29:17.138Z</time></trkpt><trkpt lat="43.4617267" lon="11.573615"><ele>445.0</ele><time>2026-04-17T09:29:18.137Z</time></trkpt><trkpt lat="43.4618283" lon="11.57367"><ele>445.00000000000006</ele><time>2026-04-17T09:29:20.139Z</time></trkpt><trkpt lat="43.4618633" lon="11.5737467"><ele>445.0</ele><time>2026-04-17T09:29:21.139Z</time></trkpt><trkpt lat="43.4618917" lon="11.5738383"><ele>445.0</ele><time>2026-04-17T09:29:22.137Z</time></trkpt><trkpt lat="43.4619317" lon="11.57394"><ele>445.0</ele><time>2026-04-17T09:29:23.136Z</time></trkpt><trkpt lat="43.46198" lon="11.5740317"><ele>445.00000000000006</ele><time>2026-04-17T09:29:24.138Z</time></trkpt><trkpt lat="43.4620483" lon="11.5741167"><ele>445.0</ele><time>2026-04-17T09:29:25.137Z</time></trkpt><trkpt lat="43.4621183" lon="11.5742033"><ele>445.83333333333337</ele><time>2026-04-17T09:29:26.138Z</time></trkpt><trkpt lat="43.4621833" lon="11.574295"><ele>446.6666666666667</ele><time>2026-04-17T09:29:27.139Z</time></trkpt><trkpt lat="43.4622433" lon="11.57438"><ele>447.5</ele><time>2026-04-17T09:29:28.138Z</time></trkpt><trkpt lat="43.4623" lon="11.5744567"><ele>448.33333333333337</ele><time>2026-04-17T09:29:29.137Z</time></trkpt><trkpt lat="43.4623617" lon="11.5745167"><ele>449.1666666666667</ele><time>2026-04-17T09:29:30.144Z</time></trkpt><trkpt lat="43.46243" lon="11.5745483"><ele>450.0</ele><time>2026-04-17T09:29:31.137Z</time></trkpt><trkpt lat="43.4625117" lon="11.57454"><ele>450.0</ele><time>2026-04-17T09:36:30.137Z</time></trkpt><trkpt lat="43.4624467" lon="11.5745533"><ele>450.0</ele><time>2026-04-17T09:37:00.133Z</time></trkpt><trkpt lat="43.462565" lon="11.5745417"><ele>450.0</ele><time>2026-04-17T09:39:39.137Z</time></trkpt><trkpt lat="43.4626317" lon="11.5745283"><ele>450.0</ele><time>2026-04-17T09:39:41.135Z</time></trkpt><trkpt lat="43.4626983" lon="11.574495"><ele>450.0</ele><time>2026-04-17T09:39:43.135Z</time></trkpt><trkpt lat="43.462765" lon="11.5744267"><ele>450.0</ele><time>2026-04-17T09:39:45.137Z</time></trkpt><trkpt lat="43.4628433" lon="11.574345"><ele>450.0</ele><time>2026-04-17T09:39:47.136Z</time></trkpt><trkpt lat="43.4629083" lon="11.5742667"><ele>450.0</ele><time>2026-04-17T09:39:49.136Z</time></trkpt><trkpt lat="43.4629583" lon="11.5742133"><ele>450.0</ele><time>2026-04-17T09:39:54.137Z</time></trkpt><trkpt lat="43.46305" lon="11.574145"><ele>450.0</ele><time>2026-04-17T09:41:00.135Z</time></trkpt><trkpt lat="43.4631267" lon="11.5740933"><ele>450.0</ele><time>2026-04-17T09:41:02.135Z</time></trkpt><trkpt lat="43.4632017" lon="11.5740283"><ele>450.0</ele><time>2026-04-17T09:41:04.136Z</time></trkpt><trkpt lat="43.4632817" lon="11.57397"><ele>448.2</ele><time>2026-04-17T09:41:06.135Z</time></trkpt><trkpt lat="43.4633917" lon="11.5739433"><ele>446.4</ele><time>2026-04-17T09:41:08.135Z</time></trkpt><trkpt lat="43.4635083" lon="11.5739517"><ele>444.6</ele><time>2026-04-17T09:41:10.135Z</time></trkpt><trkpt lat="43.4635933" lon="11.5739833"><ele>442.8</ele><time>2026-04-17T09:41:12.136Z</time></trkpt><trkpt lat="43.46366" lon="11.574005"><ele>441.0</ele><time>2026-04-17T09:41:14.135Z</time></trkpt><trkpt lat="43.46373" lon="11.573995"><ele>441.0</ele><time>2026-04-17T09:41:18.137Z</time></trkpt><trkpt lat="43.4636533" lon="11.5739683"><ele>441.0</ele><time>2026-04-17T09:41:26.136Z</time></trkpt><trkpt lat="43.4635917" lon="11.5739467"><ele>441.0</ele><time>2026-04-17T09:41:27.138Z</time></trkpt><trkpt lat="43.4635067" lon="11.5739283"><ele>441.0</ele><time>2026-04-17T09:41:28.136Z</time></trkpt><trkpt lat="43.4634117" lon="11.5739183"><ele>441.0</ele><time>2026-04-17T09:41:29.135Z</time></trkpt><trkpt lat="43.4633233" lon="11.5739217"><ele>441.0</ele><time>2026-04-17T09:41:30.135Z</time></trkpt><trkpt lat="43.4632483" lon="11.573955"><ele>441.0</ele><time>2026-04-17T09:41:31.136Z</time></trkpt><trkpt lat="43.4631783" lon="11.5740133"><ele>441.0</ele><time>2026-04-17T09:41:32.136Z</time></trkpt><trkpt lat="43.4631033" lon="11.57408"><ele>441.0</ele><time>2026-04-17T09:41:33.139Z</time></trkpt><trkpt lat="43.4630283" lon="11.5741417"><ele>441.0</ele><time>2026-04-17T09:41:34.136Z</time></trkpt><trkpt lat="43.4629583" lon="11.574205"><ele>441.0</ele><time>2026-04-17T09:41:35.137Z</time></trkpt><trkpt lat="43.46289" lon="11.5742733"><ele>441.0</ele><time>2026-04-17T09:41:36.136Z</time></trkpt><trkpt lat="43.462825" lon="11.5743467"><ele>440.3333333333333</ele><time>2026-04-17T09:41:37.139Z</time></trkpt><trkpt lat="43.46276" lon="11.5744167"><ele>439.66666666666663</ele><time>2026-04-17T09:41:38.136Z</time></trkpt><trkpt lat="43.4626967" lon="11.5744733"><ele>439.0</ele><time>2026-04-17T09:41:39.138Z</time></trkpt><trkpt lat="43.4626317" lon="11.57451"><ele>438.3333333333333</ele><time>2026-04-17T09:41:40.136Z</time></trkpt><trkpt lat="43.46256" lon="11.574535"><ele>437.66666666666663</ele><time>2026-04-17T09:41:41.131Z</time></trkpt><trkpt lat="43.46248" lon="11.5745467"><ele>437.0</ele><time>2026-04-17T09:41:42.135Z</time></trkpt><trkpt lat="43.4624067" lon="11.5745483"><ele>436.99999999999994</ele><time>2026-04-17T09:41:43.135Z</time></trkpt><trkpt lat="43.462345" lon="11.57453"><ele>437.0</ele><time>2026-04-17T09:41:44.136Z</time></trkpt><trkpt lat="43.4622483" lon="11.57443"><ele>437.0</ele><time>2026-04-17T09:41:46.136Z</time></trkpt><trkpt lat="43.4621983" lon="11.5743483"><ele>437.0</ele><time>2026-04-17T09:41:47.136Z</time></trkpt><trkpt lat="43.46214" lon="11.5742583"><ele>436.99999999999994</ele><time>2026-04-17T09:41:48.137Z</time></trkpt><trkpt lat="43.4620783" lon="11.5741683"><ele>437.0</ele><time>2026-04-17T09:41:49.137Z</time></trkpt><trkpt lat="43.4620233" lon="11.57409"><ele>438.3333333333333</ele><time>2026-04-17T09:41:50.137Z</time></trkpt><trkpt lat="43.46197" lon="11.5740167"><ele>439.66666666666663</ele><time>2026-04-17T09:41:51.137Z</time></trkpt><trkpt lat="43.4619217" lon="11.57393"><ele>441.0</ele><time>2026-04-17T09:41:52.136Z</time></trkpt><trkpt lat="43.4618783" lon="11.5738367"><ele>442.33333333333337</ele><time>2026-04-17T09:41:53.136Z</time></trkpt><trkpt lat="43.46184" lon="11.5737533"><ele>443.6666666666667</ele><time>2026-04-17T09:41:54.138Z</time></trkpt><trkpt lat="43.4617933" lon="11.573635"><ele>445.0</ele><time>2026-04-17T09:41:56.135Z</time></trkpt><trkpt lat="43.4618133" lon="11.5735267"><ele>446.2</ele><time>2026-04-17T09:42:08.136Z</time></trkpt><trkpt lat="43.4618483" lon="11.5733867"><ele>447.4</ele><time>2026-04-17T09:42:10.136Z</time></trkpt><trkpt lat="43.4619233" lon="11.5732917"><ele>448.6</ele><time>2026-04-17T09:42:12.135Z</time></trkpt><trkpt lat="43.4620383" lon="11.57329"><ele>449.8</ele><time>2026-04-17T09:42:14.136Z</time></trkpt><trkpt lat="43.462095" lon="11.5732517"><ele>451.0</ele><time>2026-04-17T09:42:15.136Z</time></trkpt><trkpt lat="43.4621483" lon="11.5732017"><ele>451.4</ele><time>2026-04-17T09:42:16.137Z</time></trkpt><trkpt lat="43.4622433" lon="11.573165"><ele>451.8</ele><time>2026-04-17T09:42:18.136Z</time></trkpt><trkpt lat="43.46232" lon="11.5733117"><ele>452.19999999999993</ele><time>2026-04-17T09:42:20.136Z</time></trkpt><trkpt lat="43.46237" lon="11.5734"><ele>452.59999999999997</ele><time>2026-04-17T09:42:21.137Z</time></trkpt><trkpt lat="43.4624167" lon="11.5734833"><ele>453.0</ele><time>2026-04-17T09:42:22.137Z</time></trkpt><trkpt lat="43.4624983" lon="11.5735967"><ele>453.0</ele><time>2026-04-17T09:42:24.137Z</time></trkpt><trkpt lat="43.4626083" lon="11.5736233"><ele>453.0</ele><time>2026-04-17T09:42:26.137Z</time></trkpt><trkpt lat="43.46268" lon="11.5736233"><ele>453.0</ele><time>2026-04-17T09:42:27.138Z</time></trkpt><trkpt lat="43.46275" lon="11.5736083"><ele>453.0</ele><time>2026-04-17T09:42:28.137Z</time></trkpt><trkpt lat="43.4628183" lon="11.573555"><ele>453.0</ele><time>2026-04-17T09:42:29.136Z</time></trkpt><trkpt lat="43.4628767" lon="11.573485"><ele>453.0</ele><time>2026-04-17T09:42:30.136Z</time></trkpt><trkpt lat="43.46294" lon="11.57342"><ele>452.0</ele><time>2026-04-17T09:42:31.137Z</time></trkpt><trkpt lat="43.4630033" lon="11.5733533"><ele>451.0</ele><time>2026-04-17T09:42:32.137Z</time></trkpt><trkpt lat="43.4630517" lon="11.5732833"><ele>450.0</ele><time>2026-04-17T09:42:33.137Z</time></trkpt><trkpt lat="43.4630967" lon="11.573125"><ele>449.0</ele><time>2026-04-17T09:42:35.138Z</time></trkpt><trkpt lat="43.4631117" lon="11.5730383"><ele>448.0</ele><time>2026-04-17T09:42:36.136Z</time></trkpt><trkpt lat="43.4631433" lon="11.572945"><ele>447.0</ele><time>2026-04-17T09:42:37.136Z</time></trkpt><trkpt lat="43.46318" lon="11.5728683"><ele>447.0</ele><time>2026-04-17T09:42:38.135Z</time></trkpt><trkpt lat="43.4632583" lon="11.5727767"><ele>447.00000000000006</ele><time>2026-04-17T09:42:40.135Z</time></trkpt><trkpt lat="43.4633517" lon="11.5728083"><ele>447.00000000000006</ele><time>2026-04-17T09:42:42.137Z</time></trkpt><trkpt lat="43.4634" lon="11.57287"><ele>447.0</ele><time>2026-04-17T09:42:43.135Z</time></trkpt><trkpt lat="43.4634817" lon="11.5729883"><ele>447.0</ele><time>2026-04-17T09:42:45.137Z</time></trkpt><trkpt lat="43.4635433" lon="11.5730933"><ele>447.0</ele><time>2026-04-17T09:42:47.136Z</time></trkpt><trkpt lat="43.4635867" lon="11.57317"><ele>447.0</ele><time>2026-04-17T09:42:49.136Z</time></trkpt><trkpt lat="43.46361" lon="11.5732517"><ele>447.0</ele><time>2026-04-17T09:42:51.137Z</time></trkpt><trkpt lat="43.4636617" lon="11.5733533"><ele>447.0</ele><time>2026-04-17T09:43:03.136Z</time></trkpt><trkpt lat="43.4636717" lon="11.5734983"><ele>447.0</ele><time>2026-04-17T09:43:05.137Z</time></trkpt><trkpt lat="43.4636817" lon="11.5735967"><ele>447.0</ele><time>2026-04-17T09:43:06.135Z</time></trkpt><trkpt lat="43.4636983" lon="11.5736883"><ele>446.0</ele><time>2026-04-17T09:43:07.136Z</time></trkpt><trkpt lat="43.4637217" lon="11.5737783"><ele>445.0</ele><time>2026-04-17T09:43:08.136Z</time></trkpt><trkpt lat="43.4637483" lon="11.573915"><ele>444.0</ele><time>2026-04-17T09:43:10.136Z</time></trkpt><trkpt lat="43.46369" lon="11.574005"><ele>443.0</ele><time>2026-04-17T09:43:17.136Z</time></trkpt><trkpt lat="43.463615" lon="11.5739767"><ele>442.0</ele><time>2026-04-17T09:43:20.137Z</time></trkpt><trkpt lat="43.46352" lon="11.573935"><ele>441.0</ele><time>2026-04-17T09:43:22.136Z</time></trkpt><trkpt lat="43.4634367" lon="11.5739167"><ele>441.0</ele><time>2026-04-17T09:43:23.137Z</time></trkpt><trkpt lat="43.4633517" lon="11.573915"><ele>441.0</ele><time>2026-04-17T09:43:24.136Z</time></trkpt><trkpt lat="43.463275" lon="11.5739433"><ele>441.0</ele><time>2026-04-17T09:43:25.135Z</time></trkpt><trkpt lat="43.4632033" lon="11.574"><ele>441.0</ele><time>2026-04-17T09:43:26.135Z</time></trkpt><trkpt lat="43.4631267" lon="11.5740717"><ele>441.0</ele><time>2026-04-17T09:43:27.138Z</time></trkpt><trkpt lat="43.4630533" lon="11.5741417"><ele>441.0</ele><time>2026-04-17T09:43:28.135Z</time></trkpt><trkpt lat="43.4629867" lon="11.574205"><ele>440.42857142857144</ele><time>2026-04-17T09:43:29.137Z</time></trkpt><trkpt lat="43.4629233" lon="11.5742667"><ele>439.8571428571429</ele><time>2026-04-17T09:43:30.136Z</time></trkpt><trkpt lat="43.4628583" lon="11.57434"><ele>439.2857142857143</ele><time>2026-04-17T09:43:31.136Z</time></trkpt><trkpt lat="43.4628" lon="11.5744083"><ele>438.7142857142857</ele><time>2026-04-17T09:43:32.137Z</time></trkpt><trkpt lat="43.4627417" lon="11.5744617"><ele>438.14285714285717</ele><time>2026-04-17T09:43:33.137Z</time></trkpt><trkpt lat="43.4626833" lon="11.5745017"><ele>437.57142857142856</ele><time>2026-04-17T09:43:34.134Z</time></trkpt><trkpt lat="43.4626233" lon="11.5745283"><ele>437.0</ele><time>2026-04-17T09:43:35.136Z</time></trkpt><trkpt lat="43.4625517" lon="11.5745467"><ele>437.0</ele><time>2026-04-17T09:43:36.134Z</time></trkpt><trkpt lat="43.462475" lon="11.5745517"><ele>437.0</ele><time>2026-04-17T09:43:37.138Z</time></trkpt><trkpt lat="43.4624033" lon="11.5745433"><ele>437.0</ele><time>2026-04-17T09:43:38.136Z</time></trkpt><trkpt lat="43.4623367" lon="11.5745167"><ele>437.0</ele><time>2026-04-17T09:43:39.139Z</time></trkpt><trkpt lat="43.4622833" lon="11.5744633"><ele>437.0</ele><time>2026-04-17T09:43:40.136Z</time></trkpt><trkpt lat="43.4622417" lon="11.5743883"><ele>437.0</ele><time>2026-04-17T09:43:41.136Z</time></trkpt><trkpt lat="43.4621883" lon="11.5743067"><ele>437.0</ele><time>2026-04-17T09:43:42.136Z</time></trkpt><trkpt lat="43.4621217" lon="11.5742167"><ele>438.3333333333333</ele><time>2026-04-17T09:43:43.135Z</time></trkpt><trkpt lat="43.4620483" lon="11.574135"><ele>439.66666666666663</ele><time>2026-04-17T09:43:44.135Z</time></trkpt><trkpt lat="43.4619883" lon="11.5740617"><ele>441.0</ele><time>2026-04-17T09:43:45.138Z</time></trkpt><trkpt lat="43.461935" lon="11.5739817"><ele>442.33333333333337</ele><time>2026-04-17T09:43:46.138Z</time></trkpt><trkpt lat="43.4618867" lon="11.573895"><ele>443.6666666666667</ele><time>2026-04-17T09:43:47.136Z</time></trkpt><trkpt lat="43.4618483" lon="11.5738033"><ele>445.0</ele><time>2026-04-17T09:43:48.136Z</time></trkpt><trkpt lat="43.4618217" lon="11.5737233"><ele>446.2</ele><time>2026-04-17T09:43:49.136Z</time></trkpt><trkpt lat="43.4617833" lon="11.5736067"><ele>447.4</ele><time>2026-04-17T09:43:51.137Z</time></trkpt><trkpt lat="43.4618117" lon="11.5734567"><ele>448.6</ele><time>2026-04-17T09:44:05.136Z</time></trkpt><trkpt lat="43.4618467" lon="11.5733583"><ele>449.8</ele><time>2026-04-17T09:44:07.134Z</time></trkpt><trkpt lat="43.4619183" lon="11.5732717"><ele>451.0</ele><time>2026-04-17T09:44:09.139Z</time></trkpt><trkpt lat="43.462025" lon="11.5732517"><ele>451.33333333333337</ele><time>2026-04-17T09:44:11.135Z</time></trkpt><trkpt lat="43.4621333" lon="11.5731933"><ele>451.6666666666667</ele><time>2026-04-17T09:44:13.135Z</time></trkpt><trkpt lat="43.4622333" lon="11.5731983"><ele>452.0</ele><time>2026-04-17T09:44:15.137Z</time></trkpt><trkpt lat="43.4622833" lon="11.5732567"><ele>452.33333333333337</ele><time>2026-04-17T09:44:16.137Z</time></trkpt><trkpt lat="43.4623267" lon="11.57335"><ele>452.6666666666667</ele><time>2026-04-17T09:44:17.136Z</time></trkpt><trkpt lat="43.4623717" lon="11.573435"><ele>453.0</ele><time>2026-04-17T09:44:18.136Z</time></trkpt><trkpt lat="43.46241" lon="11.573515"><ele>453.0</ele><time>2026-04-17T09:44:19.135Z</time></trkpt><trkpt lat="43.462485" lon="11.5736217"><ele>453.0</ele><time>2026-04-17T09:44:21.137Z</time></trkpt><trkpt lat="43.462605" lon="11.57365"><ele>453.0</ele><time>2026-04-17T09:44:23.137Z</time></trkpt><trkpt lat="43.462675" lon="11.5736367"><ele>453.0</ele><time>2026-04-17T09:44:24.136Z</time></trkpt><trkpt lat="43.4627417" lon="11.57362"><ele>453.0</ele><time>2026-04-17T09:44:25.136Z</time></trkpt><trkpt lat="43.4628033" lon="11.5735783"><ele>453.0</ele><time>2026-04-17T09:44:26.135Z</time></trkpt><trkpt lat="43.4628583" lon="11.5735233"><ele>453.0</ele><time>2026-04-17T09:44:27.137Z</time></trkpt><trkpt lat="43.4629167" lon="11.5734467"><ele>453.0</ele><time>2026-04-17T09:44:28.136Z</time></trkpt><trkpt lat="43.4629767" lon="11.5733567"><ele>453.0</ele><time>2026-04-17T09:44:29.136Z</time></trkpt><trkpt lat="43.4630183" lon="11.5732633"><ele>453.0</ele><time>2026-04-17T09:44:30.136Z</time></trkpt><trkpt lat="43.46306" lon="11.5731683"><ele>453.0</ele><time>2026-04-17T09:44:31.136Z</time></trkpt><trkpt lat="43.4631017" lon="11.5730617"><ele>453.0</ele><time>2026-04-17T09:44:32.136Z</time></trkpt><trkpt lat="43.4631417" lon="11.5729583"><ele>452.0</ele><time>2026-04-17T09:44:33.137Z</time></trkpt><trkpt lat="43.4631767" lon="11.572875"><ele>451.0</ele><time>2026-04-17T09:44:34.135Z</time></trkpt><trkpt lat="43.46324" lon="11.572775"><ele>450.0</ele><time>2026-04-17T09:44:36.136Z</time></trkpt><trkpt lat="43.4633317" lon="11.5727933"><ele>449.0</ele><time>2026-04-17T09:44:38.138Z</time></trkpt><trkpt lat="43.4633883" lon="11.57284"><ele>448.0</ele><time>2026-04-17T09:44:39.138Z</time></trkpt><trkpt lat="43.4634367" lon="11.5729017"><ele>447.0</ele><time>2026-04-17T09:44:40.138Z</time></trkpt><trkpt lat="43.4635033" lon="11.5730167"><ele>447.0</ele><time>2026-04-17T09:44:42.137Z</time></trkpt><trkpt lat="43.4635667" lon="11.5731167"><ele>447.00000000000006</ele><time>2026-04-17T09:44:44.137Z</time></trkpt><trkpt lat="43.4636083" lon="11.57323"><ele>447.00000000000006</ele><time>2026-04-17T09:44:46.136Z</time></trkpt><trkpt lat="43.463645" lon="11.5733183"><ele>447.0</ele><time>2026-04-17T09:44:48.136Z</time></trkpt><trkpt lat="43.4637133" lon="11.57332"><ele>447.0</ele><time>2026-04-17T09:44:51.137Z</time></trkpt><trkpt lat="43.4637983" lon="11.5731917"><ele>445.99999999999994</ele><time>2026-04-17T09:44:53.131Z</time></trkpt><trkpt lat="43.4638433" lon="11.5731183"><ele>445.0</ele><time>2026-04-17T09:44:54.136Z</time></trkpt><trkpt lat="43.4638917" lon="11.57304"><ele>444.0</ele><time>2026-04-17T09:44:55.136Z</time></trkpt><trkpt lat="43.4639433" lon="11.572955"><ele>443.0</ele><time>2026-04-17T09:44:56.137Z</time></trkpt><trkpt lat="43.4639917" lon="11.5728717"><ele>442.0</ele><time>2026-04-17T09:44:57.137Z</time></trkpt><trkpt lat="43.4640333" lon="11.572795"><ele>440.99999999999994</ele><time>2026-04-17T09:44:58.136Z</time></trkpt><trkpt lat="43.4640767" lon="11.572715"><ele>440.0</ele><time>2026-04-17T09:44:59.135Z</time></trkpt><trkpt lat="43.464125" lon="11.572635"><ele>440.0</ele><time>2026-04-17T09:45:00.137Z</time></trkpt><trkpt lat="43.464185" lon="11.5725667"><ele>440.0</ele><time>2026-04-17T09:45:01.137Z</time></trkpt><trkpt lat="43.4642467" lon="11.57249"><ele>440.0</ele><time>2026-04-17T09:45:02.134Z</time></trkpt><trkpt lat="43.4643167" lon="11.5724"><ele>440.0</ele><time>2026-04-17T09:45:03.137Z</time></trkpt><trkpt lat="43.46439" lon="11.5723083"><ele>440.0</ele><time>2026-04-17T09:45:04.135Z</time></trkpt><trkpt lat="43.4644633" lon="11.5722183"><ele>439.99999999999994</ele><time>2026-04-17T09:45:05.136Z</time></trkpt><trkpt lat="43.4645217" lon="11.5721483"><ele>440.0</ele><time>2026-04-17T09:45:06.135Z</time></trkpt><trkpt lat="43.464575" lon="11.5720867"><ele>440.0</ele><time>2026-04-17T09:45:07.137Z</time></trkpt><trkpt lat="43.4646367" lon="11.5720183"><ele>440.0</ele><time>2026-04-17T09:45:08.136Z</time></trkpt><trkpt lat="43.464705" lon="11.5719367"><ele>439.99999999999994</ele><time>2026-04-17T09:45:09.137Z</time></trkpt><trkpt lat="43.4647783" lon="11.571855"><ele>440.0</ele><time>2026-04-17T09:45:10.135Z</time></trkpt><trkpt lat="43.4648433" lon="11.57179"><ele>439.75</ele><time>2026-04-17T09:45:11.136Z</time></trkpt><trkpt lat="43.4649367" lon="11.57172"><ele>439.5</ele><time>2026-04-17T09:45:13.136Z</time></trkpt><trkpt lat="43.4648367" lon="11.5718617"><ele>439.25</ele><time>2026-04-17T09:45:17.137Z</time></trkpt><trkpt lat="43.4647433" lon="11.57193"><ele>439.0</ele><time>2026-04-17T09:45:18.136Z</time></trkpt><trkpt lat="43.4646367" lon="11.5720233"><ele>439.2</ele><time>2026-04-17T09:45:19.136Z</time></trkpt><trkpt lat="43.4645533" lon="11.5721117"><ele>439.4</ele><time>2026-04-17T09:45:20.136Z</time></trkpt><trkpt lat="43.46447" lon="11.5722117"><ele>439.6</ele><time>2026-04-17T09:45:21.138Z</time></trkpt><trkpt lat="43.464385" lon="11.5723167"><ele>439.8</ele><time>2026-04-17T09:45:22.137Z</time></trkpt><trkpt lat="43.4643017" lon="11.572425"><ele>440.0</ele><time>2026-04-17T09:45:23.135Z</time></trkpt><trkpt lat="43.4642317" lon="11.5725167"><ele>439.99999999999994</ele><time>2026-04-17T09:45:24.137Z</time></trkpt><trkpt lat="43.464175" lon="11.5725817"><ele>440.0</ele><time>2026-04-17T09:45:25.138Z</time></trkpt><trkpt lat="43.4640983" lon="11.5726867"><ele>440.0</ele><time>2026-04-17T09:45:27.138Z</time></trkpt><trkpt lat="43.4640533" lon="11.5727617"><ele>440.0</ele><time>2026-04-17T09:45:28.136Z</time></trkpt><trkpt lat="43.464" lon="11.5728483"><ele>439.99999999999994</ele><time>2026-04-17T09:45:29.135Z</time></trkpt><trkpt lat="43.4639383" lon="11.57295"><ele>440.0</ele><time>2026-04-17T09:45:30.136Z</time></trkpt><trkpt lat="43.4638767" lon="11.5730483"><ele>438.8</ele><time>2026-04-17T09:45:31.136Z</time></trkpt><trkpt lat="43.4638133" lon="11.5731467"><ele>437.6</ele><time>2026-04-17T09:45:32.136Z</time></trkpt><trkpt lat="43.4637517" lon="11.5732233"><ele>436.4</ele><time>2026-04-17T09:45:33.137Z</time></trkpt><trkpt lat="43.4637" lon="11.5732817"><ele>435.2</ele><time>2026-04-17T09:45:34.136Z</time></trkpt><trkpt lat="43.4636383" lon="11.5733817"><ele>434.0</ele><time>2026-04-17T09:45:36.137Z</time></trkpt><trkpt lat="43.46363" lon="11.573545"><ele>433.8333333333333</ele><time>2026-04-17T09:45:38.138Z</time></trkpt><trkpt lat="43.4636533" lon="11.5736667"><ele>433.66666666666663</ele><time>2026-04-17T09:45:39.138Z</time></trkpt><trkpt lat="43.4636817" lon="11.5737683"><ele>433.5</ele><time>2026-04-17T09:45:40.136Z</time></trkpt><trkpt lat="43.46371" lon="11.5738533"><ele>433.33333333333337</ele><time>2026-04-17T09:45:41.136Z</time></trkpt><trkpt lat="43.463735" lon="11.57396"><ele>433.1666666666667</ele><time>2026-04-17T09:45:43.136Z</time></trkpt><trkpt lat="43.46378" lon="11.5740433"><ele>433.0</ele><time>2026-04-17T09:45:47.136Z</time></trkpt><trkpt lat="43.46386" lon="11.5741317"><ele>433.0</ele><time>2026-04-17T09:45:49.136Z</time></trkpt><trkpt lat="43.4639117" lon="11.57419"><ele>432.99999999999994</ele><time>2026-04-17T09:45:50.133Z</time></trkpt><trkpt lat="43.4639667" lon="11.5742383"><ele>432.99999999999994</ele><time>2026-04-17T09:45:51.139Z</time></trkpt><trkpt lat="43.4640267" lon="11.5742733"><ele>433.0</ele><time>2026-04-17T09:45:52.138Z</time></trkpt><trkpt lat="43.4641517" lon="11.5743067"><ele>433.0</ele><time>2026-04-17T09:45:54.138Z</time></trkpt><trkpt lat="43.46427" lon="11.574365"><ele>433.00000000000006</ele><time>2026-04-17T09:45:56.137Z</time></trkpt><trkpt lat="43.4643333" lon="11.574405"><ele>433.0</ele><time>2026-04-17T09:45:57.137Z</time></trkpt><trkpt lat="43.464405" lon="11.5744533"><ele>433.0</ele><time>2026-04-17T09:45:58.137Z</time></trkpt><trkpt lat="43.4644733" lon="11.5745"><ele>433.0</ele><time>2026-04-17T09:45:59.137Z</time></trkpt><trkpt lat="43.4645383" lon="11.574545"><ele>433.00000000000006</ele><time>2026-04-17T09:46:00.134Z</time></trkpt><trkpt lat="43.4646017" lon="11.574585"><ele>433.0</ele><time>2026-04-17T09:46:01.137Z</time></trkpt><trkpt lat="43.4647133" lon="11.5746517"><ele>429.79999999999995</ele><time>2026-04-17T09:46:03.138Z</time></trkpt><trkpt lat="43.4648167" lon="11.574715"><ele>426.59999999999997</ele><time>2026-04-17T09:46:05.138Z</time></trkpt><trkpt lat="43.4649017" lon="11.57479"><ele>423.4</ele><time>2026-04-17T09:46:07.136Z</time></trkpt><trkpt lat="43.4650017" lon="11.5748833"><ele>420.20000000000005</ele><time>2026-04-17T09:46:09.14Z</time></trkpt><trkpt lat="43.465055" lon="11.57493"><ele>417.0</ele><time>2026-04-17T09:46:10.136Z</time></trkpt><trkpt lat="43.4651567" lon="11.5750233"><ele>417.0</ele><time>2026-04-17T09:46:12.135Z</time></trkpt><trkpt lat="43.465255" lon="11.5751183"><ele>417.0</ele><time>2026-04-17T09:46:14.136Z</time></trkpt><trkpt lat="43.465345" lon="11.575195"><ele>417.0</ele><time>2026-04-17T09:46:16.137Z</time></trkpt><trkpt lat="43.4652983" lon="11.5751283"><ele>417.0</ele><time>2026-04-17T09:46:26.136Z</time></trkpt><trkpt lat="43.4652383" lon="11.5750883"><ele>417.0</ele><time>2026-04-17T09:46:27.138Z</time></trkpt><trkpt lat="43.4651483" lon="11.574995"><ele>417.0</ele><time>2026-04-17T09:46:29.137Z</time></trkpt><trkpt lat="43.46505" lon="11.574915"><ele>417.0</ele><time>2026-04-17T09:46:31.136Z</time></trkpt><trkpt lat="43.464955" lon="11.57481"><ele>417.0</ele><time>2026-04-17T09:46:33.137Z</time></trkpt><trkpt lat="43.46485" lon="11.5747367"><ele>417.0</ele><time>2026-04-17T09:46:35.135Z</time></trkpt><trkpt lat="43.464785" lon="11.5747017"><ele>417.0</ele><time>2026-04-17T09:46:36.137Z</time></trkpt><trkpt lat="43.4647133" lon="11.5746583"><ele>417.0</ele><time>2026-04-17T09:46:37.136Z</time></trkpt><trkpt lat="43.4646417" lon="11.574615"><ele>417.0</ele><time>2026-04-17T09:46:38.136Z</time></trkpt><trkpt lat="43.4645717" lon="11.57457"><ele>417.0</ele><time>2026-04-17T09:46:39.137Z</time></trkpt><trkpt lat="43.4645067" lon="11.5745283"><ele>417.0</ele><time>2026-04-17T09:46:40.136Z</time></trkpt><trkpt lat="43.4644317" lon="11.574475"><ele>417.0</ele><time>2026-04-17T09:46:41.136Z</time></trkpt><trkpt lat="43.4643483" lon="11.574415"><ele>417.0</ele><time>2026-04-17T09:46:42.137Z</time></trkpt><trkpt lat="43.464275" lon="11.574365"><ele>419.2857142857143</ele><time>2026-04-17T09:46:43.136Z</time></trkpt><trkpt lat="43.4642067" lon="11.5743233"><ele>421.57142857142856</ele><time>2026-04-17T09:46:44.136Z</time></trkpt><trkpt lat="43.4641383" lon="11.57429"><ele>423.85714285714283</ele><time>2026-04-17T09:46:45.138Z</time></trkpt><trkpt lat="43.4640717" lon="11.5742717"><ele>426.1428571428571</ele><time>2026-04-17T09:46:46.136Z</time></trkpt><trkpt lat="43.4640067" lon="11.5742533"><ele>428.42857142857144</ele><time>2026-04-17T09:46:47.137Z</time></trkpt><trkpt lat="43.463945" lon="11.574225"><ele>430.71428571428567</ele><time>2026-04-17T09:46:48.138Z</time></trkpt><trkpt lat="43.4638867" lon="11.57417"><ele>433.0</ele><time>2026-04-17T09:46:49.138Z</time></trkpt><trkpt lat="43.46382" lon="11.5740983"><ele>434.59999999999997</ele><time>2026-04-17T09:46:50.136Z</time></trkpt><trkpt lat="43.4637467" lon="11.574035"><ele>436.19999999999993</ele><time>2026-04-17T09:46:51.138Z</time></trkpt><trkpt lat="43.46367" lon="11.57398"><ele>437.8</ele><time>2026-04-17T09:46:52.138Z</time></trkpt><trkpt lat="43.4635817" lon="11.5739367"><ele>439.4</ele><time>2026-04-17T09:46:53.136Z</time></trkpt><trkpt lat="43.4634883" lon="11.5739067"><ele>441.0</ele><time>2026-04-17T09:46:54.137Z</time></trkpt><trkpt lat="43.4633933" lon="11.5738917"><ele>441.0</ele><time>2026-04-17T09:46:55.135Z</time></trkpt><trkpt lat="43.46331" lon="11.5739083"><ele>441.0</ele><time>2026-04-17T09:46:56.136Z</time></trkpt><trkpt lat="43.4632333" lon="11.5739567"><ele>441.0</ele><time>2026-04-17T09:46:57.137Z</time></trkpt><trkpt lat="43.4631583" lon="11.57403"><ele>441.0</ele><time>2026-04-17T09:46:58.136Z</time></trkpt><trkpt lat="43.4630783" lon="11.5740983"><ele>441.0</ele><time>2026-04-17T09:46:59.137Z</time></trkpt><trkpt lat="43.4630017" lon="11.5741683"><ele>441.0</ele><time>2026-04-17T09:47:00.137Z</time></trkpt><trkpt lat="43.4629233" lon="11.5742467"><ele>440.3333333333333</ele><time>2026-04-17T09:47:01.137Z</time></trkpt><trkpt lat="43.462855" lon="11.5743233"><ele>439.66666666666663</ele><time>2026-04-17T09:47:02.139Z</time></trkpt><trkpt lat="43.4627883" lon="11.5743967"><ele>439.0</ele><time>2026-04-17T09:47:03.138Z</time></trkpt><trkpt lat="43.4627317" lon="11.57446"><ele>438.3333333333333</ele><time>2026-04-17T09:47:04.139Z</time></trkpt><trkpt lat="43.4626717" lon="11.5745017"><ele>437.66666666666663</ele><time>2026-04-17T09:47:05.138Z</time></trkpt><trkpt lat="43.4625933" lon="11.5745167"><ele>437.0</ele><time>2026-04-17T09:47:06.138Z</time></trkpt><trkpt lat="43.4625117" lon="11.574525"><ele>436.99999999999994</ele><time>2026-04-17T09:47:07.139Z</time></trkpt><trkpt lat="43.4624317" lon="11.574525"><ele>437.0</ele><time>2026-04-17T09:47:08.137Z</time></trkpt><trkpt lat="43.462365" lon="11.5745"><ele>437.0</ele><time>2026-04-17T09:47:09.138Z</time></trkpt><trkpt lat="43.462305" lon="11.5744517"><ele>437.0</ele><time>2026-04-17T09:47:10.137Z</time></trkpt><trkpt lat="43.4622483" lon="11.5743817"><ele>436.99999999999994</ele><time>2026-04-17T09:47:11.136Z</time></trkpt><trkpt lat="43.4621867" lon="11.5742933"><ele>437.0</ele><time>2026-04-17T09:47:12.138Z</time></trkpt><trkpt lat="43.4621167" lon="11.5742117"><ele>438.3333333333333</ele><time>2026-04-17T09:47:13.136Z</time></trkpt><trkpt lat="43.46205" lon="11.574135"><ele>439.66666666666663</ele><time>2026-04-17T09:47:14.136Z</time></trkpt><trkpt lat="43.46199" lon="11.574065"><ele>441.0</ele><time>2026-04-17T09:47:15.138Z</time></trkpt><trkpt lat="43.4619383" lon="11.5739867"><ele>442.33333333333337</ele><time>2026-04-17T09:47:16.136Z</time></trkpt><trkpt lat="43.4618867" lon="11.5738933"><ele>443.6666666666667</ele><time>2026-04-17T09:47:17.134Z</time></trkpt><trkpt lat="43.4618417" lon="11.5737983"><ele>445.0</ele><time>2026-04-17T09:47:18.137Z</time></trkpt><trkpt lat="43.461795" lon="11.5736717"><ele>445.0</ele><time>2026-04-17T09:47:20.137Z</time></trkpt><trkpt lat="43.4617183" lon="11.573625"><ele>445.0</ele><time>2026-04-17T09:47:28.137Z</time></trkpt><trkpt lat="43.461615" lon="11.5736733"><ele>445.0</ele><time>2026-04-17T09:47:30.135Z</time></trkpt><trkpt lat="43.461515" lon="11.5737417"><ele>445.0</ele><time>2026-04-17T09:47:32.136Z</time></trkpt><trkpt lat="43.46142" lon="11.5738317"><ele>445.0</ele><time>2026-04-17T09:47:34.137Z</time></trkpt><trkpt lat="43.4613667" lon="11.5738817"><ele>443.2</ele><time>2026-04-17T09:47:35.136Z</time></trkpt><trkpt lat="43.4612683" lon="11.5739733"><ele>441.4</ele><time>2026-04-17T09:47:37.135Z</time></trkpt><trkpt lat="43.461175" lon="11.5740567"><ele>439.6</ele><time>2026-04-17T09:47:39.136Z</time></trkpt><trkpt lat="43.4610767" lon="11.574105"><ele>437.8</ele><time>2026-04-17T09:47:41.136Z</time></trkpt><trkpt lat="43.4610283" lon="11.5741617"><ele>436.0</ele><time>2026-04-17T09:47:42.136Z</time></trkpt><trkpt lat="43.46099" lon="11.5742517"><ele>436.00000000000006</ele><time>2026-04-17T09:47:43.137Z</time></trkpt><trkpt lat="43.460955" lon="11.5743367"><ele>436.0</ele><time>2026-04-17T09:47:44.136Z</time></trkpt><trkpt lat="43.4609083" lon="11.5744183"><ele>436.0</ele><time>2026-04-17T09:47:45.137Z</time></trkpt><trkpt lat="43.4608483" lon="11.5744667"><ele>436.0</ele><time>2026-04-17T09:47:46.136Z</time></trkpt><trkpt lat="43.4607617" lon="11.5744783"><ele>436.00000000000006</ele><time>2026-04-17T09:47:48.137Z</time></trkpt><trkpt lat="43.4606367" lon="11.5744933"><ele>436.0</ele><time>2026-04-17T09:47:50.137Z</time></trkpt><trkpt lat="43.4605433" lon="11.5745"><ele>436.0</ele><time>2026-04-17T09:47:51.137Z</time></trkpt><trkpt lat="43.4604283" lon="11.5745083"><ele>436.0</ele><time>2026-04-17T09:47:52.138Z</time></trkpt><trkpt lat="43.46031" lon="11.5745167"><ele>436.0</ele><time>2026-04-17T09:47:53.137Z</time></trkpt><trkpt lat="43.4601917" lon="11.5745233"><ele>436.0</ele><time>2026-04-17T09:47:54.136Z</time></trkpt><trkpt lat="43.460075" lon="11.574535"><ele>436.0</ele><time>2026-04-17T09:47:55.137Z</time></trkpt><trkpt lat="43.4599667" lon="11.5745533"><ele>436.0</ele><time>2026-04-17T09:47:56.136Z</time></trkpt><trkpt lat="43.4598683" lon="11.5745833"><ele>436.0</ele><time>2026-04-17T09:47:57.137Z</time></trkpt><trkpt lat="43.45977" lon="11.5746333"><ele>436.0</ele><time>2026-04-17T09:47:58.137Z</time></trkpt><trkpt lat="43.4596833" lon="11.574695"><ele>436.0</ele><time>2026-04-17T09:47:59.137Z</time></trkpt><trkpt lat="43.4596083" lon="11.5747617"><ele>438.0</ele><time>2026-04-17T09:48:00.137Z</time></trkpt><trkpt lat="43.4595333" lon="11.5748333"><ele>440.0</ele><time>2026-04-17T09:48:01.137Z</time></trkpt><trkpt lat="43.4594483" lon="11.57489"><ele>442.0</ele><time>2026-04-17T09:48:02.137Z</time></trkpt><trkpt lat="43.4593583" lon="11.5749283"><ele>444.0</ele><time>2026-04-17T09:48:03.136Z</time></trkpt><trkpt lat="43.459265" lon="11.5749267"><ele>446.0</ele><time>2026-04-17T09:48:04.136Z</time></trkpt><trkpt lat="43.45917" lon="11.5749133"><ele>446.0</ele><time>2026-04-17T09:48:05.136Z</time></trkpt><trkpt lat="43.4590717" lon="11.574905"><ele>446.0</ele><time>2026-04-17T09:48:06.14Z</time></trkpt><trkpt lat="43.4589717" lon="11.57491"><ele>446.0</ele><time>2026-04-17T09:48:07.138Z</time></trkpt><trkpt lat="43.4588683" lon="11.5749033"><ele>446.0</ele><time>2026-04-17T09:48:08.137Z</time></trkpt><trkpt lat="43.4587617" lon="11.5748883"><ele>446.0</ele><time>2026-04-17T09:48:09.138Z</time></trkpt><trkpt lat="43.4586533" lon="11.57486"><ele>447.16666666666663</ele><time>2026-04-17T09:48:10.137Z</time></trkpt><trkpt lat="43.4585567" lon="11.57483"><ele>448.3333333333333</ele><time>2026-04-17T09:48:11.136Z</time></trkpt><trkpt lat="43.4584633" lon="11.5747967"><ele>449.5</ele><time>2026-04-17T09:48:12.14Z</time></trkpt><trkpt lat="43.4583817" lon="11.5747667"><ele>450.66666666666663</ele><time>2026-04-17T09:48:13.137Z</time></trkpt><trkpt lat="43.45831" lon="11.57475"><ele>451.8333333333333</ele><time>2026-04-17T09:48:14.135Z</time></trkpt><trkpt lat="43.45825" lon="11.5747783"><ele>453.0</ele><time>2026-04-17T09:48:15.137Z</time></trkpt><trkpt lat="43.4581967" lon="11.5748467"><ele>453.0</ele><time>2026-04-17T09:48:16.135Z</time></trkpt><trkpt lat="43.45816" lon="11.5749467"><ele>452.99999999999994</ele><time>2026-04-17T09:48:17.136Z</time></trkpt><trkpt lat="43.45813" lon="11.5750583"><ele>452.99999999999994</ele><time>2026-04-17T09:48:18.137Z</time></trkpt><trkpt lat="43.4581" lon="11.575175"><ele>453.0</ele><time>2026-04-17T09:48:19.137Z</time></trkpt><trkpt lat="43.4580533" lon="11.5752933"><ele>453.0</ele><time>2026-04-17T09:48:20.137Z</time></trkpt><trkpt lat="43.4580083" lon="11.5754167"><ele>455.3333333333333</ele><time>2026-04-17T09:48:21.137Z</time></trkpt><trkpt lat="43.4579667" lon="11.5755317"><ele>457.66666666666663</ele><time>2026-04-17T09:48:22.137Z</time></trkpt><trkpt lat="43.4579267" lon="11.575635"><ele>460.0</ele><time>2026-04-17T09:48:23.136Z</time></trkpt><trkpt lat="43.4578783" lon="11.5757167"><ele>462.3333333333333</ele><time>2026-04-17T09:48:24.138Z</time></trkpt><trkpt lat="43.4578283" lon="11.575785"><ele>464.66666666666663</ele><time>2026-04-17T09:48:25.137Z</time></trkpt><trkpt lat="43.45773" lon="11.575845"><ele>467.0</ele><time>2026-04-17T09:48:27.137Z</time></trkpt><trkpt lat="43.4576667" lon="11.5758167"><ele>466.99999999999994</ele><time>2026-04-17T09:48:28.138Z</time></trkpt><trkpt lat="43.457595" lon="11.5757817"><ele>467.0</ele><time>2026-04-17T09:48:29.137Z</time></trkpt><trkpt lat="43.45752" lon="11.5757617"><ele>467.0</ele><time>2026-04-17T09:48:30.138Z</time></trkpt><trkpt lat="43.457435" lon="11.5757767"><ele>467.0</ele><time>2026-04-17T09:48:31.136Z</time></trkpt><trkpt lat="43.45735" lon="11.5758167"><ele>466.99999999999994</ele><time>2026-04-17T09:48:32.137Z</time></trkpt><trkpt lat="43.457265" lon="11.57586"><ele>467.0</ele><time>2026-04-17T09:48:33.136Z</time></trkpt><trkpt lat="43.4571833" lon="11.57589"><ele>466.3333333333333</ele><time>2026-04-17T09:48:34.136Z</time></trkpt><trkpt lat="43.4571" lon="11.5759117"><ele>465.66666666666663</ele><time>2026-04-17T09:48:35.134Z</time></trkpt><trkpt lat="43.4570117" lon="11.5759267"><ele>465.0</ele><time>2026-04-17T09:48:36.136Z</time></trkpt><trkpt lat="43.456935" lon="11.575955"><ele>464.33333333333337</ele><time>2026-04-17T09:48:37.135Z</time></trkpt><trkpt lat="43.4568683" lon="11.575985"><ele>463.6666666666667</ele><time>2026-04-17T09:48:38.137Z</time></trkpt><trkpt lat="43.45681" lon="11.5760417"><ele>463.0</ele><time>2026-04-17T09:48:39.137Z</time></trkpt><trkpt lat="43.4567583" lon="11.5761267"><ele>463.00000000000006</ele><time>2026-04-17T09:48:40.137Z</time></trkpt><trkpt lat="43.4567067" lon="11.5762267"><ele>463.0</ele><time>2026-04-17T09:48:41.136Z</time></trkpt><trkpt lat="43.4566583" lon="11.5763283"><ele>463.0</ele><time>2026-04-17T09:48:42.136Z</time></trkpt><trkpt lat="43.4566133" lon="11.576425"><ele>463.0</ele><time>2026-04-17T09:48:43.138Z</time></trkpt><trkpt lat="43.456565" lon="11.5765217"><ele>463.00000000000006</ele><time>2026-04-17T09:48:44.134Z</time></trkpt><trkpt lat="43.456515" lon="11.5766167"><ele>463.0</ele><time>2026-04-17T09:48:45.138Z</time></trkpt><trkpt lat="43.456465" lon="11.57673"><ele>463.0</ele><time>2026-04-17T09:48:46.137Z</time></trkpt><trkpt lat="43.4564117" lon="11.5768617"><ele>462.99999999999994</ele><time>2026-04-17T09:48:47.136Z</time></trkpt><trkpt lat="43.4563583" lon="11.5769833"><ele>462.99999999999994</ele><time>2026-04-17T09:48:48.136Z</time></trkpt><trkpt lat="43.4563067" lon="11.5770933"><ele>463.0</ele><time>2026-04-17T09:48:49.137Z</time></trkpt><trkpt lat="43.45626" lon="11.5771917"><ele>463.0</ele><time>2026-04-17T09:48:50.137Z</time></trkpt><trkpt lat="43.4562117" lon="11.5772783"><ele>462.83333333333337</ele><time>2026-04-17T09:48:51.14Z</time></trkpt><trkpt lat="43.4561617" lon="11.577345"><ele>462.6666666666667</ele><time>2026-04-17T09:48:52.137Z</time></trkpt><trkpt lat="43.456105" lon="11.5773983"><ele>462.5</ele><time>2026-04-17T09:48:53.137Z</time></trkpt><trkpt lat="43.4560267" lon="11.5774333"><ele>462.33333333333337</ele><time>2026-04-17T09:48:54.137Z</time></trkpt><trkpt lat="43.4559417" lon="11.57746"><ele>462.1666666666667</ele><time>2026-04-17T09:48:55.136Z</time></trkpt><trkpt lat="43.4558617" lon="11.5774833"><ele>462.0</ele><time>2026-04-17T09:48:56.136Z</time></trkpt><trkpt lat="43.4557883" lon="11.5775133"><ele>462.0</ele><time>2026-04-17T09:48:57.136Z</time></trkpt><trkpt lat="43.4557117" lon="11.577555"><ele>462.0</ele><time>2026-04-17T09:48:58.137Z</time></trkpt><trkpt lat="43.4556317" lon="11.5775933"><ele>462.0</ele><time>2026-04-17T09:48:59.136Z</time></trkpt><trkpt lat="43.455555" lon="11.5776133"><ele>462.0</ele><time>2026-04-17T09:49:00.135Z</time></trkpt><trkpt lat="43.4554867" lon="11.57761"><ele>462.0</ele><time>2026-04-17T09:49:01.136Z</time></trkpt><trkpt lat="43.4554233" lon="11.5776017"><ele>462.0</ele><time>2026-04-17T09:49:02.136Z</time></trkpt><trkpt lat="43.4553067" lon="11.5776617"><ele>462.1666666666667</ele><time>2026-04-17T09:49:04.136Z</time></trkpt><trkpt lat="43.455225" lon="11.577755"><ele>462.33333333333337</ele><time>2026-04-17T09:49:06.136Z</time></trkpt><trkpt lat="43.4551433" lon="11.5778483"><ele>462.5</ele><time>2026-04-17T09:49:08.136Z</time></trkpt><trkpt lat="43.45509" lon="11.5778983"><ele>462.6666666666667</ele><time>2026-04-17T09:49:09.137Z</time></trkpt><trkpt lat="43.4550417" lon="11.5779667"><ele>462.83333333333337</ele><time>2026-04-17T09:49:10.135Z</time></trkpt><trkpt lat="43.4549967" lon="11.5780433"><ele>463.0</ele><time>2026-04-17T09:49:11.139Z</time></trkpt><trkpt lat="43.45495" lon="11.5781133"><ele>463.0</ele><time>2026-04-17T09:49:12.139Z</time></trkpt><trkpt lat="43.454905" lon="11.5781833"><ele>462.99999999999994</ele><time>2026-04-17T09:49:13.137Z</time></trkpt><trkpt lat="43.4548633" lon="11.5782483"><ele>462.99999999999994</ele><time>2026-04-17T09:49:14.136Z</time></trkpt><trkpt lat="43.45477" lon="11.5783633"><ele>463.0</ele><time>2026-04-17T09:49:16.144Z</time></trkpt><trkpt lat="43.4546533" lon="11.5784017"><ele>463.0</ele><time>2026-04-17T09:49:18.138Z</time></trkpt><trkpt lat="43.4545467" lon="11.5784317"><ele>462.2857142857143</ele><time>2026-04-17T09:49:20.136Z</time></trkpt><trkpt lat="43.45449" lon="11.5784717"><ele>461.57142857142856</ele><time>2026-04-17T09:49:21.137Z</time></trkpt><trkpt lat="43.4544283" lon="11.57851"><ele>460.85714285714283</ele><time>2026-04-17T09:49:22.133Z</time></trkpt><trkpt lat="43.454365" lon="11.5785533"><ele>460.1428571428571</ele><time>2026-04-17T09:49:23.137Z</time></trkpt><trkpt lat="43.4543017" lon="11.5786133"><ele>459.42857142857144</ele><time>2026-04-17T09:49:24.137Z</time></trkpt><trkpt lat="43.4542317" lon="11.5786717"><ele>458.71428571428567</ele><time>2026-04-17T09:49:25.135Z</time></trkpt><trkpt lat="43.4541633" lon="11.5787233"><ele>458.0</ele><time>2026-04-17T09:49:26.139Z</time></trkpt><trkpt lat="43.4541017" lon="11.57877"><ele>458.0</ele><time>2026-04-17T09:49:27.138Z</time></trkpt><trkpt lat="43.45401" lon="11.5788217"><ele>457.99999999999994</ele><time>2026-04-17T09:49:29.138Z</time></trkpt><trkpt lat="43.4540667" lon="11.5787267"><ele>457.99999999999994</ele><time>2026-04-17T09:49:34.136Z</time></trkpt><trkpt lat="43.4541483" lon="11.5786967"><ele>458.0</ele><time>2026-04-17T09:49:35.135Z</time></trkpt><trkpt lat="43.4542317" lon="11.5786433"><ele>458.0</ele><time>2026-04-17T09:49:36.137Z</time></trkpt><trkpt lat="43.4543067" lon="11.57858"><ele>458.0</ele><time>2026-04-17T09:49:37.135Z</time></trkpt><trkpt lat="43.4543867" lon="11.5785133"><ele>457.99999999999994</ele><time>2026-04-17T09:49:38.136Z</time></trkpt><trkpt lat="43.4544767" lon="11.5784583"><ele>457.99999999999994</ele><time>2026-04-17T09:49:39.137Z</time></trkpt><trkpt lat="43.4545683" lon="11.5784167"><ele>458.0</ele><time>2026-04-17T09:49:40.137Z</time></trkpt><trkpt lat="43.4546567" lon="11.5783817"><ele>458.0</ele><time>2026-04-17T09:49:41.137Z</time></trkpt><trkpt lat="43.4547317" lon="11.5783517"><ele>458.8333333333333</ele><time>2026-04-17T09:49:42.136Z</time></trkpt><trkpt lat="43.4547983" lon="11.5783267"><ele>459.66666666666663</ele><time>2026-04-17T09:49:43.139Z</time></trkpt><trkpt lat="43.4548517" lon="11.5782783"><ele>460.5</ele><time>2026-04-17T09:49:44.138Z</time></trkpt><trkpt lat="43.454935" lon="11.578145"><ele>461.33333333333337</ele><time>2026-04-17T09:49:46.136Z</time></trkpt><trkpt lat="43.4549817" lon="11.5780783"><ele>462.1666666666667</ele><time>2026-04-17T09:49:47.136Z</time></trkpt><trkpt lat="43.4550383" lon="11.5780083"><ele>463.0</ele><time>2026-04-17T09:49:48.135Z</time></trkpt><trkpt lat="43.4551017" lon="11.5779367"><ele>463.00000000000006</ele><time>2026-04-17T09:49:49.135Z</time></trkpt><trkpt lat="43.4551633" lon="11.5778717"><ele>463.0</ele><time>2026-04-17T09:49:50.136Z</time></trkpt><trkpt lat="43.4552283" lon="11.577815"><ele>463.0</ele><time>2026-04-17T09:49:51.137Z</time></trkpt><trkpt lat="43.4552883" lon="11.5777583"><ele>463.0</ele><time>2026-04-17T09:49:52.136Z</time></trkpt><trkpt lat="43.455345" lon="11.5777083"><ele>463.00000000000006</ele><time>2026-04-17T09:49:53.136Z</time></trkpt><trkpt lat="43.4554383" lon="11.5776133"><ele>463.0</ele><time>2026-04-17T09:49:55.136Z</time></trkpt><trkpt lat="43.4555517" lon="11.57759"><ele>462.83333333333337</ele><time>2026-04-17T09:49:57.137Z</time></trkpt><trkpt lat="43.4556717" lon="11.57759"><ele>462.6666666666667</ele><time>2026-04-17T09:49:59.136Z</time></trkpt><trkpt lat="43.4557383" lon="11.5775467"><ele>462.5</ele><time>2026-04-17T09:50:00.136Z</time></trkpt><trkpt lat="43.4558117" lon="11.5774817"><ele>462.33333333333337</ele><time>2026-04-17T09:50:01.138Z</time></trkpt><trkpt lat="43.4558767" lon="11.5774367"><ele>462.1666666666667</ele><time>2026-04-17T09:50:02.136Z</time></trkpt><trkpt lat="43.45594" lon="11.5774033"><ele>462.0</ele><time>2026-04-17T09:50:03.138Z</time></trkpt><trkpt lat="43.4560617" lon="11.5773983"><ele>462.0</ele><time>2026-04-17T09:50:05.136Z</time></trkpt><trkpt lat="43.4561533" lon="11.5774633"><ele>462.0</ele><time>2026-04-17T09:50:07.135Z</time></trkpt><trkpt lat="43.4561833" lon="11.577605"><ele>462.0</ele><time>2026-04-17T09:50:09.138Z</time></trkpt><trkpt lat="43.4561783" lon="11.5777083"><ele>462.0</ele><time>2026-04-17T09:50:10.135Z</time></trkpt><trkpt lat="43.4561717" lon="11.5778117"><ele>462.0</ele><time>2026-04-17T09:50:11.136Z</time></trkpt><trkpt lat="43.4561417" lon="11.5779217"><ele>462.0</ele><time>2026-04-17T09:50:12.138Z</time></trkpt><trkpt lat="43.4561083" lon="11.57801"><ele>461.0</ele><time>2026-04-17T09:50:13.134Z</time></trkpt><trkpt lat="43.456075" lon="11.5780967"><ele>460.0</ele><time>2026-04-17T09:50:14.135Z</time></trkpt><trkpt lat="43.4560467" lon="11.578185"><ele>459.0</ele><time>2026-04-17T09:50:15.139Z</time></trkpt><trkpt lat="43.456015" lon="11.57827"><ele>458.0</ele><time>2026-04-17T09:50:16.137Z</time></trkpt><trkpt lat="43.4559717" lon="11.57835"><ele>457.0</ele><time>2026-04-17T09:50:17.136Z</time></trkpt><trkpt lat="43.45592" lon="11.5784333"><ele>456.0</ele><time>2026-04-17T09:50:18.137Z</time></trkpt><trkpt lat="43.4558567" lon="11.5785167"><ele>456.0</ele><time>2026-04-17T09:50:19.137Z</time></trkpt><trkpt lat="43.4557917" lon="11.578595"><ele>456.0</ele><time>2026-04-17T09:50:20.136Z</time></trkpt><trkpt lat="43.455725" lon="11.5786717"><ele>456.0</ele><time>2026-04-17T09:50:21.138Z</time></trkpt><trkpt lat="43.455665" lon="11.5787433"><ele>456.0</ele><time>2026-04-17T09:50:22.137Z</time></trkpt><trkpt lat="43.4556033" lon="11.57881"><ele>456.0</ele><time>2026-04-17T09:50:23.136Z</time></trkpt><trkpt lat="43.4555467" lon="11.5788833"><ele>456.0</ele><time>2026-04-17T09:50:24.137Z</time></trkpt><trkpt lat="43.4554933" lon="11.5789767"><ele>455.5</ele><time>2026-04-17T09:50:25.136Z</time></trkpt><trkpt lat="43.4554567" lon="11.5791"><ele>455.0</ele><time>2026-04-17T09:50:26.136Z</time></trkpt><trkpt lat="43.4554467" lon="11.5792383"><ele>454.5</ele><time>2026-04-17T09:50:27.139Z</time></trkpt><trkpt lat="43.4554367" lon="11.5793617"><ele>454.0</ele><time>2026-04-17T09:50:28.136Z</time></trkpt><trkpt lat="43.4554317" lon="11.579465"><ele>453.5</ele><time>2026-04-17T09:50:29.135Z</time></trkpt><trkpt lat="43.455425" lon="11.5795633"><ele>453.0</ele><time>2026-04-17T09:50:30.131Z</time></trkpt><trkpt lat="43.4554183" lon="11.5796583"><ele>450.4</ele><time>2026-04-17T09:50:31.136Z</time></trkpt><trkpt lat="43.4553883" lon="11.5798283"><ele>447.79999999999995</ele><time>2026-04-17T09:50:33.136Z</time></trkpt><trkpt lat="43.45535" lon="11.5799867"><ele>445.2</ele><time>2026-04-17T09:50:35.135Z</time></trkpt><trkpt lat="43.4553283" lon="11.5800683"><ele>442.6</ele><time>2026-04-17T09:50:36.135Z</time></trkpt><trkpt lat="43.4552933" lon="11.5802183"><ele>440.0</ele><time>2026-04-17T09:50:38.136Z</time></trkpt><trkpt lat="43.455235" lon="11.5803467"><ele>437.4</ele><time>2026-04-17T09:50:40.136Z</time></trkpt><trkpt lat="43.4551367" lon="11.58042"><ele>434.8</ele><time>2026-04-17T09:50:42.138Z</time></trkpt><trkpt lat="43.4550317" lon="11.58048"><ele>432.20000000000005</ele><time>2026-04-17T09:50:44.135Z</time></trkpt><trkpt lat="43.45493" lon="11.5805667"><ele>429.6</ele><time>2026-04-17T09:50:46.136Z</time></trkpt><trkpt lat="43.4548833" lon="11.580625"><ele>427.0</ele><time>2026-04-17T09:50:47.135Z</time></trkpt><trkpt lat="43.4548" lon="11.5807467"><ele>427.00000000000006</ele><time>2026-04-17T09:50:49.137Z</time></trkpt><trkpt lat="43.4547633" lon="11.58091"><ele>427.0</ele><time>2026-04-17T09:50:51.138Z</time></trkpt><trkpt lat="43.45475" lon="11.581"><ele>427.0</ele><time>2026-04-17T09:50:52.135Z</time></trkpt><trkpt lat="43.4547317" lon="11.581085"><ele>427.0</ele><time>2026-04-17T09:50:53.136Z</time></trkpt><trkpt lat="43.454705" lon="11.5811683"><ele>427.00000000000006</ele><time>2026-04-17T09:50:54.136Z</time></trkpt><trkpt lat="43.4546333" lon="11.5813083"><ele>427.0</ele><time>2026-04-17T09:50:56.136Z</time></trkpt><trkpt lat="43.4545867" lon="11.5814117"><ele>427.00000000000006</ele><time>2026-04-17T09:50:58.137Z</time></trkpt><trkpt lat="43.4545467" lon="11.581485"><ele>427.0</ele><time>2026-04-17T09:51:02.138Z</time></trkpt><trkpt lat="43.4546233" lon="11.5814017"><ele>427.0</ele><time>2026-04-17T09:51:12.135Z</time></trkpt><trkpt lat="43.454665" lon="11.5812867"><ele>427.0</ele><time>2026-04-17T09:51:14.136Z</time></trkpt><trkpt lat="43.4547083" lon="11.5812083"><ele>427.00000000000006</ele><time>2026-04-17T09:51:15.136Z</time></trkpt><trkpt lat="43.4547483" lon="11.5811183"><ele>427.0</ele><time>2026-04-17T09:51:16.137Z</time></trkpt><trkpt lat="43.4547783" lon="11.5810233"><ele>427.00000000000006</ele><time>2026-04-17T09:51:17.135Z</time></trkpt><trkpt lat="43.4547983" lon="11.5809317"><ele>427.0</ele><time>2026-04-17T09:51:18.137Z</time></trkpt><trkpt lat="43.4548167" lon="11.5808367"><ele>427.0</ele><time>2026-04-17T09:51:19.137Z</time></trkpt><trkpt lat="43.4548283" lon="11.5807467"><ele>427.0</ele><time>2026-04-17T09:51:20.136Z</time></trkpt><trkpt lat="43.45489" lon="11.5805917"><ele>427.00000000000006</ele><time>2026-04-17T09:51:22.133Z</time></trkpt><trkpt lat="43.45493" lon="11.58052"><ele>427.0</ele><time>2026-04-17T09:51:23.136Z</time></trkpt><trkpt lat="43.45499" lon="11.5804633"><ele>427.0</ele><time>2026-04-17T09:51:24.136Z</time></trkpt><trkpt lat="43.455055" lon="11.58042"><ele>427.0</ele><time>2026-04-17T09:51:25.136Z</time></trkpt><trkpt lat="43.4551233" lon="11.5803867"><ele>427.0</ele><time>2026-04-17T09:51:26.135Z</time></trkpt><trkpt lat="43.4551917" lon="11.5803583"><ele>427.0</ele><time>2026-04-17T09:51:27.138Z</time></trkpt><trkpt lat="43.4552583" lon="11.580315"><ele>427.0</ele><time>2026-04-17T09:51:28.137Z</time></trkpt><trkpt lat="43.4553067" lon="11.5802517"><ele>427.0</ele><time>2026-04-17T09:51:29.137Z</time></trkpt><trkpt lat="43.455335" lon="11.5801683"><ele>427.0</ele><time>2026-04-17T09:51:30.136Z</time></trkpt><trkpt lat="43.455355" lon="11.5800683"><ele>429.1666666666667</ele><time>2026-04-17T09:51:31.137Z</time></trkpt><trkpt lat="43.4553717" lon="11.5799633"><ele>431.33333333333337</ele><time>2026-04-17T09:51:32.139Z</time></trkpt><trkpt lat="43.455395" lon="11.57985"><ele>433.5</ele><time>2026-04-17T09:51:33.138Z</time></trkpt><trkpt lat="43.45542" lon="11.5797283"><ele>435.66666666666663</ele><time>2026-04-17T09:51:34.136Z</time></trkpt><trkpt lat="43.4554317" lon="11.5796117"><ele>437.8333333333333</ele><time>2026-04-17T09:51:35.137Z</time></trkpt><trkpt lat="43.4554417" lon="11.5794967"><ele>440.0</ele><time>2026-04-17T09:51:36.137Z</time></trkpt><trkpt lat="43.4554567" lon="11.579375"><ele>440.3333333333333</ele><time>2026-04-17T09:51:37.135Z</time></trkpt><trkpt lat="43.4554683" lon="11.5792583"><ele>440.66666666666663</ele><time>2026-04-17T09:51:38.137Z</time></trkpt><trkpt lat="43.4554833" lon="11.5791367"><ele>441.0</ele><time>2026-04-17T09:51:39.137Z</time></trkpt><trkpt lat="43.455495" lon="11.5790217"><ele>441.33333333333337</ele><time>2026-04-17T09:51:40.136Z</time></trkpt><trkpt lat="43.4555183" lon="11.5789133"><ele>441.6666666666667</ele><time>2026-04-17T09:51:41.137Z</time></trkpt><trkpt lat="43.4555533" lon="11.57881"><ele>442.0</ele><time>2026-04-17T09:51:42.137Z</time></trkpt><trkpt lat="43.4556" lon="11.5787233"><ele>444.8</ele><time>2026-04-17T09:51:43.137Z</time></trkpt><trkpt lat="43.45567" lon="11.5786433"><ele>447.6</ele><time>2026-04-17T09:51:44.135Z</time></trkpt><trkpt lat="43.455745" lon="11.5785583"><ele>450.40000000000003</ele><time>2026-04-17T09:51:45.138Z</time></trkpt><trkpt lat="43.4558167" lon="11.5784717"><ele>453.20000000000005</ele><time>2026-04-17T09:51:46.136Z</time></trkpt><trkpt lat="43.455885" lon="11.5783817"><ele>456.0</ele><time>2026-04-17T09:51:47.135Z</time></trkpt><trkpt lat="43.455955" lon="11.578295"><ele>456.0</ele><time>2026-04-17T09:51:48.136Z</time></trkpt><trkpt lat="43.45601" lon="11.5781967"><ele>456.0</ele><time>2026-04-17T09:51:49.137Z</time></trkpt><trkpt lat="43.4560483" lon="11.5780917"><ele>456.0</ele><time>2026-04-17T09:51:50.137Z</time></trkpt><trkpt lat="43.4560883" lon="11.57799"><ele>456.0</ele><time>2026-04-17T09:51:51.137Z</time></trkpt><trkpt lat="43.4561283" lon="11.5778883"><ele>456.0</ele><time>2026-04-17T09:51:52.137Z</time></trkpt><trkpt lat="43.45616" lon="11.5777817"><ele>456.0</ele><time>2026-04-17T09:51:53.137Z</time></trkpt><trkpt lat="43.4561717" lon="11.5776767"><ele>457.0</ele><time>2026-04-17T09:51:54.14Z</time></trkpt><trkpt lat="43.45617" lon="11.577575"><ele>458.0</ele><time>2026-04-17T09:51:55.136Z</time></trkpt><trkpt lat="43.4561417" lon="11.5774333"><ele>459.0</ele><time>2026-04-17T09:51:57.137Z</time></trkpt><trkpt lat="43.456045" lon="11.5773883"><ele>460.0</ele><time>2026-04-17T09:51:59.137Z</time></trkpt><trkpt lat="43.4559667" lon="11.5774033"><ele>461.0</ele><time>2026-04-17T09:52:00.137Z</time></trkpt><trkpt lat="43.4558833" lon="11.57743"><ele>462.0</ele><time>2026-04-17T09:52:01.137Z</time></trkpt><trkpt lat="43.4558033" lon="11.5774683"><ele>462.0</ele><time>2026-04-17T09:52:02.136Z</time></trkpt><trkpt lat="43.4557217" lon="11.5775267"><ele>462.0</ele><time>2026-04-17T09:52:03.134Z</time></trkpt><trkpt lat="43.455645" lon="11.5775783"><ele>462.0</ele><time>2026-04-17T09:52:04.136Z</time></trkpt><trkpt lat="43.4555733" lon="11.5776017"><ele>462.0</ele><time>2026-04-17T09:52:05.136Z</time></trkpt><trkpt lat="43.4555083" lon="11.5775917"><ele>462.0</ele><time>2026-04-17T09:52:06.136Z</time></trkpt><trkpt lat="43.4554433" lon="11.5775783"><ele>462.0</ele><time>2026-04-17T09:52:07.137Z</time></trkpt><trkpt lat="43.455325" lon="11.5776167"><ele>462.1428571428571</ele><time>2026-04-17T09:52:09.139Z</time></trkpt><trkpt lat="43.4552683" lon="11.5776733"><ele>462.2857142857143</ele><time>2026-04-17T09:52:10.136Z</time></trkpt><trkpt lat="43.4552117" lon="11.577735"><ele>462.42857142857144</ele><time>2026-04-17T09:52:11.136Z</time></trkpt><trkpt lat="43.45516" lon="11.5777967"><ele>462.57142857142856</ele><time>2026-04-17T09:52:12.136Z</time></trkpt><trkpt lat="43.45511" lon="11.5778533"><ele>462.71428571428567</ele><time>2026-04-17T09:52:13.138Z</time></trkpt><trkpt lat="43.4550583" lon="11.5779133"><ele>462.85714285714283</ele><time>2026-04-17T09:52:14.137Z</time></trkpt><trkpt lat="43.4550117" lon="11.5779783"><ele>463.0</ele><time>2026-04-17T09:52:15.137Z</time></trkpt><trkpt lat="43.4549667" lon="11.578055"><ele>463.00000000000006</ele><time>2026-04-17T09:52:16.137Z</time></trkpt><trkpt lat="43.45492" lon="11.57813"><ele>463.0</ele><time>2026-04-17T09:52:17.138Z</time></trkpt><trkpt lat="43.4548717" lon="11.5782017"><ele>463.0</ele><time>2026-04-17T09:52:18.136Z</time></trkpt><trkpt lat="43.4548267" lon="11.5782733"><ele>463.0</ele><time>2026-04-17T09:52:19.139Z</time></trkpt><trkpt lat="43.4547817" lon="11.5783367"><ele>463.00000000000006</ele><time>2026-04-17T09:52:20.137Z</time></trkpt><trkpt lat="43.4547283" lon="11.5783867"><ele>463.0</ele><time>2026-04-17T09:52:21.138Z</time></trkpt><trkpt lat="43.4546083" lon="11.5784133"><ele>462.1666666666667</ele><time>2026-04-17T09:52:23.137Z</time></trkpt><trkpt lat="43.454485" lon="11.5784633"><ele>461.33333333333337</ele><time>2026-04-17T09:52:25.138Z</time></trkpt><trkpt lat="43.4544233" lon="11.5785"><ele>460.5</ele><time>2026-04-17T09:52:26.138Z</time></trkpt><trkpt lat="43.4543367" lon="11.5785367"><ele>459.66666666666663</ele><time>2026-04-17T09:52:28.137Z</time></trkpt><trkpt lat="43.4542933" lon="11.5784267"><ele>458.8333333333333</ele><time>2026-04-17T09:52:31.136Z</time></trkpt><trkpt lat="43.4543283" lon="11.5783433"><ele>458.0</ele><time>2026-04-17T09:52:33.137Z</time></trkpt><trkpt lat="43.4544" lon="11.5783717"><ele>457.99999999999994</ele><time>2026-04-17T09:52:36.137Z</time></trkpt><trkpt lat="43.4543883" lon="11.578475"><ele>458.0</ele><time>2026-04-17T09:52:39.137Z</time></trkpt><trkpt lat="43.45449" lon="11.57848"><ele>458.0</ele><time>2026-04-17T09:52:42.136Z</time></trkpt><trkpt lat="43.4546067" lon="11.5784183"><ele>458.0</ele><time>2026-04-17T09:52:44.136Z</time></trkpt><trkpt lat="43.45468" lon="11.5783983"><ele>457.99999999999994</ele><time>2026-04-17T09:52:45.137Z</time></trkpt><trkpt lat="43.4547467" lon="11.5783667"><ele>458.0</ele><time>2026-04-17T09:52:46.135Z</time></trkpt><trkpt lat="43.454805" lon="11.5783183"><ele>458.8333333333333</ele><time>2026-04-17T09:52:47.137Z</time></trkpt><trkpt lat="43.4548617" lon="11.5782517"><ele>459.66666666666663</ele><time>2026-04-17T09:52:48.138Z</time></trkpt><trkpt lat="43.4549133" lon="11.5781667"><ele>460.5</ele><time>2026-04-17T09:52:49.138Z</time></trkpt><trkpt lat="43.4549617" lon="11.57808"><ele>461.33333333333337</ele><time>2026-04-17T09:52:50.136Z</time></trkpt><trkpt lat="43.4550117" lon="11.5780017"><ele>462.1666666666667</ele><time>2026-04-17T09:52:51.137Z</time></trkpt><trkpt lat="43.45507" lon="11.5779267"><ele>463.0</ele><time>2026-04-17T09:52:52.135Z</time></trkpt><trkpt lat="43.4551267" lon="11.5778633"><ele>462.83333333333337</ele><time>2026-04-17T09:52:53.136Z</time></trkpt><trkpt lat="43.4551833" lon="11.5778033"><ele>462.6666666666667</ele><time>2026-04-17T09:52:54.14Z</time></trkpt><trkpt lat="43.4552417" lon="11.577745"><ele>462.5</ele><time>2026-04-17T09:52:55.142Z</time></trkpt><trkpt lat="43.455295" lon="11.5776983"><ele>462.33333333333337</ele><time>2026-04-17T09:52:56.139Z</time></trkpt><trkpt lat="43.455395" lon="11.5776033"><ele>462.1666666666667</ele><time>2026-04-17T09:52:58.138Z</time></trkpt><trkpt lat="43.4555067" lon="11.5775517"><ele>462.0</ele><time>2026-04-17T09:53:00.135Z</time></trkpt><trkpt lat="43.4556233" lon="11.57757"><ele>462.0</ele><time>2026-04-17T09:53:02.137Z</time></trkpt><trkpt lat="43.4556883" lon="11.57756"><ele>462.0</ele><time>2026-04-17T09:53:03.136Z</time></trkpt><trkpt lat="43.4557533" lon="11.5775317"><ele>462.0</ele><time>2026-04-17T09:53:04.137Z</time></trkpt><trkpt lat="43.4558217" lon="11.5774783"><ele>462.0</ele><time>2026-04-17T09:53:05.136Z</time></trkpt><trkpt lat="43.4558817" lon="11.5774283"><ele>462.0</ele><time>2026-04-17T09:53:06.137Z</time></trkpt><trkpt lat="43.455985" lon="11.57739"><ele>462.0</ele><time>2026-04-17T09:53:08.139Z</time></trkpt><trkpt lat="43.45609" lon="11.5774483"><ele>462.0</ele><time>2026-04-17T09:53:10.14Z</time></trkpt><trkpt lat="43.4561617" lon="11.5775517"><ele>462.00000000000006</ele><time>2026-04-17T09:53:12.137Z</time></trkpt><trkpt lat="43.4561783" lon="11.57773"><ele>462.00000000000006</ele><time>2026-04-17T09:53:14.137Z</time></trkpt><trkpt lat="43.45616" lon="11.577835"><ele>462.0</ele><time>2026-04-17T09:53:15.138Z</time></trkpt><trkpt lat="43.4561283" lon="11.5779433"><ele>462.0</ele><time>2026-04-17T09:53:16.137Z</time></trkpt><trkpt lat="43.45609" lon="11.57804"><ele>461.0</ele><time>2026-04-17T09:53:17.132Z</time></trkpt><trkpt lat="43.456055" lon="11.5781333"><ele>460.0</ele><time>2026-04-17T09:53:18.137Z</time></trkpt><trkpt lat="43.4560183" lon="11.5782267"><ele>459.0</ele><time>2026-04-17T09:53:19.137Z</time></trkpt><trkpt lat="43.4559717" lon="11.5783167"><ele>458.0</ele><time>2026-04-17T09:53:20.136Z</time></trkpt><trkpt lat="43.45592" lon="11.57841"><ele>457.0</ele><time>2026-04-17T09:53:21.139Z</time></trkpt><trkpt lat="43.4558583" lon="11.5785"><ele>456.0</ele><time>2026-04-17T09:53:22.137Z</time></trkpt><trkpt lat="43.4557933" lon="11.5785867"><ele>456.0</ele><time>2026-04-17T09:53:23.137Z</time></trkpt><trkpt lat="43.4557267" lon="11.57867"><ele>456.0</ele><time>2026-04-17T09:53:24.138Z</time></trkpt><trkpt lat="43.4556617" lon="11.5787467"><ele>456.0</ele><time>2026-04-17T09:53:25.138Z</time></trkpt><trkpt lat="43.4556" lon="11.5788133"><ele>456.0</ele><time>2026-04-17T09:53:26.136Z</time></trkpt><trkpt lat="43.4555483" lon="11.57889"><ele>456.0</ele><time>2026-04-17T09:53:27.136Z</time></trkpt><trkpt lat="43.4555017" lon="11.578985"><ele>456.0</ele><time>2026-04-17T09:53:28.137Z</time></trkpt><trkpt lat="43.4554617" lon="11.579085"><ele>455.5</ele><time>2026-04-17T09:53:29.136Z</time></trkpt><trkpt lat="43.45544" lon="11.5792167"><ele>455.0</ele><time>2026-04-17T09:53:30.137Z</time></trkpt><trkpt lat="43.45542" lon="11.57933"><ele>454.5</ele><time>2026-04-17T09:53:31.136Z</time></trkpt><trkpt lat="43.455405" lon="11.5794567"><ele>454.0</ele><time>2026-04-17T09:53:32.136Z</time></trkpt><trkpt lat="43.4554033" lon="11.5795667"><ele>453.5</ele><time>2026-04-17T09:53:33.138Z</time></trkpt><trkpt lat="43.455395" lon="11.5796567"><ele>453.0</ele><time>2026-04-17T09:53:34.137Z</time></trkpt><trkpt lat="43.4553683" lon="11.5798267"><ele>450.4</ele><time>2026-04-17T09:53:36.137Z</time></trkpt><trkpt lat="43.45535" lon="11.5799117"><ele>447.79999999999995</ele><time>2026-04-17T09:53:37.136Z</time></trkpt><trkpt lat="43.4553117" lon="11.5800733"><ele>445.2</ele><time>2026-04-17T09:53:39.138Z</time></trkpt><trkpt lat="43.4552733" lon="11.580215"><ele>442.6</ele><time>2026-04-17T09:53:41.136Z</time></trkpt><trkpt lat="43.455215" lon="11.5803283"><ele>440.0</ele><time>2026-04-17T09:53:43.137Z</time></trkpt><trkpt lat="43.45511" lon="11.5804033"><ele>437.4</ele><time>2026-04-17T09:53:45.136Z</time></trkpt><trkpt lat="43.4550033" lon="11.580475"><ele>434.8</ele><time>2026-04-17T09:53:47.137Z</time></trkpt><trkpt lat="43.4548983" lon="11.580575"><ele>432.20000000000005</ele><time>2026-04-17T09:53:49.139Z</time></trkpt><trkpt lat="43.454855" lon="11.5806383"><ele>429.6</ele><time>2026-04-17T09:53:50.138Z</time></trkpt><trkpt lat="43.454785" lon="11.580775"><ele>427.0</ele><time>2026-04-17T09:53:52.138Z</time></trkpt><trkpt lat="43.4547533" lon="11.5809317"><ele>427.00000000000006</ele><time>2026-04-17T09:53:54.137Z</time></trkpt><trkpt lat="43.4547417" lon="11.58102"><ele>427.0</ele><time>2026-04-17T09:53:55.138Z</time></trkpt><trkpt lat="43.4547217" lon="11.58111"><ele>427.0</ele><time>2026-04-17T09:53:56.137Z</time></trkpt><trkpt lat="43.4546933" lon="11.5812033"><ele>427.0</ele><time>2026-04-17T09:53:57.139Z</time></trkpt><trkpt lat="43.4546533" lon="11.581285"><ele>427.00000000000006</ele><time>2026-04-17T09:53:58.137Z</time></trkpt><trkpt lat="43.4546133" lon="11.5813583"><ele>427.0</ele><time>2026-04-17T09:53:59.137Z</time></trkpt><trkpt lat="43.454535" lon="11.5814667"><ele>425.33333333333337</ele><time>2026-04-17T09:54:01.136Z</time></trkpt><trkpt lat="43.4544133" lon="11.58151"><ele>423.6666666666667</ele><time>2026-04-17T09:54:03.138Z</time></trkpt><trkpt lat="43.4543317" lon="11.5815117"><ele>422.0</ele><time>2026-04-17T09:54:04.136Z</time></trkpt><trkpt lat="43.454255" lon="11.5815083"><ele>420.33333333333337</ele><time>2026-04-17T09:54:05.136Z</time></trkpt><trkpt lat="43.454185" lon="11.5814967"><ele>418.6666666666667</ele><time>2026-04-17T09:54:06.136Z</time></trkpt><trkpt lat="43.454105" lon="11.581455"><ele>417.0</ele><time>2026-04-17T09:54:08.136Z</time></trkpt><trkpt lat="43.4540383" lon="11.5815267"><ele>417.0</ele><time>2026-04-17T09:54:15.138Z</time></trkpt><trkpt lat="43.4540183" lon="11.58163"><ele>417.0</ele><time>2026-04-17T09:54:18.139Z</time></trkpt><trkpt lat="43.4540333" lon="11.5817583"><ele>417.0</ele><time>2026-04-17T09:54:21.139Z</time></trkpt><trkpt lat="43.4540683" lon="11.581865"><ele>417.0</ele><time>2026-04-17T09:54:23.137Z</time></trkpt><trkpt lat="43.4540533" lon="11.5819817"><ele>417.0</ele><time>2026-04-17T09:54:25.136Z</time></trkpt><trkpt lat="43.4540267" lon="11.5821067"><ele>417.0</ele><time>2026-04-17T09:54:27.136Z</time></trkpt><trkpt lat="43.4539867" lon="11.5822533"><ele>414.8333333333333</ele><time>2026-04-17T09:54:29.138Z</time></trkpt><trkpt lat="43.4539483" lon="11.5824117"><ele>412.66666666666663</ele><time>2026-04-17T09:54:31.137Z</time></trkpt><trkpt lat="43.4539333" lon="11.5825017"><ele>410.5</ele><time>2026-04-17T09:54:32.137Z</time></trkpt><trkpt lat="43.453925" lon="11.5826"><ele>408.3333333333333</ele><time>2026-04-17T09:54:33.137Z</time></trkpt><trkpt lat="43.4539117" lon="11.582705"><ele>406.16666666666663</ele><time>2026-04-17T09:54:34.136Z</time></trkpt><trkpt lat="43.4539017" lon="11.5828083"><ele>404.0</ele><time>2026-04-17T09:54:35.141Z</time></trkpt><trkpt lat="43.4538967" lon="11.5829117"><ele>403.66666666666663</ele><time>2026-04-17T09:54:36.137Z</time></trkpt><trkpt lat="43.453895" lon="11.5830233"><ele>403.3333333333333</ele><time>2026-04-17T09:54:37.137Z</time></trkpt><trkpt lat="43.45389" lon="11.5831333"><ele>403.0</ele><time>2026-04-17T09:54:38.136Z</time></trkpt><trkpt lat="43.4538833" lon="11.5832383"><ele>402.66666666666663</ele><time>2026-04-17T09:54:39.137Z</time></trkpt><trkpt lat="43.4538717" lon="11.5833533"><ele>402.3333333333333</ele><time>2026-04-17T09:54:40.136Z</time></trkpt><trkpt lat="43.4538617" lon="11.5834667"><ele>402.0</ele><time>2026-04-17T09:54:41.137Z</time></trkpt><trkpt lat="43.4538467" lon="11.5835767"><ele>400.7142857142857</ele><time>2026-04-17T09:54:42.135Z</time></trkpt><trkpt lat="43.45384" lon="11.583685"><ele>399.42857142857144</ele><time>2026-04-17T09:54:43.136Z</time></trkpt><trkpt lat="43.453835" lon="11.5837867"><ele>398.14285714285717</ele><time>2026-04-17T09:54:44.136Z</time></trkpt><trkpt lat="43.45383" lon="11.5838883"><ele>396.8571428571429</ele><time>2026-04-17T09:54:45.137Z</time></trkpt><trkpt lat="43.4538233" lon="11.58399"><ele>395.57142857142856</ele><time>2026-04-17T09:54:46.138Z</time></trkpt><trkpt lat="43.4538233" lon="11.5840867"><ele>394.28571428571433</ele><time>2026-04-17T09:54:47.137Z</time></trkpt><trkpt lat="43.4538217" lon="11.5841833"><ele>393.0</ele><time>2026-04-17T09:54:48.137Z</time></trkpt><trkpt lat="43.4538267" lon="11.58429"><ele>393.0</ele><time>2026-04-17T09:54:49.136Z</time></trkpt><trkpt lat="43.4538417" lon="11.5843967"><ele>393.0</ele><time>2026-04-17T09:54:50.136Z</time></trkpt><trkpt lat="43.4538733" lon="11.5844967"><ele>393.0</ele><time>2026-04-17T09:54:51.137Z</time></trkpt><trkpt lat="43.4539083" lon="11.5845967"><ele>393.0</ele><time>2026-04-17T09:54:52.136Z</time></trkpt><trkpt lat="43.4539433" lon="11.5847033"><ele>393.0</ele><time>2026-04-17T09:54:53.135Z</time></trkpt><trkpt lat="43.4539767" lon="11.5848117"><ele>393.0</ele><time>2026-04-17T09:54:54.138Z</time></trkpt><trkpt lat="43.454015" lon="11.5849217"><ele>390.6666666666667</ele><time>2026-04-17T09:54:55.138Z</time></trkpt><trkpt lat="43.454055" lon="11.5850267"><ele>388.3333333333333</ele><time>2026-04-17T09:54:56.139Z</time></trkpt><trkpt lat="43.45409" lon="11.5851333"><ele>386.0</ele><time>2026-04-17T09:54:57.138Z</time></trkpt><trkpt lat="43.4541133" lon="11.585245"><ele>383.66666666666663</ele><time>2026-04-17T09:54:58.137Z</time></trkpt><trkpt lat="43.45413" lon="11.5853683"><ele>381.3333333333333</ele><time>2026-04-17T09:54:59.138Z</time></trkpt><trkpt lat="43.454145" lon="11.5854917"><ele>379.0</ele><time>2026-04-17T09:55:00.138Z</time></trkpt><trkpt lat="43.4541533" lon="11.5856067"><ele>377.3333333333333</ele><time>2026-04-17T09:55:01.138Z</time></trkpt><trkpt lat="43.4541567" lon="11.5857183"><ele>375.66666666666663</ele><time>2026-04-17T09:55:02.139Z</time></trkpt><trkpt lat="43.4541617" lon="11.5858167"><ele>374.0</ele><time>2026-04-17T09:55:03.139Z</time></trkpt><trkpt lat="43.4541667" lon="11.5859117"><ele>372.3333333333333</ele><time>2026-04-17T09:55:04.138Z</time></trkpt><trkpt lat="43.4541667" lon="11.5860067"><ele>370.6666666666667</ele><time>2026-04-17T09:55:05.138Z</time></trkpt><trkpt lat="43.4541583" lon="11.586105"><ele>369.0</ele><time>2026-04-17T09:55:06.136Z</time></trkpt><trkpt lat="43.454155" lon="11.5862283"><ele>367.4</ele><time>2026-04-17T09:55:07.137Z</time></trkpt><trkpt lat="43.4541517" lon="11.5863583"><ele>365.79999999999995</ele><time>2026-04-17T09:55:08.136Z</time></trkpt><trkpt lat="43.4541433" lon="11.5865067"><ele>364.20000000000005</ele><time>2026-04-17T09:55:09.136Z</time></trkpt><trkpt lat="43.4541333" lon="11.5866483"><ele>362.6</ele><time>2026-04-17T09:55:10.137Z</time></trkpt><trkpt lat="43.4541183" lon="11.5867817"><ele>361.0</ele><time>2026-04-17T09:55:11.137Z</time></trkpt><trkpt lat="43.4541" lon="11.5869133"><ele>360.3333333333333</ele><time>2026-04-17T09:55:12.136Z</time></trkpt><trkpt lat="43.4540783" lon="11.5870317"><ele>359.66666666666663</ele><time>2026-04-17T09:55:13.138Z</time></trkpt><trkpt lat="43.45406" lon="11.5871433"><ele>359.0</ele><time>2026-04-17T09:55:14.137Z</time></trkpt><trkpt lat="43.45405" lon="11.5872483"><ele>358.3333333333333</ele><time>2026-04-17T09:55:15.138Z</time></trkpt><trkpt lat="43.4540417" lon="11.5873533"><ele>357.6666666666667</ele><time>2026-04-17T09:55:16.14Z</time></trkpt><trkpt lat="43.4540317" lon="11.5874633"><ele>357.0</ele><time>2026-04-17T09:55:17.137Z</time></trkpt><trkpt lat="43.4540183" lon="11.5875717"><ele>357.0</ele><time>2026-04-17T09:55:18.14Z</time></trkpt><trkpt lat="43.4540083" lon="11.5876833"><ele>357.0</ele><time>2026-04-17T09:55:19.139Z</time></trkpt><trkpt lat="43.4540083" lon="11.5877933"><ele>357.0</ele><time>2026-04-17T09:55:20.14Z</time></trkpt><trkpt lat="43.454025" lon="11.5879117"><ele>357.0</ele><time>2026-04-17T09:55:21.139Z</time></trkpt><trkpt lat="43.4540433" lon="11.5880283"><ele>357.0</ele><time>2026-04-17T09:55:22.136Z</time></trkpt><trkpt lat="43.4540633" lon="11.5881433"><ele>357.0</ele><time>2026-04-17T09:55:23.136Z</time></trkpt><trkpt lat="43.4540867" lon="11.5882583"><ele>356.2857142857143</ele><time>2026-04-17T09:55:24.136Z</time></trkpt><trkpt lat="43.454115" lon="11.5883633"><ele>355.57142857142856</ele><time>2026-04-17T09:55:25.136Z</time></trkpt><trkpt lat="43.45414" lon="11.5884617"><ele>354.8571428571429</ele><time>2026-04-17T09:55:26.137Z</time></trkpt><trkpt lat="43.4541583" lon="11.5885583"><ele>354.1428571428571</ele><time>2026-04-17T09:55:27.137Z</time></trkpt><trkpt lat="43.4541617" lon="11.588655"><ele>353.42857142857144</ele><time>2026-04-17T09:55:28.137Z</time></trkpt><trkpt lat="43.4541533" lon="11.5887483"><ele>352.7142857142857</ele><time>2026-04-17T09:55:29.136Z</time></trkpt><trkpt lat="43.4541367" lon="11.5888333"><ele>352.0</ele><time>2026-04-17T09:55:30.137Z</time></trkpt><trkpt lat="43.4541267" lon="11.5889217"><ele>351.0</ele><time>2026-04-17T09:55:31.136Z</time></trkpt><trkpt lat="43.4541267" lon="11.58902"><ele>350.0</ele><time>2026-04-17T09:55:32.135Z</time></trkpt><trkpt lat="43.45413" lon="11.5891267"><ele>349.0</ele><time>2026-04-17T09:55:33.137Z</time></trkpt><trkpt lat="43.4541233" lon="11.5892367"><ele>348.0</ele><time>2026-04-17T09:55:34.136Z</time></trkpt><trkpt lat="43.454105" lon="11.5893417"><ele>347.0</ele><time>2026-04-17T09:55:35.136Z</time></trkpt><trkpt lat="43.4540817" lon="11.5894433"><ele>346.0</ele><time>2026-04-17T09:55:36.137Z</time></trkpt><trkpt lat="43.45407" lon="11.5895483"><ele>344.16666666666663</ele><time>2026-04-17T09:55:37.137Z</time></trkpt><trkpt lat="43.4540667" lon="11.5896567"><ele>342.3333333333333</ele><time>2026-04-17T09:55:38.135Z</time></trkpt><trkpt lat="43.45406" lon="11.5897567"><ele>340.5</ele><time>2026-04-17T09:55:39.137Z</time></trkpt><trkpt lat="43.45405" lon="11.58985"><ele>338.6666666666667</ele><time>2026-04-17T09:55:40.135Z</time></trkpt><trkpt lat="43.454" lon="11.5900033"><ele>336.83333333333337</ele><time>2026-04-17T09:55:42.136Z</time></trkpt><trkpt lat="43.4539633" lon="11.59008"><ele>335.0</ele><time>2026-04-17T09:55:43.136Z</time></trkpt><trkpt lat="43.453925" lon="11.59016"><ele>335.0</ele><time>2026-04-17T09:55:44.138Z</time></trkpt><trkpt lat="43.4538917" lon="11.5902417"><ele>335.0</ele><time>2026-04-17T09:55:45.137Z</time></trkpt><trkpt lat="43.453875" lon="11.5903267"><ele>335.0</ele><time>2026-04-17T09:55:46.136Z</time></trkpt><trkpt lat="43.4538817" lon="11.59051"><ele>335.0</ele><time>2026-04-17T09:55:48.138Z</time></trkpt><trkpt lat="43.4538967" lon="11.5906067"><ele>335.0</ele><time>2026-04-17T09:55:49.136Z</time></trkpt><trkpt lat="43.4539167" lon="11.5907117"><ele>335.0</ele><time>2026-04-17T09:55:50.135Z</time></trkpt><trkpt lat="43.4539233" lon="11.5908267"><ele>333.1666666666667</ele><time>2026-04-17T09:55:51.137Z</time></trkpt><trkpt lat="43.45392" lon="11.5909383"><ele>331.33333333333337</ele><time>2026-04-17T09:55:52.136Z</time></trkpt><trkpt lat="43.45392" lon="11.5910533"><ele>329.5</ele><time>2026-04-17T09:55:53.137Z</time></trkpt><trkpt lat="43.4539117" lon="11.5911683"><ele>327.6666666666667</ele><time>2026-04-17T09:55:54.136Z</time></trkpt><trkpt lat="43.4539" lon="11.5912833"><ele>325.8333333333333</ele><time>2026-04-17T09:55:55.138Z</time></trkpt><trkpt lat="43.4538867" lon="11.5913983"><ele>324.0</ele><time>2026-04-17T09:55:56.137Z</time></trkpt><trkpt lat="43.4538717" lon="11.5915117"><ele>322.3333333333333</ele><time>2026-04-17T09:55:57.138Z</time></trkpt><trkpt lat="43.4538683" lon="11.5916233"><ele>320.6666666666667</ele><time>2026-04-17T09:55:58.137Z</time></trkpt><trkpt lat="43.4538783" lon="11.59173"><ele>319.0</ele><time>2026-04-17T09:55:59.136Z</time></trkpt><trkpt lat="43.4539067" lon="11.5918367"><ele>317.33333333333337</ele><time>2026-04-17T09:56:00.137Z</time></trkpt><trkpt lat="43.4539433" lon="11.5919383"><ele>315.6666666666667</ele><time>2026-04-17T09:56:01.135Z</time></trkpt><trkpt lat="43.453985" lon="11.59204"><ele>314.0</ele><time>2026-04-17T09:56:02.136Z</time></trkpt><trkpt lat="43.4540317" lon="11.5921383"><ele>312.83333333333337</ele><time>2026-04-17T09:56:03.139Z</time></trkpt><trkpt lat="43.45408" lon="11.5922367"><ele>311.6666666666667</ele><time>2026-04-17T09:56:04.137Z</time></trkpt><trkpt lat="43.4541267" lon="11.592345"><ele>310.5</ele><time>2026-04-17T09:56:05.135Z</time></trkpt><trkpt lat="43.45417" lon="11.59245"><ele>309.3333333333333</ele><time>2026-04-17T09:56:06.135Z</time></trkpt><trkpt lat="43.454205" lon="11.59256"><ele>308.16666666666663</ele><time>2026-04-17T09:56:07.138Z</time></trkpt><trkpt lat="43.4542367" lon="11.59268"><ele>307.0</ele><time>2026-04-17T09:56:08.136Z</time></trkpt><trkpt lat="43.4542617" lon="11.5928067"><ele>306.57142857142856</ele><time>2026-04-17T09:56:09.137Z</time></trkpt><trkpt lat="43.4542883" lon="11.5929217"><ele>306.1428571428571</ele><time>2026-04-17T09:56:10.131Z</time></trkpt><trkpt lat="43.45431" lon="11.5930217"><ele>305.71428571428567</ele><time>2026-04-17T09:56:11.137Z</time></trkpt><trkpt lat="43.4543233" lon="11.5931133"><ele>305.2857142857143</ele><time>2026-04-17T09:56:12.137Z</time></trkpt><trkpt lat="43.45432" lon="11.5932033"><ele>304.8571428571429</ele><time>2026-04-17T09:56:13.138Z</time></trkpt><trkpt lat="43.4543017" lon="11.5932883"><ele>304.4285714285714</ele><time>2026-04-17T09:56:14.137Z</time></trkpt><trkpt lat="43.4542633" lon="11.5933633"><ele>304.0</ele><time>2026-04-17T09:56:15.139Z</time></trkpt><trkpt lat="43.4541933" lon="11.593445"><ele>304.0</ele><time>2026-04-17T09:56:16.137Z</time></trkpt><trkpt lat="43.454115" lon="11.5935233"><ele>304.0</ele><time>2026-04-17T09:56:17.135Z</time></trkpt><trkpt lat="43.454055" lon="11.5935967"><ele>304.0</ele><time>2026-04-17T09:56:18.135Z</time></trkpt><trkpt lat="43.454005" lon="11.5936667"><ele>304.0</ele><time>2026-04-17T09:56:19.136Z</time></trkpt><trkpt lat="43.4539667" lon="11.5937467"><ele>304.0</ele><time>2026-04-17T09:56:20.137Z</time></trkpt><trkpt lat="43.4539367" lon="11.593845"><ele>304.0</ele><time>2026-04-17T09:56:21.138Z</time></trkpt><trkpt lat="43.4539283" lon="11.593955"><ele>303.3333333333333</ele><time>2026-04-17T09:56:22.139Z</time></trkpt><trkpt lat="43.45394" lon="11.5940733"><ele>302.66666666666663</ele><time>2026-04-17T09:56:23.132Z</time></trkpt><trkpt lat="43.4539417" lon="11.594185"><ele>302.0</ele><time>2026-04-17T09:56:24.137Z</time></trkpt><trkpt lat="43.4539317" lon="11.59429"><ele>301.3333333333333</ele><time>2026-04-17T09:56:25.138Z</time></trkpt><trkpt lat="43.4539183" lon="11.594385"><ele>300.6666666666667</ele><time>2026-04-17T09:56:26.136Z</time></trkpt><trkpt lat="43.4538983" lon="11.5945317"><ele>300.0</ele><time>2026-04-17T09:56:28.137Z</time></trkpt><trkpt lat="43.45394" lon="11.5946633"><ele>298.1666666666667</ele><time>2026-04-17T09:56:30.137Z</time></trkpt><trkpt lat="43.4539917" lon="11.5947267"><ele>296.3333333333333</ele><time>2026-04-17T09:56:31.136Z</time></trkpt><trkpt lat="43.4540617" lon="11.5947917"><ele>294.5</ele><time>2026-04-17T09:56:32.137Z</time></trkpt><trkpt lat="43.4541383" lon="11.5948667"><ele>292.66666666666663</ele><time>2026-04-17T09:56:33.138Z</time></trkpt><trkpt lat="43.4542133" lon="11.5949367"><ele>290.8333333333333</ele><time>2026-04-17T09:56:34.136Z</time></trkpt><trkpt lat="43.45428" lon="11.5949767"><ele>289.0</ele><time>2026-04-17T09:56:35.136Z</time></trkpt><trkpt lat="43.4543467" lon="11.5949917"><ele>289.0</ele><time>2026-04-17T09:56:36.136Z</time></trkpt><trkpt lat="43.45442" lon="11.5949683"><ele>289.0</ele><time>2026-04-17T09:56:37.137Z</time></trkpt><trkpt lat="43.454495" lon="11.594915"><ele>289.0</ele><time>2026-04-17T09:56:38.136Z</time></trkpt><trkpt lat="43.45458" lon="11.5948433"><ele>289.0</ele><time>2026-04-17T09:56:39.133Z</time></trkpt><trkpt lat="43.45467" lon="11.5947883"><ele>289.0</ele><time>2026-04-17T09:56:40.137Z</time></trkpt><trkpt lat="43.454755" lon="11.5947617"><ele>289.0</ele><time>2026-04-17T09:56:41.136Z</time></trkpt><trkpt lat="43.45484" lon="11.5947517"><ele>289.3333333333333</ele><time>2026-04-17T09:56:42.137Z</time></trkpt><trkpt lat="43.4549217" lon="11.594755"><ele>289.66666666666663</ele><time>2026-04-17T09:56:43.138Z</time></trkpt><trkpt lat="43.4549967" lon="11.59477"><ele>290.0</ele><time>2026-04-17T09:56:44.138Z</time></trkpt><trkpt lat="43.4550567" lon="11.5948067"><ele>290.3333333333333</ele><time>2026-04-17T09:56:45.138Z</time></trkpt><trkpt lat="43.4550983" lon="11.5948733"><ele>290.6666666666667</ele><time>2026-04-17T09:56:46.137Z</time></trkpt><trkpt lat="43.4551083" lon="11.5949917"><ele>291.0</ele><time>2026-04-17T09:56:47.132Z</time></trkpt><trkpt lat="43.4551083" lon="11.5951267"><ele>291.0</ele><time>2026-04-17T09:56:48.135Z</time></trkpt><trkpt lat="43.45512" lon="11.5952667"><ele>291.0</ele><time>2026-04-17T09:56:49.138Z</time></trkpt><trkpt lat="43.4551367" lon="11.5954167"><ele>291.0</ele><time>2026-04-17T09:56:50.137Z</time></trkpt><trkpt lat="43.455165" lon="11.5955717"><ele>291.0</ele><time>2026-04-17T09:56:51.138Z</time></trkpt><trkpt lat="43.4552" lon="11.59571"><ele>291.0</ele><time>2026-04-17T09:56:52.137Z</time></trkpt><trkpt lat="43.45524" lon="11.5958283"><ele>290.0</ele><time>2026-04-17T09:56:53.136Z</time></trkpt><trkpt lat="43.4552917" lon="11.59593"><ele>289.0</ele><time>2026-04-17T09:56:54.136Z</time></trkpt><trkpt lat="43.45538" lon="11.59601"><ele>288.0</ele><time>2026-04-17T09:56:55.138Z</time></trkpt><trkpt lat="43.4554717" lon="11.596085"><ele>287.0</ele><time>2026-04-17T09:56:56.137Z</time></trkpt><trkpt lat="43.4555533" lon="11.59616"><ele>286.0</ele><time>2026-04-17T09:56:57.137Z</time></trkpt><trkpt lat="43.4556183" lon="11.5962417"><ele>285.4285714285714</ele><time>2026-04-17T09:56:58.137Z</time></trkpt><trkpt lat="43.4556717" lon="11.59633"><ele>284.85714285714283</ele><time>2026-04-17T09:56:59.136Z</time></trkpt><trkpt lat="43.45573" lon="11.59641"><ele>284.2857142857143</ele><time>2026-04-17T09:57:00.137Z</time></trkpt><trkpt lat="43.4557883" lon="11.5964833"><ele>283.71428571428567</ele><time>2026-04-17T09:57:01.137Z</time></trkpt><trkpt lat="43.4558483" lon="11.5965283"><ele>283.1428571428571</ele><time>2026-04-17T09:57:02.136Z</time></trkpt><trkpt lat="43.4559117" lon="11.5965433"><ele>282.57142857142856</ele><time>2026-04-17T09:57:03.138Z</time></trkpt><trkpt lat="43.4559833" lon="11.5965367"><ele>282.0</ele><time>2026-04-17T09:57:04.136Z</time></trkpt><trkpt lat="43.4560683" lon="11.5965217"><ele>282.0</ele><time>2026-04-17T09:57:05.136Z</time></trkpt><trkpt lat="43.4561483" lon="11.59652"><ele>282.0</ele><time>2026-04-17T09:57:06.136Z</time></trkpt><trkpt lat="43.45622" lon="11.5965283"><ele>282.0</ele><time>2026-04-17T09:57:07.137Z</time></trkpt><trkpt lat="43.456295" lon="11.59655"><ele>282.0</ele><time>2026-04-17T09:57:08.135Z</time></trkpt><trkpt lat="43.4563767" lon="11.5965817"><ele>282.0</ele><time>2026-04-17T09:57:09.138Z</time></trkpt><trkpt lat="43.456455" lon="11.59662"><ele>282.0</ele><time>2026-04-17T09:57:10.135Z</time></trkpt><trkpt lat="43.4565217" lon="11.5966583"><ele>280.6666666666667</ele><time>2026-04-17T09:57:11.136Z</time></trkpt><trkpt lat="43.4565817" lon="11.5966883"><ele>279.3333333333333</ele><time>2026-04-17T09:57:12.138Z</time></trkpt><trkpt lat="43.4566883" lon="11.5967467"><ele>278.0</ele><time>2026-04-17T09:57:14.138Z</time></trkpt><trkpt lat="43.4567833" lon="11.5968617"><ele>276.66666666666663</ele><time>2026-04-17T09:57:16.138Z</time></trkpt><trkpt lat="43.4568217" lon="11.5969333"><ele>275.3333333333333</ele><time>2026-04-17T09:57:17.138Z</time></trkpt><trkpt lat="43.456845" lon="11.597015"><ele>274.0</ele><time>2026-04-17T09:57:18.137Z</time></trkpt><trkpt lat="43.4568567" lon="11.5971167"><ele>273.8571428571429</ele><time>2026-04-17T09:57:19.138Z</time></trkpt><trkpt lat="43.4568617" lon="11.5972183"><ele>273.7142857142857</ele><time>2026-04-17T09:57:20.135Z</time></trkpt><trkpt lat="43.45687" lon="11.5973167"><ele>273.57142857142856</ele><time>2026-04-17T09:57:21.137Z</time></trkpt><trkpt lat="43.4568867" lon="11.5974083"><ele>273.42857142857144</ele><time>2026-04-17T09:57:22.137Z</time></trkpt><trkpt lat="43.4569167" lon="11.5974883"><ele>273.2857142857143</ele><time>2026-04-17T09:57:23.136Z</time></trkpt><trkpt lat="43.4569567" lon="11.5975583"><ele>273.14285714285717</ele><time>2026-04-17T09:57:24.137Z</time></trkpt><trkpt lat="43.457005" lon="11.5976283"><ele>273.0</ele><time>2026-04-17T09:57:25.138Z</time></trkpt><trkpt lat="43.4570617" lon="11.597705"><ele>272.6</ele><time>2026-04-17T09:57:26.137Z</time></trkpt><trkpt lat="43.4571233" lon="11.5977917"><ele>272.20000000000005</ele><time>2026-04-17T09:57:27.139Z</time></trkpt><trkpt lat="43.457185" lon="11.5978833"><ele>271.8</ele><time>2026-04-17T09:57:28.137Z</time></trkpt><trkpt lat="43.4572467" lon="11.5979817"><ele>271.40000000000003</ele><time>2026-04-17T09:57:29.138Z</time></trkpt><trkpt lat="43.4573033" lon="11.5980817"><ele>271.0</ele><time>2026-04-17T09:57:30.137Z</time></trkpt><trkpt lat="43.4573533" lon="11.59819"><ele>271.0</ele><time>2026-04-17T09:57:31.139Z</time></trkpt><trkpt lat="43.4573917" lon="11.5982967"><ele>271.0</ele><time>2026-04-17T09:57:32.138Z</time></trkpt><trkpt lat="43.4574233" lon="11.5984117"><ele>271.0</ele><time>2026-04-17T09:57:33.137Z</time></trkpt><trkpt lat="43.4574567" lon="11.5985267"><ele>271.0</ele><time>2026-04-17T09:57:34.134Z</time></trkpt><trkpt lat="43.457495" lon="11.5986383"><ele>271.0</ele><time>2026-04-17T09:57:35.135Z</time></trkpt><trkpt lat="43.4575383" lon="11.598755"><ele>270.25</ele><time>2026-04-17T09:57:36.139Z</time></trkpt><trkpt lat="43.4575917" lon="11.59889"><ele>269.5</ele><time>2026-04-17T09:57:37.138Z</time></trkpt><trkpt lat="43.457655" lon="11.5990317"><ele>268.75</ele><time>2026-04-17T09:57:38.137Z</time></trkpt><trkpt lat="43.4577283" lon="11.59919"><ele>268.0</ele><time>2026-04-17T09:57:39.137Z</time></trkpt><trkpt lat="43.457805" lon="11.599365"><ele>266.3333333333333</ele><time>2026-04-17T09:57:40.137Z</time></trkpt><trkpt lat="43.4578883" lon="11.599555"><ele>264.6666666666667</ele><time>2026-04-17T09:57:41.137Z</time></trkpt><trkpt lat="43.4579817" lon="11.5997633"><ele>263.0</ele><time>2026-04-17T09:57:42.137Z</time></trkpt><trkpt lat="43.4580767" lon="11.599965"><ele>263.0</ele><time>2026-04-17T09:57:43.136Z</time></trkpt><trkpt lat="43.4581717" lon="11.6001667"><ele>263.0</ele><time>2026-04-17T09:57:44.138Z</time></trkpt><trkpt lat="43.4582667" lon="11.60036"><ele>263.0</ele><time>2026-04-17T09:57:45.136Z</time></trkpt><trkpt lat="43.45836" lon="11.60055"><ele>261.6666666666667</ele><time>2026-04-17T09:57:46.138Z</time></trkpt><trkpt lat="43.458445" lon="11.60073"><ele>260.3333333333333</ele><time>2026-04-17T09:57:47.136Z</time></trkpt><trkpt lat="43.4585283" lon="11.600905"><ele>259.0</ele><time>2026-04-17T09:57:48.138Z</time></trkpt><trkpt lat="43.4586083" lon="11.6010717"><ele>259.25</ele><time>2026-04-17T09:57:49.138Z</time></trkpt><trkpt lat="43.4586867" lon="11.601235"><ele>259.5</ele><time>2026-04-17T09:57:50.137Z</time></trkpt><trkpt lat="43.4587633" lon="11.601395"><ele>259.75</ele><time>2026-04-17T09:57:51.138Z</time></trkpt><trkpt lat="43.4588383" lon="11.6015517"><ele>260.0</ele><time>2026-04-17T09:57:52.138Z</time></trkpt><trkpt lat="43.4589067" lon="11.6016917"><ele>260.0</ele><time>2026-04-17T09:57:53.135Z</time></trkpt><trkpt lat="43.4589767" lon="11.6018117"><ele>260.0</ele><time>2026-04-17T09:57:54.137Z</time></trkpt><trkpt lat="43.45906" lon="11.6018983"><ele>260.0</ele><time>2026-04-17T09:57:55.137Z</time></trkpt><trkpt lat="43.4591667" lon="11.601955"><ele>260.0</ele><time>2026-04-17T09:57:56.138Z</time></trkpt><trkpt lat="43.45929" lon="11.6019833"><ele>259.75</ele><time>2026-04-17T09:57:57.138Z</time></trkpt><trkpt lat="43.4594233" lon="11.602005"><ele>259.5</ele><time>2026-04-17T09:57:58.136Z</time></trkpt><trkpt lat="43.459555" lon="11.60204"><ele>259.25</ele><time>2026-04-17T09:57:59.137Z</time></trkpt><trkpt lat="43.4596767" lon="11.6021"><ele>259.0</ele><time>2026-04-17T09:58:00.137Z</time></trkpt><trkpt lat="43.4597933" lon="11.602195"><ele>259.0</ele><time>2026-04-17T09:58:01.137Z</time></trkpt><trkpt lat="43.4599117" lon="11.6023183"><ele>259.0</ele><time>2026-04-17T09:58:02.137Z</time></trkpt><trkpt lat="43.4600367" lon="11.6024617"><ele>259.0</ele><time>2026-04-17T09:58:03.136Z</time></trkpt><trkpt lat="43.4601633" lon="11.6026133"><ele>259.0</ele><time>2026-04-17T09:58:04.135Z</time></trkpt><trkpt lat="43.46029" lon="11.6027733"><ele>259.0</ele><time>2026-04-17T09:58:05.137Z</time></trkpt><trkpt lat="43.4604133" lon="11.6029317"><ele>259.0</ele><time>2026-04-17T09:58:06.137Z</time></trkpt><trkpt lat="43.4605333" lon="11.6030833"><ele>257.66666666666663</ele><time>2026-04-17T09:58:07.137Z</time></trkpt><trkpt lat="43.46065" lon="11.6032317"><ele>256.3333333333333</ele><time>2026-04-17T09:58:08.138Z</time></trkpt><trkpt lat="43.4607567" lon="11.603375"><ele>255.0</ele><time>2026-04-17T09:58:09.136Z</time></trkpt><trkpt lat="43.460865" lon="11.603525"><ele>254.0</ele><time>2026-04-17T09:58:10.136Z</time></trkpt><trkpt lat="43.4609767" lon="11.6036767"><ele>253.0</ele><time>2026-04-17T09:58:11.136Z</time></trkpt><trkpt lat="43.4610917" lon="11.6038317"><ele>252.0</ele><time>2026-04-17T09:58:12.136Z</time></trkpt><trkpt lat="43.4612083" lon="11.6039817"><ele>250.0</ele><time>2026-04-17T09:58:13.137Z</time></trkpt><trkpt lat="43.4613233" lon="11.604125"><ele>248.0</ele><time>2026-04-17T09:58:14.136Z</time></trkpt><trkpt lat="43.4614367" lon="11.6042617"><ele>246.0</ele><time>2026-04-17T09:58:15.137Z</time></trkpt><trkpt lat="43.4615483" lon="11.604395"><ele>245.5</ele><time>2026-04-17T09:58:16.136Z</time></trkpt><trkpt lat="43.4616567" lon="11.604525"><ele>245.0</ele><time>2026-04-17T09:58:17.135Z</time></trkpt><trkpt lat="43.4617567" lon="11.60466"><ele>244.5</ele><time>2026-04-17T09:58:18.136Z</time></trkpt><trkpt lat="43.4618617" lon="11.6047983"><ele>244.0</ele><time>2026-04-17T09:58:19.138Z</time></trkpt><trkpt lat="43.4619667" lon="11.6049317"><ele>244.0</ele><time>2026-04-17T09:58:20.137Z</time></trkpt><trkpt lat="43.462075" lon="11.6050617"><ele>244.0</ele><time>2026-04-17T09:58:21.138Z</time></trkpt><trkpt lat="43.4621883" lon="11.605185"><ele>244.0</ele><time>2026-04-17T09:58:22.138Z</time></trkpt><trkpt lat="43.4622983" lon="11.605305"><ele>244.0</ele><time>2026-04-17T09:58:23.135Z</time></trkpt><trkpt lat="43.4624167" lon="11.6054267"><ele>241.75</ele><time>2026-04-17T09:58:24.136Z</time></trkpt><trkpt lat="43.4625317" lon="11.605555"><ele>239.5</ele><time>2026-04-17T09:58:25.138Z</time></trkpt><trkpt lat="43.4626467" lon="11.6056867"><ele>237.25</ele><time>2026-04-17T09:58:26.136Z</time></trkpt><trkpt lat="43.46276" lon="11.6058217"><ele>235.0</ele><time>2026-04-17T09:58:27.137Z</time></trkpt><trkpt lat="43.4628767" lon="11.60595"><ele>235.75</ele><time>2026-04-17T09:58:28.137Z</time></trkpt><trkpt lat="43.46299" lon="11.606075"><ele>236.5</ele><time>2026-04-17T09:58:29.136Z</time></trkpt><trkpt lat="43.4631" lon="11.6062"><ele>237.25</ele><time>2026-04-17T09:58:30.137Z</time></trkpt><trkpt lat="43.4632067" lon="11.60633"><ele>238.0</ele><time>2026-04-17T09:58:31.138Z</time></trkpt><trkpt lat="43.4633117" lon="11.6064533"><ele>239.25</ele><time>2026-04-17T09:58:32.136Z</time></trkpt><trkpt lat="43.4634233" lon="11.6065717"><ele>240.5</ele><time>2026-04-17T09:58:33.137Z</time></trkpt><trkpt lat="43.4635417" lon="11.6066783"><ele>241.75</ele><time>2026-04-17T09:58:34.137Z</time></trkpt><trkpt lat="43.463665" lon="11.6067783"><ele>243.0</ele><time>2026-04-17T09:58:35.135Z</time></trkpt><trkpt lat="43.4637933" lon="11.6068617"><ele>245.0</ele><time>2026-04-17T09:58:36.136Z</time></trkpt><trkpt lat="43.4639283" lon="11.6069367"><ele>247.0</ele><time>2026-04-17T09:58:37.138Z</time></trkpt><trkpt lat="43.46407" lon="11.6070083"><ele>249.0</ele><time>2026-04-17T09:58:38.136Z</time></trkpt><trkpt lat="43.464205" lon="11.6070667"><ele>251.0</ele><time>2026-04-17T09:58:39.138Z</time></trkpt><trkpt lat="43.4643483" lon="11.60711"><ele>251.5</ele><time>2026-04-17T09:58:40.137Z</time></trkpt><trkpt lat="43.4644817" lon="11.607135"><ele>252.0</ele><time>2026-04-17T09:58:41.136Z</time></trkpt><trkpt lat="43.4646133" lon="11.6071467"><ele>252.5</ele><time>2026-04-17T09:58:42.143Z</time></trkpt><trkpt lat="43.4647517" lon="11.6071467"><ele>253.0</ele><time>2026-04-17T09:58:43.137Z</time></trkpt><trkpt lat="43.4648917" lon="11.607125"><ele>253.0</ele><time>2026-04-17T09:58:44.137Z</time></trkpt><trkpt lat="43.465035" lon="11.6070817"><ele>253.0</ele><time>2026-04-17T09:58:45.137Z</time></trkpt><trkpt lat="43.4651767" lon="11.6070083"><ele>253.0</ele><time>2026-04-17T09:58:46.137Z</time></trkpt><trkpt lat="43.4653233" lon="11.6069183"><ele>253.25</ele><time>2026-04-17T09:58:47.138Z</time></trkpt><trkpt lat="43.4654717" lon="11.6068233"><ele>253.5</ele><time>2026-04-17T09:58:48.137Z</time></trkpt><trkpt lat="43.465605" lon="11.606735"><ele>253.75</ele><time>2026-04-17T09:58:49.137Z</time></trkpt><trkpt lat="43.4657233" lon="11.606665"><ele>254.0</ele><time>2026-04-17T09:58:50.138Z</time></trkpt><trkpt lat="43.4658383" lon="11.60662"><ele>254.0</ele><time>2026-04-17T09:58:51.138Z</time></trkpt><trkpt lat="43.46596" lon="11.6066083"><ele>254.0</ele><time>2026-04-17T09:58:52.137Z</time></trkpt><trkpt lat="43.4660833" lon="11.6066467"><ele>254.0</ele><time>2026-04-17T09:58:53.137Z</time></trkpt><trkpt lat="43.4662083" lon="11.6067317"><ele>254.0</ele><time>2026-04-17T09:58:54.137Z</time></trkpt><trkpt lat="43.4663367" lon="11.6068417"><ele>253.0</ele><time>2026-04-17T09:58:55.138Z</time></trkpt><trkpt lat="43.4664717" lon="11.6069617"><ele>252.0</ele><time>2026-04-17T09:58:56.137Z</time></trkpt><trkpt lat="43.4666183" lon="11.607095"><ele>251.0</ele><time>2026-04-17T09:58:57.137Z</time></trkpt><trkpt lat="43.4667683" lon="11.607225"><ele>251.0</ele><time>2026-04-17T09:58:58.137Z</time></trkpt><trkpt lat="43.46691" lon="11.6073483"><ele>251.0</ele><time>2026-04-17T09:58:59.136Z</time></trkpt><trkpt lat="43.4670417" lon="11.6074633"><ele>251.0</ele><time>2026-04-17T09:59:00.136Z</time></trkpt><trkpt lat="43.4671683" lon="11.6075717"><ele>250.0</ele><time>2026-04-17T09:59:01.137Z</time></trkpt><trkpt lat="43.4672917" lon="11.6076783"><ele>249.0</ele><time>2026-04-17T09:59:02.136Z</time></trkpt><trkpt lat="43.4674083" lon="11.6077867"><ele>248.0</ele><time>2026-04-17T09:59:03.137Z</time></trkpt><trkpt lat="43.4675217" lon="11.6079017"><ele>247.0</ele><time>2026-04-17T09:59:04.136Z</time></trkpt><trkpt lat="43.46764" lon="11.6080283"><ele>246.5</ele><time>2026-04-17T09:59:05.137Z</time></trkpt><trkpt lat="43.4677517" lon="11.6081583"><ele>246.0</ele><time>2026-04-17T09:59:06.135Z</time></trkpt><trkpt lat="43.4678617" lon="11.6082783"><ele>245.5</ele><time>2026-04-17T09:59:07.136Z</time></trkpt><trkpt lat="43.4679733" lon="11.60839"><ele>245.0</ele><time>2026-04-17T09:59:08.136Z</time></trkpt><trkpt lat="43.468095" lon="11.6085067"><ele>242.66666666666669</ele><time>2026-04-17T09:59:09.138Z</time></trkpt><trkpt lat="43.4682267" lon="11.6086183"><ele>240.33333333333331</ele><time>2026-04-17T09:59:10.136Z</time></trkpt><trkpt lat="43.46836" lon="11.60872"><ele>238.0</ele><time>2026-04-17T09:59:11.136Z</time></trkpt><trkpt lat="43.4684867" lon="11.6088167"><ele>238.0</ele><time>2026-04-17T09:59:12.137Z</time></trkpt><trkpt lat="43.4686033" lon="11.6089017"><ele>238.0</ele><time>2026-04-17T09:59:13.135Z</time></trkpt><trkpt lat="43.4686983" lon="11.6089717"><ele>238.0</ele><time>2026-04-17T09:59:14.137Z</time></trkpt><trkpt lat="43.468775" lon="11.6090317"><ele>238.0</ele><time>2026-04-17T09:59:15.136Z</time></trkpt><trkpt lat="43.4688367" lon="11.609085"><ele>238.0</ele><time>2026-04-17T09:59:16.136Z</time></trkpt><trkpt lat="43.468915" lon="11.60914"><ele>237.49999999999997</ele><time>2026-04-17T09:59:18.137Z</time></trkpt><trkpt lat="43.4689767" lon="11.609205"><ele>237.0</ele><time>2026-04-17T09:59:22.137Z</time></trkpt><trkpt lat="43.469055" lon="11.6092683"><ele>236.5</ele><time>2026-04-17T09:59:25.138Z</time></trkpt><trkpt lat="43.4691617" lon="11.609355"><ele>236.0</ele><time>2026-04-17T09:59:27.138Z</time></trkpt><trkpt lat="43.469225" lon="11.6094033"><ele>235.49999999999997</ele><time>2026-04-17T09:59:28.136Z</time></trkpt><trkpt lat="43.469295" lon="11.6094567"><ele>235.0</ele><time>2026-04-17T09:59:29.135Z</time></trkpt><trkpt lat="43.4693617" lon="11.6095067"><ele>234.99999999999997</ele><time>2026-04-17T09:59:30.136Z</time></trkpt><trkpt lat="43.4694317" lon="11.609555"><ele>235.0</ele><time>2026-04-17T09:59:31.139Z</time></trkpt><trkpt lat="43.469495" lon="11.6096033"><ele>235.0</ele><time>2026-04-17T09:59:32.137Z</time></trkpt><trkpt lat="43.469555" lon="11.60965"><ele>235.0</ele><time>2026-04-17T09:59:33.137Z</time></trkpt><trkpt lat="43.4696567" lon="11.6097317"><ele>234.99999999999997</ele><time>2026-04-17T09:59:35.137Z</time></trkpt><trkpt lat="43.4697517" lon="11.609755"><ele>235.0</ele><time>2026-04-17T09:59:38.136Z</time></trkpt><trkpt lat="43.4698217" lon="11.6096267"><ele>234.8</ele><time>2026-04-17T09:59:40.138Z</time></trkpt><trkpt lat="43.46985" lon="11.6095283"><ele>234.6</ele><time>2026-04-17T09:59:41.136Z</time></trkpt><trkpt lat="43.469885" lon="11.609415"><ele>234.39999999999998</ele><time>2026-04-17T09:59:42.138Z</time></trkpt><trkpt lat="43.46993" lon="11.60928"><ele>234.2</ele><time>2026-04-17T09:59:43.138Z</time></trkpt><trkpt lat="43.4699733" lon="11.6091317"><ele>234.0</ele><time>2026-04-17T09:59:44.138Z</time></trkpt><trkpt lat="43.4700067" lon="11.6089883"><ele>234.0</ele><time>2026-04-17T09:59:45.138Z</time></trkpt><trkpt lat="43.4700483" lon="11.6088183"><ele>234.0</ele><time>2026-04-17T09:59:46.138Z</time></trkpt><trkpt lat="43.47008" lon="11.60865"><ele>234.0</ele><time>2026-04-17T09:59:47.135Z</time></trkpt><trkpt lat="43.4701167" lon="11.6084717"><ele>234.0</ele><time>2026-04-17T09:59:48.138Z</time></trkpt><trkpt lat="43.4701533" lon="11.6082983"><ele>234.0</ele><time>2026-04-17T09:59:49.137Z</time></trkpt><trkpt lat="43.47018" lon="11.6081417"><ele>233.99999999999997</ele><time>2026-04-17T09:59:50.136Z</time></trkpt><trkpt lat="43.470195" lon="11.60801"><ele>233.99999999999997</ele><time>2026-04-17T09:59:51.138Z</time></trkpt><trkpt lat="43.4702083" lon="11.6079133"><ele>234.0</ele><time>2026-04-17T09:59:52.137Z</time></trkpt><trkpt lat="43.4702633" lon="11.607805"><ele>234.0</ele><time>2026-04-17T09:59:54.137Z</time></trkpt><trkpt lat="43.4703483" lon="11.607825"><ele>234.33333333333331</ele><time>2026-04-17T09:59:56.137Z</time></trkpt><trkpt lat="43.470465" lon="11.6079917"><ele>234.66666666666666</ele><time>2026-04-17T09:59:58.135Z</time></trkpt><trkpt lat="43.4705583" lon="11.6081233"><ele>235.0</ele><time>2026-04-17T09:59:59.136Z</time></trkpt><trkpt lat="43.4706817" lon="11.608265"><ele>235.0</ele><time>2026-04-17T10:00:00.134Z</time></trkpt><trkpt lat="43.47082" lon="11.6084083"><ele>235.0</ele><time>2026-04-17T10:00:01.134Z</time></trkpt><trkpt lat="43.4709567" lon="11.6085467"><ele>235.0</ele><time>2026-04-17T10:00:02.135Z</time></trkpt><trkpt lat="43.4710883" lon="11.608665"><ele>234.33333333333331</ele><time>2026-04-17T10:00:03.135Z</time></trkpt><trkpt lat="43.471215" lon="11.608765"><ele>233.66666666666669</ele><time>2026-04-17T10:00:04.138Z</time></trkpt><trkpt lat="43.4713483" lon="11.6088417"><ele>233.0</ele><time>2026-04-17T10:00:05.133Z</time></trkpt><trkpt lat="43.471505" lon="11.6089017"><ele>233.0</ele><time>2026-04-17T10:00:06.137Z</time></trkpt><trkpt lat="43.47167" lon="11.6089517"><ele>233.0</ele><time>2026-04-17T10:00:07.136Z</time></trkpt><trkpt lat="43.4718333" lon="11.6089917"><ele>233.0</ele><time>2026-04-17T10:00:08.135Z</time></trkpt><trkpt lat="43.47199" lon="11.6090167"><ele>233.5</ele><time>2026-04-17T10:00:09.136Z</time></trkpt><trkpt lat="43.4721383" lon="11.609035"><ele>234.0</ele><time>2026-04-17T10:00:10.132Z</time></trkpt><trkpt lat="43.4722683" lon="11.6090483"><ele>234.5</ele><time>2026-04-17T10:00:11.135Z</time></trkpt><trkpt lat="43.47239" lon="11.6090633"><ele>235.0</ele><time>2026-04-17T10:00:12.136Z</time></trkpt><trkpt lat="43.4725067" lon="11.6090917"><ele>235.0</ele><time>2026-04-17T10:00:13.139Z</time></trkpt><trkpt lat="43.472615" lon="11.6091217"><ele>235.0</ele><time>2026-04-17T10:00:14.136Z</time></trkpt><trkpt lat="43.4727217" lon="11.6091533"><ele>235.0</ele><time>2026-04-17T10:00:15.138Z</time></trkpt><trkpt lat="43.4728133" lon="11.6091867"><ele>235.0</ele><time>2026-04-17T10:00:16.138Z</time></trkpt><trkpt lat="43.4729017" lon="11.6092417"><ele>235.0</ele><time>2026-04-17T10:00:17.138Z</time></trkpt><trkpt lat="43.4729867" lon="11.6093233"><ele>235.75</ele><time>2026-04-17T10:00:18.137Z</time></trkpt><trkpt lat="43.4730767" lon="11.6094333"><ele>236.5</ele><time>2026-04-17T10:00:19.138Z</time></trkpt><trkpt lat="43.4731617" lon="11.609555"><ele>237.25</ele><time>2026-04-17T10:00:20.136Z</time></trkpt><trkpt lat="43.473245" lon="11.60968"><ele>238.0</ele><time>2026-04-17T10:00:21.138Z</time></trkpt><trkpt lat="43.4733267" lon="11.6098033"><ele>236.0</ele><time>2026-04-17T10:00:22.137Z</time></trkpt><trkpt lat="43.47341" lon="11.6099183"><ele>234.0</ele><time>2026-04-17T10:00:23.136Z</time></trkpt><trkpt lat="43.4734883" lon="11.6100317"><ele>232.0</ele><time>2026-04-17T10:00:24.134Z</time></trkpt><trkpt lat="43.47357" lon="11.6101433"><ele>230.0</ele><time>2026-04-17T10:00:25.137Z</time></trkpt><trkpt lat="43.47365" lon="11.6102583"><ele>230.0</ele><time>2026-04-17T10:00:26.14Z</time></trkpt><trkpt lat="43.4737283" lon="11.6103683"><ele>230.0</ele><time>2026-04-17T10:00:27.137Z</time></trkpt><trkpt lat="43.4738" lon="11.6104733"><ele>230.0</ele><time>2026-04-17T10:00:28.137Z</time></trkpt><trkpt lat="43.4738633" lon="11.6105783"><ele>230.0</ele><time>2026-04-17T10:00:29.136Z</time></trkpt><trkpt lat="43.47392" lon="11.6106867"><ele>230.0</ele><time>2026-04-17T10:00:30.137Z</time></trkpt><trkpt lat="43.4739667" lon="11.6108117"><ele>230.25</ele><time>2026-04-17T10:00:31.137Z</time></trkpt><trkpt lat="43.4739983" lon="11.6109583"><ele>230.5</ele><time>2026-04-17T10:00:32.138Z</time></trkpt><trkpt lat="43.4740167" lon="11.6111117"><ele>230.75</ele><time>2026-04-17T10:00:33.138Z</time></trkpt><trkpt lat="43.4740417" lon="11.6112667"><ele>231.0</ele><time>2026-04-17T10:00:34.138Z</time></trkpt><trkpt lat="43.4740667" lon="11.611435"><ele>231.0</ele><time>2026-04-17T10:00:35.137Z</time></trkpt><trkpt lat="43.4741017" lon="11.6116117"><ele>231.0</ele><time>2026-04-17T10:00:36.138Z</time></trkpt><trkpt lat="43.4741483" lon="11.6117733"><ele>231.0</ele><time>2026-04-17T10:00:37.137Z</time></trkpt><trkpt lat="43.4742" lon="11.6119117"><ele>231.0</ele><time>2026-04-17T10:00:38.138Z</time></trkpt><trkpt lat="43.4742617" lon="11.6120317"><ele>230.0</ele><time>2026-04-17T10:00:39.139Z</time></trkpt><trkpt lat="43.474335" lon="11.61215"><ele>229.0</ele><time>2026-04-17T10:00:40.139Z</time></trkpt><trkpt lat="43.4744183" lon="11.612275"><ele>228.0</ele><time>2026-04-17T10:00:41.136Z</time></trkpt><trkpt lat="43.4745117" lon="11.6123983"><ele>227.0</ele><time>2026-04-17T10:00:42.136Z</time></trkpt><trkpt lat="43.4746267" lon="11.6125133"><ele>227.0</ele><time>2026-04-17T10:00:43.136Z</time></trkpt><trkpt lat="43.474755" lon="11.612635"><ele>227.0</ele><time>2026-04-17T10:00:44.135Z</time></trkpt><trkpt lat="43.4748867" lon="11.6127633"><ele>227.0</ele><time>2026-04-17T10:00:45.137Z</time></trkpt><trkpt lat="43.4750067" lon="11.6128833"><ele>228.25</ele><time>2026-04-17T10:00:46.138Z</time></trkpt><trkpt lat="43.47511" lon="11.6129983"><ele>229.5</ele><time>2026-04-17T10:00:47.136Z</time></trkpt><trkpt lat="43.4752033" lon="11.61311"><ele>230.75</ele><time>2026-04-17T10:00:48.136Z</time></trkpt><trkpt lat="43.475295" lon="11.6132167"><ele>232.0</ele><time>2026-04-17T10:00:49.137Z</time></trkpt><trkpt lat="43.4753867" lon="11.6133083"><ele>232.8</ele><time>2026-04-17T10:00:50.137Z</time></trkpt><trkpt lat="43.4754633" lon="11.6133967"><ele>233.6</ele><time>2026-04-17T10:00:51.138Z</time></trkpt><trkpt lat="43.4755167" lon="11.6134933"><ele>234.40000000000003</ele><time>2026-04-17T10:00:52.137Z</time></trkpt><trkpt lat="43.4755483" lon="11.613605"><ele>235.20000000000002</ele><time>2026-04-17T10:00:53.137Z</time></trkpt><trkpt lat="43.475545" lon="11.6137383"><ele>236.0</ele><time>2026-04-17T10:00:54.137Z</time></trkpt><trkpt lat="43.4755383" lon="11.6138917"><ele>236.0</ele><time>2026-04-17T10:00:55.135Z</time></trkpt><trkpt lat="43.47554" lon="11.6140567"><ele>236.0</ele><time>2026-04-17T10:00:56.136Z</time></trkpt><trkpt lat="43.47556" lon="11.6142317"><ele>236.0</ele><time>2026-04-17T10:00:57.138Z</time></trkpt><trkpt lat="43.4755933" lon="11.614405"><ele>236.0</ele><time>2026-04-17T10:00:58.135Z</time></trkpt><trkpt lat="43.4756267" lon="11.6145667"><ele>238.0</ele><time>2026-04-17T10:00:59.136Z</time></trkpt><trkpt lat="43.47564" lon="11.6147217"><ele>240.0</ele><time>2026-04-17T10:01:00.136Z</time></trkpt><trkpt lat="43.4756283" lon="11.6148767"><ele>242.0</ele><time>2026-04-17T10:01:01.139Z</time></trkpt><trkpt lat="43.4755917" lon="11.6150283"><ele>244.0</ele><time>2026-04-17T10:01:02.134Z</time></trkpt><trkpt lat="43.4755417" lon="11.61518"><ele>244.75</ele><time>2026-04-17T10:01:03.137Z</time></trkpt><trkpt lat="43.47549" lon="11.61533"><ele>245.5</ele><time>2026-04-17T10:01:04.138Z</time></trkpt><trkpt lat="43.4754367" lon="11.615485"><ele>246.25</ele><time>2026-04-17T10:01:05.136Z</time></trkpt><trkpt lat="43.4753817" lon="11.6156383"><ele>247.0</ele><time>2026-04-17T10:01:06.135Z</time></trkpt><trkpt lat="43.47533" lon="11.6157867"><ele>246.99999999999997</ele><time>2026-04-17T10:01:07.136Z</time></trkpt><trkpt lat="43.4752917" lon="11.6159233"><ele>247.0</ele><time>2026-04-17T10:01:08.136Z</time></trkpt><trkpt lat="43.4752717" lon="11.6160367"><ele>247.0</ele><time>2026-04-17T10:01:09.138Z</time></trkpt><trkpt lat="43.4752617" lon="11.61613"><ele>247.0</ele><time>2026-04-17T10:01:10.138Z</time></trkpt><trkpt lat="43.47527" lon="11.6162267"><ele>246.99999999999997</ele><time>2026-04-17T10:01:12.138Z</time></trkpt><trkpt lat="43.4753517" lon="11.6162917"><ele>247.0</ele><time>2026-04-17T10:01:15.139Z</time></trkpt><trkpt lat="43.4754733" lon="11.6162983"><ele>247.5</ele><time>2026-04-17T10:01:17.136Z</time></trkpt><trkpt lat="43.4755833" lon="11.6162583"><ele>248.0</ele><time>2026-04-17T10:01:18.137Z</time></trkpt><trkpt lat="43.47569" lon="11.61623"><ele>248.5</ele><time>2026-04-17T10:01:19.139Z</time></trkpt><trkpt lat="43.475805" lon="11.6161983"><ele>249.0</ele><time>2026-04-17T10:01:20.136Z</time></trkpt><trkpt lat="43.4759217" lon="11.616175"><ele>249.39999999999998</ele><time>2026-04-17T10:01:21.136Z</time></trkpt><trkpt lat="43.4760333" lon="11.61615"><ele>249.79999999999998</ele><time>2026-04-17T10:01:22.137Z</time></trkpt><trkpt lat="43.4761383" lon="11.6161283"><ele>250.20000000000002</ele><time>2026-04-17T10:01:23.136Z</time></trkpt><trkpt lat="43.4762467" lon="11.6161083"><ele>250.60000000000002</ele><time>2026-04-17T10:01:24.136Z</time></trkpt><trkpt lat="43.4763617" lon="11.61609"><ele>251.0</ele><time>2026-04-17T10:01:25.137Z</time></trkpt><trkpt lat="43.4764717" lon="11.616075"><ele>251.0</ele><time>2026-04-17T10:01:26.137Z</time></trkpt><trkpt lat="43.4765867" lon="11.6160583"><ele>251.0</ele><time>2026-04-17T10:01:27.137Z</time></trkpt><trkpt lat="43.4767017" lon="11.6160433"><ele>251.0</ele><time>2026-04-17T10:01:28.136Z</time></trkpt><trkpt lat="43.476815" lon="11.6160267"><ele>251.0</ele><time>2026-04-17T10:01:29.138Z</time></trkpt><trkpt lat="43.47693" lon="11.616005"><ele>251.0</ele><time>2026-04-17T10:01:30.135Z</time></trkpt><trkpt lat="43.4770483" lon="11.615985"><ele>251.0</ele><time>2026-04-17T10:01:31.136Z</time></trkpt><trkpt lat="43.4771717" lon="11.6159667"><ele>251.0</ele><time>2026-04-17T10:01:32.137Z</time></trkpt><trkpt lat="43.47729" lon="11.6159467"><ele>251.0</ele><time>2026-04-17T10:01:33.138Z</time></trkpt><trkpt lat="43.477405" lon="11.6159233"><ele>251.0</ele><time>2026-04-17T10:01:34.136Z</time></trkpt><trkpt lat="43.47751" lon="11.6158917"><ele>251.00000000000003</ele><time>2026-04-17T10:01:35.137Z</time></trkpt><trkpt lat="43.477615" lon="11.6158467"><ele>251.00000000000003</ele><time>2026-04-17T10:01:36.137Z</time></trkpt><trkpt lat="43.4777183" lon="11.6157883"><ele>251.0</ele><time>2026-04-17T10:01:37.137Z</time></trkpt><trkpt lat="43.4778167" lon="11.6157133"><ele>251.0</ele><time>2026-04-17T10:01:38.135Z</time></trkpt><trkpt lat="43.4779017" lon="11.61561"><ele>250.5</ele><time>2026-04-17T10:01:39.137Z</time></trkpt><trkpt lat="43.4779633" lon="11.61547"><ele>250.0</ele><time>2026-04-17T10:01:40.136Z</time></trkpt><trkpt lat="43.4780083" lon="11.6153133"><ele>249.5</ele><time>2026-04-17T10:01:41.136Z</time></trkpt><trkpt lat="43.4780433" lon="11.6151567"><ele>249.0</ele><time>2026-04-17T10:01:42.137Z</time></trkpt><trkpt lat="43.478085" lon="11.6150183"><ele>248.83333333333334</ele><time>2026-04-17T10:01:43.137Z</time></trkpt><trkpt lat="43.478135" lon="11.6149017"><ele>248.66666666666669</ele><time>2026-04-17T10:01:44.137Z</time></trkpt><trkpt lat="43.4781967" lon="11.61481"><ele>248.5</ele><time>2026-04-17T10:01:45.138Z</time></trkpt><trkpt lat="43.478275" lon="11.6147533"><ele>248.33333333333334</ele><time>2026-04-17T10:01:46.136Z</time></trkpt><trkpt lat="43.478355" lon="11.614745"><ele>248.16666666666669</ele><time>2026-04-17T10:01:47.136Z</time></trkpt><trkpt lat="43.4784267" lon="11.6147817"><ele>248.0</ele><time>2026-04-17T10:01:48.138Z</time></trkpt><trkpt lat="43.4784833" lon="11.614845"><ele>248.0</ele><time>2026-04-17T10:01:49.136Z</time></trkpt><trkpt lat="43.4785283" lon="11.6149817"><ele>248.0</ele><time>2026-04-17T10:01:50.137Z</time></trkpt><trkpt lat="43.4785583" lon="11.6151333"><ele>248.0</ele><time>2026-04-17T10:01:51.138Z</time></trkpt><trkpt lat="43.4785783" lon="11.6152867"><ele>248.0</ele><time>2026-04-17T10:01:52.137Z</time></trkpt><trkpt lat="43.4786133" lon="11.6154167"><ele>248.0</ele><time>2026-04-17T10:01:53.137Z</time></trkpt><trkpt lat="43.4786833" lon="11.615535"><ele>246.2</ele><time>2026-04-17T10:01:54.137Z</time></trkpt><trkpt lat="43.4787717" lon="11.6156467"><ele>244.4</ele><time>2026-04-17T10:01:55.136Z</time></trkpt><trkpt lat="43.4788667" lon="11.61573"><ele>242.59999999999997</ele><time>2026-04-17T10:01:56.136Z</time></trkpt><trkpt lat="43.47896" lon="11.615805"><ele>240.79999999999998</ele><time>2026-04-17T10:01:57.137Z</time></trkpt><trkpt lat="43.4790467" lon="11.615875"><ele>239.0</ele><time>2026-04-17T10:01:58.136Z</time></trkpt><trkpt lat="43.4791283" lon="11.6159367"><ele>239.00000000000003</ele><time>2026-04-17T10:01:59.137Z</time></trkpt><trkpt lat="43.4792067" lon="11.615995"><ele>239.0</ele><time>2026-04-17T10:02:00.135Z</time></trkpt><trkpt lat="43.4792817" lon="11.6160733"><ele>239.0</ele><time>2026-04-17T10:02:01.137Z</time></trkpt><trkpt lat="43.4793233" lon="11.6161533"><ele>239.0</ele><time>2026-04-17T10:02:02.136Z</time></trkpt><trkpt lat="43.47933" lon="11.61627"><ele>239.00000000000003</ele><time>2026-04-17T10:02:03.139Z</time></trkpt><trkpt lat="43.47929" lon="11.6163933"><ele>239.0</ele><time>2026-04-17T10:02:04.138Z</time></trkpt><trkpt lat="43.4792583" lon="11.6165133"><ele>239.50000000000003</ele><time>2026-04-17T10:02:05.136Z</time></trkpt><trkpt lat="43.4792317" lon="11.61663"><ele>240.0</ele><time>2026-04-17T10:02:06.138Z</time></trkpt><trkpt lat="43.4791967" lon="11.6167383"><ele>240.5</ele><time>2026-04-17T10:02:07.137Z</time></trkpt><trkpt lat="43.4791433" lon="11.6168517"><ele>241.0</ele><time>2026-04-17T10:02:08.136Z</time></trkpt><trkpt lat="43.4791033" lon="11.61695"><ele>241.50000000000003</ele><time>2026-04-17T10:02:09.137Z</time></trkpt><trkpt lat="43.4790517" lon="11.6170417"><ele>242.0</ele><time>2026-04-17T10:02:10.136Z</time></trkpt><trkpt lat="43.4789883" lon="11.6171283"><ele>242.00000000000003</ele><time>2026-04-17T10:02:11.137Z</time></trkpt><trkpt lat="43.4789233" lon="11.617215"><ele>242.0</ele><time>2026-04-17T10:02:12.137Z</time></trkpt><trkpt lat="43.4788617" lon="11.6173"><ele>242.0</ele><time>2026-04-17T10:02:13.136Z</time></trkpt><trkpt lat="43.478805" lon="11.61738"><ele>242.0</ele><time>2026-04-17T10:02:14.139Z</time></trkpt><trkpt lat="43.47876" lon="11.617455"><ele>242.00000000000003</ele><time>2026-04-17T10:02:15.137Z</time></trkpt><trkpt lat="43.4787133" lon="11.6175817"><ele>242.0</ele><time>2026-04-17T10:02:17.137Z</time></trkpt><trkpt lat="43.4787467" lon="11.6176683"><ele>240.66666666666669</ele><time>2026-04-17T10:02:18.138Z</time></trkpt><trkpt lat="43.4787833" lon="11.61776"><ele>239.33333333333334</ele><time>2026-04-17T10:02:19.138Z</time></trkpt><trkpt lat="43.4788283" lon="11.617875"><ele>238.0</ele><time>2026-04-17T10:02:20.137Z</time></trkpt><trkpt lat="43.478875" lon="11.61797"><ele>236.66666666666669</ele><time>2026-04-17T10:02:21.137Z</time></trkpt><trkpt lat="43.47892" lon="11.6180583"><ele>235.33333333333334</ele><time>2026-04-17T10:02:22.137Z</time></trkpt><trkpt lat="43.4789867" lon="11.6181417"><ele>234.0</ele><time>2026-04-17T10:02:23.137Z</time></trkpt><trkpt lat="43.4790467" lon="11.6182033"><ele>233.0</ele><time>2026-04-17T10:02:24.136Z</time></trkpt><trkpt lat="43.4791067" lon="11.6182417"><ele>233.0</ele><time>2026-04-17T10:02:25.136Z</time></trkpt><trkpt lat="43.479195" lon="11.6183"><ele>233.0</ele><time>2026-04-17T10:02:27.137Z</time></trkpt><trkpt lat="43.4792783" lon="11.6183667"><ele>233.0</ele><time>2026-04-17T10:03:33.139Z</time></trkpt></trkseg></trk></gpx>